<?xml version="1.0" encoding="UTF-8" standalone="no" ?>
<gpx xmlns="http://www.topografix.com/GPX/1/1" xmlns:xsi="http://www.w3.org/2001/XMLSchema-instance" xsi:schemaLocation="http://www.topografix.com/GPX/1/1 http://www.topografix.com/GPX/1/1/gpx.xsd" version="1.1" creator="VisuGPX - https://www.visugpx.com">
  <metadata>
    <name>BoisAglans</name>
  </metadata>
  <trk>
    <name><![CDATA[2020-03-17-08-38-17 on AllTrails]]></name>
    <trkseg>
      <trkpt lat="47.22949" lon="6.04794">
        <ele>296</ele>
        <time>2020-03-17T07:38:17Z</time>
      </trkpt>
      <trkpt lat="47.22949" lon="6.04788">
        <ele>296</ele>
        <time>2020-03-17T07:38:26Z</time>
      </trkpt>
      <trkpt lat="47.22948" lon="6.04784">
        <ele>296</ele>
        <time>2020-03-17T07:38:27Z</time>
      </trkpt>
      <trkpt lat="47.22948" lon="6.0478">
        <ele>296</ele>
        <time>2020-03-17T07:38:28Z</time>
      </trkpt>
      <trkpt lat="47.22949" lon="6.0477">
        <ele>297</ele>
        <time>2020-03-17T07:38:30Z</time>
      </trkpt>
      <trkpt lat="47.22948" lon="6.0476">
        <ele>297</ele>
        <time>2020-03-17T07:38:32Z</time>
      </trkpt>
      <trkpt lat="47.22946" lon="6.04754">
        <ele>297</ele>
        <time>2020-03-17T07:38:33Z</time>
      </trkpt>
      <trkpt lat="47.22939" lon="6.04739">
        <ele>294</ele>
        <time>2020-03-17T07:38:35Z</time>
      </trkpt>
      <trkpt lat="47.22932" lon="6.04719">
        <ele>289</ele>
        <time>2020-03-17T07:38:37Z</time>
      </trkpt>
      <trkpt lat="47.22928" lon="6.04707">
        <ele>287</ele>
        <time>2020-03-17T07:38:38Z</time>
      </trkpt>
      <trkpt lat="47.22923" lon="6.04695">
        <ele>283</ele>
        <time>2020-03-17T07:38:39Z</time>
      </trkpt>
      <trkpt lat="47.22918" lon="6.04681">
        <ele>281</ele>
        <time>2020-03-17T07:38:40Z</time>
      </trkpt>
      <trkpt lat="47.22912" lon="6.04668">
        <ele>278</ele>
        <time>2020-03-17T07:38:41Z</time>
      </trkpt>
      <trkpt lat="47.22907" lon="6.04654">
        <ele>276</ele>
        <time>2020-03-17T07:38:42Z</time>
      </trkpt>
      <trkpt lat="47.22902" lon="6.04638">
        <ele>274</ele>
        <time>2020-03-17T07:38:43Z</time>
      </trkpt>
      <trkpt lat="47.22898" lon="6.04622">
        <ele>273</ele>
        <time>2020-03-17T07:38:44Z</time>
      </trkpt>
      <trkpt lat="47.22897" lon="6.04604">
        <ele>272</ele>
        <time>2020-03-17T07:38:45Z</time>
      </trkpt>
      <trkpt lat="47.22895" lon="6.04587">
        <ele>271</ele>
        <time>2020-03-17T07:38:46Z</time>
      </trkpt>
      <trkpt lat="47.22895" lon="6.04571">
        <ele>271</ele>
        <time>2020-03-17T07:38:47Z</time>
      </trkpt>
      <trkpt lat="47.22893" lon="6.04556">
        <ele>270</ele>
        <time>2020-03-17T07:38:48Z</time>
      </trkpt>
      <trkpt lat="47.22892" lon="6.04541">
        <ele>268</ele>
        <time>2020-03-17T07:38:49Z</time>
      </trkpt>
      <trkpt lat="47.22891" lon="6.04526">
        <ele>266</ele>
        <time>2020-03-17T07:38:50Z</time>
      </trkpt>
      <trkpt lat="47.22892" lon="6.04511">
        <ele>265</ele>
        <time>2020-03-17T07:38:51Z</time>
      </trkpt>
      <trkpt lat="47.22893" lon="6.04497">
        <ele>265</ele>
        <time>2020-03-17T07:38:52Z</time>
      </trkpt>
      <trkpt lat="47.22895" lon="6.04485">
        <ele>265</ele>
        <time>2020-03-17T07:38:53Z</time>
      </trkpt>
      <trkpt lat="47.22897" lon="6.04465">
        <ele>266</ele>
        <time>2020-03-17T07:38:55Z</time>
      </trkpt>
      <trkpt lat="47.22898" lon="6.04456">
        <ele>266</ele>
        <time>2020-03-17T07:38:56Z</time>
      </trkpt>
      <trkpt lat="47.22896" lon="6.04435">
        <ele>264</ele>
        <time>2020-03-17T07:38:58Z</time>
      </trkpt>
      <trkpt lat="47.22893" lon="6.04412">
        <ele>261</ele>
        <time>2020-03-17T07:39:00Z</time>
      </trkpt>
      <trkpt lat="47.2289" lon="6.04385">
        <ele>257</ele>
        <time>2020-03-17T07:39:02Z</time>
      </trkpt>
      <trkpt lat="47.22889" lon="6.04355">
        <ele>253</ele>
        <time>2020-03-17T07:39:04Z</time>
      </trkpt>
      <trkpt lat="47.2289" lon="6.04322">
        <ele>252</ele>
        <time>2020-03-17T07:39:06Z</time>
      </trkpt>
      <trkpt lat="47.22892" lon="6.04306">
        <ele>252</ele>
        <time>2020-03-17T07:39:07Z</time>
      </trkpt>
      <trkpt lat="47.22896" lon="6.04291">
        <ele>253</ele>
        <time>2020-03-17T07:39:08Z</time>
      </trkpt>
      <trkpt lat="47.229" lon="6.04276">
        <ele>254</ele>
        <time>2020-03-17T07:39:09Z</time>
      </trkpt>
      <trkpt lat="47.2291" lon="6.04252">
        <ele>253</ele>
        <time>2020-03-17T07:39:11Z</time>
      </trkpt>
      <trkpt lat="47.22915" lon="6.04241">
        <ele>253</ele>
        <time>2020-03-17T07:39:12Z</time>
      </trkpt>
      <trkpt lat="47.2292" lon="6.04231">
        <ele>253</ele>
        <time>2020-03-17T07:39:13Z</time>
      </trkpt>
      <trkpt lat="47.22926" lon="6.04215">
        <ele>252</ele>
        <time>2020-03-17T07:39:15Z</time>
      </trkpt>
      <trkpt lat="47.22925" lon="6.04203">
        <ele>251</ele>
        <time>2020-03-17T07:39:17Z</time>
      </trkpt>
      <trkpt lat="47.22922" lon="6.042">
        <ele>251</ele>
        <time>2020-03-17T07:39:18Z</time>
      </trkpt>
      <trkpt lat="47.22918" lon="6.04202">
        <ele>251</ele>
        <time>2020-03-17T07:39:19Z</time>
      </trkpt>
      <trkpt lat="47.22916" lon="6.04208">
        <ele>251</ele>
        <time>2020-03-17T07:39:20Z</time>
      </trkpt>
      <trkpt lat="47.22913" lon="6.04218">
        <ele>252</ele>
        <time>2020-03-17T07:39:22Z</time>
      </trkpt>
      <trkpt lat="47.2291" lon="6.0422">
        <ele>252</ele>
        <time>2020-03-17T07:39:23Z</time>
      </trkpt>
      <trkpt lat="47.22906" lon="6.04212">
        <ele>251</ele>
        <time>2020-03-17T07:39:25Z</time>
      </trkpt>
      <trkpt lat="47.22905" lon="6.04197">
        <ele>250</ele>
        <time>2020-03-17T07:39:28Z</time>
      </trkpt>
      <trkpt lat="47.22904" lon="6.04192">
        <ele>250</ele>
        <time>2020-03-17T07:39:29Z</time>
      </trkpt>
      <trkpt lat="47.22899" lon="6.04183">
        <ele>250</ele>
        <time>2020-03-17T07:39:31Z</time>
      </trkpt>
      <trkpt lat="47.22896" lon="6.04178">
        <ele>249</ele>
        <time>2020-03-17T07:39:32Z</time>
      </trkpt>
      <trkpt lat="47.22883" lon="6.04146">
        <ele>250</ele>
        <time>2020-03-17T07:39:37Z</time>
      </trkpt>
      <trkpt lat="47.22867" lon="6.04111">
        <ele>252</ele>
        <time>2020-03-17T07:39:43Z</time>
      </trkpt>
      <trkpt lat="47.22861" lon="6.04099">
        <ele>252</ele>
        <time>2020-03-17T07:39:45Z</time>
      </trkpt>
      <trkpt lat="47.22856" lon="6.04082">
        <ele>251</ele>
        <time>2020-03-17T07:39:48Z</time>
      </trkpt>
      <trkpt lat="47.2285" lon="6.04067">
        <ele>251</ele>
        <time>2020-03-17T07:39:51Z</time>
      </trkpt>
      <trkpt lat="47.22841" lon="6.04047">
        <ele>250</ele>
        <time>2020-03-17T07:39:56Z</time>
      </trkpt>
      <trkpt lat="47.22832" lon="6.0403">
        <ele>249</ele>
        <time>2020-03-17T07:40:01Z</time>
      </trkpt>
      <trkpt lat="47.22826" lon="6.04021">
        <ele>248</ele>
        <time>2020-03-17T07:40:04Z</time>
      </trkpt>
      <trkpt lat="47.22822" lon="6.04011">
        <ele>247</ele>
        <time>2020-03-17T07:40:07Z</time>
      </trkpt>
      <trkpt lat="47.22812" lon="6.03987">
        <ele>246</ele>
        <time>2020-03-17T07:40:13Z</time>
      </trkpt>
      <trkpt lat="47.22807" lon="6.0398">
        <ele>246</ele>
        <time>2020-03-17T07:40:15Z</time>
      </trkpt>
      <trkpt lat="47.22805" lon="6.03976">
        <ele>247</ele>
        <time>2020-03-17T07:40:16Z</time>
      </trkpt>
      <trkpt lat="47.22795" lon="6.03952">
        <ele>250</ele>
        <time>2020-03-17T07:40:22Z</time>
      </trkpt>
      <trkpt lat="47.22786" lon="6.03933">
        <ele>253</ele>
        <time>2020-03-17T07:40:27Z</time>
      </trkpt>
      <trkpt lat="47.22778" lon="6.03918">
        <ele>254</ele>
        <time>2020-03-17T07:40:31Z</time>
      </trkpt>
      <trkpt lat="47.22767" lon="6.03894">
        <ele>258</ele>
        <time>2020-03-17T07:40:38Z</time>
      </trkpt>
      <trkpt lat="47.22766" lon="6.03888">
        <ele>259</ele>
        <time>2020-03-17T07:40:40Z</time>
      </trkpt>
      <trkpt lat="47.22768" lon="6.03883">
        <ele>260</ele>
        <time>2020-03-17T07:40:42Z</time>
      </trkpt>
      <trkpt lat="47.22777" lon="6.03868">
        <ele>262</ele>
        <time>2020-03-17T07:40:47Z</time>
      </trkpt>
      <trkpt lat="47.22781" lon="6.03863">
        <ele>263</ele>
        <time>2020-03-17T07:40:49Z</time>
      </trkpt>
      <trkpt lat="47.22783" lon="6.03861">
        <ele>264</ele>
        <time>2020-03-17T07:40:50Z</time>
      </trkpt>
      <trkpt lat="47.22787" lon="6.03857">
        <ele>265</ele>
        <time>2020-03-17T07:40:52Z</time>
      </trkpt>
      <trkpt lat="47.22794" lon="6.03852">
        <ele>267</ele>
        <time>2020-03-17T07:40:55Z</time>
      </trkpt>
      <trkpt lat="47.228" lon="6.0385">
        <ele>267</ele>
        <time>2020-03-17T07:40:57Z</time>
      </trkpt>
      <trkpt lat="47.22809" lon="6.03845">
        <ele>269</ele>
        <time>2020-03-17T07:41:01Z</time>
      </trkpt>
      <trkpt lat="47.22816" lon="6.03843">
        <ele>270</ele>
        <time>2020-03-17T07:41:04Z</time>
      </trkpt>
      <trkpt lat="47.22818" lon="6.03842">
        <ele>270</ele>
        <time>2020-03-17T07:41:05Z</time>
      </trkpt>
      <trkpt lat="47.22823" lon="6.03835">
        <ele>272</ele>
        <time>2020-03-17T07:41:09Z</time>
      </trkpt>
      <trkpt lat="47.22822" lon="6.03832">
        <ele>273</ele>
        <time>2020-03-17T07:41:10Z</time>
      </trkpt>
      <trkpt lat="47.22813" lon="6.03827">
        <ele>275</ele>
        <time>2020-03-17T07:41:14Z</time>
      </trkpt>
      <trkpt lat="47.22811" lon="6.03826">
        <ele>275</ele>
        <time>2020-03-17T07:41:15Z</time>
      </trkpt>
      <trkpt lat="47.22798" lon="6.03828">
        <ele>275</ele>
        <time>2020-03-17T07:41:20Z</time>
      </trkpt>
      <trkpt lat="47.2278" lon="6.03836">
        <ele>272</ele>
        <time>2020-03-17T07:41:28Z</time>
      </trkpt>
      <trkpt lat="47.22764" lon="6.03856">
        <ele>270</ele>
        <time>2020-03-17T07:41:35Z</time>
      </trkpt>
      <trkpt lat="47.22752" lon="6.03869">
        <ele>269</ele>
        <time>2020-03-17T07:41:41Z</time>
      </trkpt>
      <trkpt lat="47.22751" lon="6.0386">
        <ele>273</ele>
        <time>2020-03-17T07:41:45Z</time>
      </trkpt>
      <trkpt lat="47.22754" lon="6.03853">
        <ele>274</ele>
        <time>2020-03-17T07:41:49Z</time>
      </trkpt>
      <trkpt lat="47.22756" lon="6.03849">
        <ele>275</ele>
        <time>2020-03-17T07:41:51Z</time>
      </trkpt>
      <trkpt lat="47.22758" lon="6.03845">
        <ele>276</ele>
        <time>2020-03-17T07:41:53Z</time>
      </trkpt>
      <trkpt lat="47.22758" lon="6.03843">
        <ele>277</ele>
        <time>2020-03-17T07:41:54Z</time>
      </trkpt>
      <trkpt lat="47.22761" lon="6.0384">
        <ele>277</ele>
        <time>2020-03-17T07:41:56Z</time>
      </trkpt>
      <trkpt lat="47.22763" lon="6.03837">
        <ele>277</ele>
        <time>2020-03-17T07:41:58Z</time>
      </trkpt>
      <trkpt lat="47.22765" lon="6.03835">
        <ele>278</ele>
        <time>2020-03-17T07:41:59Z</time>
      </trkpt>
      <trkpt lat="47.22767" lon="6.03832">
        <ele>278</ele>
        <time>2020-03-17T07:42:01Z</time>
      </trkpt>
      <trkpt lat="47.22769" lon="6.03829">
        <ele>278</ele>
        <time>2020-03-17T07:42:03Z</time>
      </trkpt>
      <trkpt lat="47.22773" lon="6.03824">
        <ele>279</ele>
        <time>2020-03-17T07:42:06Z</time>
      </trkpt>
      <trkpt lat="47.22776" lon="6.03817">
        <ele>280</ele>
        <time>2020-03-17T07:42:09Z</time>
      </trkpt>
      <trkpt lat="47.22777" lon="6.03816">
        <ele>280</ele>
        <time>2020-03-17T07:42:10Z</time>
      </trkpt>
      <trkpt lat="47.22779" lon="6.03813">
        <ele>281</ele>
        <time>2020-03-17T07:42:12Z</time>
      </trkpt>
      <trkpt lat="47.22782" lon="6.03809">
        <ele>282</ele>
        <time>2020-03-17T07:42:14Z</time>
      </trkpt>
      <trkpt lat="47.22788" lon="6.03798">
        <ele>285</ele>
        <time>2020-03-17T07:42:19Z</time>
      </trkpt>
      <trkpt lat="47.22788" lon="6.03787">
        <ele>288</ele>
        <time>2020-03-17T07:42:24Z</time>
      </trkpt>
      <trkpt lat="47.22788" lon="6.03786">
        <ele>288</ele>
        <time>2020-03-17T07:42:25Z</time>
      </trkpt>
      <trkpt lat="47.22784" lon="6.03781">
        <ele>290</ele>
        <time>2020-03-17T07:42:30Z</time>
      </trkpt>
      <trkpt lat="47.22773" lon="6.03779">
        <ele>291</ele>
        <time>2020-03-17T07:42:37Z</time>
      </trkpt>
      <trkpt lat="47.22768" lon="6.0378">
        <ele>292</ele>
        <time>2020-03-17T07:42:40Z</time>
      </trkpt>
      <trkpt lat="47.22762" lon="6.03782">
        <ele>293</ele>
        <time>2020-03-17T07:42:44Z</time>
      </trkpt>
      <trkpt lat="47.22758" lon="6.03785">
        <ele>293</ele>
        <time>2020-03-17T07:42:47Z</time>
      </trkpt>
      <trkpt lat="47.22754" lon="6.03789">
        <ele>293</ele>
        <time>2020-03-17T07:42:50Z</time>
      </trkpt>
      <trkpt lat="47.22748" lon="6.03794">
        <ele>294</ele>
        <time>2020-03-17T07:42:54Z</time>
      </trkpt>
      <trkpt lat="47.22746" lon="6.03795">
        <ele>295</ele>
        <time>2020-03-17T07:42:55Z</time>
      </trkpt>
      <trkpt lat="47.22743" lon="6.03796">
        <ele>297</ele>
        <time>2020-03-17T07:42:57Z</time>
      </trkpt>
      <trkpt lat="47.2274" lon="6.03794">
        <ele>299</ele>
        <time>2020-03-17T07:43:00Z</time>
      </trkpt>
      <trkpt lat="47.22738" lon="6.03792">
        <ele>301</ele>
        <time>2020-03-17T07:43:02Z</time>
      </trkpt>
      <trkpt lat="47.22734" lon="6.03785">
        <ele>304</ele>
        <time>2020-03-17T07:43:06Z</time>
      </trkpt>
      <trkpt lat="47.22764" lon="6.0375">
        <ele>300</ele>
        <time>2020-03-17T07:43:36Z</time>
      </trkpt>
      <trkpt lat="47.22765" lon="6.03746">
        <ele>301</ele>
        <time>2020-03-17T07:43:38Z</time>
      </trkpt>
      <trkpt lat="47.22764" lon="6.03739">
        <ele>303</ele>
        <time>2020-03-17T07:43:42Z</time>
      </trkpt>
      <trkpt lat="47.22764" lon="6.03737">
        <ele>304</ele>
        <time>2020-03-17T07:43:43Z</time>
      </trkpt>
      <trkpt lat="47.22762" lon="6.03735">
        <ele>304</ele>
        <time>2020-03-17T07:43:45Z</time>
      </trkpt>
      <trkpt lat="47.2276" lon="6.03734">
        <ele>305</ele>
        <time>2020-03-17T07:43:47Z</time>
      </trkpt>
      <trkpt lat="47.22758" lon="6.03734">
        <ele>305</ele>
        <time>2020-03-17T07:43:48Z</time>
      </trkpt>
      <trkpt lat="47.22755" lon="6.03733">
        <ele>306</ele>
        <time>2020-03-17T07:43:50Z</time>
      </trkpt>
      <trkpt lat="47.22754" lon="6.03735">
        <ele>305</ele>
        <time>2020-03-17T07:43:52Z</time>
      </trkpt>
      <trkpt lat="47.22753" lon="6.03736">
        <ele>305</ele>
        <time>2020-03-17T07:43:53Z</time>
      </trkpt>
      <trkpt lat="47.22747" lon="6.03738">
        <ele>306</ele>
        <time>2020-03-17T07:43:57Z</time>
      </trkpt>
      <trkpt lat="47.22743" lon="6.0374">
        <ele>307</ele>
        <time>2020-03-17T07:43:59Z</time>
      </trkpt>
      <trkpt lat="47.22729" lon="6.0375">
        <ele>311</ele>
        <time>2020-03-17T07:44:10Z</time>
      </trkpt>
      <trkpt lat="47.22727" lon="6.03751">
        <ele>312</ele>
        <time>2020-03-17T07:44:12Z</time>
      </trkpt>
      <trkpt lat="47.22726" lon="6.0375">
        <ele>313</ele>
        <time>2020-03-17T07:44:13Z</time>
      </trkpt>
      <trkpt lat="47.22724" lon="6.03749">
        <ele>314</ele>
        <time>2020-03-17T07:44:15Z</time>
      </trkpt>
      <trkpt lat="47.22721" lon="6.03748">
        <ele>315</ele>
        <time>2020-03-17T07:44:17Z</time>
      </trkpt>
      <trkpt lat="47.22719" lon="6.03745">
        <ele>317</ele>
        <time>2020-03-17T07:44:19Z</time>
      </trkpt>
      <trkpt lat="47.22718" lon="6.03735">
        <ele>318</ele>
        <time>2020-03-17T07:44:24Z</time>
      </trkpt>
      <trkpt lat="47.22719" lon="6.03733">
        <ele>317</ele>
        <time>2020-03-17T07:44:25Z</time>
      </trkpt>
      <trkpt lat="47.22721" lon="6.0373">
        <ele>316</ele>
        <time>2020-03-17T07:44:27Z</time>
      </trkpt>
      <trkpt lat="47.22725" lon="6.03728">
        <ele>315</ele>
        <time>2020-03-17T07:44:30Z</time>
      </trkpt>
      <trkpt lat="47.22727" lon="6.03725">
        <ele>315</ele>
        <time>2020-03-17T07:44:32Z</time>
      </trkpt>
      <trkpt lat="47.22729" lon="6.03723">
        <ele>314</ele>
        <time>2020-03-17T07:44:33Z</time>
      </trkpt>
      <trkpt lat="47.22731" lon="6.03722">
        <ele>314</ele>
        <time>2020-03-17T07:44:35Z</time>
      </trkpt>
      <trkpt lat="47.22734" lon="6.0372">
        <ele>313</ele>
        <time>2020-03-17T07:44:37Z</time>
      </trkpt>
      <trkpt lat="47.22737" lon="6.03716">
        <ele>313</ele>
        <time>2020-03-17T07:44:39Z</time>
      </trkpt>
      <trkpt lat="47.22738" lon="6.03713">
        <ele>313</ele>
        <time>2020-03-17T07:44:40Z</time>
      </trkpt>
      <trkpt lat="47.22741" lon="6.03708">
        <ele>314</ele>
        <time>2020-03-17T07:44:43Z</time>
      </trkpt>
      <trkpt lat="47.22742" lon="6.03702">
        <ele>315</ele>
        <time>2020-03-17T07:44:46Z</time>
      </trkpt>
      <trkpt lat="47.22746" lon="6.03688">
        <ele>317</ele>
        <time>2020-03-17T07:44:53Z</time>
      </trkpt>
      <trkpt lat="47.22746" lon="6.03686">
        <ele>318</ele>
        <time>2020-03-17T07:44:54Z</time>
      </trkpt>
      <trkpt lat="47.22745" lon="6.03682">
        <ele>319</ele>
        <time>2020-03-17T07:44:56Z</time>
      </trkpt>
      <trkpt lat="47.22745" lon="6.0368">
        <ele>319</ele>
        <time>2020-03-17T07:44:57Z</time>
      </trkpt>
      <trkpt lat="47.22743" lon="6.03677">
        <ele>320</ele>
        <time>2020-03-17T07:44:59Z</time>
      </trkpt>
      <trkpt lat="47.2274" lon="6.03673">
        <ele>320</ele>
        <time>2020-03-17T07:45:02Z</time>
      </trkpt>
      <trkpt lat="47.22736" lon="6.03669">
        <ele>320</ele>
        <time>2020-03-17T07:45:05Z</time>
      </trkpt>
      <trkpt lat="47.22735" lon="6.03669">
        <ele>319</ele>
        <time>2020-03-17T07:45:06Z</time>
      </trkpt>
      <trkpt lat="47.22732" lon="6.03667">
        <ele>319</ele>
        <time>2020-03-17T07:45:08Z</time>
      </trkpt>
      <trkpt lat="47.22725" lon="6.03663">
        <ele>318</ele>
        <time>2020-03-17T07:45:13Z</time>
      </trkpt>
      <trkpt lat="47.22715" lon="6.03656">
        <ele>320</ele>
        <time>2020-03-17T07:45:20Z</time>
      </trkpt>
      <trkpt lat="47.22713" lon="6.03654">
        <ele>320</ele>
        <time>2020-03-17T07:45:21Z</time>
      </trkpt>
      <trkpt lat="47.22699" lon="6.03642">
        <ele>321</ele>
        <time>2020-03-17T07:45:30Z</time>
      </trkpt>
      <trkpt lat="47.22688" lon="6.03632">
        <ele>322</ele>
        <time>2020-03-17T07:45:38Z</time>
      </trkpt>
      <trkpt lat="47.22686" lon="6.0363">
        <ele>323</ele>
        <time>2020-03-17T07:45:40Z</time>
      </trkpt>
      <trkpt lat="47.22685" lon="6.03628">
        <ele>323</ele>
        <time>2020-03-17T07:45:41Z</time>
      </trkpt>
      <trkpt lat="47.22681" lon="6.03623">
        <ele>324</ele>
        <time>2020-03-17T07:45:44Z</time>
      </trkpt>
      <trkpt lat="47.2268" lon="6.03621">
        <ele>324</ele>
        <time>2020-03-17T07:45:45Z</time>
      </trkpt>
      <trkpt lat="47.22669" lon="6.03608">
        <ele>325</ele>
        <time>2020-03-17T07:45:53Z</time>
      </trkpt>
      <trkpt lat="47.22657" lon="6.03595">
        <ele>323</ele>
        <time>2020-03-17T07:46:01Z</time>
      </trkpt>
      <trkpt lat="47.22648" lon="6.03588">
        <ele>322</ele>
        <time>2020-03-17T07:46:08Z</time>
      </trkpt>
      <trkpt lat="47.22633" lon="6.03583">
        <ele>322</ele>
        <time>2020-03-17T07:46:17Z</time>
      </trkpt>
      <trkpt lat="47.22629" lon="6.03582">
        <ele>323</ele>
        <time>2020-03-17T07:46:19Z</time>
      </trkpt>
      <trkpt lat="47.22619" lon="6.03582">
        <ele>324</ele>
        <time>2020-03-17T07:46:25Z</time>
      </trkpt>
      <trkpt lat="47.22614" lon="6.03582">
        <ele>325</ele>
        <time>2020-03-17T07:46:28Z</time>
      </trkpt>
      <trkpt lat="47.22606" lon="6.03581">
        <ele>325</ele>
        <time>2020-03-17T07:46:32Z</time>
      </trkpt>
      <trkpt lat="47.22594" lon="6.03575">
        <ele>326</ele>
        <time>2020-03-17T07:46:39Z</time>
      </trkpt>
      <trkpt lat="47.22589" lon="6.03574">
        <ele>326</ele>
        <time>2020-03-17T07:46:42Z</time>
      </trkpt>
      <trkpt lat="47.22581" lon="6.03572">
        <ele>326</ele>
        <time>2020-03-17T07:46:47Z</time>
      </trkpt>
      <trkpt lat="47.22575" lon="6.0357">
        <ele>327</ele>
        <time>2020-03-17T07:46:50Z</time>
      </trkpt>
      <trkpt lat="47.22571" lon="6.03569">
        <ele>327</ele>
        <time>2020-03-17T07:46:52Z</time>
      </trkpt>
      <trkpt lat="47.22568" lon="6.03567">
        <ele>327</ele>
        <time>2020-03-17T07:46:54Z</time>
      </trkpt>
      <trkpt lat="47.22566" lon="6.03566">
        <ele>327</ele>
        <time>2020-03-17T07:46:55Z</time>
      </trkpt>
      <trkpt lat="47.22561" lon="6.03564">
        <ele>327</ele>
        <time>2020-03-17T07:46:58Z</time>
      </trkpt>
      <trkpt lat="47.22554" lon="6.03562">
        <ele>328</ele>
        <time>2020-03-17T07:47:02Z</time>
      </trkpt>
      <trkpt lat="47.22552" lon="6.03561">
        <ele>328</ele>
        <time>2020-03-17T07:47:03Z</time>
      </trkpt>
      <trkpt lat="47.22548" lon="6.03561">
        <ele>328</ele>
        <time>2020-03-17T07:47:05Z</time>
      </trkpt>
      <trkpt lat="47.22539" lon="6.03563">
        <ele>330</ele>
        <time>2020-03-17T07:47:11Z</time>
      </trkpt>
      <trkpt lat="47.22537" lon="6.03563">
        <ele>330</ele>
        <time>2020-03-17T07:47:13Z</time>
      </trkpt>
      <trkpt lat="47.22529" lon="6.03566">
        <ele>331</ele>
        <time>2020-03-17T07:47:18Z</time>
      </trkpt>
      <trkpt lat="47.22528" lon="6.03568">
        <ele>332</ele>
        <time>2020-03-17T07:47:19Z</time>
      </trkpt>
      <trkpt lat="47.22524" lon="6.03569">
        <ele>332</ele>
        <time>2020-03-17T07:47:21Z</time>
      </trkpt>
      <trkpt lat="47.22521" lon="6.03572">
        <ele>332</ele>
        <time>2020-03-17T07:47:23Z</time>
      </trkpt>
      <trkpt lat="47.22512" lon="6.03584">
        <ele>334</ele>
        <time>2020-03-17T07:47:29Z</time>
      </trkpt>
      <trkpt lat="47.22509" lon="6.03588">
        <ele>335</ele>
        <time>2020-03-17T07:47:31Z</time>
      </trkpt>
      <trkpt lat="47.22499" lon="6.036">
        <ele>336</ele>
        <time>2020-03-17T07:47:37Z</time>
      </trkpt>
      <trkpt lat="47.22496" lon="6.03603">
        <ele>336</ele>
        <time>2020-03-17T07:47:39Z</time>
      </trkpt>
      <trkpt lat="47.22492" lon="6.03607">
        <ele>337</ele>
        <time>2020-03-17T07:47:41Z</time>
      </trkpt>
      <trkpt lat="47.22487" lon="6.03612">
        <ele>337</ele>
        <time>2020-03-17T07:47:44Z</time>
      </trkpt>
      <trkpt lat="47.22485" lon="6.03614">
        <ele>337</ele>
        <time>2020-03-17T07:47:45Z</time>
      </trkpt>
      <trkpt lat="47.22477" lon="6.03618">
        <ele>338</ele>
        <time>2020-03-17T07:47:49Z</time>
      </trkpt>
      <trkpt lat="47.22473" lon="6.0362">
        <ele>338</ele>
        <time>2020-03-17T07:47:51Z</time>
      </trkpt>
      <trkpt lat="47.22469" lon="6.03622">
        <ele>338</ele>
        <time>2020-03-17T07:47:53Z</time>
      </trkpt>
      <trkpt lat="47.22459" lon="6.03624">
        <ele>340</ele>
        <time>2020-03-17T07:47:58Z</time>
      </trkpt>
      <trkpt lat="47.22455" lon="6.03625">
        <ele>340</ele>
        <time>2020-03-17T07:48:00Z</time>
      </trkpt>
      <trkpt lat="47.22451" lon="6.03625">
        <ele>340</ele>
        <time>2020-03-17T07:48:02Z</time>
      </trkpt>
      <trkpt lat="47.22442" lon="6.03621">
        <ele>341</ele>
        <time>2020-03-17T07:48:08Z</time>
      </trkpt>
      <trkpt lat="47.22435" lon="6.03615">
        <ele>341</ele>
        <time>2020-03-17T07:48:12Z</time>
      </trkpt>
      <trkpt lat="47.22428" lon="6.03613">
        <ele>342</ele>
        <time>2020-03-17T07:48:16Z</time>
      </trkpt>
      <trkpt lat="47.22426" lon="6.03612">
        <ele>342</ele>
        <time>2020-03-17T07:48:17Z</time>
      </trkpt>
      <trkpt lat="47.22417" lon="6.03617">
        <ele>344</ele>
        <time>2020-03-17T07:48:23Z</time>
      </trkpt>
      <trkpt lat="47.22405" lon="6.03633">
        <ele>346</ele>
        <time>2020-03-17T07:48:32Z</time>
      </trkpt>
      <trkpt lat="47.224" lon="6.03652">
        <ele>346</ele>
        <time>2020-03-17T07:48:36Z</time>
      </trkpt>
      <trkpt lat="47.224" lon="6.03659">
        <ele>346</ele>
        <time>2020-03-17T07:48:37Z</time>
      </trkpt>
      <trkpt lat="47.22397" lon="6.03685">
        <ele>346</ele>
        <time>2020-03-17T07:48:41Z</time>
      </trkpt>
      <trkpt lat="47.22392" lon="6.03704">
        <ele>346</ele>
        <time>2020-03-17T07:48:44Z</time>
      </trkpt>
      <trkpt lat="47.22386" lon="6.03716">
        <ele>345</ele>
        <time>2020-03-17T07:48:46Z</time>
      </trkpt>
      <trkpt lat="47.22383" lon="6.03722">
        <ele>345</ele>
        <time>2020-03-17T07:48:47Z</time>
      </trkpt>
      <trkpt lat="47.22366" lon="6.03747">
        <ele>344</ele>
        <time>2020-03-17T07:48:51Z</time>
      </trkpt>
      <trkpt lat="47.22351" lon="6.03772">
        <ele>343</ele>
        <time>2020-03-17T07:48:54Z</time>
      </trkpt>
      <trkpt lat="47.22338" lon="6.03801">
        <ele>341</ele>
        <time>2020-03-17T07:48:57Z</time>
      </trkpt>
      <trkpt lat="47.22334" lon="6.03811">
        <ele>341</ele>
        <time>2020-03-17T07:48:58Z</time>
      </trkpt>
      <trkpt lat="47.22331" lon="6.03821">
        <ele>340</ele>
        <time>2020-03-17T07:48:59Z</time>
      </trkpt>
      <trkpt lat="47.22329" lon="6.03841">
        <ele>340</ele>
        <time>2020-03-17T07:49:01Z</time>
      </trkpt>
      <trkpt lat="47.22331" lon="6.0387">
        <ele>340</ele>
        <time>2020-03-17T07:49:04Z</time>
      </trkpt>
      <trkpt lat="47.22333" lon="6.03879">
        <ele>340</ele>
        <time>2020-03-17T07:49:05Z</time>
      </trkpt>
      <trkpt lat="47.22337" lon="6.03915">
        <ele>340</ele>
        <time>2020-03-17T07:49:10Z</time>
      </trkpt>
      <trkpt lat="47.22337" lon="6.03938">
        <ele>340</ele>
        <time>2020-03-17T07:49:15Z</time>
      </trkpt>
      <trkpt lat="47.22333" lon="6.03968">
        <ele>342</ele>
        <time>2020-03-17T07:49:22Z</time>
      </trkpt>
      <trkpt lat="47.22327" lon="6.0399">
        <ele>345</ele>
        <time>2020-03-17T07:49:27Z</time>
      </trkpt>
      <trkpt lat="47.22324" lon="6.03998">
        <ele>346</ele>
        <time>2020-03-17T07:49:29Z</time>
      </trkpt>
      <trkpt lat="47.22317" lon="6.04015">
        <ele>347</ele>
        <time>2020-03-17T07:49:33Z</time>
      </trkpt>
      <trkpt lat="47.22313" lon="6.04025">
        <ele>348</ele>
        <time>2020-03-17T07:49:36Z</time>
      </trkpt>
      <trkpt lat="47.22311" lon="6.04028">
        <ele>348</ele>
        <time>2020-03-17T07:49:37Z</time>
      </trkpt>
      <trkpt lat="47.22308" lon="6.04041">
        <ele>348</ele>
        <time>2020-03-17T07:49:41Z</time>
      </trkpt>
      <trkpt lat="47.22307" lon="6.04051">
        <ele>348</ele>
        <time>2020-03-17T07:49:44Z</time>
      </trkpt>
      <trkpt lat="47.22307" lon="6.04054">
        <ele>348</ele>
        <time>2020-03-17T07:49:45Z</time>
      </trkpt>
      <trkpt lat="47.22306" lon="6.04064">
        <ele>349</ele>
        <time>2020-03-17T07:49:48Z</time>
      </trkpt>
      <trkpt lat="47.22307" lon="6.04077">
        <ele>350</ele>
        <time>2020-03-17T07:49:52Z</time>
      </trkpt>
      <trkpt lat="47.22307" lon="6.0408">
        <ele>350</ele>
        <time>2020-03-17T07:49:53Z</time>
      </trkpt>
      <trkpt lat="47.22307" lon="6.04089">
        <ele>351</ele>
        <time>2020-03-17T07:49:56Z</time>
      </trkpt>
      <trkpt lat="47.22307" lon="6.04102">
        <ele>351</ele>
        <time>2020-03-17T07:50:00Z</time>
      </trkpt>
      <trkpt lat="47.22307" lon="6.04105">
        <ele>351</ele>
        <time>2020-03-17T07:50:01Z</time>
      </trkpt>
      <trkpt lat="47.22308" lon="6.04117">
        <ele>352</ele>
        <time>2020-03-17T07:50:05Z</time>
      </trkpt>
      <trkpt lat="47.22308" lon="6.04127">
        <ele>353</ele>
        <time>2020-03-17T07:50:08Z</time>
      </trkpt>
      <trkpt lat="47.22308" lon="6.0413">
        <ele>353</ele>
        <time>2020-03-17T07:50:09Z</time>
      </trkpt>
      <trkpt lat="47.22308" lon="6.04134">
        <ele>354</ele>
        <time>2020-03-17T07:50:10Z</time>
      </trkpt>
      <trkpt lat="47.22308" lon="6.04144">
        <ele>355</ele>
        <time>2020-03-17T07:50:13Z</time>
      </trkpt>
      <trkpt lat="47.22307" lon="6.0415">
        <ele>355</ele>
        <time>2020-03-17T07:50:15Z</time>
      </trkpt>
      <trkpt lat="47.22307" lon="6.04153">
        <ele>355</ele>
        <time>2020-03-17T07:50:16Z</time>
      </trkpt>
      <trkpt lat="47.22305" lon="6.04165">
        <ele>355</ele>
        <time>2020-03-17T07:50:20Z</time>
      </trkpt>
      <trkpt lat="47.22303" lon="6.04174">
        <ele>356</ele>
        <time>2020-03-17T07:50:23Z</time>
      </trkpt>
      <trkpt lat="47.22299" lon="6.04187">
        <ele>357</ele>
        <time>2020-03-17T07:50:28Z</time>
      </trkpt>
      <trkpt lat="47.22296" lon="6.04196">
        <ele>357</ele>
        <time>2020-03-17T07:50:32Z</time>
      </trkpt>
      <trkpt lat="47.22293" lon="6.04202">
        <ele>358</ele>
        <time>2020-03-17T07:50:35Z</time>
      </trkpt>
      <trkpt lat="47.22293" lon="6.04204">
        <ele>358</ele>
        <time>2020-03-17T07:50:36Z</time>
      </trkpt>
      <trkpt lat="47.2229" lon="6.04211">
        <ele>359</ele>
        <time>2020-03-17T07:50:39Z</time>
      </trkpt>
      <trkpt lat="47.22288" lon="6.04213">
        <ele>359</ele>
        <time>2020-03-17T07:50:40Z</time>
      </trkpt>
      <trkpt lat="47.22286" lon="6.0422">
        <ele>359</ele>
        <time>2020-03-17T07:50:43Z</time>
      </trkpt>
      <trkpt lat="47.22283" lon="6.04227">
        <ele>360</ele>
        <time>2020-03-17T07:50:46Z</time>
      </trkpt>
      <trkpt lat="47.22282" lon="6.04228">
        <ele>361</ele>
        <time>2020-03-17T07:50:47Z</time>
      </trkpt>
      <trkpt lat="47.22278" lon="6.04237">
        <ele>362</ele>
        <time>2020-03-17T07:50:51Z</time>
      </trkpt>
      <trkpt lat="47.22276" lon="6.04244">
        <ele>362</ele>
        <time>2020-03-17T07:50:54Z</time>
      </trkpt>
      <trkpt lat="47.22275" lon="6.04246">
        <ele>362</ele>
        <time>2020-03-17T07:50:55Z</time>
      </trkpt>
      <trkpt lat="47.22273" lon="6.0425">
        <ele>363</ele>
        <time>2020-03-17T07:50:57Z</time>
      </trkpt>
      <trkpt lat="47.2227" lon="6.04257">
        <ele>363</ele>
        <time>2020-03-17T07:51:00Z</time>
      </trkpt>
      <trkpt lat="47.22266" lon="6.04266">
        <ele>363</ele>
        <time>2020-03-17T07:51:04Z</time>
      </trkpt>
      <trkpt lat="47.22264" lon="6.04273">
        <ele>363</ele>
        <time>2020-03-17T07:51:07Z</time>
      </trkpt>
      <trkpt lat="47.22258" lon="6.04282">
        <ele>363</ele>
        <time>2020-03-17T07:51:11Z</time>
      </trkpt>
      <trkpt lat="47.22249" lon="6.04296">
        <ele>363</ele>
        <time>2020-03-17T07:51:17Z</time>
      </trkpt>
      <trkpt lat="47.22237" lon="6.04304">
        <ele>364</ele>
        <time>2020-03-17T07:51:25Z</time>
      </trkpt>
      <trkpt lat="47.22232" lon="6.04302">
        <ele>365</ele>
        <time>2020-03-17T07:51:28Z</time>
      </trkpt>
      <trkpt lat="47.22229" lon="6.04297">
        <ele>365</ele>
        <time>2020-03-17T07:51:30Z</time>
      </trkpt>
      <trkpt lat="47.2222" lon="6.04282">
        <ele>366</ele>
        <time>2020-03-17T07:51:38Z</time>
      </trkpt>
      <trkpt lat="47.22219" lon="6.0428">
        <ele>366</ele>
        <time>2020-03-17T07:51:39Z</time>
      </trkpt>
      <trkpt lat="47.22215" lon="6.04273">
        <ele>367</ele>
        <time>2020-03-17T07:51:42Z</time>
      </trkpt>
      <trkpt lat="47.22211" lon="6.04268">
        <ele>368</ele>
        <time>2020-03-17T07:51:44Z</time>
      </trkpt>
      <trkpt lat="47.22203" lon="6.04254">
        <ele>369</ele>
        <time>2020-03-17T07:51:50Z</time>
      </trkpt>
      <trkpt lat="47.22196" lon="6.04244">
        <ele>370</ele>
        <time>2020-03-17T07:51:54Z</time>
      </trkpt>
      <trkpt lat="47.22194" lon="6.04241">
        <ele>371</ele>
        <time>2020-03-17T07:51:55Z</time>
      </trkpt>
      <trkpt lat="47.22181" lon="6.04223">
        <ele>372</ele>
        <time>2020-03-17T07:52:03Z</time>
      </trkpt>
      <trkpt lat="47.22178" lon="6.04219">
        <ele>372</ele>
        <time>2020-03-17T07:52:05Z</time>
      </trkpt>
      <trkpt lat="47.22168" lon="6.04211">
        <ele>374</ele>
        <time>2020-03-17T07:52:10Z</time>
      </trkpt>
      <trkpt lat="47.22164" lon="6.04208">
        <ele>374</ele>
        <time>2020-03-17T07:52:12Z</time>
      </trkpt>
      <trkpt lat="47.22154" lon="6.042">
        <ele>376</ele>
        <time>2020-03-17T07:52:18Z</time>
      </trkpt>
      <trkpt lat="47.22149" lon="6.04195">
        <ele>377</ele>
        <time>2020-03-17T07:52:21Z</time>
      </trkpt>
      <trkpt lat="47.22144" lon="6.0419">
        <ele>378</ele>
        <time>2020-03-17T07:52:24Z</time>
      </trkpt>
      <trkpt lat="47.22136" lon="6.04187">
        <ele>379</ele>
        <time>2020-03-17T07:52:28Z</time>
      </trkpt>
      <trkpt lat="47.22131" lon="6.04184">
        <ele>379</ele>
        <time>2020-03-17T07:52:31Z</time>
      </trkpt>
      <trkpt lat="47.22129" lon="6.04183">
        <ele>379</ele>
        <time>2020-03-17T07:52:32Z</time>
      </trkpt>
      <trkpt lat="47.22117" lon="6.04177">
        <ele>381</ele>
        <time>2020-03-17T07:52:39Z</time>
      </trkpt>
      <trkpt lat="47.22115" lon="6.04176">
        <ele>381</ele>
        <time>2020-03-17T07:52:40Z</time>
      </trkpt>
      <trkpt lat="47.22104" lon="6.04172">
        <ele>382</ele>
        <time>2020-03-17T07:52:47Z</time>
      </trkpt>
      <trkpt lat="47.22097" lon="6.04168">
        <ele>383</ele>
        <time>2020-03-17T07:52:51Z</time>
      </trkpt>
      <trkpt lat="47.2209" lon="6.04164">
        <ele>383</ele>
        <time>2020-03-17T07:52:55Z</time>
      </trkpt>
      <trkpt lat="47.22088" lon="6.04162">
        <ele>384</ele>
        <time>2020-03-17T07:52:56Z</time>
      </trkpt>
      <trkpt lat="47.22078" lon="6.04155">
        <ele>385</ele>
        <time>2020-03-17T07:53:02Z</time>
      </trkpt>
      <trkpt lat="47.22073" lon="6.04153">
        <ele>385</ele>
        <time>2020-03-17T07:53:05Z</time>
      </trkpt>
      <trkpt lat="47.22067" lon="6.04153">
        <ele>386</ele>
        <time>2020-03-17T07:53:09Z</time>
      </trkpt>
      <trkpt lat="47.22057" lon="6.04151">
        <ele>387</ele>
        <time>2020-03-17T07:53:15Z</time>
      </trkpt>
      <trkpt lat="47.2205" lon="6.04149">
        <ele>388</ele>
        <time>2020-03-17T07:53:19Z</time>
      </trkpt>
      <trkpt lat="47.22044" lon="6.04149">
        <ele>389</ele>
        <time>2020-03-17T07:53:22Z</time>
      </trkpt>
      <trkpt lat="47.22036" lon="6.04148">
        <ele>390</ele>
        <time>2020-03-17T07:53:27Z</time>
      </trkpt>
      <trkpt lat="47.22031" lon="6.04147">
        <ele>390</ele>
        <time>2020-03-17T07:53:30Z</time>
      </trkpt>
      <trkpt lat="47.22029" lon="6.04145">
        <ele>390</ele>
        <time>2020-03-17T07:53:31Z</time>
      </trkpt>
      <trkpt lat="47.22023" lon="6.04143">
        <ele>391</ele>
        <time>2020-03-17T07:53:35Z</time>
      </trkpt>
      <trkpt lat="47.2202" lon="6.04143">
        <ele>391</ele>
        <time>2020-03-17T07:53:37Z</time>
      </trkpt>
      <trkpt lat="47.22018" lon="6.04143">
        <ele>392</ele>
        <time>2020-03-17T07:53:38Z</time>
      </trkpt>
      <trkpt lat="47.22012" lon="6.04141">
        <ele>392</ele>
        <time>2020-03-17T07:53:41Z</time>
      </trkpt>
      <trkpt lat="47.22008" lon="6.0414">
        <ele>393</ele>
        <time>2020-03-17T07:53:43Z</time>
      </trkpt>
      <trkpt lat="47.21999" lon="6.0414">
        <ele>394</ele>
        <time>2020-03-17T07:53:48Z</time>
      </trkpt>
      <trkpt lat="47.21991" lon="6.0414">
        <ele>394</ele>
        <time>2020-03-17T07:53:51Z</time>
      </trkpt>
      <trkpt lat="47.21972" lon="6.04146">
        <ele>394</ele>
        <time>2020-03-17T07:53:57Z</time>
      </trkpt>
      <trkpt lat="47.21962" lon="6.04152">
        <ele>395</ele>
        <time>2020-03-17T07:54:02Z</time>
      </trkpt>
      <trkpt lat="47.21953" lon="6.04157">
        <ele>396</ele>
        <time>2020-03-17T07:54:07Z</time>
      </trkpt>
      <trkpt lat="47.21941" lon="6.04164">
        <ele>397</ele>
        <time>2020-03-17T07:54:14Z</time>
      </trkpt>
      <trkpt lat="47.21933" lon="6.04168">
        <ele>397</ele>
        <time>2020-03-17T07:54:19Z</time>
      </trkpt>
      <trkpt lat="47.21931" lon="6.04171">
        <ele>397</ele>
        <time>2020-03-17T07:54:21Z</time>
      </trkpt>
      <trkpt lat="47.21928" lon="6.04174">
        <ele>398</ele>
        <time>2020-03-17T07:54:23Z</time>
      </trkpt>
      <trkpt lat="47.21922" lon="6.04177">
        <ele>398</ele>
        <time>2020-03-17T07:54:27Z</time>
      </trkpt>
      <trkpt lat="47.2192" lon="6.04179">
        <ele>398</ele>
        <time>2020-03-17T07:54:28Z</time>
      </trkpt>
      <trkpt lat="47.21912" lon="6.04187">
        <ele>399</ele>
        <time>2020-03-17T07:54:34Z</time>
      </trkpt>
      <trkpt lat="47.21911" lon="6.04188">
        <ele>399</ele>
        <time>2020-03-17T07:54:35Z</time>
      </trkpt>
      <trkpt lat="47.21899" lon="6.04195">
        <ele>399</ele>
        <time>2020-03-17T07:54:40Z</time>
      </trkpt>
      <trkpt lat="47.21877" lon="6.04202">
        <ele>400</ele>
        <time>2020-03-17T07:54:47Z</time>
      </trkpt>
      <trkpt lat="47.2186" lon="6.04204">
        <ele>402</ele>
        <time>2020-03-17T07:54:54Z</time>
      </trkpt>
      <trkpt lat="47.21849" lon="6.04206">
        <ele>403</ele>
        <time>2020-03-17T07:54:59Z</time>
      </trkpt>
      <trkpt lat="47.21835" lon="6.04205">
        <ele>406</ele>
        <time>2020-03-17T07:55:07Z</time>
      </trkpt>
      <trkpt lat="47.21829" lon="6.04203">
        <ele>408</ele>
        <time>2020-03-17T07:55:11Z</time>
      </trkpt>
      <trkpt lat="47.21826" lon="6.04199">
        <ele>409</ele>
        <time>2020-03-17T07:55:14Z</time>
      </trkpt>
      <trkpt lat="47.21825" lon="6.04199">
        <ele>409</ele>
        <time>2020-03-17T07:55:15Z</time>
      </trkpt>
      <trkpt lat="47.21817" lon="6.04192">
        <ele>412</ele>
        <time>2020-03-17T07:55:20Z</time>
      </trkpt>
      <trkpt lat="47.21816" lon="6.0419">
        <ele>412</ele>
        <time>2020-03-17T07:55:21Z</time>
      </trkpt>
      <trkpt lat="47.21811" lon="6.04184">
        <ele>413</ele>
        <time>2020-03-17T07:55:24Z</time>
      </trkpt>
      <trkpt lat="47.21806" lon="6.04178">
        <ele>414</ele>
        <time>2020-03-17T07:55:27Z</time>
      </trkpt>
      <trkpt lat="47.218" lon="6.04164">
        <ele>416</ele>
        <time>2020-03-17T07:55:33Z</time>
      </trkpt>
      <trkpt lat="47.21796" lon="6.04158">
        <ele>417</ele>
        <time>2020-03-17T07:55:37Z</time>
      </trkpt>
      <trkpt lat="47.21792" lon="6.04147">
        <ele>417</ele>
        <time>2020-03-17T07:55:42Z</time>
      </trkpt>
      <trkpt lat="47.21789" lon="6.04142">
        <ele>418</ele>
        <time>2020-03-17T07:55:45Z</time>
      </trkpt>
      <trkpt lat="47.21788" lon="6.04139">
        <ele>418</ele>
        <time>2020-03-17T07:55:47Z</time>
      </trkpt>
      <trkpt lat="47.21784" lon="6.04133">
        <ele>419</ele>
        <time>2020-03-17T07:55:51Z</time>
      </trkpt>
      <trkpt lat="47.21782" lon="6.04133">
        <ele>420</ele>
        <time>2020-03-17T07:55:52Z</time>
      </trkpt>
      <trkpt lat="47.21778" lon="6.04132">
        <ele>422</ele>
        <time>2020-03-17T07:55:54Z</time>
      </trkpt>
      <trkpt lat="47.21774" lon="6.04135">
        <ele>424</ele>
        <time>2020-03-17T07:55:57Z</time>
      </trkpt>
      <trkpt lat="47.21774" lon="6.04137">
        <ele>425</ele>
        <time>2020-03-17T07:55:58Z</time>
      </trkpt>
      <trkpt lat="47.21773" lon="6.04139">
        <ele>425</ele>
        <time>2020-03-17T07:55:59Z</time>
      </trkpt>
      <trkpt lat="47.21773" lon="6.04141">
        <ele>426</ele>
        <time>2020-03-17T07:56:00Z</time>
      </trkpt>
      <trkpt lat="47.21775" lon="6.04153">
        <ele>426</ele>
        <time>2020-03-17T07:56:05Z</time>
      </trkpt>
      <trkpt lat="47.21778" lon="6.04161">
        <ele>426</ele>
        <time>2020-03-17T07:56:09Z</time>
      </trkpt>
      <trkpt lat="47.2178" lon="6.04166">
        <ele>426</ele>
        <time>2020-03-17T07:56:11Z</time>
      </trkpt>
      <trkpt lat="47.21784" lon="6.04178">
        <ele>425</ele>
        <time>2020-03-17T07:56:16Z</time>
      </trkpt>
      <trkpt lat="47.21788" lon="6.04196">
        <ele>425</ele>
        <time>2020-03-17T07:56:23Z</time>
      </trkpt>
      <trkpt lat="47.21788" lon="6.04199">
        <ele>424</ele>
        <time>2020-03-17T07:56:24Z</time>
      </trkpt>
      <trkpt lat="47.21789" lon="6.04214">
        <ele>425</ele>
        <time>2020-03-17T07:56:30Z</time>
      </trkpt>
      <trkpt lat="47.21789" lon="6.04225">
        <ele>426</ele>
        <time>2020-03-17T07:56:35Z</time>
      </trkpt>
      <trkpt lat="47.21789" lon="6.04233">
        <ele>426</ele>
        <time>2020-03-17T07:56:38Z</time>
      </trkpt>
      <trkpt lat="47.2179" lon="6.0424">
        <ele>427</ele>
        <time>2020-03-17T07:56:41Z</time>
      </trkpt>
      <trkpt lat="47.2179" lon="6.04254">
        <ele>428</ele>
        <time>2020-03-17T07:56:46Z</time>
      </trkpt>
      <trkpt lat="47.2179" lon="6.04265">
        <ele>430</ele>
        <time>2020-03-17T07:56:50Z</time>
      </trkpt>
      <trkpt lat="47.2179" lon="6.04269">
        <ele>431</ele>
        <time>2020-03-17T07:56:52Z</time>
      </trkpt>
      <trkpt lat="47.21791" lon="6.04274">
        <ele>431</ele>
        <time>2020-03-17T07:56:54Z</time>
      </trkpt>
      <trkpt lat="47.21792" lon="6.04282">
        <ele>432</ele>
        <time>2020-03-17T07:56:57Z</time>
      </trkpt>
      <trkpt lat="47.21793" lon="6.04285">
        <ele>432</ele>
        <time>2020-03-17T07:56:58Z</time>
      </trkpt>
      <trkpt lat="47.21795" lon="6.043">
        <ele>433</ele>
        <time>2020-03-17T07:57:04Z</time>
      </trkpt>
      <trkpt lat="47.218" lon="6.04316">
        <ele>433</ele>
        <time>2020-03-17T07:57:11Z</time>
      </trkpt>
      <trkpt lat="47.218" lon="6.04326">
        <ele>435</ele>
        <time>2020-03-17T07:57:15Z</time>
      </trkpt>
      <trkpt lat="47.21801" lon="6.04331">
        <ele>435</ele>
        <time>2020-03-17T07:57:17Z</time>
      </trkpt>
      <trkpt lat="47.21801" lon="6.04335">
        <ele>436</ele>
        <time>2020-03-17T07:57:19Z</time>
      </trkpt>
      <trkpt lat="47.218" lon="6.04336">
        <ele>436</ele>
        <time>2020-03-17T07:57:20Z</time>
      </trkpt>
      <trkpt lat="47.21801" lon="6.0434">
        <ele>436</ele>
        <time>2020-03-17T07:57:22Z</time>
      </trkpt>
      <trkpt lat="47.21801" lon="6.04342">
        <ele>436</ele>
        <time>2020-03-17T07:57:23Z</time>
      </trkpt>
      <trkpt lat="47.21802" lon="6.04344">
        <ele>436</ele>
        <time>2020-03-17T07:57:24Z</time>
      </trkpt>
      <trkpt lat="47.21802" lon="6.04353">
        <ele>438</ele>
        <time>2020-03-17T07:57:28Z</time>
      </trkpt>
      <trkpt lat="47.21802" lon="6.04359">
        <ele>438</ele>
        <time>2020-03-17T07:57:31Z</time>
      </trkpt>
      <trkpt lat="47.21803" lon="6.04374">
        <ele>441</ele>
        <time>2020-03-17T07:57:37Z</time>
      </trkpt>
      <trkpt lat="47.21803" lon="6.04376">
        <ele>442</ele>
        <time>2020-03-17T07:57:38Z</time>
      </trkpt>
      <trkpt lat="47.21803" lon="6.04381">
        <ele>442</ele>
        <time>2020-03-17T07:57:40Z</time>
      </trkpt>
      <trkpt lat="47.21805" lon="6.04388">
        <ele>443</ele>
        <time>2020-03-17T07:57:43Z</time>
      </trkpt>
      <trkpt lat="47.21806" lon="6.04392">
        <ele>443</ele>
        <time>2020-03-17T07:57:45Z</time>
      </trkpt>
      <trkpt lat="47.21806" lon="6.04395">
        <ele>443</ele>
        <time>2020-03-17T07:57:46Z</time>
      </trkpt>
      <trkpt lat="47.21808" lon="6.04402">
        <ele>443</ele>
        <time>2020-03-17T07:57:49Z</time>
      </trkpt>
      <trkpt lat="47.21809" lon="6.04409">
        <ele>444</ele>
        <time>2020-03-17T07:57:52Z</time>
      </trkpt>
      <trkpt lat="47.21809" lon="6.04412">
        <ele>444</ele>
        <time>2020-03-17T07:57:53Z</time>
      </trkpt>
      <trkpt lat="47.21809" lon="6.04415">
        <ele>444</ele>
        <time>2020-03-17T07:57:55Z</time>
      </trkpt>
      <trkpt lat="47.21811" lon="6.04427">
        <ele>445</ele>
        <time>2020-03-17T07:58:00Z</time>
      </trkpt>
      <trkpt lat="47.21814" lon="6.04436">
        <ele>444</ele>
        <time>2020-03-17T07:58:04Z</time>
      </trkpt>
      <trkpt lat="47.21815" lon="6.04446">
        <ele>444</ele>
        <time>2020-03-17T07:58:08Z</time>
      </trkpt>
      <trkpt lat="47.21817" lon="6.0446">
        <ele>445</ele>
        <time>2020-03-17T07:58:14Z</time>
      </trkpt>
      <trkpt lat="47.21817" lon="6.04463">
        <ele>445</ele>
        <time>2020-03-17T07:58:15Z</time>
      </trkpt>
      <trkpt lat="47.21816" lon="6.04474">
        <ele>447</ele>
        <time>2020-03-17T07:58:19Z</time>
      </trkpt>
      <trkpt lat="47.21817" lon="6.04477">
        <ele>447</ele>
        <time>2020-03-17T07:58:20Z</time>
      </trkpt>
      <trkpt lat="47.21816" lon="6.04488">
        <ele>449</ele>
        <time>2020-03-17T07:58:24Z</time>
      </trkpt>
      <trkpt lat="47.21814" lon="6.04495">
        <ele>451</ele>
        <time>2020-03-17T07:58:27Z</time>
      </trkpt>
      <trkpt lat="47.21811" lon="6.04501">
        <ele>452</ele>
        <time>2020-03-17T07:58:29Z</time>
      </trkpt>
      <trkpt lat="47.2181" lon="6.04506">
        <ele>453</ele>
        <time>2020-03-17T07:58:31Z</time>
      </trkpt>
      <trkpt lat="47.21808" lon="6.04515">
        <ele>454</ele>
        <time>2020-03-17T07:58:35Z</time>
      </trkpt>
      <trkpt lat="47.21808" lon="6.04521">
        <ele>454</ele>
        <time>2020-03-17T07:58:37Z</time>
      </trkpt>
      <trkpt lat="47.21808" lon="6.04543">
        <ele>454</ele>
        <time>2020-03-17T07:58:44Z</time>
      </trkpt>
      <trkpt lat="47.2181" lon="6.0456">
        <ele>454</ele>
        <time>2020-03-17T07:58:50Z</time>
      </trkpt>
      <trkpt lat="47.21809" lon="6.04563">
        <ele>454</ele>
        <time>2020-03-17T07:58:51Z</time>
      </trkpt>
      <trkpt lat="47.2181" lon="6.04569">
        <ele>454</ele>
        <time>2020-03-17T07:58:53Z</time>
      </trkpt>
      <trkpt lat="47.21811" lon="6.04584">
        <ele>454</ele>
        <time>2020-03-17T07:58:58Z</time>
      </trkpt>
      <trkpt lat="47.21812" lon="6.04595">
        <ele>455</ele>
        <time>2020-03-17T07:59:02Z</time>
      </trkpt>
      <trkpt lat="47.21813" lon="6.04604">
        <ele>455</ele>
        <time>2020-03-17T07:59:05Z</time>
      </trkpt>
      <trkpt lat="47.21812" lon="6.04607">
        <ele>455</ele>
        <time>2020-03-17T07:59:06Z</time>
      </trkpt>
      <trkpt lat="47.21812" lon="6.04617">
        <ele>456</ele>
        <time>2020-03-17T07:59:09Z</time>
      </trkpt>
      <trkpt lat="47.21811" lon="6.0463">
        <ele>455</ele>
        <time>2020-03-17T07:59:13Z</time>
      </trkpt>
      <trkpt lat="47.21811" lon="6.04637">
        <ele>455</ele>
        <time>2020-03-17T07:59:15Z</time>
      </trkpt>
      <trkpt lat="47.21811" lon="6.04647">
        <ele>455</ele>
        <time>2020-03-17T07:59:18Z</time>
      </trkpt>
      <trkpt lat="47.21811" lon="6.04673">
        <ele>454</ele>
        <time>2020-03-17T07:59:24Z</time>
      </trkpt>
      <trkpt lat="47.2181" lon="6.047">
        <ele>454</ele>
        <time>2020-03-17T07:59:28Z</time>
      </trkpt>
      <trkpt lat="47.2181" lon="6.04707">
        <ele>453</ele>
        <time>2020-03-17T07:59:29Z</time>
      </trkpt>
      <trkpt lat="47.21805" lon="6.04765">
        <ele>451</ele>
        <time>2020-03-17T07:59:38Z</time>
      </trkpt>
      <trkpt lat="47.21807" lon="6.04811">
        <ele>453</ele>
        <time>2020-03-17T07:59:45Z</time>
      </trkpt>
      <trkpt lat="47.21808" lon="6.04847">
        <ele>454</ele>
        <time>2020-03-17T07:59:50Z</time>
      </trkpt>
      <trkpt lat="47.21807" lon="6.04864">
        <ele>454</ele>
        <time>2020-03-17T07:59:52Z</time>
      </trkpt>
      <trkpt lat="47.21806" lon="6.04872">
        <ele>454</ele>
        <time>2020-03-17T07:59:53Z</time>
      </trkpt>
      <trkpt lat="47.21804" lon="6.04881">
        <ele>453</ele>
        <time>2020-03-17T07:59:54Z</time>
      </trkpt>
      <trkpt lat="47.21796" lon="6.04898">
        <ele>452</ele>
        <time>2020-03-17T07:59:56Z</time>
      </trkpt>
      <trkpt lat="47.21787" lon="6.04914">
        <ele>451</ele>
        <time>2020-03-17T07:59:58Z</time>
      </trkpt>
      <trkpt lat="47.21782" lon="6.04921">
        <ele>451</ele>
        <time>2020-03-17T07:59:59Z</time>
      </trkpt>
      <trkpt lat="47.21769" lon="6.04941">
        <ele>450</ele>
        <time>2020-03-17T08:00:02Z</time>
      </trkpt>
      <trkpt lat="47.21756" lon="6.04955">
        <ele>451</ele>
        <time>2020-03-17T08:00:05Z</time>
      </trkpt>
      <trkpt lat="47.21749" lon="6.04963">
        <ele>450</ele>
        <time>2020-03-17T08:00:07Z</time>
      </trkpt>
      <trkpt lat="47.21735" lon="6.0499">
        <ele>450</ele>
        <time>2020-03-17T08:00:13Z</time>
      </trkpt>
      <trkpt lat="47.21731" lon="6.05016">
        <ele>450</ele>
        <time>2020-03-17T08:00:18Z</time>
      </trkpt>
      <trkpt lat="47.21737" lon="6.05053">
        <ele>450</ele>
        <time>2020-03-17T08:00:25Z</time>
      </trkpt>
      <trkpt lat="47.21741" lon="6.05062">
        <ele>450</ele>
        <time>2020-03-17T08:00:27Z</time>
      </trkpt>
      <trkpt lat="47.21745" lon="6.05074">
        <ele>450</ele>
        <time>2020-03-17T08:00:30Z</time>
      </trkpt>
      <trkpt lat="47.21751" lon="6.05096">
        <ele>451</ele>
        <time>2020-03-17T08:00:37Z</time>
      </trkpt>
      <trkpt lat="47.21756" lon="6.05107">
        <ele>452</ele>
        <time>2020-03-17T08:00:43Z</time>
      </trkpt>
      <trkpt lat="47.21757" lon="6.0511">
        <ele>452</ele>
        <time>2020-03-17T08:00:44Z</time>
      </trkpt>
      <trkpt lat="47.21763" lon="6.05122">
        <ele>452</ele>
        <time>2020-03-17T08:00:51Z</time>
      </trkpt>
      <trkpt lat="47.21767" lon="6.05139">
        <ele>453</ele>
        <time>2020-03-17T08:00:58Z</time>
      </trkpt>
      <trkpt lat="47.21768" lon="6.05158">
        <ele>453</ele>
        <time>2020-03-17T08:01:04Z</time>
      </trkpt>
      <trkpt lat="47.21767" lon="6.05164">
        <ele>453</ele>
        <time>2020-03-17T08:01:06Z</time>
      </trkpt>
      <trkpt lat="47.21766" lon="6.05172">
        <ele>453</ele>
        <time>2020-03-17T08:01:09Z</time>
      </trkpt>
      <trkpt lat="47.21764" lon="6.05182">
        <ele>452</ele>
        <time>2020-03-17T08:03:42Z</time>
      </trkpt>
      <trkpt lat="47.21766" lon="6.05192">
        <ele>452</ele>
        <time>2020-03-17T08:03:44Z</time>
      </trkpt>
      <trkpt lat="47.21766" lon="6.05197">
        <ele>452</ele>
        <time>2020-03-17T08:03:45Z</time>
      </trkpt>
      <trkpt lat="47.21764" lon="6.05215">
        <ele>452</ele>
        <time>2020-03-17T08:03:48Z</time>
      </trkpt>
      <trkpt lat="47.21763" lon="6.05221">
        <ele>452</ele>
        <time>2020-03-17T08:03:49Z</time>
      </trkpt>
      <trkpt lat="47.21759" lon="6.0524">
        <ele>452</ele>
        <time>2020-03-17T08:03:52Z</time>
      </trkpt>
      <trkpt lat="47.21751" lon="6.05266">
        <ele>452</ele>
        <time>2020-03-17T08:03:56Z</time>
      </trkpt>
      <trkpt lat="47.21742" lon="6.05285">
        <ele>453</ele>
        <time>2020-03-17T08:03:59Z</time>
      </trkpt>
      <trkpt lat="47.2173" lon="6.05302">
        <ele>453</ele>
        <time>2020-03-17T08:04:02Z</time>
      </trkpt>
      <trkpt lat="47.21709" lon="6.05316">
        <ele>452</ele>
        <time>2020-03-17T08:04:06Z</time>
      </trkpt>
      <trkpt lat="47.21691" lon="6.05318">
        <ele>450</ele>
        <time>2020-03-17T08:04:09Z</time>
      </trkpt>
      <trkpt lat="47.21685" lon="6.05319">
        <ele>449</ele>
        <time>2020-03-17T08:04:10Z</time>
      </trkpt>
      <trkpt lat="47.21679" lon="6.05319">
        <ele>449</ele>
        <time>2020-03-17T08:04:11Z</time>
      </trkpt>
      <trkpt lat="47.2166" lon="6.05324">
        <ele>447</ele>
        <time>2020-03-17T08:04:14Z</time>
      </trkpt>
      <trkpt lat="47.21648" lon="6.05332">
        <ele>447</ele>
        <time>2020-03-17T08:04:16Z</time>
      </trkpt>
      <trkpt lat="47.2163" lon="6.0536">
        <ele>449</ele>
        <time>2020-03-17T08:04:20Z</time>
      </trkpt>
      <trkpt lat="47.21627" lon="6.05368">
        <ele>449</ele>
        <time>2020-03-17T08:04:21Z</time>
      </trkpt>
      <trkpt lat="47.21606" lon="6.05412">
        <ele>450</ele>
        <time>2020-03-17T08:04:27Z</time>
      </trkpt>
      <trkpt lat="47.21591" lon="6.05438">
        <ele>449</ele>
        <time>2020-03-17T08:04:31Z</time>
      </trkpt>
      <trkpt lat="47.21579" lon="6.05456">
        <ele>447</ele>
        <time>2020-03-17T08:04:34Z</time>
      </trkpt>
      <trkpt lat="47.21565" lon="6.05481">
        <ele>447</ele>
        <time>2020-03-17T08:04:38Z</time>
      </trkpt>
      <trkpt lat="47.21556" lon="6.05502">
        <ele>448</ele>
        <time>2020-03-17T08:04:41Z</time>
      </trkpt>
      <trkpt lat="47.21553" lon="6.05507">
        <ele>447</ele>
        <time>2020-03-17T08:04:42Z</time>
      </trkpt>
      <trkpt lat="47.21542" lon="6.05522">
        <ele>447</ele>
        <time>2020-03-17T08:04:45Z</time>
      </trkpt>
      <trkpt lat="47.21539" lon="6.05527">
        <ele>447</ele>
        <time>2020-03-17T08:04:46Z</time>
      </trkpt>
      <trkpt lat="47.21532" lon="6.05537">
        <ele>446</ele>
        <time>2020-03-17T08:04:48Z</time>
      </trkpt>
      <trkpt lat="47.21524" lon="6.05548">
        <ele>446</ele>
        <time>2020-03-17T08:04:50Z</time>
      </trkpt>
      <trkpt lat="47.21522" lon="6.05555">
        <ele>446</ele>
        <time>2020-03-17T08:04:51Z</time>
      </trkpt>
      <trkpt lat="47.21509" lon="6.05574">
        <ele>446</ele>
        <time>2020-03-17T08:04:55Z</time>
      </trkpt>
      <trkpt lat="47.21492" lon="6.05593">
        <ele>445</ele>
        <time>2020-03-17T08:04:59Z</time>
      </trkpt>
      <trkpt lat="47.21483" lon="6.05601">
        <ele>445</ele>
        <time>2020-03-17T08:05:01Z</time>
      </trkpt>
      <trkpt lat="47.21447" lon="6.05626">
        <ele>445</ele>
        <time>2020-03-17T08:05:08Z</time>
      </trkpt>
      <trkpt lat="47.21437" lon="6.05632">
        <ele>445</ele>
        <time>2020-03-17T08:05:10Z</time>
      </trkpt>
      <trkpt lat="47.21429" lon="6.05636">
        <ele>445</ele>
        <time>2020-03-17T08:05:13Z</time>
      </trkpt>
      <trkpt lat="47.21406" lon="6.05652">
        <ele>447</ele>
        <time>2020-03-17T08:05:20Z</time>
      </trkpt>
      <trkpt lat="47.21403" lon="6.05654">
        <ele>448</ele>
        <time>2020-03-17T08:05:21Z</time>
      </trkpt>
      <trkpt lat="47.21396" lon="6.05657">
        <ele>448</ele>
        <time>2020-03-17T08:05:23Z</time>
      </trkpt>
      <trkpt lat="47.21384" lon="6.05656">
        <ele>450</ele>
        <time>2020-03-17T08:05:26Z</time>
      </trkpt>
      <trkpt lat="47.21379" lon="6.05654">
        <ele>451</ele>
        <time>2020-03-17T08:05:27Z</time>
      </trkpt>
      <trkpt lat="47.21367" lon="6.05649">
        <ele>452</ele>
        <time>2020-03-17T08:05:30Z</time>
      </trkpt>
      <trkpt lat="47.21359" lon="6.05644">
        <ele>453</ele>
        <time>2020-03-17T08:05:32Z</time>
      </trkpt>
      <trkpt lat="47.21343" lon="6.05629">
        <ele>454</ele>
        <time>2020-03-17T08:05:37Z</time>
      </trkpt>
      <trkpt lat="47.21337" lon="6.05624">
        <ele>454</ele>
        <time>2020-03-17T08:05:39Z</time>
      </trkpt>
      <trkpt lat="47.2132" lon="6.05608">
        <ele>454</ele>
        <time>2020-03-17T08:05:45Z</time>
      </trkpt>
      <trkpt lat="47.21299" lon="6.05588">
        <ele>456</ele>
        <time>2020-03-17T08:05:52Z</time>
      </trkpt>
      <trkpt lat="47.21296" lon="6.05585">
        <ele>457</ele>
        <time>2020-03-17T08:05:53Z</time>
      </trkpt>
      <trkpt lat="47.21275" lon="6.05563">
        <ele>463</ele>
        <time>2020-03-17T08:06:00Z</time>
      </trkpt>
      <trkpt lat="47.21259" lon="6.05541">
        <ele>465</ele>
        <time>2020-03-17T08:06:06Z</time>
      </trkpt>
      <trkpt lat="47.21251" lon="6.05531">
        <ele>467</ele>
        <time>2020-03-17T08:06:10Z</time>
      </trkpt>
      <trkpt lat="47.21231" lon="6.05507">
        <ele>464</ele>
        <time>2020-03-17T08:06:16Z</time>
      </trkpt>
      <trkpt lat="47.21213" lon="6.05484">
        <ele>462</ele>
        <time>2020-03-17T08:06:22Z</time>
      </trkpt>
      <trkpt lat="47.2121" lon="6.05481">
        <ele>462</ele>
        <time>2020-03-17T08:06:23Z</time>
      </trkpt>
      <trkpt lat="47.21206" lon="6.05478">
        <ele>462</ele>
        <time>2020-03-17T08:06:24Z</time>
      </trkpt>
      <trkpt lat="47.21195" lon="6.05467">
        <ele>462</ele>
        <time>2020-03-17T08:06:29Z</time>
      </trkpt>
      <trkpt lat="47.21191" lon="6.0547">
        <ele>463</ele>
        <time>2020-03-17T08:08:03Z</time>
      </trkpt>
      <trkpt lat="47.21189" lon="6.05471">
        <ele>463</ele>
        <time>2020-03-17T08:08:04Z</time>
      </trkpt>
      <trkpt lat="47.21184" lon="6.05474">
        <ele>463</ele>
        <time>2020-03-17T08:08:06Z</time>
      </trkpt>
      <trkpt lat="47.21177" lon="6.0548">
        <ele>462</ele>
        <time>2020-03-17T08:08:08Z</time>
      </trkpt>
      <trkpt lat="47.21169" lon="6.05487">
        <ele>461</ele>
        <time>2020-03-17T08:08:10Z</time>
      </trkpt>
      <trkpt lat="47.21155" lon="6.0549">
        <ele>460</ele>
        <time>2020-03-17T08:08:13Z</time>
      </trkpt>
      <trkpt lat="47.2115" lon="6.05487">
        <ele>460</ele>
        <time>2020-03-17T08:08:15Z</time>
      </trkpt>
      <trkpt lat="47.21149" lon="6.05487">
        <ele>459</ele>
        <time>2020-03-17T08:08:16Z</time>
      </trkpt>
      <trkpt lat="47.21146" lon="6.05486">
        <ele>459</ele>
        <time>2020-03-17T08:08:55Z</time>
      </trkpt>
      <trkpt lat="47.2114" lon="6.05483">
        <ele>459</ele>
        <time>2020-03-17T08:08:57Z</time>
      </trkpt>
      <trkpt lat="47.21137" lon="6.05481">
        <ele>459</ele>
        <time>2020-03-17T08:08:58Z</time>
      </trkpt>
      <trkpt lat="47.21123" lon="6.05471">
        <ele>459</ele>
        <time>2020-03-17T08:09:01Z</time>
      </trkpt>
      <trkpt lat="47.21118" lon="6.05467">
        <ele>459</ele>
        <time>2020-03-17T08:09:02Z</time>
      </trkpt>
      <trkpt lat="47.21107" lon="6.05455">
        <ele>459</ele>
        <time>2020-03-17T08:09:04Z</time>
      </trkpt>
      <trkpt lat="47.21096" lon="6.05441">
        <ele>460</ele>
        <time>2020-03-17T08:09:06Z</time>
      </trkpt>
      <trkpt lat="47.2109" lon="6.05434">
        <ele>459</ele>
        <time>2020-03-17T08:09:07Z</time>
      </trkpt>
      <trkpt lat="47.21083" lon="6.05426">
        <ele>459</ele>
        <time>2020-03-17T08:09:08Z</time>
      </trkpt>
      <trkpt lat="47.21077" lon="6.05418">
        <ele>458</ele>
        <time>2020-03-17T08:09:09Z</time>
      </trkpt>
      <trkpt lat="47.21063" lon="6.054">
        <ele>455</ele>
        <time>2020-03-17T08:09:11Z</time>
      </trkpt>
      <trkpt lat="47.21056" lon="6.0539">
        <ele>454</ele>
        <time>2020-03-17T08:09:12Z</time>
      </trkpt>
      <trkpt lat="47.21042" lon="6.05372">
        <ele>450</ele>
        <time>2020-03-17T08:09:14Z</time>
      </trkpt>
      <trkpt lat="47.21027" lon="6.05352">
        <ele>447</ele>
        <time>2020-03-17T08:09:16Z</time>
      </trkpt>
      <trkpt lat="47.21011" lon="6.05332">
        <ele>445</ele>
        <time>2020-03-17T08:09:18Z</time>
      </trkpt>
      <trkpt lat="47.21003" lon="6.05322">
        <ele>444</ele>
        <time>2020-03-17T08:09:19Z</time>
      </trkpt>
      <trkpt lat="47.20995" lon="6.05312">
        <ele>443</ele>
        <time>2020-03-17T08:09:20Z</time>
      </trkpt>
      <trkpt lat="47.20974" lon="6.0528">
        <ele>442</ele>
        <time>2020-03-17T08:09:23Z</time>
      </trkpt>
      <trkpt lat="47.20961" lon="6.05255">
        <ele>443</ele>
        <time>2020-03-17T08:09:25Z</time>
      </trkpt>
      <trkpt lat="47.20952" lon="6.05234">
        <ele>444</ele>
        <time>2020-03-17T08:09:27Z</time>
      </trkpt>
      <trkpt lat="47.20941" lon="6.05216">
        <ele>443</ele>
        <time>2020-03-17T08:09:29Z</time>
      </trkpt>
      <trkpt lat="47.20928" lon="6.05209">
        <ele>440</ele>
        <time>2020-03-17T08:09:31Z</time>
      </trkpt>
      <trkpt lat="47.20917" lon="6.05209">
        <ele>435</ele>
        <time>2020-03-17T08:09:33Z</time>
      </trkpt>
      <trkpt lat="47.20909" lon="6.05217">
        <ele>431</ele>
        <time>2020-03-17T08:09:34Z</time>
      </trkpt>
      <trkpt lat="47.20909" lon="6.05236">
        <ele>428</ele>
        <time>2020-03-17T08:09:36Z</time>
      </trkpt>
      <trkpt lat="47.20927" lon="6.0527">
        <ele>429</ele>
        <time>2020-03-17T08:09:39Z</time>
      </trkpt>
      <trkpt lat="47.20941" lon="6.05292">
        <ele>430</ele>
        <time>2020-03-17T08:09:41Z</time>
      </trkpt>
      <trkpt lat="47.20945" lon="6.05304">
        <ele>429</ele>
        <time>2020-03-17T08:09:42Z</time>
      </trkpt>
      <trkpt lat="47.20945" lon="6.05313">
        <ele>428</ele>
        <time>2020-03-17T08:09:43Z</time>
      </trkpt>
      <trkpt lat="47.20944" lon="6.05323">
        <ele>427</ele>
        <time>2020-03-17T08:09:44Z</time>
      </trkpt>
      <trkpt lat="47.20933" lon="6.05333">
        <ele>426</ele>
        <time>2020-03-17T08:09:46Z</time>
      </trkpt>
      <trkpt lat="47.20927" lon="6.05337">
        <ele>425</ele>
        <time>2020-03-17T08:09:47Z</time>
      </trkpt>
      <trkpt lat="47.20921" lon="6.0535">
        <ele>424</ele>
        <time>2020-03-17T08:09:49Z</time>
      </trkpt>
      <trkpt lat="47.20912" lon="6.05359">
        <ele>424</ele>
        <time>2020-03-17T08:09:51Z</time>
      </trkpt>
      <trkpt lat="47.20892" lon="6.05359">
        <ele>423</ele>
        <time>2020-03-17T08:09:55Z</time>
      </trkpt>
      <trkpt lat="47.20886" lon="6.05357">
        <ele>423</ele>
        <time>2020-03-17T08:09:56Z</time>
      </trkpt>
      <trkpt lat="47.20881" lon="6.05357">
        <ele>423</ele>
        <time>2020-03-17T08:09:57Z</time>
      </trkpt>
      <trkpt lat="47.20876" lon="6.05358">
        <ele>423</ele>
        <time>2020-03-17T08:09:58Z</time>
      </trkpt>
      <trkpt lat="47.20871" lon="6.05359">
        <ele>423</ele>
        <time>2020-03-17T08:09:59Z</time>
      </trkpt>
      <trkpt lat="47.20863" lon="6.05361">
        <ele>424</ele>
        <time>2020-03-17T08:10:01Z</time>
      </trkpt>
      <trkpt lat="47.20856" lon="6.05367">
        <ele>424</ele>
        <time>2020-03-17T08:10:03Z</time>
      </trkpt>
      <trkpt lat="47.20852" lon="6.05369">
        <ele>425</ele>
        <time>2020-03-17T08:10:04Z</time>
      </trkpt>
      <trkpt lat="47.20841" lon="6.05366">
        <ele>425</ele>
        <time>2020-03-17T08:10:07Z</time>
      </trkpt>
      <trkpt lat="47.20831" lon="6.0536">
        <ele>425</ele>
        <time>2020-03-17T08:10:10Z</time>
      </trkpt>
      <trkpt lat="47.2082" lon="6.05355">
        <ele>425</ele>
        <time>2020-03-17T08:10:13Z</time>
      </trkpt>
      <trkpt lat="47.20813" lon="6.0535">
        <ele>424</ele>
        <time>2020-03-17T08:10:15Z</time>
      </trkpt>
      <trkpt lat="47.20803" lon="6.05343">
        <ele>424</ele>
        <time>2020-03-17T08:10:18Z</time>
      </trkpt>
      <trkpt lat="47.20793" lon="6.05337">
        <ele>425</ele>
        <time>2020-03-17T08:10:21Z</time>
      </trkpt>
      <trkpt lat="47.20783" lon="6.0533">
        <ele>425</ele>
        <time>2020-03-17T08:10:24Z</time>
      </trkpt>
      <trkpt lat="47.20767" lon="6.05318">
        <ele>426</ele>
        <time>2020-03-17T08:10:29Z</time>
      </trkpt>
      <trkpt lat="47.20757" lon="6.05309">
        <ele>426</ele>
        <time>2020-03-17T08:10:32Z</time>
      </trkpt>
      <trkpt lat="47.20725" lon="6.05281">
        <ele>427</ele>
        <time>2020-03-17T08:10:40Z</time>
      </trkpt>
      <trkpt lat="47.20685" lon="6.05252">
        <ele>426</ele>
        <time>2020-03-17T08:10:48Z</time>
      </trkpt>
      <trkpt lat="47.20673" lon="6.05248">
        <ele>425</ele>
        <time>2020-03-17T08:10:50Z</time>
      </trkpt>
      <trkpt lat="47.20654" lon="6.05249">
        <ele>424</ele>
        <time>2020-03-17T08:10:53Z</time>
      </trkpt>
      <trkpt lat="47.20638" lon="6.05262">
        <ele>423</ele>
        <time>2020-03-17T08:10:56Z</time>
      </trkpt>
      <trkpt lat="47.20634" lon="6.05268">
        <ele>423</ele>
        <time>2020-03-17T08:10:57Z</time>
      </trkpt>
      <trkpt lat="47.20629" lon="6.05276">
        <ele>423</ele>
        <time>2020-03-17T08:10:58Z</time>
      </trkpt>
      <trkpt lat="47.2062" lon="6.05303">
        <ele>425</ele>
        <time>2020-03-17T08:11:01Z</time>
      </trkpt>
      <trkpt lat="47.20615" lon="6.05319">
        <ele>426</ele>
        <time>2020-03-17T08:11:03Z</time>
      </trkpt>
      <trkpt lat="47.20614" lon="6.05326">
        <ele>426</ele>
        <time>2020-03-17T08:11:04Z</time>
      </trkpt>
      <trkpt lat="47.20611" lon="6.05341">
        <ele>425</ele>
        <time>2020-03-17T08:11:06Z</time>
      </trkpt>
      <trkpt lat="47.20607" lon="6.05368">
        <ele>425</ele>
        <time>2020-03-17T08:11:10Z</time>
      </trkpt>
      <trkpt lat="47.20606" lon="6.0539">
        <ele>424</ele>
        <time>2020-03-17T08:11:13Z</time>
      </trkpt>
      <trkpt lat="47.20605" lon="6.05456">
        <ele>418</ele>
        <time>2020-03-17T08:11:21Z</time>
      </trkpt>
      <trkpt lat="47.20605" lon="6.05465">
        <ele>417</ele>
        <time>2020-03-17T08:11:22Z</time>
      </trkpt>
      <trkpt lat="47.20604" lon="6.05474">
        <ele>417</ele>
        <time>2020-03-17T08:11:23Z</time>
      </trkpt>
      <trkpt lat="47.20597" lon="6.05493">
        <ele>416</ele>
        <time>2020-03-17T08:11:25Z</time>
      </trkpt>
      <trkpt lat="47.2058" lon="6.05513">
        <ele>416</ele>
        <time>2020-03-17T08:11:28Z</time>
      </trkpt>
      <trkpt lat="47.20559" lon="6.05518">
        <ele>417</ele>
        <time>2020-03-17T08:11:31Z</time>
      </trkpt>
      <trkpt lat="47.20538" lon="6.05509">
        <ele>418</ele>
        <time>2020-03-17T08:11:34Z</time>
      </trkpt>
      <trkpt lat="47.20517" lon="6.05489">
        <ele>419</ele>
        <time>2020-03-17T08:11:37Z</time>
      </trkpt>
      <trkpt lat="47.2051" lon="6.05482">
        <ele>420</ele>
        <time>2020-03-17T08:11:38Z</time>
      </trkpt>
      <trkpt lat="47.20503" lon="6.05475">
        <ele>420</ele>
        <time>2020-03-17T08:11:39Z</time>
      </trkpt>
      <trkpt lat="47.20495" lon="6.0547">
        <ele>420</ele>
        <time>2020-03-17T08:11:40Z</time>
      </trkpt>
      <trkpt lat="47.20479" lon="6.05462">
        <ele>419</ele>
        <time>2020-03-17T08:11:42Z</time>
      </trkpt>
      <trkpt lat="47.20471" lon="6.05459">
        <ele>419</ele>
        <time>2020-03-17T08:11:43Z</time>
      </trkpt>
      <trkpt lat="47.20453" lon="6.05455">
        <ele>416</ele>
        <time>2020-03-17T08:11:45Z</time>
      </trkpt>
      <trkpt lat="47.20425" lon="6.05454">
        <ele>412</ele>
        <time>2020-03-17T08:11:48Z</time>
      </trkpt>
      <trkpt lat="47.20397" lon="6.05452">
        <ele>410</ele>
        <time>2020-03-17T08:11:51Z</time>
      </trkpt>
      <trkpt lat="47.20378" lon="6.05448">
        <ele>409</ele>
        <time>2020-03-17T08:11:53Z</time>
      </trkpt>
      <trkpt lat="47.20369" lon="6.05443">
        <ele>409</ele>
        <time>2020-03-17T08:11:54Z</time>
      </trkpt>
      <trkpt lat="47.20352" lon="6.05432">
        <ele>408</ele>
        <time>2020-03-17T08:11:56Z</time>
      </trkpt>
      <trkpt lat="47.20335" lon="6.0542">
        <ele>406</ele>
        <time>2020-03-17T08:11:58Z</time>
      </trkpt>
      <trkpt lat="47.20327" lon="6.05413">
        <ele>406</ele>
        <time>2020-03-17T08:11:59Z</time>
      </trkpt>
      <trkpt lat="47.20318" lon="6.05407">
        <ele>406</ele>
        <time>2020-03-17T08:12:00Z</time>
      </trkpt>
      <trkpt lat="47.203" lon="6.05395">
        <ele>406</ele>
        <time>2020-03-17T08:12:02Z</time>
      </trkpt>
      <trkpt lat="47.20275" lon="6.05376">
        <ele>406</ele>
        <time>2020-03-17T08:12:05Z</time>
      </trkpt>
      <trkpt lat="47.20259" lon="6.0536">
        <ele>405</ele>
        <time>2020-03-17T08:12:07Z</time>
      </trkpt>
      <trkpt lat="47.20244" lon="6.05341">
        <ele>404</ele>
        <time>2020-03-17T08:12:09Z</time>
      </trkpt>
      <trkpt lat="47.20229" lon="6.05323">
        <ele>403</ele>
        <time>2020-03-17T08:12:11Z</time>
      </trkpt>
      <trkpt lat="47.20221" lon="6.05315">
        <ele>402</ele>
        <time>2020-03-17T08:12:12Z</time>
      </trkpt>
      <trkpt lat="47.20213" lon="6.05309">
        <ele>401</ele>
        <time>2020-03-17T08:12:13Z</time>
      </trkpt>
      <trkpt lat="47.20205" lon="6.05302">
        <ele>399</ele>
        <time>2020-03-17T08:12:14Z</time>
      </trkpt>
      <trkpt lat="47.20187" lon="6.05292">
        <ele>397</ele>
        <time>2020-03-17T08:12:16Z</time>
      </trkpt>
      <trkpt lat="47.20179" lon="6.05286">
        <ele>396</ele>
        <time>2020-03-17T08:12:17Z</time>
      </trkpt>
      <trkpt lat="47.20172" lon="6.05279">
        <ele>395</ele>
        <time>2020-03-17T08:12:18Z</time>
      </trkpt>
      <trkpt lat="47.20165" lon="6.0527">
        <ele>395</ele>
        <time>2020-03-17T08:12:19Z</time>
      </trkpt>
      <trkpt lat="47.20153" lon="6.05249">
        <ele>394</ele>
        <time>2020-03-17T08:12:21Z</time>
      </trkpt>
      <trkpt lat="47.20148" lon="6.05238">
        <ele>395</ele>
        <time>2020-03-17T08:12:22Z</time>
      </trkpt>
      <trkpt lat="47.20144" lon="6.05228">
        <ele>395</ele>
        <time>2020-03-17T08:12:23Z</time>
      </trkpt>
      <trkpt lat="47.2014" lon="6.05217">
        <ele>396</ele>
        <time>2020-03-17T08:12:24Z</time>
      </trkpt>
      <trkpt lat="47.2012" lon="6.05165">
        <ele>395</ele>
        <time>2020-03-17T08:12:29Z</time>
      </trkpt>
      <trkpt lat="47.20116" lon="6.05155">
        <ele>394</ele>
        <time>2020-03-17T08:12:30Z</time>
      </trkpt>
      <trkpt lat="47.20106" lon="6.05136">
        <ele>393</ele>
        <time>2020-03-17T08:12:32Z</time>
      </trkpt>
      <trkpt lat="47.20094" lon="6.05117">
        <ele>390</ele>
        <time>2020-03-17T08:12:34Z</time>
      </trkpt>
      <trkpt lat="47.2008" lon="6.051">
        <ele>387</ele>
        <time>2020-03-17T08:12:36Z</time>
      </trkpt>
      <trkpt lat="47.20064" lon="6.05084">
        <ele>385</ele>
        <time>2020-03-17T08:12:38Z</time>
      </trkpt>
      <trkpt lat="47.20056" lon="6.05076">
        <ele>385</ele>
        <time>2020-03-17T08:12:39Z</time>
      </trkpt>
      <trkpt lat="47.20049" lon="6.05069">
        <ele>385</ele>
        <time>2020-03-17T08:12:40Z</time>
      </trkpt>
      <trkpt lat="47.20041" lon="6.05062">
        <ele>384</ele>
        <time>2020-03-17T08:12:41Z</time>
      </trkpt>
      <trkpt lat="47.20025" lon="6.05057">
        <ele>384</ele>
        <time>2020-03-17T08:12:43Z</time>
      </trkpt>
      <trkpt lat="47.20012" lon="6.0507">
        <ele>384</ele>
        <time>2020-03-17T08:12:45Z</time>
      </trkpt>
      <trkpt lat="47.20007" lon="6.05079">
        <ele>384</ele>
        <time>2020-03-17T08:12:46Z</time>
      </trkpt>
      <trkpt lat="47.20002" lon="6.05088">
        <ele>384</ele>
        <time>2020-03-17T08:12:47Z</time>
      </trkpt>
      <trkpt lat="47.19997" lon="6.05097">
        <ele>383</ele>
        <time>2020-03-17T08:12:48Z</time>
      </trkpt>
      <trkpt lat="47.19987" lon="6.05114">
        <ele>384</ele>
        <time>2020-03-17T08:12:50Z</time>
      </trkpt>
      <trkpt lat="47.19982" lon="6.05121">
        <ele>385</ele>
        <time>2020-03-17T08:12:51Z</time>
      </trkpt>
      <trkpt lat="47.19976" lon="6.05127">
        <ele>385</ele>
        <time>2020-03-17T08:12:52Z</time>
      </trkpt>
      <trkpt lat="47.1997" lon="6.05131">
        <ele>385</ele>
        <time>2020-03-17T08:12:53Z</time>
      </trkpt>
      <trkpt lat="47.1995" lon="6.05132">
        <ele>386</ele>
        <time>2020-03-17T08:12:56Z</time>
      </trkpt>
      <trkpt lat="47.19912" lon="6.0512">
        <ele>385</ele>
        <time>2020-03-17T08:13:02Z</time>
      </trkpt>
      <trkpt lat="47.19906" lon="6.05116">
        <ele>385</ele>
        <time>2020-03-17T08:13:03Z</time>
      </trkpt>
      <trkpt lat="47.1989" lon="6.05101">
        <ele>385</ele>
        <time>2020-03-17T08:13:06Z</time>
      </trkpt>
      <trkpt lat="47.19875" lon="6.05089">
        <ele>387</ele>
        <time>2020-03-17T08:13:09Z</time>
      </trkpt>
      <trkpt lat="47.19866" lon="6.05083">
        <ele>389</ele>
        <time>2020-03-17T08:13:11Z</time>
      </trkpt>
      <trkpt lat="47.19861" lon="6.0508">
        <ele>389</ele>
        <time>2020-03-17T08:13:12Z</time>
      </trkpt>
      <trkpt lat="47.19845" lon="6.05072">
        <ele>390</ele>
        <time>2020-03-17T08:13:15Z</time>
      </trkpt>
      <trkpt lat="47.19829" lon="6.05062">
        <ele>391</ele>
        <time>2020-03-17T08:13:19Z</time>
      </trkpt>
      <trkpt lat="47.19822" lon="6.0506">
        <ele>391</ele>
        <time>2020-03-17T08:13:22Z</time>
      </trkpt>
      <trkpt lat="47.19822" lon="6.05062">
        <ele>391</ele>
        <time>2020-03-17T08:13:23Z</time>
      </trkpt>
      <trkpt lat="47.19829" lon="6.05066">
        <ele>391</ele>
        <time>2020-03-17T08:13:26Z</time>
      </trkpt>
      <trkpt lat="47.19832" lon="6.05068">
        <ele>391</ele>
        <time>2020-03-17T08:13:27Z</time>
      </trkpt>
      <trkpt lat="47.1985" lon="6.05079">
        <ele>390</ele>
        <time>2020-03-17T08:13:31Z</time>
      </trkpt>
      <trkpt lat="47.19877" lon="6.05097">
        <ele>387</ele>
        <time>2020-03-17T08:13:36Z</time>
      </trkpt>
      <trkpt lat="47.19883" lon="6.05102">
        <ele>386</ele>
        <time>2020-03-17T08:13:37Z</time>
      </trkpt>
      <trkpt lat="47.19908" lon="6.05122">
        <ele>385</ele>
        <time>2020-03-17T08:13:41Z</time>
      </trkpt>
      <trkpt lat="47.19914" lon="6.05125">
        <ele>386</ele>
        <time>2020-03-17T08:13:42Z</time>
      </trkpt>
      <trkpt lat="47.19947" lon="6.05134">
        <ele>386</ele>
        <time>2020-03-17T08:13:47Z</time>
      </trkpt>
      <trkpt lat="47.1996" lon="6.05136">
        <ele>386</ele>
        <time>2020-03-17T08:13:49Z</time>
      </trkpt>
      <trkpt lat="47.19978" lon="6.05128">
        <ele>385</ele>
        <time>2020-03-17T08:13:52Z</time>
      </trkpt>
      <trkpt lat="47.2" lon="6.051">
        <ele>384</ele>
        <time>2020-03-17T08:13:57Z</time>
      </trkpt>
      <trkpt lat="47.20009" lon="6.05081">
        <ele>384</ele>
        <time>2020-03-17T08:14:00Z</time>
      </trkpt>
      <trkpt lat="47.20018" lon="6.05065">
        <ele>384</ele>
        <time>2020-03-17T08:14:03Z</time>
      </trkpt>
      <trkpt lat="47.20033" lon="6.0506">
        <ele>384</ele>
        <time>2020-03-17T08:14:06Z</time>
      </trkpt>
      <trkpt lat="47.2005" lon="6.05074">
        <ele>385</ele>
        <time>2020-03-17T08:14:10Z</time>
      </trkpt>
      <trkpt lat="47.20054" lon="6.05078">
        <ele>385</ele>
        <time>2020-03-17T08:14:11Z</time>
      </trkpt>
      <trkpt lat="47.20057" lon="6.05082">
        <ele>385</ele>
        <time>2020-03-17T08:14:12Z</time>
      </trkpt>
      <trkpt lat="47.20067" lon="6.05093">
        <ele>386</ele>
        <time>2020-03-17T08:14:15Z</time>
      </trkpt>
      <trkpt lat="47.20073" lon="6.051">
        <ele>386</ele>
        <time>2020-03-17T08:14:17Z</time>
      </trkpt>
      <trkpt lat="47.20079" lon="6.05107">
        <ele>387</ele>
        <time>2020-03-17T08:14:19Z</time>
      </trkpt>
      <trkpt lat="47.20092" lon="6.05123">
        <ele>389</ele>
        <time>2020-03-17T08:14:23Z</time>
      </trkpt>
      <trkpt lat="47.20101" lon="6.05136">
        <ele>391</ele>
        <time>2020-03-17T08:14:26Z</time>
      </trkpt>
      <trkpt lat="47.20111" lon="6.05155">
        <ele>393</ele>
        <time>2020-03-17T08:14:30Z</time>
      </trkpt>
      <trkpt lat="47.20118" lon="6.05169">
        <ele>394</ele>
        <time>2020-03-17T08:14:33Z</time>
      </trkpt>
      <trkpt lat="47.20126" lon="6.0519">
        <ele>395</ele>
        <time>2020-03-17T08:14:37Z</time>
      </trkpt>
      <trkpt lat="47.20136" lon="6.05218">
        <ele>395</ele>
        <time>2020-03-17T08:14:42Z</time>
      </trkpt>
      <trkpt lat="47.20145" lon="6.0524">
        <ele>394</ele>
        <time>2020-03-17T08:14:46Z</time>
      </trkpt>
      <trkpt lat="47.20156" lon="6.05267">
        <ele>394</ele>
        <time>2020-03-17T08:14:51Z</time>
      </trkpt>
      <trkpt lat="47.20159" lon="6.05272">
        <ele>394</ele>
        <time>2020-03-17T08:14:52Z</time>
      </trkpt>
      <trkpt lat="47.20171" lon="6.05289">
        <ele>395</ele>
        <time>2020-03-17T08:14:56Z</time>
      </trkpt>
      <trkpt lat="47.20174" lon="6.05292">
        <ele>395</ele>
        <time>2020-03-17T08:14:57Z</time>
      </trkpt>
      <trkpt lat="47.20185" lon="6.05301">
        <ele>396</ele>
        <time>2020-03-17T08:15:00Z</time>
      </trkpt>
      <trkpt lat="47.20214" lon="6.05316">
        <ele>400</ele>
        <time>2020-03-17T08:15:07Z</time>
      </trkpt>
      <trkpt lat="47.20232" lon="6.05329">
        <ele>403</ele>
        <time>2020-03-17T08:15:12Z</time>
      </trkpt>
      <trkpt lat="47.20237" lon="6.05336">
        <ele>403</ele>
        <time>2020-03-17T08:15:14Z</time>
      </trkpt>
      <trkpt lat="47.20243" lon="6.05343">
        <ele>404</ele>
        <time>2020-03-17T08:15:16Z</time>
      </trkpt>
      <trkpt lat="47.20251" lon="6.05355">
        <ele>404</ele>
        <time>2020-03-17T08:15:19Z</time>
      </trkpt>
      <trkpt lat="47.2026" lon="6.05365">
        <ele>405</ele>
        <time>2020-03-17T08:15:22Z</time>
      </trkpt>
      <trkpt lat="47.20263" lon="6.05368">
        <ele>405</ele>
        <time>2020-03-17T08:15:23Z</time>
      </trkpt>
      <trkpt lat="47.20273" lon="6.05379">
        <ele>405</ele>
        <time>2020-03-17T08:15:26Z</time>
      </trkpt>
      <trkpt lat="47.2028" lon="6.05385">
        <ele>405</ele>
        <time>2020-03-17T08:15:28Z</time>
      </trkpt>
      <trkpt lat="47.20288" lon="6.0539">
        <ele>405</ele>
        <time>2020-03-17T08:15:30Z</time>
      </trkpt>
      <trkpt lat="47.20292" lon="6.05393">
        <ele>405</ele>
        <time>2020-03-17T08:15:31Z</time>
      </trkpt>
      <trkpt lat="47.20314" lon="6.05409">
        <ele>405</ele>
        <time>2020-03-17T08:15:37Z</time>
      </trkpt>
      <trkpt lat="47.20325" lon="6.05417">
        <ele>405</ele>
        <time>2020-03-17T08:15:40Z</time>
      </trkpt>
      <trkpt lat="47.20328" lon="6.05419">
        <ele>405</ele>
        <time>2020-03-17T08:15:41Z</time>
      </trkpt>
      <trkpt lat="47.20349" lon="6.05434">
        <ele>407</ele>
        <time>2020-03-17T08:15:47Z</time>
      </trkpt>
      <trkpt lat="47.20362" lon="6.05444">
        <ele>408</ele>
        <time>2020-03-17T08:15:51Z</time>
      </trkpt>
      <trkpt lat="47.20375" lon="6.05452">
        <ele>408</ele>
        <time>2020-03-17T08:15:55Z</time>
      </trkpt>
      <trkpt lat="47.20392" lon="6.05458">
        <ele>409</ele>
        <time>2020-03-17T08:16:00Z</time>
      </trkpt>
      <trkpt lat="47.20405" lon="6.0546">
        <ele>409</ele>
        <time>2020-03-17T08:16:04Z</time>
      </trkpt>
      <trkpt lat="47.20412" lon="6.0546">
        <ele>409</ele>
        <time>2020-03-17T08:16:06Z</time>
      </trkpt>
      <trkpt lat="47.20428" lon="6.0546">
        <ele>411</ele>
        <time>2020-03-17T08:16:11Z</time>
      </trkpt>
      <trkpt lat="47.20435" lon="6.0546">
        <ele>412</ele>
        <time>2020-03-17T08:16:13Z</time>
      </trkpt>
      <trkpt lat="47.20441" lon="6.05461">
        <ele>413</ele>
        <time>2020-03-17T08:16:15Z</time>
      </trkpt>
      <trkpt lat="47.20459" lon="6.05463">
        <ele>416</ele>
        <time>2020-03-17T08:16:20Z</time>
      </trkpt>
      <trkpt lat="47.20462" lon="6.05463">
        <ele>416</ele>
        <time>2020-03-17T08:16:21Z</time>
      </trkpt>
      <trkpt lat="47.20475" lon="6.05467">
        <ele>418</ele>
        <time>2020-03-17T08:16:25Z</time>
      </trkpt>
      <trkpt lat="47.20488" lon="6.05472">
        <ele>419</ele>
        <time>2020-03-17T08:16:29Z</time>
      </trkpt>
      <trkpt lat="47.20495" lon="6.05475">
        <ele>419</ele>
        <time>2020-03-17T08:16:31Z</time>
      </trkpt>
      <trkpt lat="47.2051" lon="6.05486">
        <ele>419</ele>
        <time>2020-03-17T08:16:36Z</time>
      </trkpt>
      <trkpt lat="47.20515" lon="6.05491">
        <ele>419</ele>
        <time>2020-03-17T08:16:38Z</time>
      </trkpt>
      <trkpt lat="47.20518" lon="6.05494">
        <ele>419</ele>
        <time>2020-03-17T08:16:39Z</time>
      </trkpt>
      <trkpt lat="47.20534" lon="6.05511">
        <ele>417</ele>
        <time>2020-03-17T08:16:45Z</time>
      </trkpt>
      <trkpt lat="47.20537" lon="6.05513">
        <ele>417</ele>
        <time>2020-03-17T08:16:46Z</time>
      </trkpt>
      <trkpt lat="47.20549" lon="6.05521">
        <ele>417</ele>
        <time>2020-03-17T08:16:50Z</time>
      </trkpt>
      <trkpt lat="47.2056" lon="6.05523">
        <ele>417</ele>
        <time>2020-03-17T08:16:53Z</time>
      </trkpt>
      <trkpt lat="47.20585" lon="6.05514">
        <ele>415</ele>
        <time>2020-03-17T08:17:00Z</time>
      </trkpt>
      <trkpt lat="47.20599" lon="6.05493">
        <ele>416</ele>
        <time>2020-03-17T08:17:05Z</time>
      </trkpt>
      <trkpt lat="47.20602" lon="6.05478">
        <ele>417</ele>
        <time>2020-03-17T08:17:09Z</time>
      </trkpt>
      <trkpt lat="47.20601" lon="6.05475">
        <ele>417</ele>
        <time>2020-03-17T08:17:10Z</time>
      </trkpt>
      <trkpt lat="47.20603" lon="6.05458">
        <ele>418</ele>
        <time>2020-03-17T08:17:15Z</time>
      </trkpt>
      <trkpt lat="47.20603" lon="6.05454">
        <ele>418</ele>
        <time>2020-03-17T08:17:16Z</time>
      </trkpt>
      <trkpt lat="47.20603" lon="6.0545">
        <ele>419</ele>
        <time>2020-03-17T08:17:17Z</time>
      </trkpt>
      <trkpt lat="47.20603" lon="6.05422">
        <ele>422</ele>
        <time>2020-03-17T08:17:23Z</time>
      </trkpt>
      <trkpt lat="47.20605" lon="6.05378">
        <ele>424</ele>
        <time>2020-03-17T08:17:32Z</time>
      </trkpt>
      <trkpt lat="47.20604" lon="6.05342">
        <ele>425</ele>
        <time>2020-03-17T08:17:39Z</time>
      </trkpt>
      <trkpt lat="47.20598" lon="6.05326">
        <ele>423</ele>
        <time>2020-03-17T08:17:52Z</time>
      </trkpt>
      <trkpt lat="47.20596" lon="6.05323">
        <ele>423</ele>
        <time>2020-03-17T08:17:57Z</time>
      </trkpt>
      <trkpt lat="47.20594" lon="6.05318">
        <ele>423</ele>
        <time>2020-03-17T08:18:08Z</time>
      </trkpt>
      <trkpt lat="47.20594" lon="6.05308">
        <ele>422</ele>
        <time>2020-03-17T08:18:12Z</time>
      </trkpt>
      <trkpt lat="47.20598" lon="6.05283">
        <ele>421</ele>
        <time>2020-03-17T08:18:17Z</time>
      </trkpt>
      <trkpt lat="47.206" lon="6.05277">
        <ele>421</ele>
        <time>2020-03-17T08:18:18Z</time>
      </trkpt>
      <trkpt lat="47.20605" lon="6.05254">
        <ele>418</ele>
        <time>2020-03-17T08:18:22Z</time>
      </trkpt>
      <trkpt lat="47.20609" lon="6.05243">
        <ele>418</ele>
        <time>2020-03-17T08:18:24Z</time>
      </trkpt>
      <trkpt lat="47.20611" lon="6.05238">
        <ele>417</ele>
        <time>2020-03-17T08:18:25Z</time>
      </trkpt>
      <trkpt lat="47.20619" lon="6.05217">
        <ele>416</ele>
        <time>2020-03-17T08:18:29Z</time>
      </trkpt>
      <trkpt lat="47.20625" lon="6.05205">
        <ele>415</ele>
        <time>2020-03-17T08:18:31Z</time>
      </trkpt>
      <trkpt lat="47.20633" lon="6.05195">
        <ele>414</ele>
        <time>2020-03-17T08:18:33Z</time>
      </trkpt>
      <trkpt lat="47.20643" lon="6.05187">
        <ele>414</ele>
        <time>2020-03-17T08:18:35Z</time>
      </trkpt>
      <trkpt lat="47.20658" lon="6.05178">
        <ele>414</ele>
        <time>2020-03-17T08:18:38Z</time>
      </trkpt>
      <trkpt lat="47.2067" lon="6.05172">
        <ele>413</ele>
        <time>2020-03-17T08:18:40Z</time>
      </trkpt>
      <trkpt lat="47.2069" lon="6.05162">
        <ele>414</ele>
        <time>2020-03-17T08:18:43Z</time>
      </trkpt>
      <trkpt lat="47.20709" lon="6.05155">
        <ele>413</ele>
        <time>2020-03-17T08:18:46Z</time>
      </trkpt>
      <trkpt lat="47.20724" lon="6.05149">
        <ele>413</ele>
        <time>2020-03-17T08:18:49Z</time>
      </trkpt>
      <trkpt lat="47.20727" lon="6.05147">
        <ele>413</ele>
        <time>2020-03-17T08:18:50Z</time>
      </trkpt>
      <trkpt lat="47.20733" lon="6.05141">
        <ele>413</ele>
        <time>2020-03-17T08:18:52Z</time>
      </trkpt>
      <trkpt lat="47.20743" lon="6.05128">
        <ele>414</ele>
        <time>2020-03-17T08:18:56Z</time>
      </trkpt>
      <trkpt lat="47.20744" lon="6.05124">
        <ele>414</ele>
        <time>2020-03-17T08:18:57Z</time>
      </trkpt>
      <trkpt lat="47.20744" lon="6.05115">
        <ele>414</ele>
        <time>2020-03-17T08:19:00Z</time>
      </trkpt>
      <trkpt lat="47.20744" lon="6.05113">
        <ele>414</ele>
        <time>2020-03-17T08:19:01Z</time>
      </trkpt>
      <trkpt lat="47.20744" lon="6.05111">
        <ele>414</ele>
        <time>2020-03-17T08:19:12Z</time>
      </trkpt>
      <trkpt lat="47.20747" lon="6.05124">
        <ele>414</ele>
        <time>2020-03-17T08:19:16Z</time>
      </trkpt>
      <trkpt lat="47.20755" lon="6.05153">
        <ele>415</ele>
        <time>2020-03-17T08:19:24Z</time>
      </trkpt>
      <trkpt lat="47.20761" lon="6.05166">
        <ele>415</ele>
        <time>2020-03-17T08:19:28Z</time>
      </trkpt>
      <trkpt lat="47.20767" lon="6.05174">
        <ele>416</ele>
        <time>2020-03-17T08:19:31Z</time>
      </trkpt>
      <trkpt lat="47.2077" lon="6.05181">
        <ele>416</ele>
        <time>2020-03-17T08:19:33Z</time>
      </trkpt>
      <trkpt lat="47.20773" lon="6.05191">
        <ele>416</ele>
        <time>2020-03-17T08:19:36Z</time>
      </trkpt>
      <trkpt lat="47.20774" lon="6.05194">
        <ele>416</ele>
        <time>2020-03-17T08:19:37Z</time>
      </trkpt>
      <trkpt lat="47.20776" lon="6.05202">
        <ele>416</ele>
        <time>2020-03-17T08:19:40Z</time>
      </trkpt>
      <trkpt lat="47.20777" lon="6.05204">
        <ele>416</ele>
        <time>2020-03-17T08:19:41Z</time>
      </trkpt>
      <trkpt lat="47.20776" lon="6.05208">
        <ele>416</ele>
        <time>2020-03-17T08:19:43Z</time>
      </trkpt>
      <trkpt lat="47.20775" lon="6.05209">
        <ele>417</ele>
        <time>2020-03-17T08:19:44Z</time>
      </trkpt>
      <trkpt lat="47.20773" lon="6.05208">
        <ele>416</ele>
        <time>2020-03-17T08:19:45Z</time>
      </trkpt>
      <trkpt lat="47.20764" lon="6.05197">
        <ele>416</ele>
        <time>2020-03-17T08:19:49Z</time>
      </trkpt>
      <trkpt lat="47.20758" lon="6.05186">
        <ele>416</ele>
        <time>2020-03-17T08:19:51Z</time>
      </trkpt>
      <trkpt lat="47.20747" lon="6.05167">
        <ele>414</ele>
        <time>2020-03-17T08:19:54Z</time>
      </trkpt>
      <trkpt lat="47.20729" lon="6.05138">
        <ele>413</ele>
        <time>2020-03-17T08:19:58Z</time>
      </trkpt>
      <trkpt lat="47.20713" lon="6.05113">
        <ele>410</ele>
        <time>2020-03-17T08:20:01Z</time>
      </trkpt>
      <trkpt lat="47.20708" lon="6.05104">
        <ele>409</ele>
        <time>2020-03-17T08:20:02Z</time>
      </trkpt>
      <trkpt lat="47.20693" lon="6.05076">
        <ele>407</ele>
        <time>2020-03-17T08:20:05Z</time>
      </trkpt>
      <trkpt lat="47.20677" lon="6.05045">
        <ele>407</ele>
        <time>2020-03-17T08:20:08Z</time>
      </trkpt>
      <trkpt lat="47.20666" lon="6.05022">
        <ele>405</ele>
        <time>2020-03-17T08:20:10Z</time>
      </trkpt>
      <trkpt lat="47.20656" lon="6.04999">
        <ele>405</ele>
        <time>2020-03-17T08:20:12Z</time>
      </trkpt>
      <trkpt lat="47.20646" lon="6.04974">
        <ele>404</ele>
        <time>2020-03-17T08:20:14Z</time>
      </trkpt>
      <trkpt lat="47.2064" lon="6.04962">
        <ele>404</ele>
        <time>2020-03-17T08:20:15Z</time>
      </trkpt>
      <trkpt lat="47.20635" lon="6.0495">
        <ele>403</ele>
        <time>2020-03-17T08:20:16Z</time>
      </trkpt>
      <trkpt lat="47.20621" lon="6.04913">
        <ele>402</ele>
        <time>2020-03-17T08:20:19Z</time>
      </trkpt>
      <trkpt lat="47.20609" lon="6.04875">
        <ele>401</ele>
        <time>2020-03-17T08:20:22Z</time>
      </trkpt>
      <trkpt lat="47.20605" lon="6.04862">
        <ele>401</ele>
        <time>2020-03-17T08:20:23Z</time>
      </trkpt>
      <trkpt lat="47.20599" lon="6.04837">
        <ele>400</ele>
        <time>2020-03-17T08:20:25Z</time>
      </trkpt>
      <trkpt lat="47.20587" lon="6.04786">
        <ele>400</ele>
        <time>2020-03-17T08:20:29Z</time>
      </trkpt>
      <trkpt lat="47.20576" lon="6.04749">
        <ele>401</ele>
        <time>2020-03-17T08:20:32Z</time>
      </trkpt>
      <trkpt lat="47.20572" lon="6.04737">
        <ele>402</ele>
        <time>2020-03-17T08:20:33Z</time>
      </trkpt>
      <trkpt lat="47.20551" lon="6.04692">
        <ele>400</ele>
        <time>2020-03-17T08:20:37Z</time>
      </trkpt>
      <trkpt lat="47.20514" lon="6.04631">
        <ele>400</ele>
        <time>2020-03-17T08:20:43Z</time>
      </trkpt>
      <trkpt lat="47.20507" lon="6.04621">
        <ele>399</ele>
        <time>2020-03-17T08:20:44Z</time>
      </trkpt>
      <trkpt lat="47.205" lon="6.04611">
        <ele>399</ele>
        <time>2020-03-17T08:20:45Z</time>
      </trkpt>
      <trkpt lat="47.20461" lon="6.04553">
        <ele>396</ele>
        <time>2020-03-17T08:20:51Z</time>
      </trkpt>
      <trkpt lat="47.20449" lon="6.04533">
        <ele>396</ele>
        <time>2020-03-17T08:20:53Z</time>
      </trkpt>
      <trkpt lat="47.20443" lon="6.04523">
        <ele>397</ele>
        <time>2020-03-17T08:20:54Z</time>
      </trkpt>
      <trkpt lat="47.20417" lon="6.04468">
        <ele>398</ele>
        <time>2020-03-17T08:20:59Z</time>
      </trkpt>
      <trkpt lat="47.20412" lon="6.04457">
        <ele>397</ele>
        <time>2020-03-17T08:21:00Z</time>
      </trkpt>
      <trkpt lat="47.20384" lon="6.04389">
        <ele>393</ele>
        <time>2020-03-17T08:21:06Z</time>
      </trkpt>
      <trkpt lat="47.20379" lon="6.04378">
        <ele>393</ele>
        <time>2020-03-17T08:21:07Z</time>
      </trkpt>
      <trkpt lat="47.20375" lon="6.04367">
        <ele>393</ele>
        <time>2020-03-17T08:21:08Z</time>
      </trkpt>
      <trkpt lat="47.20343" lon="6.04289">
        <ele>397</ele>
        <time>2020-03-17T08:21:15Z</time>
      </trkpt>
      <trkpt lat="47.20325" lon="6.04247">
        <ele>396</ele>
        <time>2020-03-17T08:21:19Z</time>
      </trkpt>
      <trkpt lat="47.20321" lon="6.04237">
        <ele>396</ele>
        <time>2020-03-17T08:21:20Z</time>
      </trkpt>
      <trkpt lat="47.20297" lon="6.0418">
        <ele>393</ele>
        <time>2020-03-17T08:21:26Z</time>
      </trkpt>
      <trkpt lat="47.2029" lon="6.04162">
        <ele>392</ele>
        <time>2020-03-17T08:21:28Z</time>
      </trkpt>
      <trkpt lat="47.20268" lon="6.04111">
        <ele>391</ele>
        <time>2020-03-17T08:21:34Z</time>
      </trkpt>
      <trkpt lat="47.20249" lon="6.04071">
        <ele>393</ele>
        <time>2020-03-17T08:21:39Z</time>
      </trkpt>
      <trkpt lat="47.20245" lon="6.04062">
        <ele>394</ele>
        <time>2020-03-17T08:21:40Z</time>
      </trkpt>
      <trkpt lat="47.20229" lon="6.04014">
        <ele>392</ele>
        <time>2020-03-17T08:21:46Z</time>
      </trkpt>
      <trkpt lat="47.20222" lon="6.03994">
        <ele>392</ele>
        <time>2020-03-17T08:21:49Z</time>
      </trkpt>
      <trkpt lat="47.20213" lon="6.03992">
        <ele>391</ele>
        <time>2020-03-17T08:21:51Z</time>
      </trkpt>
      <trkpt lat="47.20198" lon="6.04005">
        <ele>391</ele>
        <time>2020-03-17T08:21:54Z</time>
      </trkpt>
      <trkpt lat="47.20164" lon="6.04042">
        <ele>390</ele>
        <time>2020-03-17T08:22:01Z</time>
      </trkpt>
      <trkpt lat="47.2016" lon="6.04046">
        <ele>390</ele>
        <time>2020-03-17T08:22:02Z</time>
      </trkpt>
      <trkpt lat="47.20139" lon="6.04069">
        <ele>390</ele>
        <time>2020-03-17T08:22:07Z</time>
      </trkpt>
      <trkpt lat="47.20127" lon="6.04083">
        <ele>390</ele>
        <time>2020-03-17T08:22:10Z</time>
      </trkpt>
      <trkpt lat="47.20119" lon="6.04092">
        <ele>391</ele>
        <time>2020-03-17T08:22:12Z</time>
      </trkpt>
      <trkpt lat="47.20107" lon="6.04105">
        <ele>391</ele>
        <time>2020-03-17T08:22:15Z</time>
      </trkpt>
      <trkpt lat="47.20088" lon="6.04127">
        <ele>393</ele>
        <time>2020-03-17T08:22:20Z</time>
      </trkpt>
      <trkpt lat="47.20084" lon="6.04132">
        <ele>394</ele>
        <time>2020-03-17T08:22:21Z</time>
      </trkpt>
      <trkpt lat="47.2006" lon="6.04157">
        <ele>395</ele>
        <time>2020-03-17T08:22:27Z</time>
      </trkpt>
      <trkpt lat="47.20051" lon="6.04165">
        <ele>396</ele>
        <time>2020-03-17T08:22:29Z</time>
      </trkpt>
      <trkpt lat="47.20027" lon="6.04189">
        <ele>399</ele>
        <time>2020-03-17T08:22:35Z</time>
      </trkpt>
      <trkpt lat="47.20019" lon="6.04194">
        <ele>399</ele>
        <time>2020-03-17T08:22:37Z</time>
      </trkpt>
      <trkpt lat="47.20011" lon="6.04196">
        <ele>400</ele>
        <time>2020-03-17T08:22:39Z</time>
      </trkpt>
      <trkpt lat="47.2" lon="6.04197">
        <ele>402</ele>
        <time>2020-03-17T08:22:42Z</time>
      </trkpt>
      <trkpt lat="47.19993" lon="6.04197">
        <ele>402</ele>
        <time>2020-03-17T08:22:44Z</time>
      </trkpt>
      <trkpt lat="47.19982" lon="6.042">
        <ele>403</ele>
        <time>2020-03-17T08:22:47Z</time>
      </trkpt>
      <trkpt lat="47.19979" lon="6.04202">
        <ele>403</ele>
        <time>2020-03-17T08:22:48Z</time>
      </trkpt>
      <trkpt lat="47.19972" lon="6.04205">
        <ele>403</ele>
        <time>2020-03-17T08:22:50Z</time>
      </trkpt>
      <trkpt lat="47.19958" lon="6.0421">
        <ele>403</ele>
        <time>2020-03-17T08:22:55Z</time>
      </trkpt>
      <trkpt lat="47.19948" lon="6.04215">
        <ele>402</ele>
        <time>2020-03-17T08:23:00Z</time>
      </trkpt>
      <trkpt lat="47.19943" lon="6.04216">
        <ele>402</ele>
        <time>2020-03-17T08:26:08Z</time>
      </trkpt>
      <trkpt lat="47.19941" lon="6.04216">
        <ele>402</ele>
        <time>2020-03-17T08:26:09Z</time>
      </trkpt>
      <trkpt lat="47.19924" lon="6.04224">
        <ele>400</ele>
        <time>2020-03-17T08:26:15Z</time>
      </trkpt>
      <trkpt lat="47.19914" lon="6.04229">
        <ele>399</ele>
        <time>2020-03-17T08:26:18Z</time>
      </trkpt>
      <trkpt lat="47.19906" lon="6.04233">
        <ele>399</ele>
        <time>2020-03-17T08:26:20Z</time>
      </trkpt>
      <trkpt lat="47.19895" lon="6.04241">
        <ele>398</ele>
        <time>2020-03-17T08:26:23Z</time>
      </trkpt>
      <trkpt lat="47.19882" lon="6.04253">
        <ele>398</ele>
        <time>2020-03-17T08:26:26Z</time>
      </trkpt>
      <trkpt lat="47.19878" lon="6.04257">
        <ele>398</ele>
        <time>2020-03-17T08:26:27Z</time>
      </trkpt>
      <trkpt lat="47.19864" lon="6.04271">
        <ele>397</ele>
        <time>2020-03-17T08:26:30Z</time>
      </trkpt>
      <trkpt lat="47.19848" lon="6.04285">
        <ele>395</ele>
        <time>2020-03-17T08:26:33Z</time>
      </trkpt>
      <trkpt lat="47.19842" lon="6.0429">
        <ele>394</ele>
        <time>2020-03-17T08:26:34Z</time>
      </trkpt>
      <trkpt lat="47.19824" lon="6.04309">
        <ele>393</ele>
        <time>2020-03-17T08:26:38Z</time>
      </trkpt>
      <trkpt lat="47.1982" lon="6.04312">
        <ele>393</ele>
        <time>2020-03-17T08:26:39Z</time>
      </trkpt>
      <trkpt lat="47.19812" lon="6.04321">
        <ele>393</ele>
        <time>2020-03-17T08:26:41Z</time>
      </trkpt>
      <trkpt lat="47.19803" lon="6.04331">
        <ele>393</ele>
        <time>2020-03-17T08:26:43Z</time>
      </trkpt>
      <trkpt lat="47.19798" lon="6.04335">
        <ele>393</ele>
        <time>2020-03-17T08:26:44Z</time>
      </trkpt>
      <trkpt lat="47.19785" lon="6.04347">
        <ele>393</ele>
        <time>2020-03-17T08:26:46Z</time>
      </trkpt>
      <trkpt lat="47.19773" lon="6.0436">
        <ele>393</ele>
        <time>2020-03-17T08:26:48Z</time>
      </trkpt>
      <trkpt lat="47.19766" lon="6.04366">
        <ele>394</ele>
        <time>2020-03-17T08:26:49Z</time>
      </trkpt>
      <trkpt lat="47.19759" lon="6.04372">
        <ele>395</ele>
        <time>2020-03-17T08:26:50Z</time>
      </trkpt>
      <trkpt lat="47.19741" lon="6.0439">
        <ele>398</ele>
        <time>2020-03-17T08:26:53Z</time>
      </trkpt>
      <trkpt lat="47.1973" lon="6.04405">
        <ele>400</ele>
        <time>2020-03-17T08:26:55Z</time>
      </trkpt>
      <trkpt lat="47.19724" lon="6.04412">
        <ele>400</ele>
        <time>2020-03-17T08:26:56Z</time>
      </trkpt>
      <trkpt lat="47.19718" lon="6.04419">
        <ele>400</ele>
        <time>2020-03-17T08:26:57Z</time>
      </trkpt>
      <trkpt lat="47.19712" lon="6.04425">
        <ele>398</ele>
        <time>2020-03-17T08:26:58Z</time>
      </trkpt>
      <trkpt lat="47.19705" lon="6.0443">
        <ele>396</ele>
        <time>2020-03-17T08:26:59Z</time>
      </trkpt>
      <trkpt lat="47.19699" lon="6.04434">
        <ele>395</ele>
        <time>2020-03-17T08:27:00Z</time>
      </trkpt>
      <trkpt lat="47.19693" lon="6.04438">
        <ele>393</ele>
        <time>2020-03-17T08:27:01Z</time>
      </trkpt>
      <trkpt lat="47.19688" lon="6.04442">
        <ele>392</ele>
        <time>2020-03-17T08:27:02Z</time>
      </trkpt>
      <trkpt lat="47.19683" lon="6.04446">
        <ele>391</ele>
        <time>2020-03-17T08:27:03Z</time>
      </trkpt>
      <trkpt lat="47.19679" lon="6.0445">
        <ele>390</ele>
        <time>2020-03-17T08:27:04Z</time>
      </trkpt>
      <trkpt lat="47.19675" lon="6.04454">
        <ele>389</ele>
        <time>2020-03-17T08:27:05Z</time>
      </trkpt>
      <trkpt lat="47.1967" lon="6.04456">
        <ele>388</ele>
        <time>2020-03-17T08:27:06Z</time>
      </trkpt>
      <trkpt lat="47.19665" lon="6.04456">
        <ele>387</ele>
        <time>2020-03-17T08:27:07Z</time>
      </trkpt>
      <trkpt lat="47.19658" lon="6.04456">
        <ele>386</ele>
        <time>2020-03-17T08:27:08Z</time>
      </trkpt>
      <trkpt lat="47.19644" lon="6.04454">
        <ele>384</ele>
        <time>2020-03-17T08:27:10Z</time>
      </trkpt>
      <trkpt lat="47.19637" lon="6.04452">
        <ele>384</ele>
        <time>2020-03-17T08:27:11Z</time>
      </trkpt>
      <trkpt lat="47.19631" lon="6.04447">
        <ele>383</ele>
        <time>2020-03-17T08:27:12Z</time>
      </trkpt>
      <trkpt lat="47.19621" lon="6.04435">
        <ele>383</ele>
        <time>2020-03-17T08:27:14Z</time>
      </trkpt>
      <trkpt lat="47.19611" lon="6.04425">
        <ele>382</ele>
        <time>2020-03-17T08:27:16Z</time>
      </trkpt>
      <trkpt lat="47.19606" lon="6.04421">
        <ele>382</ele>
        <time>2020-03-17T08:27:17Z</time>
      </trkpt>
      <trkpt lat="47.196" lon="6.04418">
        <ele>381</ele>
        <time>2020-03-17T08:27:18Z</time>
      </trkpt>
      <trkpt lat="47.19584" lon="6.04413">
        <ele>380</ele>
        <time>2020-03-17T08:27:21Z</time>
      </trkpt>
      <trkpt lat="47.19578" lon="6.04412">
        <ele>379</ele>
        <time>2020-03-17T08:27:22Z</time>
      </trkpt>
      <trkpt lat="47.19573" lon="6.04409">
        <ele>379</ele>
        <time>2020-03-17T08:27:23Z</time>
      </trkpt>
      <trkpt lat="47.1956" lon="6.04404">
        <ele>377</ele>
        <time>2020-03-17T08:27:25Z</time>
      </trkpt>
      <trkpt lat="47.1954" lon="6.04401">
        <ele>376</ele>
        <time>2020-03-17T08:27:28Z</time>
      </trkpt>
      <trkpt lat="47.19526" lon="6.04401">
        <ele>375</ele>
        <time>2020-03-17T08:27:30Z</time>
      </trkpt>
      <trkpt lat="47.19498" lon="6.04393">
        <ele>372</ele>
        <time>2020-03-17T08:27:34Z</time>
      </trkpt>
      <trkpt lat="47.19484" lon="6.04388">
        <ele>371</ele>
        <time>2020-03-17T08:27:36Z</time>
      </trkpt>
      <trkpt lat="47.19462" lon="6.0438">
        <ele>369</ele>
        <time>2020-03-17T08:27:39Z</time>
      </trkpt>
      <trkpt lat="47.19454" lon="6.04377">
        <ele>368</ele>
        <time>2020-03-17T08:27:40Z</time>
      </trkpt>
      <trkpt lat="47.19438" lon="6.04374">
        <ele>367</ele>
        <time>2020-03-17T08:27:42Z</time>
      </trkpt>
      <trkpt lat="47.19405" lon="6.04372">
        <ele>365</ele>
        <time>2020-03-17T08:27:46Z</time>
      </trkpt>
      <trkpt lat="47.19389" lon="6.04371">
        <ele>365</ele>
        <time>2020-03-17T08:27:48Z</time>
      </trkpt>
      <trkpt lat="47.19381" lon="6.04369">
        <ele>364</ele>
        <time>2020-03-17T08:27:49Z</time>
      </trkpt>
      <trkpt lat="47.19374" lon="6.04367">
        <ele>363</ele>
        <time>2020-03-17T08:27:50Z</time>
      </trkpt>
      <trkpt lat="47.19351" lon="6.04358">
        <ele>362</ele>
        <time>2020-03-17T08:27:53Z</time>
      </trkpt>
      <trkpt lat="47.19315" lon="6.04344">
        <ele>361</ele>
        <time>2020-03-17T08:27:58Z</time>
      </trkpt>
      <trkpt lat="47.19266" lon="6.04323">
        <ele>362</ele>
        <time>2020-03-17T08:28:06Z</time>
      </trkpt>
      <trkpt lat="47.19243" lon="6.04314">
        <ele>362</ele>
        <time>2020-03-17T08:28:10Z</time>
      </trkpt>
      <trkpt lat="47.19233" lon="6.04312">
        <ele>362</ele>
        <time>2020-03-17T08:28:12Z</time>
      </trkpt>
      <trkpt lat="47.19213" lon="6.04312">
        <ele>362</ele>
        <time>2020-03-17T08:28:17Z</time>
      </trkpt>
      <trkpt lat="47.19182" lon="6.04308">
        <ele>362</ele>
        <time>2020-03-17T08:28:25Z</time>
      </trkpt>
      <trkpt lat="47.19152" lon="6.04296">
        <ele>362</ele>
        <time>2020-03-17T08:28:32Z</time>
      </trkpt>
      <trkpt lat="47.19118" lon="6.04291">
        <ele>363</ele>
        <time>2020-03-17T08:28:40Z</time>
      </trkpt>
      <trkpt lat="47.19104" lon="6.0429">
        <ele>363</ele>
        <time>2020-03-17T08:28:43Z</time>
      </trkpt>
      <trkpt lat="47.19094" lon="6.04293">
        <ele>362</ele>
        <time>2020-03-17T08:28:45Z</time>
      </trkpt>
      <trkpt lat="47.19089" lon="6.04294">
        <ele>362</ele>
        <time>2020-03-17T08:28:46Z</time>
      </trkpt>
      <trkpt lat="47.1908" lon="6.04298">
        <ele>361</ele>
        <time>2020-03-17T08:28:48Z</time>
      </trkpt>
      <trkpt lat="47.19072" lon="6.04307">
        <ele>361</ele>
        <time>2020-03-17T08:28:50Z</time>
      </trkpt>
      <trkpt lat="47.19063" lon="6.0433">
        <ele>361</ele>
        <time>2020-03-17T08:28:54Z</time>
      </trkpt>
      <trkpt lat="47.19061" lon="6.04335">
        <ele>361</ele>
        <time>2020-03-17T08:28:55Z</time>
      </trkpt>
      <trkpt lat="47.19048" lon="6.04388">
        <ele>363</ele>
        <time>2020-03-17T08:29:04Z</time>
      </trkpt>
      <trkpt lat="47.19042" lon="6.04405">
        <ele>364</ele>
        <time>2020-03-17T08:29:07Z</time>
      </trkpt>
      <trkpt lat="47.19035" lon="6.04419">
        <ele>365</ele>
        <time>2020-03-17T08:29:10Z</time>
      </trkpt>
      <trkpt lat="47.19024" lon="6.04443">
        <ele>364</ele>
        <time>2020-03-17T08:29:15Z</time>
      </trkpt>
      <trkpt lat="47.1902" lon="6.04454">
        <ele>364</ele>
        <time>2020-03-17T08:29:17Z</time>
      </trkpt>
      <trkpt lat="47.19009" lon="6.04489">
        <ele>364</ele>
        <time>2020-03-17T08:29:23Z</time>
      </trkpt>
      <trkpt lat="47.19006" lon="6.04501">
        <ele>364</ele>
        <time>2020-03-17T08:29:25Z</time>
      </trkpt>
      <trkpt lat="47.19002" lon="6.04512">
        <ele>364</ele>
        <time>2020-03-17T08:29:27Z</time>
      </trkpt>
      <trkpt lat="47.1899" lon="6.04548">
        <ele>365</ele>
        <time>2020-03-17T08:29:34Z</time>
      </trkpt>
      <trkpt lat="47.18977" lon="6.04586">
        <ele>366</ele>
        <time>2020-03-17T08:29:41Z</time>
      </trkpt>
      <trkpt lat="47.18969" lon="6.04603">
        <ele>366</ele>
        <time>2020-03-17T08:29:44Z</time>
      </trkpt>
      <trkpt lat="47.18963" lon="6.04614">
        <ele>367</ele>
        <time>2020-03-17T08:29:46Z</time>
      </trkpt>
      <trkpt lat="47.18956" lon="6.04623">
        <ele>367</ele>
        <time>2020-03-17T08:29:48Z</time>
      </trkpt>
      <trkpt lat="47.18936" lon="6.04656">
        <ele>368</ele>
        <time>2020-03-17T08:29:55Z</time>
      </trkpt>
      <trkpt lat="47.18929" lon="6.0467">
        <ele>368</ele>
        <time>2020-03-17T08:29:58Z</time>
      </trkpt>
      <trkpt lat="47.18918" lon="6.0469">
        <ele>368</ele>
        <time>2020-03-17T08:30:03Z</time>
      </trkpt>
      <trkpt lat="47.18899" lon="6.0472">
        <ele>368</ele>
        <time>2020-03-17T08:30:10Z</time>
      </trkpt>
      <trkpt lat="47.18894" lon="6.0473">
        <ele>368</ele>
        <time>2020-03-17T08:30:12Z</time>
      </trkpt>
      <trkpt lat="47.18892" lon="6.04736">
        <ele>368</ele>
        <time>2020-03-17T08:30:13Z</time>
      </trkpt>
      <trkpt lat="47.18888" lon="6.04753">
        <ele>368</ele>
        <time>2020-03-17T08:30:16Z</time>
      </trkpt>
      <trkpt lat="47.18881" lon="6.04789">
        <ele>369</ele>
        <time>2020-03-17T08:30:22Z</time>
      </trkpt>
      <trkpt lat="47.18871" lon="6.04835">
        <ele>369</ele>
        <time>2020-03-17T08:30:30Z</time>
      </trkpt>
      <trkpt lat="47.18866" lon="6.04874">
        <ele>369</ele>
        <time>2020-03-17T08:30:38Z</time>
      </trkpt>
      <trkpt lat="47.18868" lon="6.04881">
        <ele>369</ele>
        <time>2020-03-17T08:30:40Z</time>
      </trkpt>
      <trkpt lat="47.18875" lon="6.04902">
        <ele>370</ele>
        <time>2020-03-17T08:30:45Z</time>
      </trkpt>
      <trkpt lat="47.18884" lon="6.04943">
        <ele>371</ele>
        <time>2020-03-17T08:30:52Z</time>
      </trkpt>
      <trkpt lat="47.18888" lon="6.04989">
        <ele>370</ele>
        <time>2020-03-17T08:30:59Z</time>
      </trkpt>
      <trkpt lat="47.18881" lon="6.05025">
        <ele>369</ele>
        <time>2020-03-17T08:31:05Z</time>
      </trkpt>
      <trkpt lat="47.18868" lon="6.05065">
        <ele>370</ele>
        <time>2020-03-17T08:31:13Z</time>
      </trkpt>
      <trkpt lat="47.18862" lon="6.05092">
        <ele>371</ele>
        <time>2020-03-17T08:31:18Z</time>
      </trkpt>
      <trkpt lat="47.1886" lon="6.05102">
        <ele>371</ele>
        <time>2020-03-17T08:31:20Z</time>
      </trkpt>
      <trkpt lat="47.18851" lon="6.05148">
        <ele>373</ele>
        <time>2020-03-17T08:31:28Z</time>
      </trkpt>
      <trkpt lat="47.18849" lon="6.05153">
        <ele>373</ele>
        <time>2020-03-17T08:31:29Z</time>
      </trkpt>
      <trkpt lat="47.18839" lon="6.05181">
        <ele>375</ele>
        <time>2020-03-17T08:31:35Z</time>
      </trkpt>
      <trkpt lat="47.18828" lon="6.05198">
        <ele>376</ele>
        <time>2020-03-17T08:31:39Z</time>
      </trkpt>
      <trkpt lat="47.18821" lon="6.05211">
        <ele>376</ele>
        <time>2020-03-17T08:31:42Z</time>
      </trkpt>
      <trkpt lat="47.18799" lon="6.05248">
        <ele>376</ele>
        <time>2020-03-17T08:31:50Z</time>
      </trkpt>
      <trkpt lat="47.18796" lon="6.05253">
        <ele>376</ele>
        <time>2020-03-17T08:31:51Z</time>
      </trkpt>
      <trkpt lat="47.18787" lon="6.05272">
        <ele>376</ele>
        <time>2020-03-17T08:31:55Z</time>
      </trkpt>
      <trkpt lat="47.18777" lon="6.05291">
        <ele>376</ele>
        <time>2020-03-17T08:31:59Z</time>
      </trkpt>
      <trkpt lat="47.18767" lon="6.05323">
        <ele>377</ele>
        <time>2020-03-17T08:32:05Z</time>
      </trkpt>
      <trkpt lat="47.1876" lon="6.05342">
        <ele>377</ele>
        <time>2020-03-17T08:32:10Z</time>
      </trkpt>
      <trkpt lat="47.18748" lon="6.05373">
        <ele>378</ele>
        <time>2020-03-17T08:32:17Z</time>
      </trkpt>
      <trkpt lat="47.18735" lon="6.05406">
        <ele>380</ele>
        <time>2020-03-17T08:32:24Z</time>
      </trkpt>
      <trkpt lat="47.18717" lon="6.05445">
        <ele>381</ele>
        <time>2020-03-17T08:32:31Z</time>
      </trkpt>
      <trkpt lat="47.18711" lon="6.05462">
        <ele>381</ele>
        <time>2020-03-17T08:32:34Z</time>
      </trkpt>
      <trkpt lat="47.18705" lon="6.05478">
        <ele>380</ele>
        <time>2020-03-17T08:32:37Z</time>
      </trkpt>
      <trkpt lat="47.18694" lon="6.05506">
        <ele>380</ele>
        <time>2020-03-17T08:32:42Z</time>
      </trkpt>
      <trkpt lat="47.18688" lon="6.05515">
        <ele>380</ele>
        <time>2020-03-17T08:32:44Z</time>
      </trkpt>
      <trkpt lat="47.18678" lon="6.05529">
        <ele>379</ele>
        <time>2020-03-17T08:32:47Z</time>
      </trkpt>
      <trkpt lat="47.18666" lon="6.05542">
        <ele>379</ele>
        <time>2020-03-17T08:32:50Z</time>
      </trkpt>
      <trkpt lat="47.18639" lon="6.05574">
        <ele>377</ele>
        <time>2020-03-17T08:32:57Z</time>
      </trkpt>
      <trkpt lat="47.18615" lon="6.0561">
        <ele>376</ele>
        <time>2020-03-17T08:33:04Z</time>
      </trkpt>
      <trkpt lat="47.18595" lon="6.05641">
        <ele>375</ele>
        <time>2020-03-17T08:33:11Z</time>
      </trkpt>
      <trkpt lat="47.18575" lon="6.05669">
        <ele>377</ele>
        <time>2020-03-17T08:33:18Z</time>
      </trkpt>
      <trkpt lat="47.18578" lon="6.05685">
        <ele>378</ele>
        <time>2020-03-17T08:33:21Z</time>
      </trkpt>
      <trkpt lat="47.18581" lon="6.05696">
        <ele>378</ele>
        <time>2020-03-17T08:33:23Z</time>
      </trkpt>
      <trkpt lat="47.18582" lon="6.05701">
        <ele>379</ele>
        <time>2020-03-17T08:33:24Z</time>
      </trkpt>
      <trkpt lat="47.18583" lon="6.05713">
        <ele>379</ele>
        <time>2020-03-17T08:33:26Z</time>
      </trkpt>
      <trkpt lat="47.18581" lon="6.05745">
        <ele>379</ele>
        <time>2020-03-17T08:33:31Z</time>
      </trkpt>
      <trkpt lat="47.1857" lon="6.05784">
        <ele>378</ele>
        <time>2020-03-17T08:33:37Z</time>
      </trkpt>
      <trkpt lat="47.1855" lon="6.05829">
        <ele>377</ele>
        <time>2020-03-17T08:33:45Z</time>
      </trkpt>
      <trkpt lat="47.1854" lon="6.05847">
        <ele>377</ele>
        <time>2020-03-17T08:33:49Z</time>
      </trkpt>
      <trkpt lat="47.18532" lon="6.05862">
        <ele>377</ele>
        <time>2020-03-17T08:33:53Z</time>
      </trkpt>
      <trkpt lat="47.1853" lon="6.05866">
        <ele>377</ele>
        <time>2020-03-17T08:33:54Z</time>
      </trkpt>
      <trkpt lat="47.18522" lon="6.05882">
        <ele>376</ele>
        <time>2020-03-17T08:33:58Z</time>
      </trkpt>
      <trkpt lat="47.18515" lon="6.05897">
        <ele>377</ele>
        <time>2020-03-17T08:34:02Z</time>
      </trkpt>
      <trkpt lat="47.18513" lon="6.05902">
        <ele>377</ele>
        <time>2020-03-17T08:34:03Z</time>
      </trkpt>
      <trkpt lat="47.18492" lon="6.05944">
        <ele>378</ele>
        <time>2020-03-17T08:34:13Z</time>
      </trkpt>
      <trkpt lat="47.18474" lon="6.0598">
        <ele>379</ele>
        <time>2020-03-17T08:34:20Z</time>
      </trkpt>
      <trkpt lat="47.18463" lon="6.05999">
        <ele>378</ele>
        <time>2020-03-17T08:34:23Z</time>
      </trkpt>
      <trkpt lat="47.18453" lon="6.06018">
        <ele>379</ele>
        <time>2020-03-17T08:34:26Z</time>
      </trkpt>
      <trkpt lat="47.18449" lon="6.06024">
        <ele>379</ele>
        <time>2020-03-17T08:34:27Z</time>
      </trkpt>
      <trkpt lat="47.18431" lon="6.06058">
        <ele>380</ele>
        <time>2020-03-17T08:34:33Z</time>
      </trkpt>
      <trkpt lat="47.18413" lon="6.06091">
        <ele>380</ele>
        <time>2020-03-17T08:34:40Z</time>
      </trkpt>
      <trkpt lat="47.1841" lon="6.06095">
        <ele>380</ele>
        <time>2020-03-17T08:34:41Z</time>
      </trkpt>
      <trkpt lat="47.18393" lon="6.06123">
        <ele>381</ele>
        <time>2020-03-17T08:34:47Z</time>
      </trkpt>
      <trkpt lat="47.18369" lon="6.06169">
        <ele>380</ele>
        <time>2020-03-17T08:34:55Z</time>
      </trkpt>
      <trkpt lat="47.18354" lon="6.06196">
        <ele>379</ele>
        <time>2020-03-17T08:35:00Z</time>
      </trkpt>
      <trkpt lat="47.18333" lon="6.06239">
        <ele>379</ele>
        <time>2020-03-17T08:35:08Z</time>
      </trkpt>
      <trkpt lat="47.18312" lon="6.06281">
        <ele>380</ele>
        <time>2020-03-17T08:35:16Z</time>
      </trkpt>
      <trkpt lat="47.18287" lon="6.06331">
        <ele>381</ele>
        <time>2020-03-17T08:35:26Z</time>
      </trkpt>
      <trkpt lat="47.18282" lon="6.0634">
        <ele>381</ele>
        <time>2020-03-17T08:35:28Z</time>
      </trkpt>
      <trkpt lat="47.18263" lon="6.06379">
        <ele>383</ele>
        <time>2020-03-17T08:35:36Z</time>
      </trkpt>
      <trkpt lat="47.18248" lon="6.06406">
        <ele>383</ele>
        <time>2020-03-17T08:35:42Z</time>
      </trkpt>
      <trkpt lat="47.18237" lon="6.06428">
        <ele>383</ele>
        <time>2020-03-17T08:35:47Z</time>
      </trkpt>
      <trkpt lat="47.18222" lon="6.06453">
        <ele>384</ele>
        <time>2020-03-17T08:35:53Z</time>
      </trkpt>
      <trkpt lat="47.18215" lon="6.06465">
        <ele>384</ele>
        <time>2020-03-17T08:35:56Z</time>
      </trkpt>
      <trkpt lat="47.18201" lon="6.06491">
        <ele>385</ele>
        <time>2020-03-17T08:36:02Z</time>
      </trkpt>
      <trkpt lat="47.18192" lon="6.06507">
        <ele>386</ele>
        <time>2020-03-17T08:36:06Z</time>
      </trkpt>
      <trkpt lat="47.18183" lon="6.06525">
        <ele>386</ele>
        <time>2020-03-17T08:36:10Z</time>
      </trkpt>
      <trkpt lat="47.1817" lon="6.06548">
        <ele>386</ele>
        <time>2020-03-17T08:36:15Z</time>
      </trkpt>
      <trkpt lat="47.18146" lon="6.06583">
        <ele>386</ele>
        <time>2020-03-17T08:36:23Z</time>
      </trkpt>
      <trkpt lat="47.18139" lon="6.06589">
        <ele>385</ele>
        <time>2020-03-17T08:36:25Z</time>
      </trkpt>
      <trkpt lat="47.18126" lon="6.06597">
        <ele>386</ele>
        <time>2020-03-17T08:36:29Z</time>
      </trkpt>
      <trkpt lat="47.18109" lon="6.06607">
        <ele>388</ele>
        <time>2020-03-17T08:36:34Z</time>
      </trkpt>
      <trkpt lat="47.181" lon="6.06614">
        <ele>388</ele>
        <time>2020-03-17T08:36:37Z</time>
      </trkpt>
      <trkpt lat="47.18085" lon="6.06628">
        <ele>389</ele>
        <time>2020-03-17T08:36:42Z</time>
      </trkpt>
      <trkpt lat="47.18073" lon="6.06639">
        <ele>390</ele>
        <time>2020-03-17T08:36:46Z</time>
      </trkpt>
      <trkpt lat="47.18067" lon="6.06643">
        <ele>391</ele>
        <time>2020-03-17T08:36:48Z</time>
      </trkpt>
      <trkpt lat="47.18052" lon="6.06656">
        <ele>391</ele>
        <time>2020-03-17T08:36:53Z</time>
      </trkpt>
      <trkpt lat="47.18043" lon="6.06664">
        <ele>391</ele>
        <time>2020-03-17T08:36:56Z</time>
      </trkpt>
      <trkpt lat="47.18029" lon="6.06679">
        <ele>391</ele>
        <time>2020-03-17T08:37:01Z</time>
      </trkpt>
      <trkpt lat="47.18026" lon="6.06682">
        <ele>392</ele>
        <time>2020-03-17T08:37:02Z</time>
      </trkpt>
      <trkpt lat="47.18011" lon="6.06701">
        <ele>392</ele>
        <time>2020-03-17T08:37:08Z</time>
      </trkpt>
      <trkpt lat="47.18006" lon="6.06708">
        <ele>393</ele>
        <time>2020-03-17T08:37:10Z</time>
      </trkpt>
      <trkpt lat="47.17986" lon="6.06738">
        <ele>395</ele>
        <time>2020-03-17T08:37:18Z</time>
      </trkpt>
      <trkpt lat="47.17983" lon="6.06741">
        <ele>395</ele>
        <time>2020-03-17T08:37:19Z</time>
      </trkpt>
      <trkpt lat="47.17972" lon="6.06759">
        <ele>396</ele>
        <time>2020-03-17T08:37:24Z</time>
      </trkpt>
      <trkpt lat="47.17966" lon="6.06769">
        <ele>396</ele>
        <time>2020-03-17T08:37:27Z</time>
      </trkpt>
      <trkpt lat="47.17959" lon="6.06785">
        <ele>396</ele>
        <time>2020-03-17T08:37:31Z</time>
      </trkpt>
      <trkpt lat="47.17952" lon="6.06799">
        <ele>396</ele>
        <time>2020-03-17T08:37:35Z</time>
      </trkpt>
      <trkpt lat="47.1795" lon="6.06803">
        <ele>396</ele>
        <time>2020-03-17T08:37:36Z</time>
      </trkpt>
      <trkpt lat="47.17933" lon="6.06841">
        <ele>396</ele>
        <time>2020-03-17T08:37:45Z</time>
      </trkpt>
      <trkpt lat="47.17931" lon="6.06845">
        <ele>396</ele>
        <time>2020-03-17T08:37:46Z</time>
      </trkpt>
      <trkpt lat="47.17916" lon="6.06878">
        <ele>397</ele>
        <time>2020-03-17T08:37:54Z</time>
      </trkpt>
      <trkpt lat="47.17912" lon="6.0689">
        <ele>398</ele>
        <time>2020-03-17T08:37:57Z</time>
      </trkpt>
      <trkpt lat="47.17908" lon="6.06902">
        <ele>399</ele>
        <time>2020-03-17T08:38:00Z</time>
      </trkpt>
      <trkpt lat="47.17905" lon="6.06911">
        <ele>400</ele>
        <time>2020-03-17T08:38:02Z</time>
      </trkpt>
      <trkpt lat="47.17895" lon="6.06931">
        <ele>401</ele>
        <time>2020-03-17T08:38:07Z</time>
      </trkpt>
      <trkpt lat="47.17893" lon="6.06935">
        <ele>401</ele>
        <time>2020-03-17T08:38:08Z</time>
      </trkpt>
      <trkpt lat="47.17878" lon="6.06962">
        <ele>401</ele>
        <time>2020-03-17T08:38:15Z</time>
      </trkpt>
      <trkpt lat="47.17869" lon="6.06985">
        <ele>401</ele>
        <time>2020-03-17T08:38:19Z</time>
      </trkpt>
      <trkpt lat="47.17866" lon="6.07">
        <ele>400</ele>
        <time>2020-03-17T08:38:21Z</time>
      </trkpt>
      <trkpt lat="47.17866" lon="6.07032">
        <ele>400</ele>
        <time>2020-03-17T08:38:25Z</time>
      </trkpt>
      <trkpt lat="47.17867" lon="6.07039">
        <ele>401</ele>
        <time>2020-03-17T08:38:26Z</time>
      </trkpt>
      <trkpt lat="47.17869" lon="6.07046">
        <ele>401</ele>
        <time>2020-03-17T08:38:27Z</time>
      </trkpt>
      <trkpt lat="47.17873" lon="6.07076">
        <ele>403</ele>
        <time>2020-03-17T08:38:32Z</time>
      </trkpt>
      <trkpt lat="47.17877" lon="6.0712">
        <ele>404</ele>
        <time>2020-03-17T08:38:40Z</time>
      </trkpt>
      <trkpt lat="47.17875" lon="6.07157">
        <ele>406</ele>
        <time>2020-03-17T08:38:47Z</time>
      </trkpt>
      <trkpt lat="47.17873" lon="6.07188">
        <ele>406</ele>
        <time>2020-03-17T08:38:53Z</time>
      </trkpt>
      <trkpt lat="47.17873" lon="6.07253">
        <ele>404</ele>
        <time>2020-03-17T08:39:04Z</time>
      </trkpt>
      <trkpt lat="47.17876" lon="6.07292">
        <ele>402</ele>
        <time>2020-03-17T08:39:11Z</time>
      </trkpt>
      <trkpt lat="47.17888" lon="6.07328">
        <ele>401</ele>
        <time>2020-03-17T08:39:18Z</time>
      </trkpt>
      <trkpt lat="47.17894" lon="6.07361">
        <ele>401</ele>
        <time>2020-03-17T08:39:25Z</time>
      </trkpt>
      <trkpt lat="47.17897" lon="6.07376">
        <ele>402</ele>
        <time>2020-03-17T08:39:29Z</time>
      </trkpt>
      <trkpt lat="47.17899" lon="6.07381">
        <ele>402</ele>
        <time>2020-03-17T08:39:31Z</time>
      </trkpt>
      <trkpt lat="47.179" lon="6.07384">
        <ele>402</ele>
        <time>2020-03-17T08:39:33Z</time>
      </trkpt>
      <trkpt lat="47.179" lon="6.07387">
        <ele>402</ele>
        <time>2020-03-17T08:42:47Z</time>
      </trkpt>
      <trkpt lat="47.17898" lon="6.07388">
        <ele>402</ele>
        <time>2020-03-17T08:42:48Z</time>
      </trkpt>
      <trkpt lat="47.17892" lon="6.07387">
        <ele>403</ele>
        <time>2020-03-17T08:42:51Z</time>
      </trkpt>
      <trkpt lat="47.17889" lon="6.07387">
        <ele>403</ele>
        <time>2020-03-17T08:42:52Z</time>
      </trkpt>
      <trkpt lat="47.17871" lon="6.0739">
        <ele>405</ele>
        <time>2020-03-17T08:42:59Z</time>
      </trkpt>
      <trkpt lat="47.17868" lon="6.07392">
        <ele>406</ele>
        <time>2020-03-17T08:43:00Z</time>
      </trkpt>
      <trkpt lat="47.17854" lon="6.074">
        <ele>407</ele>
        <time>2020-03-17T08:43:05Z</time>
      </trkpt>
      <trkpt lat="47.17848" lon="6.07403">
        <ele>408</ele>
        <time>2020-03-17T08:43:07Z</time>
      </trkpt>
      <trkpt lat="47.17834" lon="6.07412">
        <ele>408</ele>
        <time>2020-03-17T08:43:12Z</time>
      </trkpt>
      <trkpt lat="47.17826" lon="6.07416">
        <ele>409</ele>
        <time>2020-03-17T08:43:15Z</time>
      </trkpt>
      <trkpt lat="47.17823" lon="6.07417">
        <ele>409</ele>
        <time>2020-03-17T08:43:16Z</time>
      </trkpt>
      <trkpt lat="47.17805" lon="6.07429">
        <ele>410</ele>
        <time>2020-03-17T08:43:23Z</time>
      </trkpt>
      <trkpt lat="47.17779" lon="6.07442">
        <ele>410</ele>
        <time>2020-03-17T08:43:32Z</time>
      </trkpt>
      <trkpt lat="47.17773" lon="6.07444">
        <ele>411</ele>
        <time>2020-03-17T08:43:34Z</time>
      </trkpt>
      <trkpt lat="47.17751" lon="6.07446">
        <ele>411</ele>
        <time>2020-03-17T08:43:41Z</time>
      </trkpt>
      <trkpt lat="47.17748" lon="6.07446">
        <ele>412</ele>
        <time>2020-03-17T08:43:42Z</time>
      </trkpt>
      <trkpt lat="47.17731" lon="6.07446">
        <ele>412</ele>
        <time>2020-03-17T08:43:48Z</time>
      </trkpt>
      <trkpt lat="47.17728" lon="6.07446">
        <ele>412</ele>
        <time>2020-03-17T08:43:49Z</time>
      </trkpt>
      <trkpt lat="47.17706" lon="6.07439">
        <ele>412</ele>
        <time>2020-03-17T08:43:56Z</time>
      </trkpt>
      <trkpt lat="47.17693" lon="6.07431">
        <ele>413</ele>
        <time>2020-03-17T08:44:00Z</time>
      </trkpt>
      <trkpt lat="47.17671" lon="6.07419">
        <ele>414</ele>
        <time>2020-03-17T08:44:07Z</time>
      </trkpt>
      <trkpt lat="47.17658" lon="6.07412">
        <ele>415</ele>
        <time>2020-03-17T08:44:11Z</time>
      </trkpt>
      <trkpt lat="47.17643" lon="6.07403">
        <ele>417</ele>
        <time>2020-03-17T08:44:16Z</time>
      </trkpt>
      <trkpt lat="47.17635" lon="6.07396">
        <ele>418</ele>
        <time>2020-03-17T08:44:19Z</time>
      </trkpt>
      <trkpt lat="47.17629" lon="6.07386">
        <ele>420</ele>
        <time>2020-03-17T08:44:22Z</time>
      </trkpt>
      <trkpt lat="47.17622" lon="6.07361">
        <ele>423</ele>
        <time>2020-03-17T08:44:28Z</time>
      </trkpt>
      <trkpt lat="47.17615" lon="6.07327">
        <ele>423</ele>
        <time>2020-03-17T08:44:36Z</time>
      </trkpt>
      <trkpt lat="47.17607" lon="6.07287">
        <ele>422</ele>
        <time>2020-03-17T08:44:45Z</time>
      </trkpt>
      <trkpt lat="47.17606" lon="6.07282">
        <ele>422</ele>
        <time>2020-03-17T08:44:46Z</time>
      </trkpt>
      <trkpt lat="47.176" lon="6.0726">
        <ele>421</ele>
        <time>2020-03-17T08:44:51Z</time>
      </trkpt>
      <trkpt lat="47.17598" lon="6.0725">
        <ele>421</ele>
        <time>2020-03-17T08:44:53Z</time>
      </trkpt>
      <trkpt lat="47.17596" lon="6.0724">
        <ele>421</ele>
        <time>2020-03-17T08:44:55Z</time>
      </trkpt>
      <trkpt lat="47.17586" lon="6.07207">
        <ele>420</ele>
        <time>2020-03-17T08:45:02Z</time>
      </trkpt>
      <trkpt lat="47.17584" lon="6.07203">
        <ele>420</ele>
        <time>2020-03-17T08:45:03Z</time>
      </trkpt>
      <trkpt lat="47.17576" lon="6.07183">
        <ele>420</ele>
        <time>2020-03-17T08:45:08Z</time>
      </trkpt>
      <trkpt lat="47.17571" lon="6.07171">
        <ele>421</ele>
        <time>2020-03-17T08:45:11Z</time>
      </trkpt>
      <trkpt lat="47.17566" lon="6.07162">
        <ele>422</ele>
        <time>2020-03-17T08:45:14Z</time>
      </trkpt>
      <trkpt lat="47.17558" lon="6.07155">
        <ele>423</ele>
        <time>2020-03-17T08:45:17Z</time>
      </trkpt>
      <trkpt lat="47.17556" lon="6.07152">
        <ele>423</ele>
        <time>2020-03-17T08:45:18Z</time>
      </trkpt>
      <trkpt lat="47.17542" lon="6.07145">
        <ele>426</ele>
        <time>2020-03-17T08:45:23Z</time>
      </trkpt>
      <trkpt lat="47.17539" lon="6.07145">
        <ele>426</ele>
        <time>2020-03-17T08:45:24Z</time>
      </trkpt>
      <trkpt lat="47.17531" lon="6.07146">
        <ele>428</ele>
        <time>2020-03-17T08:45:27Z</time>
      </trkpt>
      <trkpt lat="47.17523" lon="6.0715">
        <ele>430</ele>
        <time>2020-03-17T08:45:30Z</time>
      </trkpt>
      <trkpt lat="47.17521" lon="6.07151">
        <ele>431</ele>
        <time>2020-03-17T08:45:31Z</time>
      </trkpt>
      <trkpt lat="47.17512" lon="6.07161">
        <ele>435</ele>
        <time>2020-03-17T08:45:36Z</time>
      </trkpt>
      <trkpt lat="47.17502" lon="6.07178">
        <ele>441</ele>
        <time>2020-03-17T08:45:43Z</time>
      </trkpt>
      <trkpt lat="47.17499" lon="6.07182">
        <ele>442</ele>
        <time>2020-03-17T08:45:45Z</time>
      </trkpt>
      <trkpt lat="47.17494" lon="6.07188">
        <ele>444</ele>
        <time>2020-03-17T08:45:48Z</time>
      </trkpt>
      <trkpt lat="47.1749" lon="6.07195">
        <ele>446</ele>
        <time>2020-03-17T08:45:51Z</time>
      </trkpt>
      <trkpt lat="47.17488" lon="6.07202">
        <ele>447</ele>
        <time>2020-03-17T08:45:53Z</time>
      </trkpt>
      <trkpt lat="47.17483" lon="6.07223">
        <ele>450</ele>
        <time>2020-03-17T08:45:59Z</time>
      </trkpt>
      <trkpt lat="47.17483" lon="6.0723">
        <ele>451</ele>
        <time>2020-03-17T08:46:01Z</time>
      </trkpt>
      <trkpt lat="47.17483" lon="6.0725">
        <ele>452</ele>
        <time>2020-03-17T08:46:06Z</time>
      </trkpt>
      <trkpt lat="47.17486" lon="6.07271">
        <ele>453</ele>
        <time>2020-03-17T08:46:11Z</time>
      </trkpt>
      <trkpt lat="47.17487" lon="6.07276">
        <ele>453</ele>
        <time>2020-03-17T08:46:12Z</time>
      </trkpt>
      <trkpt lat="47.17489" lon="6.07293">
        <ele>454</ele>
        <time>2020-03-17T08:46:16Z</time>
      </trkpt>
      <trkpt lat="47.17492" lon="6.07301">
        <ele>454</ele>
        <time>2020-03-17T08:46:18Z</time>
      </trkpt>
      <trkpt lat="47.17492" lon="6.07304">
        <ele>454</ele>
        <time>2020-03-17T08:46:19Z</time>
      </trkpt>
      <trkpt lat="47.17494" lon="6.07318">
        <ele>454</ele>
        <time>2020-03-17T08:46:23Z</time>
      </trkpt>
      <trkpt lat="47.17495" lon="6.07322">
        <ele>454</ele>
        <time>2020-03-17T08:46:24Z</time>
      </trkpt>
      <trkpt lat="47.17495" lon="6.0733">
        <ele>454</ele>
        <time>2020-03-17T08:46:26Z</time>
      </trkpt>
      <trkpt lat="47.17496" lon="6.07344">
        <ele>453</ele>
        <time>2020-03-17T08:46:29Z</time>
      </trkpt>
      <trkpt lat="47.17497" lon="6.07348">
        <ele>453</ele>
        <time>2020-03-17T08:46:30Z</time>
      </trkpt>
      <trkpt lat="47.17496" lon="6.07361">
        <ele>453</ele>
        <time>2020-03-17T08:46:33Z</time>
      </trkpt>
      <trkpt lat="47.17495" lon="6.07371">
        <ele>454</ele>
        <time>2020-03-17T08:46:35Z</time>
      </trkpt>
      <trkpt lat="47.17493" lon="6.07396">
        <ele>454</ele>
        <time>2020-03-17T08:46:40Z</time>
      </trkpt>
      <trkpt lat="47.1749" lon="6.0743">
        <ele>456</ele>
        <time>2020-03-17T08:46:46Z</time>
      </trkpt>
      <trkpt lat="47.17495" lon="6.07472">
        <ele>454</ele>
        <time>2020-03-17T08:46:52Z</time>
      </trkpt>
      <trkpt lat="47.17495" lon="6.07512">
        <ele>453</ele>
        <time>2020-03-17T08:46:58Z</time>
      </trkpt>
      <trkpt lat="47.17495" lon="6.07518">
        <ele>453</ele>
        <time>2020-03-17T08:46:59Z</time>
      </trkpt>
      <trkpt lat="47.17497" lon="6.07536">
        <ele>453</ele>
        <time>2020-03-17T08:47:03Z</time>
      </trkpt>
      <trkpt lat="47.17496" lon="6.07558">
        <ele>454</ele>
        <time>2020-03-17T08:47:09Z</time>
      </trkpt>
      <trkpt lat="47.17495" lon="6.07565">
        <ele>455</ele>
        <time>2020-03-17T08:47:11Z</time>
      </trkpt>
      <trkpt lat="47.17492" lon="6.07568">
        <ele>456</ele>
        <time>2020-03-17T08:47:13Z</time>
      </trkpt>
      <trkpt lat="47.1749" lon="6.07568">
        <ele>456</ele>
        <time>2020-03-17T08:47:14Z</time>
      </trkpt>
      <trkpt lat="47.17486" lon="6.07558">
        <ele>457</ele>
        <time>2020-03-17T08:47:18Z</time>
      </trkpt>
      <trkpt lat="47.17487" lon="6.07555">
        <ele>456</ele>
        <time>2020-03-17T08:47:19Z</time>
      </trkpt>
      <trkpt lat="47.17489" lon="6.07548">
        <ele>456</ele>
        <time>2020-03-17T08:47:21Z</time>
      </trkpt>
      <trkpt lat="47.1749" lon="6.07544">
        <ele>455</ele>
        <time>2020-03-17T08:47:22Z</time>
      </trkpt>
      <trkpt lat="47.17492" lon="6.07536">
        <ele>454</ele>
        <time>2020-03-17T08:47:24Z</time>
      </trkpt>
      <trkpt lat="47.17494" lon="6.07527">
        <ele>453</ele>
        <time>2020-03-17T08:47:26Z</time>
      </trkpt>
      <trkpt lat="47.17497" lon="6.07513">
        <ele>453</ele>
        <time>2020-03-17T08:47:29Z</time>
      </trkpt>
      <trkpt lat="47.17497" lon="6.07503">
        <ele>453</ele>
        <time>2020-03-17T08:47:31Z</time>
      </trkpt>
      <trkpt lat="47.17493" lon="6.07471">
        <ele>455</ele>
        <time>2020-03-17T08:47:38Z</time>
      </trkpt>
      <trkpt lat="47.17489" lon="6.07444">
        <ele>456</ele>
        <time>2020-03-17T08:47:44Z</time>
      </trkpt>
      <trkpt lat="47.17488" lon="6.07422">
        <ele>456</ele>
        <time>2020-03-17T08:47:49Z</time>
      </trkpt>
      <trkpt lat="47.17488" lon="6.07414">
        <ele>456</ele>
        <time>2020-03-17T08:47:51Z</time>
      </trkpt>
      <trkpt lat="47.17489" lon="6.07388">
        <ele>455</ele>
        <time>2020-03-17T08:47:57Z</time>
      </trkpt>
      <trkpt lat="47.17489" lon="6.0738">
        <ele>455</ele>
        <time>2020-03-17T08:47:59Z</time>
      </trkpt>
      <trkpt lat="47.1749" lon="6.07363">
        <ele>455</ele>
        <time>2020-03-17T08:48:04Z</time>
      </trkpt>
      <trkpt lat="47.1749" lon="6.07355">
        <ele>455</ele>
        <time>2020-03-17T08:48:06Z</time>
      </trkpt>
      <trkpt lat="47.17486" lon="6.07332">
        <ele>456</ele>
        <time>2020-03-17T08:48:12Z</time>
      </trkpt>
      <trkpt lat="47.17479" lon="6.07311">
        <ele>458</ele>
        <time>2020-03-17T08:48:17Z</time>
      </trkpt>
      <trkpt lat="47.17478" lon="6.07307">
        <ele>458</ele>
        <time>2020-03-17T08:48:18Z</time>
      </trkpt>
      <trkpt lat="47.17475" lon="6.07298">
        <ele>458</ele>
        <time>2020-03-17T08:48:20Z</time>
      </trkpt>
      <trkpt lat="47.17472" lon="6.07285">
        <ele>459</ele>
        <time>2020-03-17T08:48:23Z</time>
      </trkpt>
      <trkpt lat="47.17469" lon="6.07278">
        <ele>459</ele>
        <time>2020-03-17T08:48:25Z</time>
      </trkpt>
      <trkpt lat="47.17468" lon="6.07274">
        <ele>459</ele>
        <time>2020-03-17T08:48:26Z</time>
      </trkpt>
      <trkpt lat="47.17464" lon="6.07263">
        <ele>459</ele>
        <time>2020-03-17T08:48:29Z</time>
      </trkpt>
      <trkpt lat="47.17459" lon="6.07247">
        <ele>459</ele>
        <time>2020-03-17T08:48:33Z</time>
      </trkpt>
      <trkpt lat="47.17457" lon="6.07242">
        <ele>459</ele>
        <time>2020-03-17T08:48:34Z</time>
      </trkpt>
      <trkpt lat="47.17451" lon="6.07226">
        <ele>461</ele>
        <time>2020-03-17T08:48:38Z</time>
      </trkpt>
      <trkpt lat="47.17446" lon="6.07218">
        <ele>462</ele>
        <time>2020-03-17T08:48:41Z</time>
      </trkpt>
      <trkpt lat="47.17444" lon="6.07216">
        <ele>462</ele>
        <time>2020-03-17T08:48:42Z</time>
      </trkpt>
      <trkpt lat="47.1744" lon="6.07209">
        <ele>462</ele>
        <time>2020-03-17T08:48:45Z</time>
      </trkpt>
      <trkpt lat="47.17437" lon="6.07207">
        <ele>462</ele>
        <time>2020-03-17T08:48:47Z</time>
      </trkpt>
      <trkpt lat="47.17435" lon="6.07206">
        <ele>463</ele>
        <time>2020-03-17T08:48:48Z</time>
      </trkpt>
      <trkpt lat="47.17433" lon="6.07204">
        <ele>463</ele>
        <time>2020-03-17T08:48:49Z</time>
      </trkpt>
      <trkpt lat="47.17419" lon="6.07175">
        <ele>463</ele>
        <time>2020-03-17T08:59:10Z</time>
      </trkpt>
      <trkpt lat="47.1742" lon="6.07178">
        <ele>463</ele>
        <time>2020-03-17T08:59:11Z</time>
      </trkpt>
      <trkpt lat="47.17423" lon="6.07183">
        <ele>463</ele>
        <time>2020-03-17T08:59:14Z</time>
      </trkpt>
      <trkpt lat="47.17425" lon="6.07188">
        <ele>463</ele>
        <time>2020-03-17T08:59:16Z</time>
      </trkpt>
      <trkpt lat="47.17428" lon="6.07207">
        <ele>464</ele>
        <time>2020-03-17T08:59:21Z</time>
      </trkpt>
      <trkpt lat="47.17426" lon="6.07216">
        <ele>464</ele>
        <time>2020-03-17T08:59:24Z</time>
      </trkpt>
      <trkpt lat="47.17425" lon="6.07223">
        <ele>465</ele>
        <time>2020-03-17T08:59:27Z</time>
      </trkpt>
      <trkpt lat="47.1742" lon="6.07238">
        <ele>465</ele>
        <time>2020-03-17T08:59:33Z</time>
      </trkpt>
      <trkpt lat="47.17419" lon="6.07241">
        <ele>465</ele>
        <time>2020-03-17T08:59:34Z</time>
      </trkpt>
      <trkpt lat="47.17416" lon="6.07254">
        <ele>465</ele>
        <time>2020-03-17T08:59:38Z</time>
      </trkpt>
      <trkpt lat="47.17415" lon="6.07258">
        <ele>465</ele>
        <time>2020-03-17T08:59:39Z</time>
      </trkpt>
      <trkpt lat="47.17409" lon="6.0727">
        <ele>465</ele>
        <time>2020-03-17T08:59:44Z</time>
      </trkpt>
      <trkpt lat="47.17409" lon="6.07272">
        <ele>465</ele>
        <time>2020-03-17T08:59:45Z</time>
      </trkpt>
      <trkpt lat="47.17408" lon="6.0728">
        <ele>464</ele>
        <time>2020-03-17T08:59:48Z</time>
      </trkpt>
      <trkpt lat="47.17407" lon="6.07282">
        <ele>464</ele>
        <time>2020-03-17T08:59:49Z</time>
      </trkpt>
      <trkpt lat="47.17404" lon="6.07287">
        <ele>464</ele>
        <time>2020-03-17T08:59:51Z</time>
      </trkpt>
      <trkpt lat="47.17405" lon="6.0729">
        <ele>464</ele>
        <time>2020-03-17T08:59:53Z</time>
      </trkpt>
      <trkpt lat="47.17407" lon="6.0729">
        <ele>464</ele>
        <time>2020-03-17T08:59:54Z</time>
      </trkpt>
      <trkpt lat="47.17409" lon="6.07288">
        <ele>464</ele>
        <time>2020-03-17T08:59:55Z</time>
      </trkpt>
      <trkpt lat="47.17411" lon="6.0728">
        <ele>464</ele>
        <time>2020-03-17T08:59:59Z</time>
      </trkpt>
      <trkpt lat="47.17416" lon="6.07258">
        <ele>465</ele>
        <time>2020-03-17T09:00:05Z</time>
      </trkpt>
      <trkpt lat="47.17423" lon="6.07233">
        <ele>465</ele>
        <time>2020-03-17T09:00:10Z</time>
      </trkpt>
      <trkpt lat="47.17424" lon="6.07227">
        <ele>465</ele>
        <time>2020-03-17T09:00:11Z</time>
      </trkpt>
      <trkpt lat="47.17423" lon="6.07208">
        <ele>464</ele>
        <time>2020-03-17T09:00:15Z</time>
      </trkpt>
      <trkpt lat="47.17423" lon="6.07197">
        <ele>464</ele>
        <time>2020-03-17T09:00:22Z</time>
      </trkpt>
      <trkpt lat="47.17423" lon="6.07203">
        <ele>464</ele>
        <time>2020-03-17T09:00:24Z</time>
      </trkpt>
      <trkpt lat="47.17419" lon="6.07209">
        <ele>465</ele>
        <time>2020-03-17T09:00:28Z</time>
      </trkpt>
      <trkpt lat="47.17417" lon="6.0721">
        <ele>465</ele>
        <time>2020-03-17T09:00:29Z</time>
      </trkpt>
      <trkpt lat="47.17412" lon="6.07212">
        <ele>465</ele>
        <time>2020-03-17T09:00:32Z</time>
      </trkpt>
      <trkpt lat="47.17407" lon="6.07214">
        <ele>466</ele>
        <time>2020-03-17T09:00:35Z</time>
      </trkpt>
      <trkpt lat="47.17397" lon="6.07221">
        <ele>466</ele>
        <time>2020-03-17T09:00:41Z</time>
      </trkpt>
      <trkpt lat="47.17395" lon="6.07222">
        <ele>466</ele>
        <time>2020-03-17T09:00:42Z</time>
      </trkpt>
      <trkpt lat="47.17384" lon="6.07226">
        <ele>466</ele>
        <time>2020-03-17T09:00:48Z</time>
      </trkpt>
      <trkpt lat="47.17381" lon="6.07227">
        <ele>466</ele>
        <time>2020-03-17T09:00:49Z</time>
      </trkpt>
      <trkpt lat="47.17376" lon="6.07228">
        <ele>466</ele>
        <time>2020-03-17T09:00:51Z</time>
      </trkpt>
      <trkpt lat="47.17375" lon="6.07229">
        <ele>466</ele>
        <time>2020-03-17T09:00:52Z</time>
      </trkpt>
      <trkpt lat="47.17368" lon="6.07234">
        <ele>466</ele>
        <time>2020-03-17T09:00:56Z</time>
      </trkpt>
      <trkpt lat="47.17361" lon="6.07237">
        <ele>466</ele>
        <time>2020-03-17T09:01:00Z</time>
      </trkpt>
      <trkpt lat="47.17359" lon="6.0724">
        <ele>466</ele>
        <time>2020-03-17T09:01:02Z</time>
      </trkpt>
      <trkpt lat="47.17358" lon="6.07241">
        <ele>466</ele>
        <time>2020-03-17T09:01:03Z</time>
      </trkpt>
      <trkpt lat="47.17353" lon="6.07245">
        <ele>466</ele>
        <time>2020-03-17T09:01:06Z</time>
      </trkpt>
      <trkpt lat="47.1735" lon="6.07247">
        <ele>466</ele>
        <time>2020-03-17T09:01:08Z</time>
      </trkpt>
      <trkpt lat="47.17339" lon="6.07261">
        <ele>467</ele>
        <time>2020-03-17T09:01:18Z</time>
      </trkpt>
      <trkpt lat="47.17332" lon="6.07267">
        <ele>468</ele>
        <time>2020-03-17T09:01:21Z</time>
      </trkpt>
      <trkpt lat="47.1733" lon="6.07271">
        <ele>468</ele>
        <time>2020-03-17T09:01:23Z</time>
      </trkpt>
      <trkpt lat="47.17329" lon="6.07273">
        <ele>468</ele>
        <time>2020-03-17T09:01:24Z</time>
      </trkpt>
      <trkpt lat="47.17326" lon="6.07278">
        <ele>469</ele>
        <time>2020-03-17T09:01:26Z</time>
      </trkpt>
      <trkpt lat="47.17325" lon="6.07279">
        <ele>469</ele>
        <time>2020-03-17T09:01:27Z</time>
      </trkpt>
      <trkpt lat="47.1732" lon="6.07284">
        <ele>469</ele>
        <time>2020-03-17T09:01:30Z</time>
      </trkpt>
      <trkpt lat="47.17316" lon="6.07291">
        <ele>470</ele>
        <time>2020-03-17T09:01:33Z</time>
      </trkpt>
      <trkpt lat="47.17313" lon="6.07297">
        <ele>470</ele>
        <time>2020-03-17T09:01:36Z</time>
      </trkpt>
      <trkpt lat="47.1731" lon="6.07305">
        <ele>471</ele>
        <time>2020-03-17T09:01:39Z</time>
      </trkpt>
      <trkpt lat="47.17303" lon="6.07319">
        <ele>472</ele>
        <time>2020-03-17T09:01:44Z</time>
      </trkpt>
      <trkpt lat="47.17301" lon="6.07323">
        <ele>472</ele>
        <time>2020-03-17T09:01:45Z</time>
      </trkpt>
      <trkpt lat="47.17299" lon="6.07329">
        <ele>472</ele>
        <time>2020-03-17T09:01:47Z</time>
      </trkpt>
      <trkpt lat="47.17296" lon="6.07336">
        <ele>472</ele>
        <time>2020-03-17T09:01:49Z</time>
      </trkpt>
      <trkpt lat="47.17293" lon="6.07349">
        <ele>473</ele>
        <time>2020-03-17T09:01:53Z</time>
      </trkpt>
      <trkpt lat="47.17293" lon="6.07353">
        <ele>473</ele>
        <time>2020-03-17T09:01:54Z</time>
      </trkpt>
      <trkpt lat="47.17289" lon="6.07366">
        <ele>474</ele>
        <time>2020-03-17T09:01:58Z</time>
      </trkpt>
      <trkpt lat="47.17287" lon="6.07375">
        <ele>474</ele>
        <time>2020-03-17T09:02:01Z</time>
      </trkpt>
      <trkpt lat="47.17286" lon="6.07378">
        <ele>474</ele>
        <time>2020-03-17T09:02:02Z</time>
      </trkpt>
      <trkpt lat="47.17285" lon="6.07381">
        <ele>475</ele>
        <time>2020-03-17T09:02:03Z</time>
      </trkpt>
      <trkpt lat="47.1728" lon="6.07397">
        <ele>476</ele>
        <time>2020-03-17T09:02:08Z</time>
      </trkpt>
      <trkpt lat="47.17277" lon="6.07411">
        <ele>476</ele>
        <time>2020-03-17T09:02:12Z</time>
      </trkpt>
      <trkpt lat="47.17276" lon="6.07419">
        <ele>477</ele>
        <time>2020-03-17T09:02:14Z</time>
      </trkpt>
      <trkpt lat="47.17269" lon="6.07442">
        <ele>479</ele>
        <time>2020-03-17T09:02:21Z</time>
      </trkpt>
      <trkpt lat="47.17265" lon="6.07464">
        <ele>479</ele>
        <time>2020-03-17T09:02:27Z</time>
      </trkpt>
      <trkpt lat="47.17263" lon="6.07474">
        <ele>479</ele>
        <time>2020-03-17T09:02:31Z</time>
      </trkpt>
      <trkpt lat="47.1726" lon="6.0748">
        <ele>479</ele>
        <time>2020-03-17T09:02:33Z</time>
      </trkpt>
      <trkpt lat="47.17255" lon="6.07493">
        <ele>478</ele>
        <time>2020-03-17T09:02:37Z</time>
      </trkpt>
      <trkpt lat="47.1725" lon="6.07502">
        <ele>478</ele>
        <time>2020-03-17T09:02:40Z</time>
      </trkpt>
      <trkpt lat="47.17248" lon="6.07505">
        <ele>478</ele>
        <time>2020-03-17T09:02:41Z</time>
      </trkpt>
      <trkpt lat="47.17239" lon="6.07523">
        <ele>478</ele>
        <time>2020-03-17T09:02:47Z</time>
      </trkpt>
      <trkpt lat="47.17231" lon="6.07534">
        <ele>478</ele>
        <time>2020-03-17T09:02:52Z</time>
      </trkpt>
      <trkpt lat="47.17224" lon="6.07549">
        <ele>478</ele>
        <time>2020-03-17T09:02:58Z</time>
      </trkpt>
      <trkpt lat="47.17219" lon="6.07561">
        <ele>479</ele>
        <time>2020-03-17T09:03:02Z</time>
      </trkpt>
      <trkpt lat="47.17218" lon="6.07563">
        <ele>479</ele>
        <time>2020-03-17T09:03:03Z</time>
      </trkpt>
      <trkpt lat="47.17219" lon="6.07566">
        <ele>479</ele>
        <time>2020-03-17T09:03:04Z</time>
      </trkpt>
      <trkpt lat="47.17214" lon="6.0757">
        <ele>480</ele>
        <time>2020-03-17T09:03:08Z</time>
      </trkpt>
      <trkpt lat="47.17207" lon="6.07567">
        <ele>480</ele>
        <time>2020-03-17T09:03:11Z</time>
      </trkpt>
      <trkpt lat="47.17203" lon="6.07569">
        <ele>480</ele>
        <time>2020-03-17T09:03:13Z</time>
      </trkpt>
      <trkpt lat="47.172" lon="6.07573">
        <ele>480</ele>
        <time>2020-03-17T09:03:15Z</time>
      </trkpt>
      <trkpt lat="47.17197" lon="6.07581">
        <ele>480</ele>
        <time>2020-03-17T09:03:18Z</time>
      </trkpt>
      <trkpt lat="47.17192" lon="6.0759">
        <ele>480</ele>
        <time>2020-03-17T09:03:21Z</time>
      </trkpt>
      <trkpt lat="47.17186" lon="6.07606">
        <ele>480</ele>
        <time>2020-03-17T09:03:26Z</time>
      </trkpt>
      <trkpt lat="47.17177" lon="6.07625">
        <ele>479</ele>
        <time>2020-03-17T09:03:32Z</time>
      </trkpt>
      <trkpt lat="47.17173" lon="6.07634">
        <ele>479</ele>
        <time>2020-03-17T09:03:35Z</time>
      </trkpt>
      <trkpt lat="47.17162" lon="6.07657">
        <ele>478</ele>
        <time>2020-03-17T09:03:42Z</time>
      </trkpt>
      <trkpt lat="47.17158" lon="6.07664">
        <ele>478</ele>
        <time>2020-03-17T09:03:44Z</time>
      </trkpt>
      <trkpt lat="47.17149" lon="6.07679">
        <ele>478</ele>
        <time>2020-03-17T09:03:48Z</time>
      </trkpt>
      <trkpt lat="47.17138" lon="6.07699">
        <ele>479</ele>
        <time>2020-03-17T09:03:54Z</time>
      </trkpt>
      <trkpt lat="47.17125" lon="6.07722">
        <ele>477</ele>
        <time>2020-03-17T09:04:02Z</time>
      </trkpt>
      <trkpt lat="47.1712" lon="6.0773">
        <ele>477</ele>
        <time>2020-03-17T09:04:05Z</time>
      </trkpt>
      <trkpt lat="47.17112" lon="6.07742">
        <ele>477</ele>
        <time>2020-03-17T09:04:10Z</time>
      </trkpt>
      <trkpt lat="47.1711" lon="6.07744">
        <ele>477</ele>
        <time>2020-03-17T09:04:11Z</time>
      </trkpt>
      <trkpt lat="47.17106" lon="6.07751">
        <ele>477</ele>
        <time>2020-03-17T09:04:14Z</time>
      </trkpt>
      <trkpt lat="47.17101" lon="6.07763">
        <ele>477</ele>
        <time>2020-03-17T09:04:19Z</time>
      </trkpt>
      <trkpt lat="47.17098" lon="6.07771">
        <ele>477</ele>
        <time>2020-03-17T09:04:22Z</time>
      </trkpt>
      <trkpt lat="47.17092" lon="6.07781">
        <ele>477</ele>
        <time>2020-03-17T09:04:26Z</time>
      </trkpt>
      <trkpt lat="47.17076" lon="6.07803">
        <ele>478</ele>
        <time>2020-03-17T09:04:34Z</time>
      </trkpt>
      <trkpt lat="47.17053" lon="6.07826">
        <ele>480</ele>
        <time>2020-03-17T09:04:43Z</time>
      </trkpt>
      <trkpt lat="47.17032" lon="6.07842">
        <ele>481</ele>
        <time>2020-03-17T09:04:51Z</time>
      </trkpt>
      <trkpt lat="47.17013" lon="6.07852">
        <ele>480</ele>
        <time>2020-03-17T09:04:58Z</time>
      </trkpt>
      <trkpt lat="47.16996" lon="6.0786">
        <ele>479</ele>
        <time>2020-03-17T09:05:04Z</time>
      </trkpt>
      <trkpt lat="47.1697" lon="6.07873">
        <ele>478</ele>
        <time>2020-03-17T09:05:12Z</time>
      </trkpt>
      <trkpt lat="47.16952" lon="6.07885">
        <ele>479</ele>
        <time>2020-03-17T09:05:17Z</time>
      </trkpt>
      <trkpt lat="47.16943" lon="6.07892">
        <ele>479</ele>
        <time>2020-03-17T09:05:19Z</time>
      </trkpt>
      <trkpt lat="47.16934" lon="6.07897">
        <ele>478</ele>
        <time>2020-03-17T09:05:21Z</time>
      </trkpt>
      <trkpt lat="47.16923" lon="6.07905">
        <ele>478</ele>
        <time>2020-03-17T09:05:24Z</time>
      </trkpt>
      <trkpt lat="47.16905" lon="6.07917">
        <ele>478</ele>
        <time>2020-03-17T09:05:31Z</time>
      </trkpt>
      <trkpt lat="47.16898" lon="6.07918">
        <ele>477</ele>
        <time>2020-03-17T09:07:35Z</time>
      </trkpt>
      <trkpt lat="47.1689" lon="6.07919">
        <ele>477</ele>
        <time>2020-03-17T09:07:39Z</time>
      </trkpt>
      <trkpt lat="47.16883" lon="6.07922">
        <ele>477</ele>
        <time>2020-03-17T09:07:42Z</time>
      </trkpt>
      <trkpt lat="47.16868" lon="6.07935">
        <ele>478</ele>
        <time>2020-03-17T09:07:49Z</time>
      </trkpt>
      <trkpt lat="47.16861" lon="6.07945">
        <ele>478</ele>
        <time>2020-03-17T09:07:53Z</time>
      </trkpt>
      <trkpt lat="47.16859" lon="6.07947">
        <ele>478</ele>
        <time>2020-03-17T09:07:54Z</time>
      </trkpt>
      <trkpt lat="47.16858" lon="6.07949">
        <ele>478</ele>
        <time>2020-03-17T09:07:55Z</time>
      </trkpt>
      <trkpt lat="47.16855" lon="6.07952">
        <ele>478</ele>
        <time>2020-03-17T09:07:57Z</time>
      </trkpt>
      <trkpt lat="47.16854" lon="6.07955">
        <ele>479</ele>
        <time>2020-03-17T09:07:58Z</time>
      </trkpt>
      <trkpt lat="47.16844" lon="6.07966">
        <ele>480</ele>
        <time>2020-03-17T09:08:02Z</time>
      </trkpt>
      <trkpt lat="47.16841" lon="6.07968">
        <ele>480</ele>
        <time>2020-03-17T09:08:03Z</time>
      </trkpt>
      <trkpt lat="47.16839" lon="6.07971">
        <ele>480</ele>
        <time>2020-03-17T09:08:04Z</time>
      </trkpt>
      <trkpt lat="47.1683" lon="6.07975">
        <ele>481</ele>
        <time>2020-03-17T09:08:07Z</time>
      </trkpt>
      <trkpt lat="47.16824" lon="6.07978">
        <ele>481</ele>
        <time>2020-03-17T09:08:09Z</time>
      </trkpt>
      <trkpt lat="47.1681" lon="6.07984">
        <ele>481</ele>
        <time>2020-03-17T09:08:13Z</time>
      </trkpt>
      <trkpt lat="47.16799" lon="6.07989">
        <ele>481</ele>
        <time>2020-03-17T09:08:16Z</time>
      </trkpt>
      <trkpt lat="47.16784" lon="6.07994">
        <ele>481</ele>
        <time>2020-03-17T09:08:21Z</time>
      </trkpt>
      <trkpt lat="47.16758" lon="6.08007">
        <ele>479</ele>
        <time>2020-03-17T09:08:28Z</time>
      </trkpt>
      <trkpt lat="47.16737" lon="6.08016">
        <ele>477</ele>
        <time>2020-03-17T09:08:34Z</time>
      </trkpt>
      <trkpt lat="47.16724" lon="6.08023">
        <ele>476</ele>
        <time>2020-03-17T09:08:37Z</time>
      </trkpt>
      <trkpt lat="47.16719" lon="6.08027">
        <ele>476</ele>
        <time>2020-03-17T09:08:38Z</time>
      </trkpt>
      <trkpt lat="47.1669" lon="6.08042">
        <ele>472</ele>
        <time>2020-03-17T09:08:43Z</time>
      </trkpt>
      <trkpt lat="47.16671" lon="6.08049">
        <ele>470</ele>
        <time>2020-03-17T09:08:46Z</time>
      </trkpt>
      <trkpt lat="47.16654" lon="6.08057">
        <ele>468</ele>
        <time>2020-03-17T09:08:49Z</time>
      </trkpt>
      <trkpt lat="47.16645" lon="6.08061">
        <ele>467</ele>
        <time>2020-03-17T09:08:51Z</time>
      </trkpt>
      <trkpt lat="47.16638" lon="6.08064">
        <ele>466</ele>
        <time>2020-03-17T09:08:53Z</time>
      </trkpt>
      <trkpt lat="47.16634" lon="6.08066">
        <ele>466</ele>
        <time>2020-03-17T09:08:54Z</time>
      </trkpt>
      <trkpt lat="47.16632" lon="6.0807">
        <ele>467</ele>
        <time>2020-03-17T09:08:55Z</time>
      </trkpt>
      <trkpt lat="47.16627" lon="6.08079">
        <ele>468</ele>
        <time>2020-03-17T09:08:57Z</time>
      </trkpt>
      <trkpt lat="47.16627" lon="6.08084">
        <ele>468</ele>
        <time>2020-03-17T09:08:58Z</time>
      </trkpt>
      <trkpt lat="47.16628" lon="6.08089">
        <ele>468</ele>
        <time>2020-03-17T09:08:59Z</time>
      </trkpt>
      <trkpt lat="47.16632" lon="6.08101">
        <ele>469</ele>
        <time>2020-03-17T09:09:02Z</time>
      </trkpt>
      <trkpt lat="47.16637" lon="6.08119">
        <ele>470</ele>
        <time>2020-03-17T09:09:06Z</time>
      </trkpt>
      <trkpt lat="47.16642" lon="6.08134">
        <ele>470</ele>
        <time>2020-03-17T09:09:09Z</time>
      </trkpt>
      <trkpt lat="47.16645" lon="6.08144">
        <ele>471</ele>
        <time>2020-03-17T09:09:11Z</time>
      </trkpt>
      <trkpt lat="47.16655" lon="6.08173">
        <ele>472</ele>
        <time>2020-03-17T09:09:17Z</time>
      </trkpt>
      <trkpt lat="47.16663" lon="6.08192">
        <ele>472</ele>
        <time>2020-03-17T09:09:23Z</time>
      </trkpt>
      <trkpt lat="47.16665" lon="6.08199">
        <ele>472</ele>
        <time>2020-03-17T09:09:26Z</time>
      </trkpt>
      <trkpt lat="47.16667" lon="6.08203">
        <ele>472</ele>
        <time>2020-03-17T09:09:29Z</time>
      </trkpt>
      <trkpt lat="47.16666" lon="6.08198">
        <ele>472</ele>
        <time>2020-03-17T09:09:33Z</time>
      </trkpt>
      <trkpt lat="47.16664" lon="6.08196">
        <ele>472</ele>
        <time>2020-03-17T09:09:34Z</time>
      </trkpt>
      <trkpt lat="47.16657" lon="6.0818">
        <ele>472</ele>
        <time>2020-03-17T09:09:38Z</time>
      </trkpt>
      <trkpt lat="47.16651" lon="6.08165">
        <ele>471</ele>
        <time>2020-03-17T09:09:41Z</time>
      </trkpt>
      <trkpt lat="47.16646" lon="6.08153">
        <ele>471</ele>
        <time>2020-03-17T09:09:43Z</time>
      </trkpt>
      <trkpt lat="47.16639" lon="6.08134">
        <ele>470</ele>
        <time>2020-03-17T09:09:46Z</time>
      </trkpt>
      <trkpt lat="47.16635" lon="6.08118">
        <ele>470</ele>
        <time>2020-03-17T09:09:49Z</time>
      </trkpt>
      <trkpt lat="47.16632" lon="6.08107">
        <ele>470</ele>
        <time>2020-03-17T09:09:51Z</time>
      </trkpt>
      <trkpt lat="47.16628" lon="6.08093">
        <ele>469</ele>
        <time>2020-03-17T09:09:54Z</time>
      </trkpt>
      <trkpt lat="47.16625" lon="6.08073">
        <ele>467</ele>
        <time>2020-03-17T09:09:58Z</time>
      </trkpt>
      <trkpt lat="47.16626" lon="6.08068">
        <ele>466</ele>
        <time>2020-03-17T09:09:59Z</time>
      </trkpt>
      <trkpt lat="47.1663" lon="6.08063">
        <ele>466</ele>
        <time>2020-03-17T09:10:01Z</time>
      </trkpt>
      <trkpt lat="47.16633" lon="6.08061">
        <ele>466</ele>
        <time>2020-03-17T09:10:03Z</time>
      </trkpt>
      <trkpt lat="47.16642" lon="6.08057">
        <ele>466</ele>
        <time>2020-03-17T09:10:07Z</time>
      </trkpt>
      <trkpt lat="47.16653" lon="6.08051">
        <ele>467</ele>
        <time>2020-03-17T09:10:14Z</time>
      </trkpt>
      <trkpt lat="47.1666" lon="6.08047">
        <ele>467</ele>
        <time>2020-03-17T09:10:46Z</time>
      </trkpt>
      <trkpt lat="47.16661" lon="6.08046">
        <ele>468</ele>
        <time>2020-03-17T09:10:47Z</time>
      </trkpt>
      <trkpt lat="47.16666" lon="6.08045">
        <ele>468</ele>
        <time>2020-03-17T09:10:50Z</time>
      </trkpt>
      <trkpt lat="47.16671" lon="6.08044">
        <ele>469</ele>
        <time>2020-03-17T09:10:53Z</time>
      </trkpt>
      <trkpt lat="47.16682" lon="6.0804">
        <ele>470</ele>
        <time>2020-03-17T09:10:58Z</time>
      </trkpt>
      <trkpt lat="47.16685" lon="6.08038">
        <ele>471</ele>
        <time>2020-03-17T09:11:00Z</time>
      </trkpt>
      <trkpt lat="47.16699" lon="6.08033">
        <ele>472</ele>
        <time>2020-03-17T09:11:08Z</time>
      </trkpt>
      <trkpt lat="47.1671" lon="6.08028">
        <ele>474</ele>
        <time>2020-03-17T09:11:14Z</time>
      </trkpt>
      <trkpt lat="47.16721" lon="6.08023">
        <ele>475</ele>
        <time>2020-03-17T09:11:20Z</time>
      </trkpt>
      <trkpt lat="47.16731" lon="6.08017">
        <ele>476</ele>
        <time>2020-03-17T09:11:25Z</time>
      </trkpt>
      <trkpt lat="47.16735" lon="6.08016">
        <ele>477</ele>
        <time>2020-03-17T09:11:27Z</time>
      </trkpt>
      <trkpt lat="47.16739" lon="6.08015">
        <ele>477</ele>
        <time>2020-03-17T09:11:29Z</time>
      </trkpt>
      <trkpt lat="47.16749" lon="6.08008">
        <ele>478</ele>
        <time>2020-03-17T09:11:34Z</time>
      </trkpt>
      <trkpt lat="47.16759" lon="6.08003">
        <ele>479</ele>
        <time>2020-03-17T09:11:39Z</time>
      </trkpt>
      <trkpt lat="47.16762" lon="6.08001">
        <ele>479</ele>
        <time>2020-03-17T09:11:41Z</time>
      </trkpt>
      <trkpt lat="47.16766" lon="6.08">
        <ele>480</ele>
        <time>2020-03-17T09:11:43Z</time>
      </trkpt>
      <trkpt lat="47.16772" lon="6.07995">
        <ele>480</ele>
        <time>2020-03-17T09:11:47Z</time>
      </trkpt>
      <trkpt lat="47.16786" lon="6.07989">
        <ele>481</ele>
        <time>2020-03-17T09:11:53Z</time>
      </trkpt>
      <trkpt lat="47.16803" lon="6.07983">
        <ele>481</ele>
        <time>2020-03-17T09:12:00Z</time>
      </trkpt>
      <trkpt lat="47.1682" lon="6.07975">
        <ele>481</ele>
        <time>2020-03-17T09:12:07Z</time>
      </trkpt>
      <trkpt lat="47.16842" lon="6.07959">
        <ele>480</ele>
        <time>2020-03-17T09:12:13Z</time>
      </trkpt>
      <trkpt lat="47.1686" lon="6.07937">
        <ele>478</ele>
        <time>2020-03-17T09:12:20Z</time>
      </trkpt>
      <trkpt lat="47.16878" lon="6.07925">
        <ele>477</ele>
        <time>2020-03-17T09:12:25Z</time>
      </trkpt>
      <trkpt lat="47.16893" lon="6.07921">
        <ele>477</ele>
        <time>2020-03-17T09:12:29Z</time>
      </trkpt>
      <trkpt lat="47.16899" lon="6.07925">
        <ele>478</ele>
        <time>2020-03-17T09:12:30Z</time>
      </trkpt>
      <trkpt lat="47.16911" lon="6.07943">
        <ele>480</ele>
        <time>2020-03-17T09:12:33Z</time>
      </trkpt>
      <trkpt lat="47.16914" lon="6.07949">
        <ele>481</ele>
        <time>2020-03-17T09:12:34Z</time>
      </trkpt>
      <trkpt lat="47.16926" lon="6.07972">
        <ele>483</ele>
        <time>2020-03-17T09:12:38Z</time>
      </trkpt>
      <trkpt lat="47.16931" lon="6.07981">
        <ele>484</ele>
        <time>2020-03-17T09:12:40Z</time>
      </trkpt>
      <trkpt lat="47.16947" lon="6.0801">
        <ele>486</ele>
        <time>2020-03-17T09:12:48Z</time>
      </trkpt>
      <trkpt lat="47.16951" lon="6.08017">
        <ele>486</ele>
        <time>2020-03-17T09:12:50Z</time>
      </trkpt>
      <trkpt lat="47.16962" lon="6.08035">
        <ele>487</ele>
        <time>2020-03-17T09:12:55Z</time>
      </trkpt>
      <trkpt lat="47.16967" lon="6.08042">
        <ele>487</ele>
        <time>2020-03-17T09:12:57Z</time>
      </trkpt>
      <trkpt lat="47.16969" lon="6.08046">
        <ele>487</ele>
        <time>2020-03-17T09:12:58Z</time>
      </trkpt>
      <trkpt lat="47.16979" lon="6.0806">
        <ele>488</ele>
        <time>2020-03-17T09:13:02Z</time>
      </trkpt>
      <trkpt lat="47.16989" lon="6.08076">
        <ele>488</ele>
        <time>2020-03-17T09:13:06Z</time>
      </trkpt>
      <trkpt lat="47.16994" lon="6.08084">
        <ele>487</ele>
        <time>2020-03-17T09:13:08Z</time>
      </trkpt>
      <trkpt lat="47.17017" lon="6.08123">
        <ele>489</ele>
        <time>2020-03-17T09:13:17Z</time>
      </trkpt>
      <trkpt lat="47.17041" lon="6.0816">
        <ele>490</ele>
        <time>2020-03-17T09:13:25Z</time>
      </trkpt>
      <trkpt lat="47.17057" lon="6.08183">
        <ele>490</ele>
        <time>2020-03-17T09:13:31Z</time>
      </trkpt>
      <trkpt lat="47.17066" lon="6.08189">
        <ele>491</ele>
        <time>2020-03-17T09:13:36Z</time>
      </trkpt>
      <trkpt lat="47.17065" lon="6.08185">
        <ele>491</ele>
        <time>2020-03-17T09:13:41Z</time>
      </trkpt>
      <trkpt lat="47.17062" lon="6.08184">
        <ele>491</ele>
        <time>2020-03-17T09:13:42Z</time>
      </trkpt>
      <trkpt lat="47.17054" lon="6.08175">
        <ele>491</ele>
        <time>2020-03-17T09:13:46Z</time>
      </trkpt>
      <trkpt lat="47.17051" lon="6.08172">
        <ele>491</ele>
        <time>2020-03-17T09:13:47Z</time>
      </trkpt>
      <trkpt lat="47.17047" lon="6.08167">
        <ele>491</ele>
        <time>2020-03-17T09:13:49Z</time>
      </trkpt>
      <trkpt lat="47.17042" lon="6.08166">
        <ele>490</ele>
        <time>2020-03-17T09:13:51Z</time>
      </trkpt>
      <trkpt lat="47.17035" lon="6.08171">
        <ele>489</ele>
        <time>2020-03-17T09:13:55Z</time>
      </trkpt>
      <trkpt lat="47.17041" lon="6.08174">
        <ele>490</ele>
        <time>2020-03-17T09:14:05Z</time>
      </trkpt>
      <trkpt lat="47.17043" lon="6.0818">
        <ele>489</ele>
        <time>2020-03-17T09:14:08Z</time>
      </trkpt>
      <trkpt lat="47.17049" lon="6.0819">
        <ele>489</ele>
        <time>2020-03-17T09:14:14Z</time>
      </trkpt>
      <trkpt lat="47.17052" lon="6.08194">
        <ele>489</ele>
        <time>2020-03-17T09:14:16Z</time>
      </trkpt>
      <trkpt lat="47.17054" lon="6.08199">
        <ele>489</ele>
        <time>2020-03-17T09:14:18Z</time>
      </trkpt>
      <trkpt lat="47.17058" lon="6.08207">
        <ele>489</ele>
        <time>2020-03-17T09:14:21Z</time>
      </trkpt>
      <trkpt lat="47.17065" lon="6.08221">
        <ele>489</ele>
        <time>2020-03-17T09:14:26Z</time>
      </trkpt>
      <trkpt lat="47.17059" lon="6.08237">
        <ele>488</ele>
        <time>2020-03-17T09:14:30Z</time>
      </trkpt>
      <trkpt lat="47.17055" lon="6.08246">
        <ele>487</ele>
        <time>2020-03-17T09:14:32Z</time>
      </trkpt>
      <trkpt lat="47.17052" lon="6.08251">
        <ele>487</ele>
        <time>2020-03-17T09:14:33Z</time>
      </trkpt>
      <trkpt lat="47.17048" lon="6.0826">
        <ele>486</ele>
        <time>2020-03-17T09:14:34Z</time>
      </trkpt>
      <trkpt lat="47.17034" lon="6.0829">
        <ele>483</ele>
        <time>2020-03-17T09:14:38Z</time>
      </trkpt>
      <trkpt lat="47.17031" lon="6.08296">
        <ele>483</ele>
        <time>2020-03-17T09:14:39Z</time>
      </trkpt>
      <trkpt lat="47.17023" lon="6.08311">
        <ele>481</ele>
        <time>2020-03-17T09:14:43Z</time>
      </trkpt>
      <trkpt lat="47.17022" lon="6.08317">
        <ele>481</ele>
        <time>2020-03-17T09:14:45Z</time>
      </trkpt>
      <trkpt lat="47.17026" lon="6.08325">
        <ele>480</ele>
        <time>2020-03-17T09:14:47Z</time>
      </trkpt>
      <trkpt lat="47.17033" lon="6.08335">
        <ele>480</ele>
        <time>2020-03-17T09:14:51Z</time>
      </trkpt>
      <trkpt lat="47.17035" lon="6.08343">
        <ele>479</ele>
        <time>2020-03-17T09:14:53Z</time>
      </trkpt>
      <trkpt lat="47.17034" lon="6.08354">
        <ele>478</ele>
        <time>2020-03-17T09:14:56Z</time>
      </trkpt>
      <trkpt lat="47.17034" lon="6.08359">
        <ele>478</ele>
        <time>2020-03-17T09:14:57Z</time>
      </trkpt>
      <trkpt lat="47.17034" lon="6.08373">
        <ele>477</ele>
        <time>2020-03-17T09:15:00Z</time>
      </trkpt>
      <trkpt lat="47.17034" lon="6.0838">
        <ele>477</ele>
        <time>2020-03-17T09:15:01Z</time>
      </trkpt>
      <trkpt lat="47.17033" lon="6.08392">
        <ele>477</ele>
        <time>2020-03-17T09:15:03Z</time>
      </trkpt>
      <trkpt lat="47.17031" lon="6.08404">
        <ele>477</ele>
        <time>2020-03-17T09:15:05Z</time>
      </trkpt>
      <trkpt lat="47.17029" lon="6.0841">
        <ele>477</ele>
        <time>2020-03-17T09:15:06Z</time>
      </trkpt>
      <trkpt lat="47.17027" lon="6.08419">
        <ele>477</ele>
        <time>2020-03-17T09:15:08Z</time>
      </trkpt>
      <trkpt lat="47.17025" lon="6.0843">
        <ele>477</ele>
        <time>2020-03-17T09:15:11Z</time>
      </trkpt>
      <trkpt lat="47.17023" lon="6.08435">
        <ele>477</ele>
        <time>2020-03-17T09:15:13Z</time>
      </trkpt>
      <trkpt lat="47.17023" lon="6.08438">
        <ele>477</ele>
        <time>2020-03-17T09:15:14Z</time>
      </trkpt>
      <trkpt lat="47.17023" lon="6.08445">
        <ele>478</ele>
        <time>2020-03-17T09:15:16Z</time>
      </trkpt>
      <trkpt lat="47.17023" lon="6.0845">
        <ele>478</ele>
        <time>2020-03-17T09:15:18Z</time>
      </trkpt>
      <trkpt lat="47.17022" lon="6.08454">
        <ele>478</ele>
        <time>2020-03-17T09:15:19Z</time>
      </trkpt>
      <trkpt lat="47.17021" lon="6.08463">
        <ele>478</ele>
        <time>2020-03-17T09:15:21Z</time>
      </trkpt>
      <trkpt lat="47.17017" lon="6.08482">
        <ele>478</ele>
        <time>2020-03-17T09:15:26Z</time>
      </trkpt>
      <trkpt lat="47.17016" lon="6.08505">
        <ele>479</ele>
        <time>2020-03-17T09:15:31Z</time>
      </trkpt>
      <trkpt lat="47.17022" lon="6.08526">
        <ele>479</ele>
        <time>2020-03-17T09:15:36Z</time>
      </trkpt>
      <trkpt lat="47.17027" lon="6.08546">
        <ele>480</ele>
        <time>2020-03-17T09:15:41Z</time>
      </trkpt>
      <trkpt lat="47.17025" lon="6.08557">
        <ele>480</ele>
        <time>2020-03-17T09:15:45Z</time>
      </trkpt>
      <trkpt lat="47.17034" lon="6.08559">
        <ele>480</ele>
        <time>2020-03-17T09:16:50Z</time>
      </trkpt>
      <trkpt lat="47.17041" lon="6.08557">
        <ele>480</ele>
        <time>2020-03-17T09:16:53Z</time>
      </trkpt>
      <trkpt lat="47.17046" lon="6.08557">
        <ele>480</ele>
        <time>2020-03-17T09:16:55Z</time>
      </trkpt>
      <trkpt lat="47.17054" lon="6.08557">
        <ele>480</ele>
        <time>2020-03-17T09:16:58Z</time>
      </trkpt>
      <trkpt lat="47.17056" lon="6.08557">
        <ele>480</ele>
        <time>2020-03-17T09:16:59Z</time>
      </trkpt>
      <trkpt lat="47.17058" lon="6.08557">
        <ele>479</ele>
        <time>2020-03-17T09:17:00Z</time>
      </trkpt>
      <trkpt lat="47.17064" lon="6.08558">
        <ele>479</ele>
        <time>2020-03-17T09:17:03Z</time>
      </trkpt>
      <trkpt lat="47.17073" lon="6.08562">
        <ele>479</ele>
        <time>2020-03-17T09:17:07Z</time>
      </trkpt>
      <trkpt lat="47.17086" lon="6.0857">
        <ele>480</ele>
        <time>2020-03-17T09:17:11Z</time>
      </trkpt>
      <trkpt lat="47.1709" lon="6.08572">
        <ele>480</ele>
        <time>2020-03-17T09:17:12Z</time>
      </trkpt>
      <trkpt lat="47.17095" lon="6.08573">
        <ele>480</ele>
        <time>2020-03-17T09:17:13Z</time>
      </trkpt>
      <trkpt lat="47.17099" lon="6.08572">
        <ele>480</ele>
        <time>2020-03-17T09:17:14Z</time>
      </trkpt>
      <trkpt lat="47.17107" lon="6.0857">
        <ele>480</ele>
        <time>2020-03-17T09:17:16Z</time>
      </trkpt>
      <trkpt lat="47.17113" lon="6.08566">
        <ele>480</ele>
        <time>2020-03-17T09:17:18Z</time>
      </trkpt>
      <trkpt lat="47.17122" lon="6.08558">
        <ele>480</ele>
        <time>2020-03-17T09:17:21Z</time>
      </trkpt>
      <trkpt lat="47.17125" lon="6.08555">
        <ele>480</ele>
        <time>2020-03-17T09:17:22Z</time>
      </trkpt>
      <trkpt lat="47.17147" lon="6.0853">
        <ele>479</ele>
        <time>2020-03-17T09:17:29Z</time>
      </trkpt>
      <trkpt lat="47.1716" lon="6.08512">
        <ele>480</ele>
        <time>2020-03-17T09:17:35Z</time>
      </trkpt>
      <trkpt lat="47.17169" lon="6.08505">
        <ele>480</ele>
        <time>2020-03-17T09:17:39Z</time>
      </trkpt>
      <trkpt lat="47.17173" lon="6.08502">
        <ele>480</ele>
        <time>2020-03-17T09:17:41Z</time>
      </trkpt>
      <trkpt lat="47.17175" lon="6.08501">
        <ele>480</ele>
        <time>2020-03-17T09:17:42Z</time>
      </trkpt>
      <trkpt lat="47.1719" lon="6.08493">
        <ele>481</ele>
        <time>2020-03-17T09:17:47Z</time>
      </trkpt>
      <trkpt lat="47.17201" lon="6.08483">
        <ele>481</ele>
        <time>2020-03-17T09:17:51Z</time>
      </trkpt>
      <trkpt lat="47.17204" lon="6.08479">
        <ele>481</ele>
        <time>2020-03-17T09:17:52Z</time>
      </trkpt>
      <trkpt lat="47.17226" lon="6.08454">
        <ele>482</ele>
        <time>2020-03-17T09:17:59Z</time>
      </trkpt>
      <trkpt lat="47.17237" lon="6.08439">
        <ele>483</ele>
        <time>2020-03-17T09:18:04Z</time>
      </trkpt>
      <trkpt lat="47.17243" lon="6.08433">
        <ele>483</ele>
        <time>2020-03-17T09:18:06Z</time>
      </trkpt>
      <trkpt lat="47.17264" lon="6.08423">
        <ele>484</ele>
        <time>2020-03-17T09:18:12Z</time>
      </trkpt>
      <trkpt lat="47.17284" lon="6.0842">
        <ele>484</ele>
        <time>2020-03-17T09:18:18Z</time>
      </trkpt>
      <trkpt lat="47.17299" lon="6.08416">
        <ele>485</ele>
        <time>2020-03-17T09:18:25Z</time>
      </trkpt>
      <trkpt lat="47.1731" lon="6.08413">
        <ele>485</ele>
        <time>2020-03-17T09:18:31Z</time>
      </trkpt>
      <trkpt lat="47.17326" lon="6.08407">
        <ele>485</ele>
        <time>2020-03-17T09:20:39Z</time>
      </trkpt>
      <trkpt lat="47.17325" lon="6.08408">
        <ele>485</ele>
        <time>2020-03-17T09:20:40Z</time>
      </trkpt>
      <trkpt lat="47.17323" lon="6.08409">
        <ele>485</ele>
        <time>2020-03-17T09:20:42Z</time>
      </trkpt>
      <trkpt lat="47.17319" lon="6.08411">
        <ele>485</ele>
        <time>2020-03-17T09:20:44Z</time>
      </trkpt>
      <trkpt lat="47.17318" lon="6.08412">
        <ele>485</ele>
        <time>2020-03-17T09:20:45Z</time>
      </trkpt>
      <trkpt lat="47.17303" lon="6.08419">
        <ele>484</ele>
        <time>2020-03-17T09:20:51Z</time>
      </trkpt>
      <trkpt lat="47.17283" lon="6.08421">
        <ele>484</ele>
        <time>2020-03-17T09:20:56Z</time>
      </trkpt>
      <trkpt lat="47.17258" lon="6.08428">
        <ele>484</ele>
        <time>2020-03-17T09:21:02Z</time>
      </trkpt>
      <trkpt lat="47.17244" lon="6.08438">
        <ele>483</ele>
        <time>2020-03-17T09:21:07Z</time>
      </trkpt>
      <trkpt lat="47.17238" lon="6.08446">
        <ele>483</ele>
        <time>2020-03-17T09:21:09Z</time>
      </trkpt>
      <trkpt lat="47.17232" lon="6.08454">
        <ele>483</ele>
        <time>2020-03-17T09:21:11Z</time>
      </trkpt>
      <trkpt lat="47.17229" lon="6.08459">
        <ele>483</ele>
        <time>2020-03-17T09:21:12Z</time>
      </trkpt>
      <trkpt lat="47.17222" lon="6.08467">
        <ele>482</ele>
        <time>2020-03-17T09:21:14Z</time>
      </trkpt>
      <trkpt lat="47.17215" lon="6.08477">
        <ele>482</ele>
        <time>2020-03-17T09:21:16Z</time>
      </trkpt>
      <trkpt lat="47.172" lon="6.08495">
        <ele>482</ele>
        <time>2020-03-17T09:21:20Z</time>
      </trkpt>
      <trkpt lat="47.17195" lon="6.08498">
        <ele>481</ele>
        <time>2020-03-17T09:21:21Z</time>
      </trkpt>
      <trkpt lat="47.17191" lon="6.08501">
        <ele>481</ele>
        <time>2020-03-17T09:21:22Z</time>
      </trkpt>
      <trkpt lat="47.1717" lon="6.08514">
        <ele>481</ele>
        <time>2020-03-17T09:21:28Z</time>
      </trkpt>
      <trkpt lat="47.17154" lon="6.08534">
        <ele>481</ele>
        <time>2020-03-17T09:21:33Z</time>
      </trkpt>
      <trkpt lat="47.17139" lon="6.08554">
        <ele>480</ele>
        <time>2020-03-17T09:21:37Z</time>
      </trkpt>
      <trkpt lat="47.17127" lon="6.08566">
        <ele>481</ele>
        <time>2020-03-17T09:21:40Z</time>
      </trkpt>
      <trkpt lat="47.17118" lon="6.08571">
        <ele>481</ele>
        <time>2020-03-17T09:21:42Z</time>
      </trkpt>
      <trkpt lat="47.17106" lon="6.08573">
        <ele>481</ele>
        <time>2020-03-17T09:21:45Z</time>
      </trkpt>
      <trkpt lat="47.17102" lon="6.08573">
        <ele>480</ele>
        <time>2020-03-17T09:21:46Z</time>
      </trkpt>
      <trkpt lat="47.17096" lon="6.08569">
        <ele>480</ele>
        <time>2020-03-17T09:21:48Z</time>
      </trkpt>
      <trkpt lat="47.17087" lon="6.08565">
        <ele>479</ele>
        <time>2020-03-17T09:21:51Z</time>
      </trkpt>
      <trkpt lat="47.17084" lon="6.08563">
        <ele>479</ele>
        <time>2020-03-17T09:21:52Z</time>
      </trkpt>
      <trkpt lat="47.17072" lon="6.08562">
        <ele>479</ele>
        <time>2020-03-17T09:21:56Z</time>
      </trkpt>
      <trkpt lat="47.17069" lon="6.08562">
        <ele>479</ele>
        <time>2020-03-17T09:21:57Z</time>
      </trkpt>
      <trkpt lat="47.1705" lon="6.08565">
        <ele>480</ele>
        <time>2020-03-17T09:22:02Z</time>
      </trkpt>
      <trkpt lat="47.1703" lon="6.08572">
        <ele>481</ele>
        <time>2020-03-17T09:22:07Z</time>
      </trkpt>
      <trkpt lat="47.17026" lon="6.08575">
        <ele>481</ele>
        <time>2020-03-17T09:22:08Z</time>
      </trkpt>
      <trkpt lat="47.1701" lon="6.08595">
        <ele>481</ele>
        <time>2020-03-17T09:22:13Z</time>
      </trkpt>
      <trkpt lat="47.16995" lon="6.08626">
        <ele>479</ele>
        <time>2020-03-17T09:22:18Z</time>
      </trkpt>
      <trkpt lat="47.16979" lon="6.0866">
        <ele>478</ele>
        <time>2020-03-17T09:22:23Z</time>
      </trkpt>
      <trkpt lat="47.16975" lon="6.08676">
        <ele>477</ele>
        <time>2020-03-17T09:22:25Z</time>
      </trkpt>
      <trkpt lat="47.16974" lon="6.08683">
        <ele>477</ele>
        <time>2020-03-17T09:22:26Z</time>
      </trkpt>
      <trkpt lat="47.16969" lon="6.08713">
        <ele>476</ele>
        <time>2020-03-17T09:22:30Z</time>
      </trkpt>
      <trkpt lat="47.16958" lon="6.0874">
        <ele>475</ele>
        <time>2020-03-17T09:22:34Z</time>
      </trkpt>
      <trkpt lat="47.16955" lon="6.08746">
        <ele>475</ele>
        <time>2020-03-17T09:22:35Z</time>
      </trkpt>
      <trkpt lat="47.16952" lon="6.0876">
        <ele>475</ele>
        <time>2020-03-17T09:22:38Z</time>
      </trkpt>
      <trkpt lat="47.16951" lon="6.08763">
        <ele>475</ele>
        <time>2020-03-17T09:22:39Z</time>
      </trkpt>
      <trkpt lat="47.16947" lon="6.08772">
        <ele>475</ele>
        <time>2020-03-17T09:23:52Z</time>
      </trkpt>
      <trkpt lat="47.16934" lon="6.08771">
        <ele>474</ele>
        <time>2020-03-17T09:23:57Z</time>
      </trkpt>
      <trkpt lat="47.16926" lon="6.08769">
        <ele>474</ele>
        <time>2020-03-17T09:23:59Z</time>
      </trkpt>
      <trkpt lat="47.16921" lon="6.08767">
        <ele>474</ele>
        <time>2020-03-17T09:24:01Z</time>
      </trkpt>
      <trkpt lat="47.16908" lon="6.08767">
        <ele>474</ele>
        <time>2020-03-17T09:24:04Z</time>
      </trkpt>
      <trkpt lat="47.16903" lon="6.08768">
        <ele>473</ele>
        <time>2020-03-17T09:24:05Z</time>
      </trkpt>
      <trkpt lat="47.16898" lon="6.0877">
        <ele>473</ele>
        <time>2020-03-17T09:24:06Z</time>
      </trkpt>
      <trkpt lat="47.16889" lon="6.08773">
        <ele>473</ele>
        <time>2020-03-17T09:24:08Z</time>
      </trkpt>
      <trkpt lat="47.1688" lon="6.08778">
        <ele>473</ele>
        <time>2020-03-17T09:24:10Z</time>
      </trkpt>
      <trkpt lat="47.16872" lon="6.08784">
        <ele>473</ele>
        <time>2020-03-17T09:24:12Z</time>
      </trkpt>
      <trkpt lat="47.16865" lon="6.08791">
        <ele>473</ele>
        <time>2020-03-17T09:24:14Z</time>
      </trkpt>
      <trkpt lat="47.16859" lon="6.08799">
        <ele>472</ele>
        <time>2020-03-17T09:24:16Z</time>
      </trkpt>
      <trkpt lat="47.16849" lon="6.08809">
        <ele>472</ele>
        <time>2020-03-17T09:24:19Z</time>
      </trkpt>
      <trkpt lat="47.16842" lon="6.08816">
        <ele>472</ele>
        <time>2020-03-17T09:24:21Z</time>
      </trkpt>
      <trkpt lat="47.16833" lon="6.08822">
        <ele>472</ele>
        <time>2020-03-17T09:24:23Z</time>
      </trkpt>
      <trkpt lat="47.16829" lon="6.08824">
        <ele>472</ele>
        <time>2020-03-17T09:24:24Z</time>
      </trkpt>
      <trkpt lat="47.16817" lon="6.08825">
        <ele>472</ele>
        <time>2020-03-17T09:24:27Z</time>
      </trkpt>
      <trkpt lat="47.16809" lon="6.08826">
        <ele>472</ele>
        <time>2020-03-17T09:24:29Z</time>
      </trkpt>
      <trkpt lat="47.16804" lon="6.08828">
        <ele>472</ele>
        <time>2020-03-17T09:24:30Z</time>
      </trkpt>
      <trkpt lat="47.168" lon="6.08831">
        <ele>472</ele>
        <time>2020-03-17T09:24:31Z</time>
      </trkpt>
      <trkpt lat="47.1679" lon="6.08843">
        <ele>472</ele>
        <time>2020-03-17T09:24:34Z</time>
      </trkpt>
      <trkpt lat="47.16784" lon="6.08849">
        <ele>472</ele>
        <time>2020-03-17T09:24:36Z</time>
      </trkpt>
      <trkpt lat="47.16773" lon="6.0886">
        <ele>471</ele>
        <time>2020-03-17T09:24:39Z</time>
      </trkpt>
      <trkpt lat="47.16766" lon="6.08867">
        <ele>471</ele>
        <time>2020-03-17T09:24:41Z</time>
      </trkpt>
      <trkpt lat="47.16754" lon="6.08883">
        <ele>470</ele>
        <time>2020-03-17T09:24:45Z</time>
      </trkpt>
      <trkpt lat="47.16739" lon="6.08902">
        <ele>469</ele>
        <time>2020-03-17T09:24:50Z</time>
      </trkpt>
      <trkpt lat="47.16732" lon="6.08916">
        <ele>468</ele>
        <time>2020-03-17T09:24:53Z</time>
      </trkpt>
      <trkpt lat="47.16729" lon="6.08927">
        <ele>467</ele>
        <time>2020-03-17T09:24:55Z</time>
      </trkpt>
      <trkpt lat="47.16718" lon="6.08952">
        <ele>465</ele>
        <time>2020-03-17T09:25:00Z</time>
      </trkpt>
      <trkpt lat="47.16703" lon="6.08976">
        <ele>462</ele>
        <time>2020-03-17T09:25:05Z</time>
      </trkpt>
      <trkpt lat="47.16693" lon="6.08989">
        <ele>461</ele>
        <time>2020-03-17T09:25:09Z</time>
      </trkpt>
      <trkpt lat="47.16678" lon="6.09">
        <ele>459</ele>
        <time>2020-03-17T09:25:14Z</time>
      </trkpt>
      <trkpt lat="47.16676" lon="6.09002">
        <ele>459</ele>
        <time>2020-03-17T09:25:15Z</time>
      </trkpt>
      <trkpt lat="47.16653" lon="6.09018">
        <ele>455</ele>
        <time>2020-03-17T09:25:22Z</time>
      </trkpt>
      <trkpt lat="47.16636" lon="6.0903">
        <ele>452</ele>
        <time>2020-03-17T09:25:26Z</time>
      </trkpt>
      <trkpt lat="47.16631" lon="6.09033">
        <ele>451</ele>
        <time>2020-03-17T09:25:27Z</time>
      </trkpt>
      <trkpt lat="47.16621" lon="6.0904">
        <ele>450</ele>
        <time>2020-03-17T09:25:29Z</time>
      </trkpt>
      <trkpt lat="47.16599" lon="6.09055">
        <ele>449</ele>
        <time>2020-03-17T09:25:33Z</time>
      </trkpt>
      <trkpt lat="47.16594" lon="6.09059">
        <ele>449</ele>
        <time>2020-03-17T09:25:34Z</time>
      </trkpt>
      <trkpt lat="47.16575" lon="6.09073">
        <ele>449</ele>
        <time>2020-03-17T09:25:38Z</time>
      </trkpt>
      <trkpt lat="47.16558" lon="6.09085">
        <ele>449</ele>
        <time>2020-03-17T09:25:42Z</time>
      </trkpt>
      <trkpt lat="47.1654" lon="6.091">
        <ele>449</ele>
        <time>2020-03-17T09:25:47Z</time>
      </trkpt>
      <trkpt lat="47.16538" lon="6.09105">
        <ele>449</ele>
        <time>2020-03-17T09:25:48Z</time>
      </trkpt>
      <trkpt lat="47.16537" lon="6.09111">
        <ele>449</ele>
        <time>2020-03-17T09:25:49Z</time>
      </trkpt>
      <trkpt lat="47.16539" lon="6.09123">
        <ele>449</ele>
        <time>2020-03-17T09:25:51Z</time>
      </trkpt>
      <trkpt lat="47.16543" lon="6.09133">
        <ele>449</ele>
        <time>2020-03-17T09:25:53Z</time>
      </trkpt>
      <trkpt lat="47.1655" lon="6.09155">
        <ele>450</ele>
        <time>2020-03-17T09:25:57Z</time>
      </trkpt>
      <trkpt lat="47.16552" lon="6.0916">
        <ele>450</ele>
        <time>2020-03-17T09:25:58Z</time>
      </trkpt>
      <trkpt lat="47.16565" lon="6.09195">
        <ele>450</ele>
        <time>2020-03-17T09:26:04Z</time>
      </trkpt>
      <trkpt lat="47.16573" lon="6.09221">
        <ele>450</ele>
        <time>2020-03-17T09:26:08Z</time>
      </trkpt>
      <trkpt lat="47.16583" lon="6.09248">
        <ele>450</ele>
        <time>2020-03-17T09:26:12Z</time>
      </trkpt>
      <trkpt lat="47.16603" lon="6.09282">
        <ele>449</ele>
        <time>2020-03-17T09:26:18Z</time>
      </trkpt>
      <trkpt lat="47.16637" lon="6.09323">
        <ele>449</ele>
        <time>2020-03-17T09:26:26Z</time>
      </trkpt>
      <trkpt lat="47.16642" lon="6.09327">
        <ele>449</ele>
        <time>2020-03-17T09:26:27Z</time>
      </trkpt>
      <trkpt lat="47.16672" lon="6.09356">
        <ele>449</ele>
        <time>2020-03-17T09:26:33Z</time>
      </trkpt>
      <trkpt lat="47.16681" lon="6.09366">
        <ele>449</ele>
        <time>2020-03-17T09:26:35Z</time>
      </trkpt>
      <trkpt lat="47.16702" lon="6.09394">
        <ele>449</ele>
        <time>2020-03-17T09:26:40Z</time>
      </trkpt>
      <trkpt lat="47.16736" lon="6.09446">
        <ele>450</ele>
        <time>2020-03-17T09:26:49Z</time>
      </trkpt>
      <trkpt lat="47.16767" lon="6.09503">
        <ele>451</ele>
        <time>2020-03-17T09:26:58Z</time>
      </trkpt>
      <trkpt lat="47.1677" lon="6.09509">
        <ele>451</ele>
        <time>2020-03-17T09:26:59Z</time>
      </trkpt>
      <trkpt lat="47.16797" lon="6.09553">
        <ele>451</ele>
        <time>2020-03-17T09:27:07Z</time>
      </trkpt>
      <trkpt lat="47.16829" lon="6.09596">
        <ele>452</ele>
        <time>2020-03-17T09:27:16Z</time>
      </trkpt>
      <trkpt lat="47.16862" lon="6.09622">
        <ele>453</ele>
        <time>2020-03-17T09:27:24Z</time>
      </trkpt>
      <trkpt lat="47.16903" lon="6.09647">
        <ele>454</ele>
        <time>2020-03-17T09:27:33Z</time>
      </trkpt>
      <trkpt lat="47.16937" lon="6.09679">
        <ele>452</ele>
        <time>2020-03-17T09:27:41Z</time>
      </trkpt>
      <trkpt lat="47.16972" lon="6.09728">
        <ele>452</ele>
        <time>2020-03-17T09:27:50Z</time>
      </trkpt>
      <trkpt lat="47.17" lon="6.09759">
        <ele>454</ele>
        <time>2020-03-17T09:27:57Z</time>
      </trkpt>
      <trkpt lat="47.17029" lon="6.09777">
        <ele>456</ele>
        <time>2020-03-17T09:28:04Z</time>
      </trkpt>
      <trkpt lat="47.17038" lon="6.09781">
        <ele>457</ele>
        <time>2020-03-17T09:28:06Z</time>
      </trkpt>
      <trkpt lat="47.17063" lon="6.09786">
        <ele>457</ele>
        <time>2020-03-17T09:28:12Z</time>
      </trkpt>
      <trkpt lat="47.17072" lon="6.09786">
        <ele>456</ele>
        <time>2020-03-17T09:28:14Z</time>
      </trkpt>
      <trkpt lat="47.17104" lon="6.09785">
        <ele>457</ele>
        <time>2020-03-17T09:28:21Z</time>
      </trkpt>
      <trkpt lat="47.17129" lon="6.09783">
        <ele>457</ele>
        <time>2020-03-17T09:28:27Z</time>
      </trkpt>
      <trkpt lat="47.1715" lon="6.09781">
        <ele>455</ele>
        <time>2020-03-17T09:28:33Z</time>
      </trkpt>
      <trkpt lat="47.17163" lon="6.09782">
        <ele>454</ele>
        <time>2020-03-17T09:28:39Z</time>
      </trkpt>
      <trkpt lat="47.17167" lon="6.09785">
        <ele>454</ele>
        <time>2020-03-17T09:28:43Z</time>
      </trkpt>
      <trkpt lat="47.17168" lon="6.09786">
        <ele>454</ele>
        <time>2020-03-17T09:28:44Z</time>
      </trkpt>
      <trkpt lat="47.17164" lon="6.09787">
        <ele>454</ele>
        <time>2020-03-17T09:28:47Z</time>
      </trkpt>
      <trkpt lat="47.17156" lon="6.0979">
        <ele>455</ele>
        <time>2020-03-17T09:28:51Z</time>
      </trkpt>
      <trkpt lat="47.17154" lon="6.0979">
        <ele>455</ele>
        <time>2020-03-17T09:28:52Z</time>
      </trkpt>
      <trkpt lat="47.17149" lon="6.09791">
        <ele>456</ele>
        <time>2020-03-17T09:28:54Z</time>
      </trkpt>
      <trkpt lat="47.17139" lon="6.09796">
        <ele>457</ele>
        <time>2020-03-17T09:28:58Z</time>
      </trkpt>
      <trkpt lat="47.17136" lon="6.09797">
        <ele>457</ele>
        <time>2020-03-17T09:28:59Z</time>
      </trkpt>
      <trkpt lat="47.17124" lon="6.09803">
        <ele>457</ele>
        <time>2020-03-17T09:29:05Z</time>
      </trkpt>
      <trkpt lat="47.17113" lon="6.09807">
        <ele>457</ele>
        <time>2020-03-17T09:29:09Z</time>
      </trkpt>
      <trkpt lat="47.1711" lon="6.09808">
        <ele>457</ele>
        <time>2020-03-17T09:29:10Z</time>
      </trkpt>
      <trkpt lat="47.17095" lon="6.09818">
        <ele>457</ele>
        <time>2020-03-17T09:29:17Z</time>
      </trkpt>
      <trkpt lat="47.17099" lon="6.0982">
        <ele>457</ele>
        <time>2020-03-17T09:29:20Z</time>
      </trkpt>
      <trkpt lat="47.17107" lon="6.09812">
        <ele>457</ele>
        <time>2020-03-17T09:29:24Z</time>
      </trkpt>
      <trkpt lat="47.1711" lon="6.09811">
        <ele>457</ele>
        <time>2020-03-17T09:29:25Z</time>
      </trkpt>
      <trkpt lat="47.17124" lon="6.09803">
        <ele>457</ele>
        <time>2020-03-17T09:29:31Z</time>
      </trkpt>
      <trkpt lat="47.17142" lon="6.098">
        <ele>456</ele>
        <time>2020-03-17T09:29:37Z</time>
      </trkpt>
      <trkpt lat="47.17148" lon="6.09798">
        <ele>456</ele>
        <time>2020-03-17T09:34:10Z</time>
      </trkpt>
      <trkpt lat="47.17164" lon="6.09791">
        <ele>454</ele>
        <time>2020-03-17T09:34:15Z</time>
      </trkpt>
      <trkpt lat="47.17191" lon="6.09783">
        <ele>453</ele>
        <time>2020-03-17T09:34:21Z</time>
      </trkpt>
      <trkpt lat="47.17222" lon="6.09782">
        <ele>456</ele>
        <time>2020-03-17T09:34:27Z</time>
      </trkpt>
      <trkpt lat="47.17244" lon="6.09792">
        <ele>458</ele>
        <time>2020-03-17T09:34:31Z</time>
      </trkpt>
      <trkpt lat="47.1725" lon="6.09796">
        <ele>458</ele>
        <time>2020-03-17T09:34:32Z</time>
      </trkpt>
      <trkpt lat="47.1726" lon="6.09805">
        <ele>459</ele>
        <time>2020-03-17T09:34:34Z</time>
      </trkpt>
      <trkpt lat="47.17273" lon="6.09825">
        <ele>458</ele>
        <time>2020-03-17T09:34:37Z</time>
      </trkpt>
      <trkpt lat="47.17277" lon="6.09832">
        <ele>458</ele>
        <time>2020-03-17T09:34:38Z</time>
      </trkpt>
      <trkpt lat="47.17302" lon="6.09884">
        <ele>457</ele>
        <time>2020-03-17T09:34:45Z</time>
      </trkpt>
      <trkpt lat="47.17337" lon="6.09951">
        <ele>459</ele>
        <time>2020-03-17T09:34:53Z</time>
      </trkpt>
      <trkpt lat="47.17371" lon="6.10009">
        <ele>460</ele>
        <time>2020-03-17T09:35:00Z</time>
      </trkpt>
      <trkpt lat="47.17397" lon="6.10041">
        <ele>459</ele>
        <time>2020-03-17T09:35:05Z</time>
      </trkpt>
      <trkpt lat="47.17423" lon="6.1007">
        <ele>460</ele>
        <time>2020-03-17T09:35:11Z</time>
      </trkpt>
      <trkpt lat="47.17436" lon="6.10085">
        <ele>459</ele>
        <time>2020-03-17T09:35:14Z</time>
      </trkpt>
      <trkpt lat="47.1746" lon="6.10112">
        <ele>461</ele>
        <time>2020-03-17T09:35:19Z</time>
      </trkpt>
      <trkpt lat="47.17492" lon="6.10154">
        <ele>460</ele>
        <time>2020-03-17T09:35:26Z</time>
      </trkpt>
      <trkpt lat="47.17533" lon="6.10204">
        <ele>459</ele>
        <time>2020-03-17T09:35:35Z</time>
      </trkpt>
      <trkpt lat="47.17578" lon="6.10254">
        <ele>461</ele>
        <time>2020-03-17T09:35:44Z</time>
      </trkpt>
      <trkpt lat="47.17624" lon="6.10297">
        <ele>461</ele>
        <time>2020-03-17T09:35:52Z</time>
      </trkpt>
      <trkpt lat="47.17671" lon="6.1034">
        <ele>464</ele>
        <time>2020-03-17T09:36:00Z</time>
      </trkpt>
      <trkpt lat="47.17676" lon="6.10345">
        <ele>464</ele>
        <time>2020-03-17T09:36:01Z</time>
      </trkpt>
      <trkpt lat="47.17721" lon="6.10393">
        <ele>460</ele>
        <time>2020-03-17T09:36:09Z</time>
      </trkpt>
      <trkpt lat="47.17741" lon="6.1042">
        <ele>458</ele>
        <time>2020-03-17T09:36:13Z</time>
      </trkpt>
      <trkpt lat="47.17757" lon="6.10442">
        <ele>457</ele>
        <time>2020-03-17T09:36:16Z</time>
      </trkpt>
      <trkpt lat="47.17768" lon="6.10456">
        <ele>458</ele>
        <time>2020-03-17T09:36:18Z</time>
      </trkpt>
      <trkpt lat="47.17804" lon="6.10509">
        <ele>458</ele>
        <time>2020-03-17T09:36:25Z</time>
      </trkpt>
      <trkpt lat="47.17841" lon="6.10564">
        <ele>455</ele>
        <time>2020-03-17T09:36:32Z</time>
      </trkpt>
      <trkpt lat="47.17873" lon="6.10606">
        <ele>452</ele>
        <time>2020-03-17T09:36:37Z</time>
      </trkpt>
      <trkpt lat="47.17881" lon="6.10613">
        <ele>452</ele>
        <time>2020-03-17T09:36:38Z</time>
      </trkpt>
      <trkpt lat="47.17904" lon="6.10632">
        <ele>450</ele>
        <time>2020-03-17T09:36:41Z</time>
      </trkpt>
      <trkpt lat="47.17926" lon="6.10651">
        <ele>448</ele>
        <time>2020-03-17T09:36:44Z</time>
      </trkpt>
      <trkpt lat="47.17934" lon="6.10658">
        <ele>448</ele>
        <time>2020-03-17T09:36:45Z</time>
      </trkpt>
      <trkpt lat="47.17949" lon="6.10671">
        <ele>447</ele>
        <time>2020-03-17T09:36:47Z</time>
      </trkpt>
      <trkpt lat="47.17971" lon="6.10691">
        <ele>447</ele>
        <time>2020-03-17T09:36:50Z</time>
      </trkpt>
      <trkpt lat="47.17994" lon="6.1071">
        <ele>447</ele>
        <time>2020-03-17T09:36:53Z</time>
      </trkpt>
      <trkpt lat="47.18016" lon="6.1073">
        <ele>446</ele>
        <time>2020-03-17T09:36:56Z</time>
      </trkpt>
      <trkpt lat="47.18023" lon="6.10736">
        <ele>446</ele>
        <time>2020-03-17T09:36:57Z</time>
      </trkpt>
      <trkpt lat="47.18071" lon="6.10778">
        <ele>444</ele>
        <time>2020-03-17T09:37:04Z</time>
      </trkpt>
      <trkpt lat="47.18077" lon="6.10784">
        <ele>444</ele>
        <time>2020-03-17T09:37:05Z</time>
      </trkpt>
      <trkpt lat="47.1809" lon="6.10796">
        <ele>444</ele>
        <time>2020-03-17T09:37:07Z</time>
      </trkpt>
      <trkpt lat="47.18128" lon="6.10829">
        <ele>445</ele>
        <time>2020-03-17T09:37:13Z</time>
      </trkpt>
      <trkpt lat="47.18167" lon="6.10864">
        <ele>444</ele>
        <time>2020-03-17T09:37:20Z</time>
      </trkpt>
      <trkpt lat="47.18195" lon="6.10889">
        <ele>444</ele>
        <time>2020-03-17T09:37:26Z</time>
      </trkpt>
      <trkpt lat="47.18242" lon="6.10932">
        <ele>445</ele>
        <time>2020-03-17T09:37:36Z</time>
      </trkpt>
      <trkpt lat="47.18271" lon="6.10956">
        <ele>444</ele>
        <time>2020-03-17T09:37:43Z</time>
      </trkpt>
      <trkpt lat="47.18292" lon="6.10975">
        <ele>443</ele>
        <time>2020-03-17T09:37:50Z</time>
      </trkpt>
      <trkpt lat="47.18294" lon="6.10973">
        <ele>443</ele>
        <time>2020-03-17T09:37:51Z</time>
      </trkpt>
      <trkpt lat="47.18295" lon="6.1097">
        <ele>443</ele>
        <time>2020-03-17T09:37:53Z</time>
      </trkpt>
      <trkpt lat="47.18295" lon="6.10969">
        <ele>443</ele>
        <time>2020-03-17T09:37:54Z</time>
      </trkpt>
      <trkpt lat="47.18291" lon="6.10967">
        <ele>443</ele>
        <time>2020-03-17T09:37:58Z</time>
      </trkpt>
      <trkpt lat="47.18291" lon="6.10967">
        <ele>443</ele>
        <time>2020-03-17T09:37:59Z</time>
      </trkpt>
      <trkpt lat="47.18289" lon="6.10957">
        <ele>443</ele>
        <time>2020-03-17T09:41:56Z</time>
      </trkpt>
      <trkpt lat="47.18288" lon="6.10954">
        <ele>443</ele>
        <time>2020-03-17T09:41:58Z</time>
      </trkpt>
      <trkpt lat="47.18286" lon="6.10951">
        <ele>443</ele>
        <time>2020-03-17T09:42:01Z</time>
      </trkpt>
      <trkpt lat="47.18288" lon="6.1096">
        <ele>443</ele>
        <time>2020-03-17T09:42:09Z</time>
      </trkpt>
      <trkpt lat="47.18288" lon="6.10961">
        <ele>443</ele>
        <time>2020-03-17T09:42:10Z</time>
      </trkpt>
      <trkpt lat="47.18289" lon="6.10957">
        <ele>443</ele>
        <time>2020-03-17T10:07:42Z</time>
      </trkpt>
      <trkpt lat="47.18292" lon="6.10961">
        <ele>443</ele>
        <time>2020-03-17T10:07:44Z</time>
      </trkpt>
      <trkpt lat="47.18296" lon="6.10965">
        <ele>443</ele>
        <time>2020-03-17T10:07:46Z</time>
      </trkpt>
      <trkpt lat="47.18299" lon="6.10972">
        <ele>443</ele>
        <time>2020-03-17T10:07:48Z</time>
      </trkpt>
      <trkpt lat="47.18304" lon="6.10981">
        <ele>443</ele>
        <time>2020-03-17T10:07:50Z</time>
      </trkpt>
      <trkpt lat="47.18309" lon="6.10988">
        <ele>443</ele>
        <time>2020-03-17T10:07:52Z</time>
      </trkpt>
      <trkpt lat="47.18323" lon="6.11004">
        <ele>444</ele>
        <time>2020-03-17T10:07:57Z</time>
      </trkpt>
      <trkpt lat="47.18335" lon="6.11009">
        <ele>444</ele>
        <time>2020-03-17T10:08:01Z</time>
      </trkpt>
      <trkpt lat="47.18353" lon="6.11005">
        <ele>443</ele>
        <time>2020-03-17T10:08:06Z</time>
      </trkpt>
      <trkpt lat="47.18364" lon="6.11003">
        <ele>442</ele>
        <time>2020-03-17T10:08:09Z</time>
      </trkpt>
      <trkpt lat="47.18368" lon="6.10999">
        <ele>442</ele>
        <time>2020-03-17T10:08:11Z</time>
      </trkpt>
      <trkpt lat="47.18375" lon="6.10979">
        <ele>442</ele>
        <time>2020-03-17T10:08:18Z</time>
      </trkpt>
      <trkpt lat="47.18384" lon="6.10963">
        <ele>443</ele>
        <time>2020-03-17T10:08:24Z</time>
      </trkpt>
      <trkpt lat="47.18386" lon="6.10963">
        <ele>443</ele>
        <time>2020-03-17T10:08:25Z</time>
      </trkpt>
      <trkpt lat="47.18393" lon="6.10966">
        <ele>442</ele>
        <time>2020-03-17T10:08:27Z</time>
      </trkpt>
      <trkpt lat="47.18401" lon="6.1097">
        <ele>442</ele>
        <time>2020-03-17T10:08:29Z</time>
      </trkpt>
      <trkpt lat="47.18422" lon="6.10977">
        <ele>441</ele>
        <time>2020-03-17T10:08:34Z</time>
      </trkpt>
      <trkpt lat="47.18433" lon="6.10982">
        <ele>441</ele>
        <time>2020-03-17T10:08:37Z</time>
      </trkpt>
      <trkpt lat="47.18442" lon="6.10987">
        <ele>440</ele>
        <time>2020-03-17T10:08:40Z</time>
      </trkpt>
      <trkpt lat="47.18444" lon="6.10986">
        <ele>440</ele>
        <time>2020-03-17T10:08:41Z</time>
      </trkpt>
      <trkpt lat="47.18463" lon="6.10981">
        <ele>441</ele>
        <time>2020-03-17T10:08:47Z</time>
      </trkpt>
      <trkpt lat="47.1849" lon="6.10981">
        <ele>441</ele>
        <time>2020-03-17T10:08:55Z</time>
      </trkpt>
      <trkpt lat="47.18498" lon="6.10984">
        <ele>441</ele>
        <time>2020-03-17T10:08:57Z</time>
      </trkpt>
      <trkpt lat="47.18507" lon="6.10983">
        <ele>441</ele>
        <time>2020-03-17T10:08:59Z</time>
      </trkpt>
      <trkpt lat="47.18511" lon="6.10983">
        <ele>441</ele>
        <time>2020-03-17T10:09:00Z</time>
      </trkpt>
      <trkpt lat="47.18553" lon="6.10974">
        <ele>439</ele>
        <time>2020-03-17T10:09:08Z</time>
      </trkpt>
      <trkpt lat="47.18599" lon="6.10963">
        <ele>438</ele>
        <time>2020-03-17T10:09:17Z</time>
      </trkpt>
      <trkpt lat="47.18643" lon="6.10951">
        <ele>439</ele>
        <time>2020-03-17T10:09:27Z</time>
      </trkpt>
      <trkpt lat="47.18663" lon="6.10945">
        <ele>440</ele>
        <time>2020-03-17T10:09:32Z</time>
      </trkpt>
      <trkpt lat="47.18679" lon="6.1094">
        <ele>442</ele>
        <time>2020-03-17T10:09:36Z</time>
      </trkpt>
      <trkpt lat="47.18683" lon="6.10938">
        <ele>443</ele>
        <time>2020-03-17T10:09:37Z</time>
      </trkpt>
      <trkpt lat="47.18691" lon="6.10937">
        <ele>444</ele>
        <time>2020-03-17T10:09:39Z</time>
      </trkpt>
      <trkpt lat="47.18694" lon="6.10936">
        <ele>444</ele>
        <time>2020-03-17T10:09:40Z</time>
      </trkpt>
      <trkpt lat="47.18698" lon="6.10934">
        <ele>445</ele>
        <time>2020-03-17T10:09:41Z</time>
      </trkpt>
      <trkpt lat="47.18702" lon="6.10927">
        <ele>446</ele>
        <time>2020-03-17T10:09:43Z</time>
      </trkpt>
      <trkpt lat="47.18703" lon="6.10922">
        <ele>446</ele>
        <time>2020-03-17T10:09:44Z</time>
      </trkpt>
      <trkpt lat="47.18704" lon="6.10887">
        <ele>450</ele>
        <time>2020-03-17T10:09:50Z</time>
      </trkpt>
      <trkpt lat="47.18703" lon="6.10869">
        <ele>452</ele>
        <time>2020-03-17T10:09:53Z</time>
      </trkpt>
      <trkpt lat="47.18702" lon="6.10858">
        <ele>452</ele>
        <time>2020-03-17T10:09:55Z</time>
      </trkpt>
      <trkpt lat="47.18702" lon="6.1083">
        <ele>453</ele>
        <time>2020-03-17T10:10:01Z</time>
      </trkpt>
      <trkpt lat="47.18703" lon="6.108">
        <ele>453</ele>
        <time>2020-03-17T10:10:07Z</time>
      </trkpt>
      <trkpt lat="47.18703" lon="6.10778">
        <ele>453</ele>
        <time>2020-03-17T10:10:13Z</time>
      </trkpt>
      <trkpt lat="47.18705" lon="6.1075">
        <ele>454</ele>
        <time>2020-03-17T10:10:19Z</time>
      </trkpt>
      <trkpt lat="47.18706" lon="6.10735">
        <ele>455</ele>
        <time>2020-03-17T10:10:22Z</time>
      </trkpt>
      <trkpt lat="47.18707" lon="6.10725">
        <ele>456</ele>
        <time>2020-03-17T10:10:24Z</time>
      </trkpt>
      <trkpt lat="47.18707" lon="6.1072">
        <ele>456</ele>
        <time>2020-03-17T10:10:25Z</time>
      </trkpt>
      <trkpt lat="47.18707" lon="6.10697">
        <ele>456</ele>
        <time>2020-03-17T10:10:30Z</time>
      </trkpt>
      <trkpt lat="47.18707" lon="6.10692">
        <ele>456</ele>
        <time>2020-03-17T10:10:31Z</time>
      </trkpt>
      <trkpt lat="47.18707" lon="6.10688">
        <ele>456</ele>
        <time>2020-03-17T10:10:32Z</time>
      </trkpt>
      <trkpt lat="47.18711" lon="6.10656">
        <ele>455</ele>
        <time>2020-03-17T10:10:38Z</time>
      </trkpt>
      <trkpt lat="47.18715" lon="6.10629">
        <ele>454</ele>
        <time>2020-03-17T10:10:45Z</time>
      </trkpt>
      <trkpt lat="47.18718" lon="6.1061">
        <ele>454</ele>
        <time>2020-03-17T10:10:49Z</time>
      </trkpt>
      <trkpt lat="47.18717" lon="6.10597">
        <ele>454</ele>
        <time>2020-03-17T10:10:51Z</time>
      </trkpt>
      <trkpt lat="47.18717" lon="6.10564">
        <ele>456</ele>
        <time>2020-03-17T10:10:57Z</time>
      </trkpt>
      <trkpt lat="47.18717" lon="6.10558">
        <ele>457</ele>
        <time>2020-03-17T10:10:58Z</time>
      </trkpt>
      <trkpt lat="47.18716" lon="6.10531">
        <ele>459</ele>
        <time>2020-03-17T10:11:03Z</time>
      </trkpt>
      <trkpt lat="47.18716" lon="6.10526">
        <ele>460</ele>
        <time>2020-03-17T10:11:04Z</time>
      </trkpt>
      <trkpt lat="47.18718" lon="6.10517">
        <ele>461</ele>
        <time>2020-03-17T10:11:06Z</time>
      </trkpt>
      <trkpt lat="47.18717" lon="6.10506">
        <ele>462</ele>
        <time>2020-03-17T10:11:08Z</time>
      </trkpt>
      <trkpt lat="47.18717" lon="6.10501">
        <ele>463</ele>
        <time>2020-03-17T10:11:09Z</time>
      </trkpt>
      <trkpt lat="47.18714" lon="6.10483">
        <ele>464</ele>
        <time>2020-03-17T10:11:12Z</time>
      </trkpt>
      <trkpt lat="47.18712" lon="6.10472">
        <ele>464</ele>
        <time>2020-03-17T10:11:14Z</time>
      </trkpt>
      <trkpt lat="47.1871" lon="6.10462">
        <ele>465</ele>
        <time>2020-03-17T10:11:16Z</time>
      </trkpt>
      <trkpt lat="47.18709" lon="6.10456">
        <ele>465</ele>
        <time>2020-03-17T10:11:17Z</time>
      </trkpt>
      <trkpt lat="47.18707" lon="6.10446">
        <ele>465</ele>
        <time>2020-03-17T10:11:19Z</time>
      </trkpt>
      <trkpt lat="47.18706" lon="6.10435">
        <ele>465</ele>
        <time>2020-03-17T10:11:21Z</time>
      </trkpt>
      <trkpt lat="47.18704" lon="6.10418">
        <ele>466</ele>
        <time>2020-03-17T10:11:24Z</time>
      </trkpt>
      <trkpt lat="47.18702" lon="6.10406">
        <ele>466</ele>
        <time>2020-03-17T10:11:26Z</time>
      </trkpt>
      <trkpt lat="47.18699" lon="6.10394">
        <ele>466</ele>
        <time>2020-03-17T10:11:28Z</time>
      </trkpt>
      <trkpt lat="47.18697" lon="6.10381">
        <ele>467</ele>
        <time>2020-03-17T10:11:30Z</time>
      </trkpt>
      <trkpt lat="47.18693" lon="6.10364">
        <ele>467</ele>
        <time>2020-03-17T10:11:33Z</time>
      </trkpt>
      <trkpt lat="47.1869" lon="6.10342">
        <ele>466</ele>
        <time>2020-03-17T10:11:37Z</time>
      </trkpt>
      <trkpt lat="47.18689" lon="6.10314">
        <ele>465</ele>
        <time>2020-03-17T10:11:42Z</time>
      </trkpt>
      <trkpt lat="47.18689" lon="6.10277">
        <ele>466</ele>
        <time>2020-03-17T10:11:48Z</time>
      </trkpt>
      <trkpt lat="47.18689" lon="6.1027">
        <ele>467</ele>
        <time>2020-03-17T10:11:49Z</time>
      </trkpt>
      <trkpt lat="47.18687" lon="6.10252">
        <ele>467</ele>
        <time>2020-03-17T10:11:52Z</time>
      </trkpt>
      <trkpt lat="47.18684" lon="6.10239">
        <ele>466</ele>
        <time>2020-03-17T10:11:54Z</time>
      </trkpt>
      <trkpt lat="47.18682" lon="6.10234">
        <ele>466</ele>
        <time>2020-03-17T10:11:55Z</time>
      </trkpt>
      <trkpt lat="47.18673" lon="6.10205">
        <ele>463</ele>
        <time>2020-03-17T10:12:00Z</time>
      </trkpt>
      <trkpt lat="47.18669" lon="6.10193">
        <ele>463</ele>
        <time>2020-03-17T10:12:02Z</time>
      </trkpt>
      <trkpt lat="47.18664" lon="6.1017">
        <ele>462</ele>
        <time>2020-03-17T10:12:06Z</time>
      </trkpt>
      <trkpt lat="47.18658" lon="6.10148">
        <ele>461</ele>
        <time>2020-03-17T10:12:10Z</time>
      </trkpt>
      <trkpt lat="47.18657" lon="6.10142">
        <ele>460</ele>
        <time>2020-03-17T10:12:11Z</time>
      </trkpt>
      <trkpt lat="47.18647" lon="6.10099">
        <ele>460</ele>
        <time>2020-03-17T10:12:19Z</time>
      </trkpt>
      <trkpt lat="47.18636" lon="6.10055">
        <ele>460</ele>
        <time>2020-03-17T10:12:27Z</time>
      </trkpt>
      <trkpt lat="47.18631" lon="6.10024">
        <ele>461</ele>
        <time>2020-03-17T10:12:33Z</time>
      </trkpt>
      <trkpt lat="47.18635" lon="6.10014">
        <ele>461</ele>
        <time>2020-03-17T10:12:35Z</time>
      </trkpt>
      <trkpt lat="47.1864" lon="6.10003">
        <ele>461</ele>
        <time>2020-03-17T10:12:37Z</time>
      </trkpt>
      <trkpt lat="47.1866" lon="6.09973">
        <ele>461</ele>
        <time>2020-03-17T10:12:42Z</time>
      </trkpt>
      <trkpt lat="47.1869" lon="6.09932">
        <ele>457</ele>
        <time>2020-03-17T10:12:47Z</time>
      </trkpt>
      <trkpt lat="47.18696" lon="6.09923">
        <ele>456</ele>
        <time>2020-03-17T10:12:48Z</time>
      </trkpt>
      <trkpt lat="47.1871" lon="6.09904">
        <ele>453</ele>
        <time>2020-03-17T10:12:50Z</time>
      </trkpt>
      <trkpt lat="47.18724" lon="6.09887">
        <ele>451</ele>
        <time>2020-03-17T10:12:52Z</time>
      </trkpt>
      <trkpt lat="47.18738" lon="6.0987">
        <ele>450</ele>
        <time>2020-03-17T10:12:54Z</time>
      </trkpt>
      <trkpt lat="47.18752" lon="6.09854">
        <ele>449</ele>
        <time>2020-03-17T10:12:56Z</time>
      </trkpt>
      <trkpt lat="47.18767" lon="6.09838">
        <ele>448</ele>
        <time>2020-03-17T10:12:58Z</time>
      </trkpt>
      <trkpt lat="47.18782" lon="6.09823">
        <ele>446</ele>
        <time>2020-03-17T10:13:00Z</time>
      </trkpt>
      <trkpt lat="47.18796" lon="6.09809">
        <ele>444</ele>
        <time>2020-03-17T10:13:02Z</time>
      </trkpt>
      <trkpt lat="47.18803" lon="6.09802">
        <ele>444</ele>
        <time>2020-03-17T10:13:03Z</time>
      </trkpt>
      <trkpt lat="47.1881" lon="6.09796">
        <ele>443</ele>
        <time>2020-03-17T10:13:04Z</time>
      </trkpt>
      <trkpt lat="47.18825" lon="6.09783">
        <ele>442</ele>
        <time>2020-03-17T10:13:06Z</time>
      </trkpt>
      <trkpt lat="47.18839" lon="6.0977">
        <ele>442</ele>
        <time>2020-03-17T10:13:08Z</time>
      </trkpt>
      <trkpt lat="47.18852" lon="6.09758">
        <ele>442</ele>
        <time>2020-03-17T10:13:10Z</time>
      </trkpt>
      <trkpt lat="47.18858" lon="6.09752">
        <ele>442</ele>
        <time>2020-03-17T10:13:11Z</time>
      </trkpt>
      <trkpt lat="47.18865" lon="6.09746">
        <ele>442</ele>
        <time>2020-03-17T10:13:12Z</time>
      </trkpt>
      <trkpt lat="47.18878" lon="6.09734">
        <ele>442</ele>
        <time>2020-03-17T10:13:14Z</time>
      </trkpt>
      <trkpt lat="47.18889" lon="6.09721">
        <ele>442</ele>
        <time>2020-03-17T10:13:16Z</time>
      </trkpt>
      <trkpt lat="47.189" lon="6.09709">
        <ele>441</ele>
        <time>2020-03-17T10:13:18Z</time>
      </trkpt>
      <trkpt lat="47.18906" lon="6.09702">
        <ele>441</ele>
        <time>2020-03-17T10:13:19Z</time>
      </trkpt>
      <trkpt lat="47.18916" lon="6.0969">
        <ele>440</ele>
        <time>2020-03-17T10:13:21Z</time>
      </trkpt>
      <trkpt lat="47.18936" lon="6.09667">
        <ele>439</ele>
        <time>2020-03-17T10:13:25Z</time>
      </trkpt>
      <trkpt lat="47.18945" lon="6.09655">
        <ele>439</ele>
        <time>2020-03-17T10:13:27Z</time>
      </trkpt>
      <trkpt lat="47.18972" lon="6.09619">
        <ele>440</ele>
        <time>2020-03-17T10:13:33Z</time>
      </trkpt>
      <trkpt lat="47.18994" lon="6.0959">
        <ele>440</ele>
        <time>2020-03-17T10:13:38Z</time>
      </trkpt>
      <trkpt lat="47.19019" lon="6.09562">
        <ele>441</ele>
        <time>2020-03-17T10:13:44Z</time>
      </trkpt>
      <trkpt lat="47.19033" lon="6.0955">
        <ele>440</ele>
        <time>2020-03-17T10:13:47Z</time>
      </trkpt>
      <trkpt lat="47.19056" lon="6.09529">
        <ele>440</ele>
        <time>2020-03-17T10:13:52Z</time>
      </trkpt>
      <trkpt lat="47.19069" lon="6.09513">
        <ele>440</ele>
        <time>2020-03-17T10:13:55Z</time>
      </trkpt>
      <trkpt lat="47.19077" lon="6.09501">
        <ele>440</ele>
        <time>2020-03-17T10:13:57Z</time>
      </trkpt>
      <trkpt lat="47.19086" lon="6.09489">
        <ele>439</ele>
        <time>2020-03-17T10:13:59Z</time>
      </trkpt>
      <trkpt lat="47.19091" lon="6.09482">
        <ele>439</ele>
        <time>2020-03-17T10:14:00Z</time>
      </trkpt>
      <trkpt lat="47.19102" lon="6.09468">
        <ele>438</ele>
        <time>2020-03-17T10:14:02Z</time>
      </trkpt>
      <trkpt lat="47.19108" lon="6.09463">
        <ele>438</ele>
        <time>2020-03-17T10:14:03Z</time>
      </trkpt>
      <trkpt lat="47.19115" lon="6.09458">
        <ele>438</ele>
        <time>2020-03-17T10:14:04Z</time>
      </trkpt>
      <trkpt lat="47.19127" lon="6.09448">
        <ele>438</ele>
        <time>2020-03-17T10:14:06Z</time>
      </trkpt>
      <trkpt lat="47.19145" lon="6.09432">
        <ele>438</ele>
        <time>2020-03-17T10:14:09Z</time>
      </trkpt>
      <trkpt lat="47.19158" lon="6.0942">
        <ele>437</ele>
        <time>2020-03-17T10:14:11Z</time>
      </trkpt>
      <trkpt lat="47.19165" lon="6.09414">
        <ele>437</ele>
        <time>2020-03-17T10:14:12Z</time>
      </trkpt>
      <trkpt lat="47.19178" lon="6.09403">
        <ele>437</ele>
        <time>2020-03-17T10:14:14Z</time>
      </trkpt>
      <trkpt lat="47.19185" lon="6.09399">
        <ele>437</ele>
        <time>2020-03-17T10:14:15Z</time>
      </trkpt>
      <trkpt lat="47.19193" lon="6.09395">
        <ele>437</ele>
        <time>2020-03-17T10:14:16Z</time>
      </trkpt>
      <trkpt lat="47.192" lon="6.09391">
        <ele>437</ele>
        <time>2020-03-17T10:14:17Z</time>
      </trkpt>
      <trkpt lat="47.19207" lon="6.09387">
        <ele>436</ele>
        <time>2020-03-17T10:14:18Z</time>
      </trkpt>
      <trkpt lat="47.19223" lon="6.09381">
        <ele>436</ele>
        <time>2020-03-17T10:14:20Z</time>
      </trkpt>
      <trkpt lat="47.19239" lon="6.09377">
        <ele>435</ele>
        <time>2020-03-17T10:14:22Z</time>
      </trkpt>
      <trkpt lat="47.19247" lon="6.09376">
        <ele>434</ele>
        <time>2020-03-17T10:14:23Z</time>
      </trkpt>
      <trkpt lat="47.19263" lon="6.09374">
        <ele>433</ele>
        <time>2020-03-17T10:14:25Z</time>
      </trkpt>
      <trkpt lat="47.19271" lon="6.09375">
        <ele>432</ele>
        <time>2020-03-17T10:14:26Z</time>
      </trkpt>
      <trkpt lat="47.19287" lon="6.09373">
        <ele>431</ele>
        <time>2020-03-17T10:14:28Z</time>
      </trkpt>
      <trkpt lat="47.19295" lon="6.09371">
        <ele>431</ele>
        <time>2020-03-17T10:14:29Z</time>
      </trkpt>
      <trkpt lat="47.19303" lon="6.09369">
        <ele>431</ele>
        <time>2020-03-17T10:14:30Z</time>
      </trkpt>
      <trkpt lat="47.19319" lon="6.09362">
        <ele>431</ele>
        <time>2020-03-17T10:14:32Z</time>
      </trkpt>
      <trkpt lat="47.19336" lon="6.09352">
        <ele>429</ele>
        <time>2020-03-17T10:14:34Z</time>
      </trkpt>
      <trkpt lat="47.19354" lon="6.09341">
        <ele>427</ele>
        <time>2020-03-17T10:14:36Z</time>
      </trkpt>
      <trkpt lat="47.19363" lon="6.09337">
        <ele>426</ele>
        <time>2020-03-17T10:14:37Z</time>
      </trkpt>
      <trkpt lat="47.19373" lon="6.09333">
        <ele>425</ele>
        <time>2020-03-17T10:14:38Z</time>
      </trkpt>
      <trkpt lat="47.19392" lon="6.09327">
        <ele>423</ele>
        <time>2020-03-17T10:14:40Z</time>
      </trkpt>
      <trkpt lat="47.19403" lon="6.09325">
        <ele>421</ele>
        <time>2020-03-17T10:14:41Z</time>
      </trkpt>
      <trkpt lat="47.19413" lon="6.09323">
        <ele>419</ele>
        <time>2020-03-17T10:14:42Z</time>
      </trkpt>
      <trkpt lat="47.19422" lon="6.09321">
        <ele>418</ele>
        <time>2020-03-17T10:14:43Z</time>
      </trkpt>
      <trkpt lat="47.19432" lon="6.09321">
        <ele>416</ele>
        <time>2020-03-17T10:14:44Z</time>
      </trkpt>
      <trkpt lat="47.19449" lon="6.09321">
        <ele>415</ele>
        <time>2020-03-17T10:14:46Z</time>
      </trkpt>
      <trkpt lat="47.19457" lon="6.09318">
        <ele>414</ele>
        <time>2020-03-17T10:14:47Z</time>
      </trkpt>
      <trkpt lat="47.19464" lon="6.09314">
        <ele>413</ele>
        <time>2020-03-17T10:14:48Z</time>
      </trkpt>
      <trkpt lat="47.19471" lon="6.09307">
        <ele>413</ele>
        <time>2020-03-17T10:14:49Z</time>
      </trkpt>
      <trkpt lat="47.19478" lon="6.093">
        <ele>412</ele>
        <time>2020-03-17T10:14:50Z</time>
      </trkpt>
      <trkpt lat="47.19484" lon="6.09292">
        <ele>411</ele>
        <time>2020-03-17T10:14:51Z</time>
      </trkpt>
      <trkpt lat="47.1949" lon="6.09286">
        <ele>410</ele>
        <time>2020-03-17T10:14:52Z</time>
      </trkpt>
      <trkpt lat="47.19502" lon="6.09274">
        <ele>410</ele>
        <time>2020-03-17T10:14:54Z</time>
      </trkpt>
      <trkpt lat="47.19506" lon="6.09269">
        <ele>411</ele>
        <time>2020-03-17T10:14:55Z</time>
      </trkpt>
      <trkpt lat="47.1951" lon="6.09263">
        <ele>412</ele>
        <time>2020-03-17T10:14:56Z</time>
      </trkpt>
      <trkpt lat="47.19512" lon="6.0925">
        <ele>413</ele>
        <time>2020-03-17T10:14:58Z</time>
      </trkpt>
      <trkpt lat="47.19507" lon="6.0924">
        <ele>414</ele>
        <time>2020-03-17T10:15:00Z</time>
      </trkpt>
      <trkpt lat="47.19504" lon="6.09236">
        <ele>414</ele>
        <time>2020-03-17T10:15:01Z</time>
      </trkpt>
      <trkpt lat="47.19499" lon="6.09226">
        <ele>414</ele>
        <time>2020-03-17T10:15:04Z</time>
      </trkpt>
      <trkpt lat="47.19494" lon="6.0922">
        <ele>415</ele>
        <time>2020-03-17T10:15:06Z</time>
      </trkpt>
      <trkpt lat="47.19478" lon="6.09208">
        <ele>414</ele>
        <time>2020-03-17T10:15:11Z</time>
      </trkpt>
      <trkpt lat="47.1947" lon="6.09204">
        <ele>414</ele>
        <time>2020-03-17T10:15:13Z</time>
      </trkpt>
      <trkpt lat="47.19466" lon="6.09203">
        <ele>414</ele>
        <time>2020-03-17T10:15:14Z</time>
      </trkpt>
      <trkpt lat="47.19453" lon="6.09202">
        <ele>413</ele>
        <time>2020-03-17T10:15:17Z</time>
      </trkpt>
      <trkpt lat="47.1943" lon="6.09205">
        <ele>413</ele>
        <time>2020-03-17T10:15:23Z</time>
      </trkpt>
      <trkpt lat="47.19423" lon="6.09204">
        <ele>413</ele>
        <time>2020-03-17T10:15:25Z</time>
      </trkpt>
      <trkpt lat="47.19408" lon="6.09203">
        <ele>412</ele>
        <time>2020-03-17T10:15:29Z</time>
      </trkpt>
      <trkpt lat="47.194" lon="6.09202">
        <ele>412</ele>
        <time>2020-03-17T10:15:31Z</time>
      </trkpt>
      <trkpt lat="47.19384" lon="6.09194">
        <ele>412</ele>
        <time>2020-03-17T10:15:35Z</time>
      </trkpt>
      <trkpt lat="47.19368" lon="6.09183">
        <ele>412</ele>
        <time>2020-03-17T10:15:39Z</time>
      </trkpt>
      <trkpt lat="47.19351" lon="6.0917">
        <ele>413</ele>
        <time>2020-03-17T10:15:43Z</time>
      </trkpt>
      <trkpt lat="47.19347" lon="6.09166">
        <ele>414</ele>
        <time>2020-03-17T10:15:44Z</time>
      </trkpt>
      <trkpt lat="47.19329" lon="6.09154">
        <ele>414</ele>
        <time>2020-03-17T10:15:49Z</time>
      </trkpt>
      <trkpt lat="47.19323" lon="6.09149">
        <ele>414</ele>
        <time>2020-03-17T10:15:51Z</time>
      </trkpt>
      <trkpt lat="47.19317" lon="6.09145">
        <ele>414</ele>
        <time>2020-03-17T10:15:53Z</time>
      </trkpt>
      <trkpt lat="47.19297" lon="6.09128">
        <ele>413</ele>
        <time>2020-03-17T10:16:00Z</time>
      </trkpt>
      <trkpt lat="47.19283" lon="6.09117">
        <ele>413</ele>
        <time>2020-03-17T10:16:04Z</time>
      </trkpt>
      <trkpt lat="47.19267" lon="6.09105">
        <ele>413</ele>
        <time>2020-03-17T10:16:09Z</time>
      </trkpt>
      <trkpt lat="47.19263" lon="6.09103">
        <ele>413</ele>
        <time>2020-03-17T10:16:10Z</time>
      </trkpt>
      <trkpt lat="47.19248" lon="6.0909">
        <ele>414</ele>
        <time>2020-03-17T10:16:15Z</time>
      </trkpt>
      <trkpt lat="47.19239" lon="6.09081">
        <ele>415</ele>
        <time>2020-03-17T10:16:18Z</time>
      </trkpt>
      <trkpt lat="47.19224" lon="6.0907">
        <ele>415</ele>
        <time>2020-03-17T10:16:23Z</time>
      </trkpt>
      <trkpt lat="47.19223" lon="6.09071">
        <ele>415</ele>
        <time>2020-03-17T10:16:24Z</time>
      </trkpt>
      <trkpt lat="47.1922" lon="6.09066">
        <ele>415</ele>
        <time>2020-03-17T10:16:34Z</time>
      </trkpt>
      <trkpt lat="47.19217" lon="6.09063">
        <ele>415</ele>
        <time>2020-03-17T10:16:36Z</time>
      </trkpt>
      <trkpt lat="47.19208" lon="6.09057">
        <ele>415</ele>
        <time>2020-03-17T10:16:41Z</time>
      </trkpt>
      <trkpt lat="47.19206" lon="6.09055">
        <ele>415</ele>
        <time>2020-03-17T10:16:42Z</time>
      </trkpt>
      <trkpt lat="47.19189" lon="6.09043">
        <ele>415</ele>
        <time>2020-03-17T10:16:48Z</time>
      </trkpt>
      <trkpt lat="47.19172" lon="6.09029">
        <ele>415</ele>
        <time>2020-03-17T10:16:54Z</time>
      </trkpt>
      <trkpt lat="47.19164" lon="6.09013">
        <ele>416</ele>
        <time>2020-03-17T10:16:59Z</time>
      </trkpt>
      <trkpt lat="47.1916" lon="6.08987">
        <ele>416</ele>
        <time>2020-03-17T10:17:05Z</time>
      </trkpt>
      <trkpt lat="47.19152" lon="6.08972">
        <ele>417</ele>
        <time>2020-03-17T10:17:09Z</time>
      </trkpt>
      <trkpt lat="47.1915" lon="6.08969">
        <ele>417</ele>
        <time>2020-03-17T10:17:10Z</time>
      </trkpt>
      <trkpt lat="47.19137" lon="6.08953">
        <ele>417</ele>
        <time>2020-03-17T10:17:16Z</time>
      </trkpt>
      <trkpt lat="47.19132" lon="6.08949">
        <ele>417</ele>
        <time>2020-03-17T10:17:18Z</time>
      </trkpt>
      <trkpt lat="47.19124" lon="6.08942">
        <ele>418</ele>
        <time>2020-03-17T10:17:21Z</time>
      </trkpt>
      <trkpt lat="47.19122" lon="6.0894">
        <ele>418</ele>
        <time>2020-03-17T10:17:22Z</time>
      </trkpt>
      <trkpt lat="47.19112" lon="6.0893">
        <ele>419</ele>
        <time>2020-03-17T10:17:26Z</time>
      </trkpt>
      <trkpt lat="47.19104" lon="6.08924">
        <ele>419</ele>
        <time>2020-03-17T10:17:29Z</time>
      </trkpt>
      <trkpt lat="47.19086" lon="6.08909">
        <ele>419</ele>
        <time>2020-03-17T10:17:35Z</time>
      </trkpt>
      <trkpt lat="47.19065" lon="6.08892">
        <ele>418</ele>
        <time>2020-03-17T10:17:41Z</time>
      </trkpt>
      <trkpt lat="47.19037" lon="6.08867">
        <ele>419</ele>
        <time>2020-03-17T10:17:50Z</time>
      </trkpt>
      <trkpt lat="47.19029" lon="6.08861">
        <ele>419</ele>
        <time>2020-03-17T10:17:54Z</time>
      </trkpt>
      <trkpt lat="47.19027" lon="6.0886">
        <ele>419</ele>
        <time>2020-03-17T10:17:55Z</time>
      </trkpt>
      <trkpt lat="47.19023" lon="6.08858">
        <ele>419</ele>
        <time>2020-03-17T10:17:57Z</time>
      </trkpt>
      <trkpt lat="47.19016" lon="6.08854">
        <ele>419</ele>
        <time>2020-03-17T10:18:00Z</time>
      </trkpt>
      <trkpt lat="47.18997" lon="6.08842">
        <ele>420</ele>
        <time>2020-03-17T10:18:06Z</time>
      </trkpt>
      <trkpt lat="47.1897" lon="6.08824">
        <ele>421</ele>
        <time>2020-03-17T10:18:14Z</time>
      </trkpt>
      <trkpt lat="47.18961" lon="6.08817">
        <ele>422</ele>
        <time>2020-03-17T10:18:19Z</time>
      </trkpt>
      <trkpt lat="47.18946" lon="6.08811">
        <ele>421</ele>
        <time>2020-03-17T10:18:25Z</time>
      </trkpt>
      <trkpt lat="47.18943" lon="6.08809">
        <ele>421</ele>
        <time>2020-03-17T10:18:26Z</time>
      </trkpt>
      <trkpt lat="47.18921" lon="6.08798">
        <ele>421</ele>
        <time>2020-03-17T10:18:33Z</time>
      </trkpt>
      <trkpt lat="47.18894" lon="6.08784">
        <ele>421</ele>
        <time>2020-03-17T10:18:41Z</time>
      </trkpt>
      <trkpt lat="47.18862" lon="6.08761">
        <ele>421</ele>
        <time>2020-03-17T10:18:50Z</time>
      </trkpt>
      <trkpt lat="47.18836" lon="6.08741">
        <ele>420</ele>
        <time>2020-03-17T10:18:58Z</time>
      </trkpt>
      <trkpt lat="47.18808" lon="6.08716">
        <ele>419</ele>
        <time>2020-03-17T10:19:07Z</time>
      </trkpt>
      <trkpt lat="47.18787" lon="6.08699">
        <ele>420</ele>
        <time>2020-03-17T10:19:14Z</time>
      </trkpt>
      <trkpt lat="47.18769" lon="6.08685">
        <ele>422</ele>
        <time>2020-03-17T10:19:21Z</time>
      </trkpt>
      <trkpt lat="47.18751" lon="6.08675">
        <ele>423</ele>
        <time>2020-03-17T10:19:27Z</time>
      </trkpt>
      <trkpt lat="47.18739" lon="6.08669">
        <ele>423</ele>
        <time>2020-03-17T10:19:31Z</time>
      </trkpt>
      <trkpt lat="47.18721" lon="6.0866">
        <ele>423</ele>
        <time>2020-03-17T10:19:37Z</time>
      </trkpt>
      <trkpt lat="47.18701" lon="6.08652">
        <ele>424</ele>
        <time>2020-03-17T10:19:44Z</time>
      </trkpt>
      <trkpt lat="47.18675" lon="6.08648">
        <ele>424</ele>
        <time>2020-03-17T10:19:52Z</time>
      </trkpt>
      <trkpt lat="47.18651" lon="6.08642">
        <ele>424</ele>
        <time>2020-03-17T10:19:59Z</time>
      </trkpt>
      <trkpt lat="47.18628" lon="6.08625">
        <ele>425</ele>
        <time>2020-03-17T10:20:06Z</time>
      </trkpt>
      <trkpt lat="47.18622" lon="6.0862">
        <ele>426</ele>
        <time>2020-03-17T10:20:08Z</time>
      </trkpt>
      <trkpt lat="47.18611" lon="6.08612">
        <ele>426</ele>
        <time>2020-03-17T10:20:12Z</time>
      </trkpt>
      <trkpt lat="47.18588" lon="6.08595">
        <ele>427</ele>
        <time>2020-03-17T10:20:20Z</time>
      </trkpt>
      <trkpt lat="47.18569" lon="6.08584">
        <ele>427</ele>
        <time>2020-03-17T10:20:27Z</time>
      </trkpt>
      <trkpt lat="47.18567" lon="6.08583">
        <ele>428</ele>
        <time>2020-03-17T10:20:28Z</time>
      </trkpt>
      <trkpt lat="47.18552" lon="6.08574">
        <ele>428</ele>
        <time>2020-03-17T10:20:35Z</time>
      </trkpt>
      <trkpt lat="47.18542" lon="6.08565">
        <ele>429</ele>
        <time>2020-03-17T10:20:40Z</time>
      </trkpt>
      <trkpt lat="47.18537" lon="6.08558">
        <ele>429</ele>
        <time>2020-03-17T10:20:43Z</time>
      </trkpt>
      <trkpt lat="47.1853" lon="6.08546">
        <ele>429</ele>
        <time>2020-03-17T10:20:47Z</time>
      </trkpt>
      <trkpt lat="47.18524" lon="6.08536">
        <ele>430</ele>
        <time>2020-03-17T10:20:50Z</time>
      </trkpt>
      <trkpt lat="47.18519" lon="6.08525">
        <ele>430</ele>
        <time>2020-03-17T10:20:53Z</time>
      </trkpt>
      <trkpt lat="47.18508" lon="6.08512">
        <ele>431</ele>
        <time>2020-03-17T10:20:58Z</time>
      </trkpt>
      <trkpt lat="47.18505" lon="6.0851">
        <ele>431</ele>
        <time>2020-03-17T10:20:59Z</time>
      </trkpt>
      <trkpt lat="47.18487" lon="6.08495">
        <ele>432</ele>
        <time>2020-03-17T10:21:06Z</time>
      </trkpt>
      <trkpt lat="47.18466" lon="6.08478">
        <ele>434</ele>
        <time>2020-03-17T10:21:14Z</time>
      </trkpt>
      <trkpt lat="47.18463" lon="6.08472">
        <ele>434</ele>
        <time>2020-03-17T10:21:16Z</time>
      </trkpt>
      <trkpt lat="47.18465" lon="6.08465">
        <ele>434</ele>
        <time>2020-03-17T10:21:18Z</time>
      </trkpt>
      <trkpt lat="47.18468" lon="6.0846">
        <ele>435</ele>
        <time>2020-03-17T10:21:20Z</time>
      </trkpt>
      <trkpt lat="47.1847" lon="6.08458">
        <ele>435</ele>
        <time>2020-03-17T10:21:21Z</time>
      </trkpt>
      <trkpt lat="47.18474" lon="6.08455">
        <ele>435</ele>
        <time>2020-03-17T10:21:23Z</time>
      </trkpt>
      <trkpt lat="47.18479" lon="6.08453">
        <ele>436</ele>
        <time>2020-03-17T10:21:25Z</time>
      </trkpt>
      <trkpt lat="47.18488" lon="6.08452">
        <ele>437</ele>
        <time>2020-03-17T10:21:29Z</time>
      </trkpt>
      <trkpt lat="47.18492" lon="6.08453">
        <ele>437</ele>
        <time>2020-03-17T10:21:31Z</time>
      </trkpt>
      <trkpt lat="47.185" lon="6.08453">
        <ele>438</ele>
        <time>2020-03-17T10:21:35Z</time>
      </trkpt>
      <trkpt lat="47.18507" lon="6.08453">
        <ele>438</ele>
        <time>2020-03-17T10:21:38Z</time>
      </trkpt>
      <trkpt lat="47.1851" lon="6.08453">
        <ele>438</ele>
        <time>2020-03-17T10:21:39Z</time>
      </trkpt>
      <trkpt lat="47.18514" lon="6.08454">
        <ele>439</ele>
        <time>2020-03-17T10:21:41Z</time>
      </trkpt>
      <trkpt lat="47.1853" lon="6.08455">
        <ele>440</ele>
        <time>2020-03-17T10:21:48Z</time>
      </trkpt>
      <trkpt lat="47.18535" lon="6.08456">
        <ele>440</ele>
        <time>2020-03-17T10:21:50Z</time>
      </trkpt>
      <trkpt lat="47.18546" lon="6.08456">
        <ele>441</ele>
        <time>2020-03-17T10:21:55Z</time>
      </trkpt>
      <trkpt lat="47.1856" lon="6.08456">
        <ele>442</ele>
        <time>2020-03-17T10:22:01Z</time>
      </trkpt>
      <trkpt lat="47.18562" lon="6.08456">
        <ele>442</ele>
        <time>2020-03-17T10:22:02Z</time>
      </trkpt>
      <trkpt lat="47.1858" lon="6.08458">
        <ele>443</ele>
        <time>2020-03-17T10:22:10Z</time>
      </trkpt>
      <trkpt lat="47.18582" lon="6.08458">
        <ele>443</ele>
        <time>2020-03-17T10:22:11Z</time>
      </trkpt>
      <trkpt lat="47.18598" lon="6.08458">
        <ele>444</ele>
        <time>2020-03-17T10:22:19Z</time>
      </trkpt>
      <trkpt lat="47.1861" lon="6.08456">
        <ele>444</ele>
        <time>2020-03-17T10:22:24Z</time>
      </trkpt>
      <trkpt lat="47.18617" lon="6.08455">
        <ele>445</ele>
        <time>2020-03-17T10:22:27Z</time>
      </trkpt>
      <trkpt lat="47.18619" lon="6.08454">
        <ele>445</ele>
        <time>2020-03-17T10:22:28Z</time>
      </trkpt>
      <trkpt lat="47.18636" lon="6.08451">
        <ele>448</ele>
        <time>2020-03-17T10:22:36Z</time>
      </trkpt>
      <trkpt lat="47.18638" lon="6.0845">
        <ele>448</ele>
        <time>2020-03-17T10:22:37Z</time>
      </trkpt>
      <trkpt lat="47.18653" lon="6.08444">
        <ele>452</ele>
        <time>2020-03-17T10:22:44Z</time>
      </trkpt>
      <trkpt lat="47.18662" lon="6.08441">
        <ele>453</ele>
        <time>2020-03-17T10:22:48Z</time>
      </trkpt>
      <trkpt lat="47.18673" lon="6.08435">
        <ele>455</ele>
        <time>2020-03-17T10:22:53Z</time>
      </trkpt>
      <trkpt lat="47.18676" lon="6.08432">
        <ele>455</ele>
        <time>2020-03-17T10:22:55Z</time>
      </trkpt>
      <trkpt lat="47.18688" lon="6.08419">
        <ele>458</ele>
        <time>2020-03-17T10:23:02Z</time>
      </trkpt>
      <trkpt lat="47.18693" lon="6.08406">
        <ele>459</ele>
        <time>2020-03-17T10:23:07Z</time>
      </trkpt>
      <trkpt lat="47.18697" lon="6.08386">
        <ele>460</ele>
        <time>2020-03-17T10:23:13Z</time>
      </trkpt>
      <trkpt lat="47.18696" lon="6.08361">
        <ele>460</ele>
        <time>2020-03-17T10:23:20Z</time>
      </trkpt>
      <trkpt lat="47.18695" lon="6.08351">
        <ele>460</ele>
        <time>2020-03-17T10:23:23Z</time>
      </trkpt>
      <trkpt lat="47.18694" lon="6.08346">
        <ele>459</ele>
        <time>2020-03-17T10:23:25Z</time>
      </trkpt>
      <trkpt lat="47.18695" lon="6.0834">
        <ele>460</ele>
        <time>2020-03-17T10:23:29Z</time>
      </trkpt>
      <trkpt lat="47.18694" lon="6.08339">
        <ele>459</ele>
        <time>2020-03-17T10:23:30Z</time>
      </trkpt>
      <trkpt lat="47.18694" lon="6.08344">
        <ele>459</ele>
        <time>2020-03-17T10:23:33Z</time>
      </trkpt>
      <trkpt lat="47.187" lon="6.08347">
        <ele>460</ele>
        <time>2020-03-17T10:23:36Z</time>
      </trkpt>
      <trkpt lat="47.18701" lon="6.08347">
        <ele>460</ele>
        <time>2020-03-17T10:23:37Z</time>
      </trkpt>
      <trkpt lat="47.18709" lon="6.0835">
        <ele>460</ele>
        <time>2020-03-17T10:23:41Z</time>
      </trkpt>
      <trkpt lat="47.18713" lon="6.08348">
        <ele>460</ele>
        <time>2020-03-17T10:23:43Z</time>
      </trkpt>
      <trkpt lat="47.18715" lon="6.08344">
        <ele>460</ele>
        <time>2020-03-17T10:23:52Z</time>
      </trkpt>
      <trkpt lat="47.18711" lon="6.0835">
        <ele>460</ele>
        <time>2020-03-17T10:23:56Z</time>
      </trkpt>
      <trkpt lat="47.1871" lon="6.08349">
        <ele>460</ele>
        <time>2020-03-17T10:23:57Z</time>
      </trkpt>
      <trkpt lat="47.18701" lon="6.08343">
        <ele>460</ele>
        <time>2020-03-17T10:24:01Z</time>
      </trkpt>
      <trkpt lat="47.187" lon="6.0834">
        <ele>460</ele>
        <time>2020-03-17T10:24:02Z</time>
      </trkpt>
      <trkpt lat="47.18698" lon="6.08323">
        <ele>460</ele>
        <time>2020-03-17T10:24:06Z</time>
      </trkpt>
      <trkpt lat="47.18696" lon="6.08294">
        <ele>461</ele>
        <time>2020-03-17T10:24:12Z</time>
      </trkpt>
      <trkpt lat="47.18696" lon="6.08289">
        <ele>461</ele>
        <time>2020-03-17T10:24:13Z</time>
      </trkpt>
      <trkpt lat="47.18696" lon="6.08262">
        <ele>460</ele>
        <time>2020-03-17T10:24:19Z</time>
      </trkpt>
      <trkpt lat="47.18706" lon="6.08258">
        <ele>460</ele>
        <time>2020-03-17T10:24:23Z</time>
      </trkpt>
      <trkpt lat="47.18709" lon="6.08258">
        <ele>460</ele>
        <time>2020-03-17T10:24:24Z</time>
      </trkpt>
      <trkpt lat="47.18716" lon="6.08256">
        <ele>460</ele>
        <time>2020-03-17T10:24:26Z</time>
      </trkpt>
      <trkpt lat="47.18727" lon="6.08257">
        <ele>460</ele>
        <time>2020-03-17T10:24:29Z</time>
      </trkpt>
      <trkpt lat="47.1874" lon="6.08256">
        <ele>460</ele>
        <time>2020-03-17T10:24:31Z</time>
      </trkpt>
      <trkpt lat="47.18751" lon="6.08255">
        <ele>460</ele>
        <time>2020-03-17T10:24:33Z</time>
      </trkpt>
      <trkpt lat="47.18756" lon="6.08254">
        <ele>459</ele>
        <time>2020-03-17T10:24:34Z</time>
      </trkpt>
      <trkpt lat="47.18765" lon="6.08255">
        <ele>459</ele>
        <time>2020-03-17T10:24:36Z</time>
      </trkpt>
      <trkpt lat="47.18776" lon="6.08255">
        <ele>458</ele>
        <time>2020-03-17T10:24:38Z</time>
      </trkpt>
      <trkpt lat="47.18781" lon="6.08255">
        <ele>458</ele>
        <time>2020-03-17T10:24:39Z</time>
      </trkpt>
      <trkpt lat="47.18793" lon="6.08255">
        <ele>456</ele>
        <time>2020-03-17T10:24:41Z</time>
      </trkpt>
      <trkpt lat="47.18811" lon="6.08253">
        <ele>455</ele>
        <time>2020-03-17T10:24:44Z</time>
      </trkpt>
      <trkpt lat="47.18817" lon="6.08253">
        <ele>454</ele>
        <time>2020-03-17T10:24:45Z</time>
      </trkpt>
      <trkpt lat="47.18823" lon="6.08253">
        <ele>454</ele>
        <time>2020-03-17T10:24:46Z</time>
      </trkpt>
      <trkpt lat="47.18836" lon="6.08253">
        <ele>452</ele>
        <time>2020-03-17T10:24:48Z</time>
      </trkpt>
      <trkpt lat="47.18843" lon="6.08251">
        <ele>451</ele>
        <time>2020-03-17T10:24:49Z</time>
      </trkpt>
      <trkpt lat="47.1885" lon="6.08251">
        <ele>450</ele>
        <time>2020-03-17T10:24:50Z</time>
      </trkpt>
      <trkpt lat="47.18858" lon="6.0825">
        <ele>448</ele>
        <time>2020-03-17T10:24:51Z</time>
      </trkpt>
      <trkpt lat="47.18873" lon="6.08249">
        <ele>446</ele>
        <time>2020-03-17T10:24:53Z</time>
      </trkpt>
      <trkpt lat="47.18889" lon="6.0825">
        <ele>444</ele>
        <time>2020-03-17T10:24:55Z</time>
      </trkpt>
      <trkpt lat="47.18904" lon="6.0825">
        <ele>443</ele>
        <time>2020-03-17T10:24:57Z</time>
      </trkpt>
      <trkpt lat="47.18922" lon="6.08247">
        <ele>443</ele>
        <time>2020-03-17T10:25:00Z</time>
      </trkpt>
      <trkpt lat="47.18927" lon="6.08248">
        <ele>443</ele>
        <time>2020-03-17T10:25:01Z</time>
      </trkpt>
      <trkpt lat="47.18935" lon="6.08248">
        <ele>443</ele>
        <time>2020-03-17T10:25:03Z</time>
      </trkpt>
      <trkpt lat="47.1895" lon="6.08247">
        <ele>443</ele>
        <time>2020-03-17T10:25:07Z</time>
      </trkpt>
      <trkpt lat="47.18953" lon="6.08247">
        <ele>443</ele>
        <time>2020-03-17T10:25:08Z</time>
      </trkpt>
      <trkpt lat="47.18967" lon="6.08242">
        <ele>443</ele>
        <time>2020-03-17T10:25:13Z</time>
      </trkpt>
      <trkpt lat="47.18972" lon="6.08242">
        <ele>443</ele>
        <time>2020-03-17T10:25:15Z</time>
      </trkpt>
      <trkpt lat="47.18983" lon="6.0824">
        <ele>443</ele>
        <time>2020-03-17T10:25:19Z</time>
      </trkpt>
      <trkpt lat="47.19003" lon="6.08237">
        <ele>443</ele>
        <time>2020-03-17T10:25:26Z</time>
      </trkpt>
      <trkpt lat="47.19014" lon="6.08237">
        <ele>443</ele>
        <time>2020-03-17T10:25:29Z</time>
      </trkpt>
      <trkpt lat="47.19022" lon="6.08238">
        <ele>442</ele>
        <time>2020-03-17T10:25:32Z</time>
      </trkpt>
      <trkpt lat="47.19032" lon="6.08238">
        <ele>442</ele>
        <time>2020-03-17T10:25:35Z</time>
      </trkpt>
      <trkpt lat="47.19046" lon="6.08237">
        <ele>441</ele>
        <time>2020-03-17T10:25:38Z</time>
      </trkpt>
      <trkpt lat="47.19069" lon="6.08239">
        <ele>440</ele>
        <time>2020-03-17T10:25:42Z</time>
      </trkpt>
      <trkpt lat="47.19085" lon="6.0824">
        <ele>440</ele>
        <time>2020-03-17T10:25:44Z</time>
      </trkpt>
      <trkpt lat="47.19092" lon="6.0824">
        <ele>440</ele>
        <time>2020-03-17T10:25:45Z</time>
      </trkpt>
      <trkpt lat="47.19105" lon="6.08238">
        <ele>440</ele>
        <time>2020-03-17T10:25:47Z</time>
      </trkpt>
      <trkpt lat="47.19115" lon="6.08236">
        <ele>440</ele>
        <time>2020-03-17T10:25:49Z</time>
      </trkpt>
      <trkpt lat="47.19128" lon="6.08233">
        <ele>441</ele>
        <time>2020-03-17T10:25:52Z</time>
      </trkpt>
      <trkpt lat="47.19131" lon="6.08232">
        <ele>441</ele>
        <time>2020-03-17T10:25:53Z</time>
      </trkpt>
      <trkpt lat="47.19134" lon="6.08231">
        <ele>441</ele>
        <time>2020-03-17T10:25:54Z</time>
      </trkpt>
      <trkpt lat="47.1915" lon="6.08234">
        <ele>442</ele>
        <time>2020-03-17T10:25:59Z</time>
      </trkpt>
      <trkpt lat="47.19153" lon="6.08236">
        <ele>442</ele>
        <time>2020-03-17T10:26:00Z</time>
      </trkpt>
      <trkpt lat="47.1916" lon="6.08239">
        <ele>443</ele>
        <time>2020-03-17T10:26:03Z</time>
      </trkpt>
      <trkpt lat="47.19165" lon="6.08239">
        <ele>443</ele>
        <time>2020-03-17T10:26:05Z</time>
      </trkpt>
      <trkpt lat="47.19168" lon="6.08238">
        <ele>443</ele>
        <time>2020-03-17T10:26:06Z</time>
      </trkpt>
      <trkpt lat="47.19211" lon="6.08227">
        <ele>444</ele>
        <time>2020-03-17T10:27:41Z</time>
      </trkpt>
      <trkpt lat="47.19217" lon="6.08227">
        <ele>443</ele>
        <time>2020-03-17T10:27:44Z</time>
      </trkpt>
      <trkpt lat="47.19221" lon="6.08227">
        <ele>443</ele>
        <time>2020-03-17T10:27:46Z</time>
      </trkpt>
      <trkpt lat="47.19231" lon="6.08226">
        <ele>441</ele>
        <time>2020-03-17T10:27:51Z</time>
      </trkpt>
      <trkpt lat="47.19232" lon="6.08226">
        <ele>441</ele>
        <time>2020-03-17T10:27:52Z</time>
      </trkpt>
      <trkpt lat="47.19255" lon="6.08224">
        <ele>438</ele>
        <time>2020-03-17T10:27:59Z</time>
      </trkpt>
      <trkpt lat="47.19259" lon="6.08224">
        <ele>438</ele>
        <time>2020-03-17T10:28:00Z</time>
      </trkpt>
      <trkpt lat="47.19277" lon="6.0822">
        <ele>439</ele>
        <time>2020-03-17T10:28:06Z</time>
      </trkpt>
      <trkpt lat="47.19288" lon="6.08221">
        <ele>439</ele>
        <time>2020-03-17T10:28:09Z</time>
      </trkpt>
      <trkpt lat="47.19292" lon="6.08224">
        <ele>439</ele>
        <time>2020-03-17T10:28:10Z</time>
      </trkpt>
      <trkpt lat="47.19296" lon="6.0823">
        <ele>438</ele>
        <time>2020-03-17T10:28:12Z</time>
      </trkpt>
      <trkpt lat="47.19297" lon="6.08232">
        <ele>438</ele>
        <time>2020-03-17T10:28:13Z</time>
      </trkpt>
      <trkpt lat="47.19299" lon="6.08248">
        <ele>436</ele>
        <time>2020-03-17T10:28:17Z</time>
      </trkpt>
      <trkpt lat="47.19301" lon="6.08277">
        <ele>434</ele>
        <time>2020-03-17T10:28:23Z</time>
      </trkpt>
      <trkpt lat="47.19302" lon="6.08282">
        <ele>434</ele>
        <time>2020-03-17T10:28:24Z</time>
      </trkpt>
      <trkpt lat="47.19305" lon="6.08296">
        <ele>434</ele>
        <time>2020-03-17T10:29:00Z</time>
      </trkpt>
      <trkpt lat="47.19306" lon="6.08315">
        <ele>434</ele>
        <time>2020-03-17T10:29:04Z</time>
      </trkpt>
      <trkpt lat="47.19305" lon="6.08317">
        <ele>434</ele>
        <time>2020-03-17T10:29:05Z</time>
      </trkpt>
      <trkpt lat="47.19306" lon="6.08321">
        <ele>434</ele>
        <time>2020-03-17T10:29:06Z</time>
      </trkpt>
      <trkpt lat="47.19309" lon="6.08324">
        <ele>434</ele>
        <time>2020-03-17T10:29:08Z</time>
      </trkpt>
      <trkpt lat="47.19322" lon="6.08326">
        <ele>435</ele>
        <time>2020-03-17T10:29:16Z</time>
      </trkpt>
      <trkpt lat="47.19331" lon="6.08326">
        <ele>435</ele>
        <time>2020-03-17T10:29:19Z</time>
      </trkpt>
      <trkpt lat="47.19334" lon="6.08326">
        <ele>436</ele>
        <time>2020-03-17T10:29:20Z</time>
      </trkpt>
      <trkpt lat="47.19337" lon="6.08326">
        <ele>436</ele>
        <time>2020-03-17T10:29:21Z</time>
      </trkpt>
      <trkpt lat="47.19344" lon="6.08325">
        <ele>436</ele>
        <time>2020-03-17T10:29:24Z</time>
      </trkpt>
      <trkpt lat="47.19346" lon="6.08324">
        <ele>436</ele>
        <time>2020-03-17T10:29:25Z</time>
      </trkpt>
      <trkpt lat="47.19352" lon="6.08322">
        <ele>437</ele>
        <time>2020-03-17T10:29:28Z</time>
      </trkpt>
      <trkpt lat="47.19355" lon="6.08323">
        <ele>437</ele>
        <time>2020-03-17T10:29:30Z</time>
      </trkpt>
      <trkpt lat="47.1936" lon="6.08323">
        <ele>437</ele>
        <time>2020-03-17T10:29:32Z</time>
      </trkpt>
      <trkpt lat="47.19367" lon="6.08323">
        <ele>438</ele>
        <time>2020-03-17T10:29:35Z</time>
      </trkpt>
      <trkpt lat="47.19374" lon="6.08322">
        <ele>438</ele>
        <time>2020-03-17T10:29:38Z</time>
      </trkpt>
      <trkpt lat="47.19385" lon="6.08321">
        <ele>438</ele>
        <time>2020-03-17T10:29:43Z</time>
      </trkpt>
      <trkpt lat="47.19387" lon="6.08321">
        <ele>438</ele>
        <time>2020-03-17T10:29:44Z</time>
      </trkpt>
      <trkpt lat="47.19402" lon="6.08321">
        <ele>438</ele>
        <time>2020-03-17T10:29:50Z</time>
      </trkpt>
      <trkpt lat="47.19407" lon="6.08321">
        <ele>438</ele>
        <time>2020-03-17T10:29:52Z</time>
      </trkpt>
      <trkpt lat="47.19416" lon="6.0832">
        <ele>438</ele>
        <time>2020-03-17T10:29:56Z</time>
      </trkpt>
      <trkpt lat="47.19426" lon="6.0832">
        <ele>438</ele>
        <time>2020-03-17T10:30:00Z</time>
      </trkpt>
      <trkpt lat="47.19439" lon="6.08321">
        <ele>437</ele>
        <time>2020-03-17T10:30:05Z</time>
      </trkpt>
      <trkpt lat="47.1945" lon="6.08321">
        <ele>437</ele>
        <time>2020-03-17T10:30:08Z</time>
      </trkpt>
      <trkpt lat="47.19466" lon="6.0832">
        <ele>437</ele>
        <time>2020-03-17T10:30:13Z</time>
      </trkpt>
      <trkpt lat="47.1949" lon="6.08318">
        <ele>437</ele>
        <time>2020-03-17T10:30:20Z</time>
      </trkpt>
      <trkpt lat="47.19496" lon="6.08319">
        <ele>437</ele>
        <time>2020-03-17T10:30:22Z</time>
      </trkpt>
      <trkpt lat="47.19507" lon="6.08318">
        <ele>436</ele>
        <time>2020-03-17T10:30:25Z</time>
      </trkpt>
      <trkpt lat="47.19515" lon="6.08314">
        <ele>436</ele>
        <time>2020-03-17T10:30:28Z</time>
      </trkpt>
      <trkpt lat="47.19527" lon="6.08313">
        <ele>435</ele>
        <time>2020-03-17T10:30:33Z</time>
      </trkpt>
      <trkpt lat="47.1953" lon="6.08312">
        <ele>435</ele>
        <time>2020-03-17T10:30:34Z</time>
      </trkpt>
      <trkpt lat="47.19548" lon="6.08311">
        <ele>434</ele>
        <time>2020-03-17T10:30:38Z</time>
      </trkpt>
      <trkpt lat="47.19557" lon="6.08313">
        <ele>434</ele>
        <time>2020-03-17T10:30:40Z</time>
      </trkpt>
      <trkpt lat="47.19562" lon="6.08314">
        <ele>434</ele>
        <time>2020-03-17T10:30:41Z</time>
      </trkpt>
      <trkpt lat="47.1958" lon="6.08311">
        <ele>434</ele>
        <time>2020-03-17T10:30:45Z</time>
      </trkpt>
      <trkpt lat="47.19584" lon="6.0831">
        <ele>434</ele>
        <time>2020-03-17T10:30:46Z</time>
      </trkpt>
      <trkpt lat="47.19603" lon="6.08309">
        <ele>434</ele>
        <time>2020-03-17T10:30:50Z</time>
      </trkpt>
      <trkpt lat="47.1962" lon="6.08309">
        <ele>433</ele>
        <time>2020-03-17T10:30:54Z</time>
      </trkpt>
      <trkpt lat="47.1965" lon="6.08309">
        <ele>432</ele>
        <time>2020-03-17T10:31:01Z</time>
      </trkpt>
      <trkpt lat="47.19678" lon="6.08311">
        <ele>429</ele>
        <time>2020-03-17T10:31:07Z</time>
      </trkpt>
      <trkpt lat="47.1969" lon="6.0831">
        <ele>428</ele>
        <time>2020-03-17T10:31:09Z</time>
      </trkpt>
      <trkpt lat="47.19702" lon="6.08307">
        <ele>425</ele>
        <time>2020-03-17T10:31:11Z</time>
      </trkpt>
      <trkpt lat="47.19707" lon="6.08308">
        <ele>424</ele>
        <time>2020-03-17T10:31:12Z</time>
      </trkpt>
      <trkpt lat="47.19712" lon="6.08309">
        <ele>424</ele>
        <time>2020-03-17T10:31:13Z</time>
      </trkpt>
      <trkpt lat="47.19747" lon="6.08309">
        <ele>421</ele>
        <time>2020-03-17T10:31:20Z</time>
      </trkpt>
      <trkpt lat="47.19757" lon="6.0831">
        <ele>421</ele>
        <time>2020-03-17T10:31:22Z</time>
      </trkpt>
      <trkpt lat="47.19766" lon="6.0831">
        <ele>420</ele>
        <time>2020-03-17T10:31:24Z</time>
      </trkpt>
      <trkpt lat="47.19771" lon="6.0831">
        <ele>420</ele>
        <time>2020-03-17T10:31:25Z</time>
      </trkpt>
      <trkpt lat="47.19778" lon="6.0831">
        <ele>420</ele>
        <time>2020-03-17T10:31:27Z</time>
      </trkpt>
      <trkpt lat="47.19783" lon="6.08311">
        <ele>419</ele>
        <time>2020-03-17T10:31:28Z</time>
      </trkpt>
      <trkpt lat="47.19786" lon="6.08311">
        <ele>418</ele>
        <time>2020-03-17T10:31:29Z</time>
      </trkpt>
      <trkpt lat="47.19807" lon="6.08307">
        <ele>414</ele>
        <time>2020-03-17T10:31:33Z</time>
      </trkpt>
      <trkpt lat="47.19813" lon="6.08304">
        <ele>413</ele>
        <time>2020-03-17T10:31:34Z</time>
      </trkpt>
      <trkpt lat="47.19819" lon="6.08303">
        <ele>412</ele>
        <time>2020-03-17T10:31:35Z</time>
      </trkpt>
      <trkpt lat="47.19828" lon="6.083">
        <ele>410</ele>
        <time>2020-03-17T10:31:37Z</time>
      </trkpt>
      <trkpt lat="47.1983" lon="6.08299">
        <ele>410</ele>
        <time>2020-03-17T10:31:38Z</time>
      </trkpt>
      <trkpt lat="47.19832" lon="6.08299">
        <ele>409</ele>
        <time>2020-03-17T10:31:39Z</time>
      </trkpt>
      <trkpt lat="47.19834" lon="6.08299">
        <ele>409</ele>
        <time>2020-03-17T10:31:40Z</time>
      </trkpt>
      <trkpt lat="47.19855" lon="6.08293">
        <ele>404</ele>
        <time>2020-03-17T10:33:54Z</time>
      </trkpt>
      <trkpt lat="47.19856" lon="6.08285">
        <ele>403</ele>
        <time>2020-03-17T10:33:57Z</time>
      </trkpt>
      <trkpt lat="47.19857" lon="6.08269">
        <ele>402</ele>
        <time>2020-03-17T10:34:03Z</time>
      </trkpt>
      <trkpt lat="47.19857" lon="6.08251">
        <ele>402</ele>
        <time>2020-03-17T10:34:08Z</time>
      </trkpt>
      <trkpt lat="47.19857" lon="6.08227">
        <ele>402</ele>
        <time>2020-03-17T10:34:14Z</time>
      </trkpt>
      <trkpt lat="47.19854" lon="6.08203">
        <ele>401</ele>
        <time>2020-03-17T10:34:20Z</time>
      </trkpt>
      <trkpt lat="47.19849" lon="6.08166">
        <ele>400</ele>
        <time>2020-03-17T10:34:50Z</time>
      </trkpt>
      <trkpt lat="47.19849" lon="6.08156">
        <ele>400</ele>
        <time>2020-03-17T10:34:53Z</time>
      </trkpt>
      <trkpt lat="47.19848" lon="6.08148">
        <ele>400</ele>
        <time>2020-03-17T10:34:55Z</time>
      </trkpt>
      <trkpt lat="47.19849" lon="6.0814">
        <ele>399</ele>
        <time>2020-03-17T10:34:57Z</time>
      </trkpt>
      <trkpt lat="47.19848" lon="6.08131">
        <ele>399</ele>
        <time>2020-03-17T10:34:59Z</time>
      </trkpt>
      <trkpt lat="47.19847" lon="6.08116">
        <ele>399</ele>
        <time>2020-03-17T10:35:02Z</time>
      </trkpt>
      <trkpt lat="47.19846" lon="6.08104">
        <ele>399</ele>
        <time>2020-03-17T10:35:05Z</time>
      </trkpt>
      <trkpt lat="47.19844" lon="6.08084">
        <ele>399</ele>
        <time>2020-03-17T10:35:09Z</time>
      </trkpt>
      <trkpt lat="47.19843" lon="6.08072">
        <ele>399</ele>
        <time>2020-03-17T10:35:11Z</time>
      </trkpt>
      <trkpt lat="47.19842" lon="6.08067">
        <ele>400</ele>
        <time>2020-03-17T10:35:12Z</time>
      </trkpt>
      <trkpt lat="47.19841" lon="6.08039">
        <ele>400</ele>
        <time>2020-03-17T10:35:17Z</time>
      </trkpt>
      <trkpt lat="47.19838" lon="6.08024">
        <ele>400</ele>
        <time>2020-03-17T10:35:21Z</time>
      </trkpt>
      <trkpt lat="47.19837" lon="6.08001">
        <ele>400</ele>
        <time>2020-03-17T10:35:27Z</time>
      </trkpt>
      <trkpt lat="47.19835" lon="6.07986">
        <ele>400</ele>
        <time>2020-03-17T10:35:30Z</time>
      </trkpt>
      <trkpt lat="47.19834" lon="6.07968">
        <ele>399</ele>
        <time>2020-03-17T10:35:34Z</time>
      </trkpt>
      <trkpt lat="47.19834" lon="6.0795">
        <ele>399</ele>
        <time>2020-03-17T10:35:39Z</time>
      </trkpt>
      <trkpt lat="47.19832" lon="6.07926">
        <ele>399</ele>
        <time>2020-03-17T10:35:45Z</time>
      </trkpt>
      <trkpt lat="47.19831" lon="6.07922">
        <ele>399</ele>
        <time>2020-03-17T10:35:46Z</time>
      </trkpt>
      <trkpt lat="47.19829" lon="6.079">
        <ele>398</ele>
        <time>2020-03-17T10:35:52Z</time>
      </trkpt>
      <trkpt lat="47.19826" lon="6.07865">
        <ele>398</ele>
        <time>2020-03-17T10:36:00Z</time>
      </trkpt>
      <trkpt lat="47.19822" lon="6.0784">
        <ele>398</ele>
        <time>2020-03-17T10:36:06Z</time>
      </trkpt>
      <trkpt lat="47.1982" lon="6.07811">
        <ele>399</ele>
        <time>2020-03-17T10:36:13Z</time>
      </trkpt>
      <trkpt lat="47.19817" lon="6.0778">
        <ele>402</ele>
        <time>2020-03-17T10:36:20Z</time>
      </trkpt>
      <trkpt lat="47.19815" lon="6.07749">
        <ele>402</ele>
        <time>2020-03-17T10:36:27Z</time>
      </trkpt>
      <trkpt lat="47.19813" lon="6.07722">
        <ele>401</ele>
        <time>2020-03-17T10:36:33Z</time>
      </trkpt>
      <trkpt lat="47.1981" lon="6.07693">
        <ele>400</ele>
        <time>2020-03-17T10:36:39Z</time>
      </trkpt>
      <trkpt lat="47.19807" lon="6.07652">
        <ele>398</ele>
        <time>2020-03-17T10:36:48Z</time>
      </trkpt>
      <trkpt lat="47.19804" lon="6.07619">
        <ele>397</ele>
        <time>2020-03-17T10:36:56Z</time>
      </trkpt>
      <trkpt lat="47.19803" lon="6.07596">
        <ele>397</ele>
        <time>2020-03-17T10:37:02Z</time>
      </trkpt>
      <trkpt lat="47.19804" lon="6.07589">
        <ele>397</ele>
        <time>2020-03-17T10:37:04Z</time>
      </trkpt>
      <trkpt lat="47.19808" lon="6.07585">
        <ele>396</ele>
        <time>2020-03-17T10:37:06Z</time>
      </trkpt>
      <trkpt lat="47.19814" lon="6.07582">
        <ele>395</ele>
        <time>2020-03-17T10:37:08Z</time>
      </trkpt>
      <trkpt lat="47.19841" lon="6.0757">
        <ele>392</ele>
        <time>2020-03-17T10:37:15Z</time>
      </trkpt>
      <trkpt lat="47.19874" lon="6.07554">
        <ele>392</ele>
        <time>2020-03-17T10:37:22Z</time>
      </trkpt>
      <trkpt lat="47.19879" lon="6.07551">
        <ele>392</ele>
        <time>2020-03-17T10:37:23Z</time>
      </trkpt>
      <trkpt lat="47.19903" lon="6.07541">
        <ele>391</ele>
        <time>2020-03-17T10:37:27Z</time>
      </trkpt>
      <trkpt lat="47.19916" lon="6.07534">
        <ele>390</ele>
        <time>2020-03-17T10:37:29Z</time>
      </trkpt>
      <trkpt lat="47.19929" lon="6.07528">
        <ele>390</ele>
        <time>2020-03-17T10:37:31Z</time>
      </trkpt>
      <trkpt lat="47.19963" lon="6.07512">
        <ele>390</ele>
        <time>2020-03-17T10:37:36Z</time>
      </trkpt>
      <trkpt lat="47.1997" lon="6.07509">
        <ele>390</ele>
        <time>2020-03-17T10:37:37Z</time>
      </trkpt>
      <trkpt lat="47.19997" lon="6.07495">
        <ele>390</ele>
        <time>2020-03-17T10:37:41Z</time>
      </trkpt>
      <trkpt lat="47.20027" lon="6.07481">
        <ele>388</ele>
        <time>2020-03-17T10:37:46Z</time>
      </trkpt>
      <trkpt lat="47.20062" lon="6.07463">
        <ele>388</ele>
        <time>2020-03-17T10:37:53Z</time>
      </trkpt>
      <trkpt lat="47.20106" lon="6.07441">
        <ele>388</ele>
        <time>2020-03-17T10:38:02Z</time>
      </trkpt>
      <trkpt lat="47.20152" lon="6.07419">
        <ele>387</ele>
        <time>2020-03-17T10:38:12Z</time>
      </trkpt>
      <trkpt lat="47.20165" lon="6.07415">
        <ele>387</ele>
        <time>2020-03-17T10:38:15Z</time>
      </trkpt>
      <trkpt lat="47.20177" lon="6.07413">
        <ele>387</ele>
        <time>2020-03-17T10:38:18Z</time>
      </trkpt>
      <trkpt lat="47.20197" lon="6.07398">
        <ele>387</ele>
        <time>2020-03-17T10:38:23Z</time>
      </trkpt>
      <trkpt lat="47.20201" lon="6.07395">
        <ele>387</ele>
        <time>2020-03-17T10:38:24Z</time>
      </trkpt>
      <trkpt lat="47.20219" lon="6.07387">
        <ele>386</ele>
        <time>2020-03-17T10:38:28Z</time>
      </trkpt>
      <trkpt lat="47.20265" lon="6.07364">
        <ele>385</ele>
        <time>2020-03-17T10:38:38Z</time>
      </trkpt>
      <trkpt lat="47.20289" lon="6.07352">
        <ele>385</ele>
        <time>2020-03-17T10:38:43Z</time>
      </trkpt>
      <trkpt lat="47.20318" lon="6.07338">
        <ele>386</ele>
        <time>2020-03-17T10:38:49Z</time>
      </trkpt>
      <trkpt lat="47.20332" lon="6.07331">
        <ele>387</ele>
        <time>2020-03-17T10:38:52Z</time>
      </trkpt>
      <trkpt lat="47.20366" lon="6.07312">
        <ele>386</ele>
        <time>2020-03-17T10:38:59Z</time>
      </trkpt>
      <trkpt lat="47.20405" lon="6.07279">
        <ele>385</ele>
        <time>2020-03-17T10:39:08Z</time>
      </trkpt>
      <trkpt lat="47.20446" lon="6.07237">
        <ele>383</ele>
        <time>2020-03-17T10:39:18Z</time>
      </trkpt>
      <trkpt lat="47.20489" lon="6.07194">
        <ele>384</ele>
        <time>2020-03-17T10:39:28Z</time>
      </trkpt>
      <trkpt lat="47.20531" lon="6.07151">
        <ele>384</ele>
        <time>2020-03-17T10:39:38Z</time>
      </trkpt>
      <trkpt lat="47.20576" lon="6.07105">
        <ele>384</ele>
        <time>2020-03-17T10:39:49Z</time>
      </trkpt>
      <trkpt lat="47.2058" lon="6.07101">
        <ele>385</ele>
        <time>2020-03-17T10:39:50Z</time>
      </trkpt>
      <trkpt lat="47.20619" lon="6.0706">
        <ele>386</ele>
        <time>2020-03-17T10:40:00Z</time>
      </trkpt>
      <trkpt lat="47.20646" lon="6.07034">
        <ele>387</ele>
        <time>2020-03-17T10:40:07Z</time>
      </trkpt>
      <trkpt lat="47.20657" lon="6.07023">
        <ele>387</ele>
        <time>2020-03-17T10:40:10Z</time>
      </trkpt>
      <trkpt lat="47.20667" lon="6.07013">
        <ele>388</ele>
        <time>2020-03-17T10:40:13Z</time>
      </trkpt>
      <trkpt lat="47.20689" lon="6.0699">
        <ele>388</ele>
        <time>2020-03-17T10:40:19Z</time>
      </trkpt>
      <trkpt lat="47.20728" lon="6.06951">
        <ele>388</ele>
        <time>2020-03-17T10:40:29Z</time>
      </trkpt>
      <trkpt lat="47.20769" lon="6.06908">
        <ele>391</ele>
        <time>2020-03-17T10:40:40Z</time>
      </trkpt>
      <trkpt lat="47.20813" lon="6.06864">
        <ele>393</ele>
        <time>2020-03-17T10:40:52Z</time>
      </trkpt>
      <trkpt lat="47.20848" lon="6.06828">
        <ele>393</ele>
        <time>2020-03-17T10:41:02Z</time>
      </trkpt>
      <trkpt lat="47.20859" lon="6.06817">
        <ele>393</ele>
        <time>2020-03-17T10:41:05Z</time>
      </trkpt>
      <trkpt lat="47.2088" lon="6.06796">
        <ele>392</ele>
        <time>2020-03-17T10:41:11Z</time>
      </trkpt>
      <trkpt lat="47.20907" lon="6.06767">
        <ele>392</ele>
        <time>2020-03-17T10:41:19Z</time>
      </trkpt>
      <trkpt lat="47.2091" lon="6.06763">
        <ele>392</ele>
        <time>2020-03-17T10:41:20Z</time>
      </trkpt>
      <trkpt lat="47.20935" lon="6.06744">
        <ele>393</ele>
        <time>2020-03-17T10:41:27Z</time>
      </trkpt>
      <trkpt lat="47.20942" lon="6.0674">
        <ele>393</ele>
        <time>2020-03-17T10:41:29Z</time>
      </trkpt>
      <trkpt lat="47.2095" lon="6.06738">
        <ele>393</ele>
        <time>2020-03-17T10:41:31Z</time>
      </trkpt>
      <trkpt lat="47.20967" lon="6.06737">
        <ele>394</ele>
        <time>2020-03-17T10:41:35Z</time>
      </trkpt>
      <trkpt lat="47.20975" lon="6.06736">
        <ele>394</ele>
        <time>2020-03-17T10:41:37Z</time>
      </trkpt>
      <trkpt lat="47.20995" lon="6.06734">
        <ele>396</ele>
        <time>2020-03-17T10:41:42Z</time>
      </trkpt>
      <trkpt lat="47.21003" lon="6.06733">
        <ele>396</ele>
        <time>2020-03-17T10:41:44Z</time>
      </trkpt>
      <trkpt lat="47.21031" lon="6.0673">
        <ele>398</ele>
        <time>2020-03-17T10:41:51Z</time>
      </trkpt>
      <trkpt lat="47.21035" lon="6.0673">
        <ele>398</ele>
        <time>2020-03-17T10:41:52Z</time>
      </trkpt>
      <trkpt lat="47.21058" lon="6.06727">
        <ele>398</ele>
        <time>2020-03-17T10:41:58Z</time>
      </trkpt>
      <trkpt lat="47.21069" lon="6.06726">
        <ele>398</ele>
        <time>2020-03-17T10:42:01Z</time>
      </trkpt>
      <trkpt lat="47.21088" lon="6.06724">
        <ele>399</ele>
        <time>2020-03-17T10:42:07Z</time>
      </trkpt>
      <trkpt lat="47.21091" lon="6.06724">
        <ele>399</ele>
        <time>2020-03-17T10:42:08Z</time>
      </trkpt>
      <trkpt lat="47.21111" lon="6.06723">
        <ele>400</ele>
        <time>2020-03-17T10:42:14Z</time>
      </trkpt>
      <trkpt lat="47.21129" lon="6.06727">
        <ele>402</ele>
        <time>2020-03-17T10:42:20Z</time>
      </trkpt>
      <trkpt lat="47.21133" lon="6.06729">
        <ele>402</ele>
        <time>2020-03-17T10:42:22Z</time>
      </trkpt>
      <trkpt lat="47.21143" lon="6.06732">
        <ele>403</ele>
        <time>2020-03-17T10:42:26Z</time>
      </trkpt>
      <trkpt lat="47.21147" lon="6.06731">
        <ele>403</ele>
        <time>2020-03-17T10:42:28Z</time>
      </trkpt>
      <trkpt lat="47.21149" lon="6.0673">
        <ele>403</ele>
        <time>2020-03-17T10:42:29Z</time>
      </trkpt>
      <trkpt lat="47.21158" lon="6.0673">
        <ele>404</ele>
        <time>2020-03-17T10:42:33Z</time>
      </trkpt>
      <trkpt lat="47.21169" lon="6.06726">
        <ele>405</ele>
        <time>2020-03-17T10:42:38Z</time>
      </trkpt>
      <trkpt lat="47.21171" lon="6.06725">
        <ele>405</ele>
        <time>2020-03-17T10:42:39Z</time>
      </trkpt>
      <trkpt lat="47.21183" lon="6.06723">
        <ele>407</ele>
        <time>2020-03-17T10:42:45Z</time>
      </trkpt>
      <trkpt lat="47.21188" lon="6.06722">
        <ele>407</ele>
        <time>2020-03-17T10:42:47Z</time>
      </trkpt>
      <trkpt lat="47.2119" lon="6.06721">
        <ele>407</ele>
        <time>2020-03-17T10:42:48Z</time>
      </trkpt>
      <trkpt lat="47.212" lon="6.06719">
        <ele>409</ele>
        <time>2020-03-17T10:42:53Z</time>
      </trkpt>
      <trkpt lat="47.21207" lon="6.06718">
        <ele>410</ele>
        <time>2020-03-17T10:42:56Z</time>
      </trkpt>
      <trkpt lat="47.21215" lon="6.06716">
        <ele>411</ele>
        <time>2020-03-17T10:43:00Z</time>
      </trkpt>
      <trkpt lat="47.21225" lon="6.06714">
        <ele>413</ele>
        <time>2020-03-17T10:43:05Z</time>
      </trkpt>
      <trkpt lat="47.21234" lon="6.06712">
        <ele>415</ele>
        <time>2020-03-17T10:43:09Z</time>
      </trkpt>
      <trkpt lat="47.2124" lon="6.06711">
        <ele>416</ele>
        <time>2020-03-17T10:43:12Z</time>
      </trkpt>
      <trkpt lat="47.21243" lon="6.06711">
        <ele>417</ele>
        <time>2020-03-17T10:43:13Z</time>
      </trkpt>
      <trkpt lat="47.21253" lon="6.06709">
        <ele>419</ele>
        <time>2020-03-17T10:43:18Z</time>
      </trkpt>
      <trkpt lat="47.2126" lon="6.06707">
        <ele>419</ele>
        <time>2020-03-17T10:43:21Z</time>
      </trkpt>
      <trkpt lat="47.21261" lon="6.06707">
        <ele>420</ele>
        <time>2020-03-17T10:43:22Z</time>
      </trkpt>
      <trkpt lat="47.2127" lon="6.06704">
        <ele>420</ele>
        <time>2020-03-17T10:43:26Z</time>
      </trkpt>
      <trkpt lat="47.21274" lon="6.06703">
        <ele>421</ele>
        <time>2020-03-17T10:43:28Z</time>
      </trkpt>
      <trkpt lat="47.21276" lon="6.06703">
        <ele>421</ele>
        <time>2020-03-17T10:43:29Z</time>
      </trkpt>
      <trkpt lat="47.2128" lon="6.06702">
        <ele>421</ele>
        <time>2020-03-17T10:43:31Z</time>
      </trkpt>
      <trkpt lat="47.21287" lon="6.06701">
        <ele>422</ele>
        <time>2020-03-17T10:43:34Z</time>
      </trkpt>
      <trkpt lat="47.21289" lon="6.06701">
        <ele>422</ele>
        <time>2020-03-17T10:43:35Z</time>
      </trkpt>
      <trkpt lat="47.21294" lon="6.067">
        <ele>422</ele>
        <time>2020-03-17T10:43:38Z</time>
      </trkpt>
      <trkpt lat="47.21297" lon="6.067">
        <ele>422</ele>
        <time>2020-03-17T10:43:39Z</time>
      </trkpt>
      <trkpt lat="47.21301" lon="6.06698">
        <ele>422</ele>
        <time>2020-03-17T10:43:41Z</time>
      </trkpt>
      <trkpt lat="47.21305" lon="6.06697">
        <ele>422</ele>
        <time>2020-03-17T10:43:43Z</time>
      </trkpt>
      <trkpt lat="47.21307" lon="6.06697">
        <ele>422</ele>
        <time>2020-03-17T10:43:44Z</time>
      </trkpt>
      <trkpt lat="47.21312" lon="6.06696">
        <ele>422</ele>
        <time>2020-03-17T10:43:46Z</time>
      </trkpt>
      <trkpt lat="47.21321" lon="6.06692">
        <ele>423</ele>
        <time>2020-03-17T10:43:50Z</time>
      </trkpt>
      <trkpt lat="47.21333" lon="6.06686">
        <ele>423</ele>
        <time>2020-03-17T10:43:55Z</time>
      </trkpt>
      <trkpt lat="47.21335" lon="6.06685">
        <ele>423</ele>
        <time>2020-03-17T10:43:56Z</time>
      </trkpt>
      <trkpt lat="47.21349" lon="6.06678">
        <ele>423</ele>
        <time>2020-03-17T10:44:02Z</time>
      </trkpt>
      <trkpt lat="47.21371" lon="6.06669">
        <ele>424</ele>
        <time>2020-03-17T10:44:10Z</time>
      </trkpt>
      <trkpt lat="47.21394" lon="6.0666">
        <ele>424</ele>
        <time>2020-03-17T10:44:18Z</time>
      </trkpt>
      <trkpt lat="47.21422" lon="6.06646">
        <ele>425</ele>
        <time>2020-03-17T10:44:28Z</time>
      </trkpt>
      <trkpt lat="47.2145" lon="6.06632">
        <ele>427</ele>
        <time>2020-03-17T10:44:38Z</time>
      </trkpt>
      <trkpt lat="47.21479" lon="6.06618">
        <ele>429</ele>
        <time>2020-03-17T10:44:48Z</time>
      </trkpt>
      <trkpt lat="47.21485" lon="6.06615">
        <ele>430</ele>
        <time>2020-03-17T10:44:50Z</time>
      </trkpt>
      <trkpt lat="47.21505" lon="6.06606">
        <ele>431</ele>
        <time>2020-03-17T10:44:57Z</time>
      </trkpt>
      <trkpt lat="47.21533" lon="6.06591">
        <ele>430</ele>
        <time>2020-03-17T10:45:05Z</time>
      </trkpt>
      <trkpt lat="47.21549" lon="6.06582">
        <ele>429</ele>
        <time>2020-03-17T10:45:09Z</time>
      </trkpt>
      <trkpt lat="47.21566" lon="6.06576">
        <ele>428</ele>
        <time>2020-03-17T10:45:13Z</time>
      </trkpt>
      <trkpt lat="47.21571" lon="6.06575">
        <ele>428</ele>
        <time>2020-03-17T10:45:14Z</time>
      </trkpt>
      <trkpt lat="47.2158" lon="6.06576">
        <ele>428</ele>
        <time>2020-03-17T10:45:16Z</time>
      </trkpt>
      <trkpt lat="47.21584" lon="6.06577">
        <ele>428</ele>
        <time>2020-03-17T10:45:17Z</time>
      </trkpt>
      <trkpt lat="47.21589" lon="6.06579">
        <ele>428</ele>
        <time>2020-03-17T10:45:18Z</time>
      </trkpt>
      <trkpt lat="47.21598" lon="6.06587">
        <ele>429</ele>
        <time>2020-03-17T10:45:20Z</time>
      </trkpt>
      <trkpt lat="47.21602" lon="6.06592">
        <ele>429</ele>
        <time>2020-03-17T10:45:21Z</time>
      </trkpt>
      <trkpt lat="47.2161" lon="6.06603">
        <ele>429</ele>
        <time>2020-03-17T10:45:23Z</time>
      </trkpt>
      <trkpt lat="47.2163" lon="6.06628">
        <ele>428</ele>
        <time>2020-03-17T10:45:27Z</time>
      </trkpt>
      <trkpt lat="47.2165" lon="6.06634">
        <ele>427</ele>
        <time>2020-03-17T10:45:30Z</time>
      </trkpt>
      <trkpt lat="47.21657" lon="6.06634">
        <ele>427</ele>
        <time>2020-03-17T10:45:31Z</time>
      </trkpt>
      <trkpt lat="47.21669" lon="6.06636">
        <ele>426</ele>
        <time>2020-03-17T10:45:33Z</time>
      </trkpt>
      <trkpt lat="47.21675" lon="6.06635">
        <ele>426</ele>
        <time>2020-03-17T10:45:34Z</time>
      </trkpt>
      <trkpt lat="47.21692" lon="6.06623">
        <ele>427</ele>
        <time>2020-03-17T10:45:38Z</time>
      </trkpt>
      <trkpt lat="47.21705" lon="6.06603">
        <ele>430</ele>
        <time>2020-03-17T10:45:42Z</time>
      </trkpt>
      <trkpt lat="47.2172" lon="6.06602">
        <ele>432</ele>
        <time>2020-03-17T10:45:46Z</time>
      </trkpt>
      <trkpt lat="47.21726" lon="6.06606">
        <ele>432</ele>
        <time>2020-03-17T10:45:48Z</time>
      </trkpt>
      <trkpt lat="47.21736" lon="6.06612">
        <ele>433</ele>
        <time>2020-03-17T10:45:52Z</time>
      </trkpt>
      <trkpt lat="47.21747" lon="6.06617">
        <ele>435</ele>
        <time>2020-03-17T10:45:56Z</time>
      </trkpt>
      <trkpt lat="47.21751" lon="6.06613">
        <ele>437</ele>
        <time>2020-03-17T10:45:58Z</time>
      </trkpt>
      <trkpt lat="47.21753" lon="6.06607">
        <ele>439</ele>
        <time>2020-03-17T10:46:00Z</time>
      </trkpt>
      <trkpt lat="47.21753" lon="6.06602">
        <ele>440</ele>
        <time>2020-03-17T10:46:02Z</time>
      </trkpt>
      <trkpt lat="47.21745" lon="6.06587">
        <ele>442</ele>
        <time>2020-03-17T10:46:08Z</time>
      </trkpt>
      <trkpt lat="47.21739" lon="6.0657">
        <ele>444</ele>
        <time>2020-03-17T10:46:14Z</time>
      </trkpt>
      <trkpt lat="47.21738" lon="6.06568">
        <ele>445</ele>
        <time>2020-03-17T10:46:15Z</time>
      </trkpt>
      <trkpt lat="47.21736" lon="6.06563">
        <ele>446</ele>
        <time>2020-03-17T10:46:17Z</time>
      </trkpt>
      <trkpt lat="47.21736" lon="6.06555">
        <ele>447</ele>
        <time>2020-03-17T10:46:20Z</time>
      </trkpt>
      <trkpt lat="47.21735" lon="6.06553">
        <ele>448</ele>
        <time>2020-03-17T10:46:21Z</time>
      </trkpt>
      <trkpt lat="47.21734" lon="6.06547">
        <ele>448</ele>
        <time>2020-03-17T10:46:24Z</time>
      </trkpt>
      <trkpt lat="47.21733" lon="6.0654">
        <ele>449</ele>
        <time>2020-03-17T10:46:27Z</time>
      </trkpt>
      <trkpt lat="47.21732" lon="6.06536">
        <ele>449</ele>
        <time>2020-03-17T10:46:29Z</time>
      </trkpt>
      <trkpt lat="47.21731" lon="6.06529">
        <ele>450</ele>
        <time>2020-03-17T10:46:32Z</time>
      </trkpt>
      <trkpt lat="47.21729" lon="6.06521">
        <ele>451</ele>
        <time>2020-03-17T10:46:36Z</time>
      </trkpt>
      <trkpt lat="47.21726" lon="6.06516">
        <ele>451</ele>
        <time>2020-03-17T10:46:39Z</time>
      </trkpt>
      <trkpt lat="47.21723" lon="6.06513">
        <ele>450</ele>
        <time>2020-03-17T10:46:41Z</time>
      </trkpt>
      <trkpt lat="47.21715" lon="6.06505">
        <ele>449</ele>
        <time>2020-03-17T10:46:44Z</time>
      </trkpt>
      <trkpt lat="47.21711" lon="6.065">
        <ele>448</ele>
        <time>2020-03-17T10:46:45Z</time>
      </trkpt>
      <trkpt lat="47.21704" lon="6.06485">
        <ele>447</ele>
        <time>2020-03-17T10:46:48Z</time>
      </trkpt>
      <trkpt lat="47.21697" lon="6.06466">
        <ele>447</ele>
        <time>2020-03-17T10:46:55Z</time>
      </trkpt>
      <trkpt lat="47.21693" lon="6.06452">
        <ele>447</ele>
        <time>2020-03-17T10:47:01Z</time>
      </trkpt>
      <trkpt lat="47.21686" lon="6.06442">
        <ele>447</ele>
        <time>2020-03-17T10:47:06Z</time>
      </trkpt>
      <trkpt lat="47.21684" lon="6.06436">
        <ele>447</ele>
        <time>2020-03-17T10:47:08Z</time>
      </trkpt>
      <trkpt lat="47.2168" lon="6.06425">
        <ele>448</ele>
        <time>2020-03-17T10:47:12Z</time>
      </trkpt>
      <trkpt lat="47.21678" lon="6.06422">
        <ele>448</ele>
        <time>2020-03-17T10:47:13Z</time>
      </trkpt>
      <trkpt lat="47.21675" lon="6.06416">
        <ele>449</ele>
        <time>2020-03-17T10:47:16Z</time>
      </trkpt>
      <trkpt lat="47.21675" lon="6.06414">
        <ele>449</ele>
        <time>2020-03-17T10:47:17Z</time>
      </trkpt>
      <trkpt lat="47.21671" lon="6.06402">
        <ele>449</ele>
        <time>2020-03-17T10:47:21Z</time>
      </trkpt>
      <trkpt lat="47.21669" lon="6.06396">
        <ele>449</ele>
        <time>2020-03-17T10:47:23Z</time>
      </trkpt>
      <trkpt lat="47.21661" lon="6.06376">
        <ele>450</ele>
        <time>2020-03-17T10:47:32Z</time>
      </trkpt>
      <trkpt lat="47.21658" lon="6.06369">
        <ele>450</ele>
        <time>2020-03-17T10:47:35Z</time>
      </trkpt>
      <trkpt lat="47.21657" lon="6.06367">
        <ele>450</ele>
        <time>2020-03-17T10:47:36Z</time>
      </trkpt>
      <trkpt lat="47.21656" lon="6.06365">
        <ele>450</ele>
        <time>2020-03-17T10:47:37Z</time>
      </trkpt>
      <trkpt lat="47.21655" lon="6.0636">
        <ele>450</ele>
        <time>2020-03-17T10:47:39Z</time>
      </trkpt>
      <trkpt lat="47.21654" lon="6.06358">
        <ele>451</ele>
        <time>2020-03-17T10:47:41Z</time>
      </trkpt>
      <trkpt lat="47.21653" lon="6.06356">
        <ele>451</ele>
        <time>2020-03-17T10:47:42Z</time>
      </trkpt>
      <trkpt lat="47.21652" lon="6.06354">
        <ele>451</ele>
        <time>2020-03-17T10:47:44Z</time>
      </trkpt>
      <trkpt lat="47.21651" lon="6.06351">
        <ele>451</ele>
        <time>2020-03-17T10:47:45Z</time>
      </trkpt>
      <trkpt lat="47.21648" lon="6.06343">
        <ele>452</ele>
        <time>2020-03-17T10:47:47Z</time>
      </trkpt>
      <trkpt lat="47.21645" lon="6.06337">
        <ele>453</ele>
        <time>2020-03-17T10:47:49Z</time>
      </trkpt>
      <trkpt lat="47.21638" lon="6.06321">
        <ele>454</ele>
        <time>2020-03-17T10:47:54Z</time>
      </trkpt>
      <trkpt lat="47.21631" lon="6.06302">
        <ele>455</ele>
        <time>2020-03-17T10:48:00Z</time>
      </trkpt>
      <trkpt lat="47.21627" lon="6.06288">
        <ele>457</ele>
        <time>2020-03-17T10:48:05Z</time>
      </trkpt>
      <trkpt lat="47.21625" lon="6.06282">
        <ele>458</ele>
        <time>2020-03-17T10:48:07Z</time>
      </trkpt>
      <trkpt lat="47.21624" lon="6.06279">
        <ele>458</ele>
        <time>2020-03-17T10:48:08Z</time>
      </trkpt>
      <trkpt lat="47.2162" lon="6.06266">
        <ele>458</ele>
        <time>2020-03-17T10:48:12Z</time>
      </trkpt>
      <trkpt lat="47.21611" lon="6.06245">
        <ele>459</ele>
        <time>2020-03-17T10:48:19Z</time>
      </trkpt>
      <trkpt lat="47.21607" lon="6.06238">
        <ele>458</ele>
        <time>2020-03-17T10:48:22Z</time>
      </trkpt>
      <trkpt lat="47.21602" lon="6.06229">
        <ele>458</ele>
        <time>2020-03-17T10:48:26Z</time>
      </trkpt>
      <trkpt lat="47.21598" lon="6.0622">
        <ele>458</ele>
        <time>2020-03-17T10:48:29Z</time>
      </trkpt>
      <trkpt lat="47.21596" lon="6.06214">
        <ele>458</ele>
        <time>2020-03-17T10:48:31Z</time>
      </trkpt>
      <trkpt lat="47.21594" lon="6.06211">
        <ele>458</ele>
        <time>2020-03-17T10:48:32Z</time>
      </trkpt>
      <trkpt lat="47.21589" lon="6.06199">
        <ele>458</ele>
        <time>2020-03-17T10:48:36Z</time>
      </trkpt>
      <trkpt lat="47.21587" lon="6.06191">
        <ele>458</ele>
        <time>2020-03-17T10:48:38Z</time>
      </trkpt>
      <trkpt lat="47.21584" lon="6.06176">
        <ele>459</ele>
        <time>2020-03-17T10:48:42Z</time>
      </trkpt>
      <trkpt lat="47.21583" lon="6.06174">
        <ele>459</ele>
        <time>2020-03-17T10:48:43Z</time>
      </trkpt>
      <trkpt lat="47.21578" lon="6.06159">
        <ele>460</ele>
        <time>2020-03-17T10:48:48Z</time>
      </trkpt>
      <trkpt lat="47.21577" lon="6.06155">
        <ele>461</ele>
        <time>2020-03-17T10:48:50Z</time>
      </trkpt>
      <trkpt lat="47.21573" lon="6.06142">
        <ele>462</ele>
        <time>2020-03-17T10:48:56Z</time>
      </trkpt>
      <trkpt lat="47.21572" lon="6.06139">
        <ele>462</ele>
        <time>2020-03-17T10:48:57Z</time>
      </trkpt>
      <trkpt lat="47.21571" lon="6.06136">
        <ele>462</ele>
        <time>2020-03-17T10:48:58Z</time>
      </trkpt>
      <trkpt lat="47.21568" lon="6.06129">
        <ele>462</ele>
        <time>2020-03-17T10:49:00Z</time>
      </trkpt>
      <trkpt lat="47.21566" lon="6.06125">
        <ele>462</ele>
        <time>2020-03-17T10:49:02Z</time>
      </trkpt>
      <trkpt lat="47.21564" lon="6.06118">
        <ele>462</ele>
        <time>2020-03-17T10:49:05Z</time>
      </trkpt>
      <trkpt lat="47.21561" lon="6.06109">
        <ele>462</ele>
        <time>2020-03-17T10:49:08Z</time>
      </trkpt>
      <trkpt lat="47.21558" lon="6.06099">
        <ele>463</ele>
        <time>2020-03-17T10:49:11Z</time>
      </trkpt>
      <trkpt lat="47.21556" lon="6.06092">
        <ele>463</ele>
        <time>2020-03-17T10:49:14Z</time>
      </trkpt>
      <trkpt lat="47.21553" lon="6.06087">
        <ele>463</ele>
        <time>2020-03-17T10:49:16Z</time>
      </trkpt>
      <trkpt lat="47.21551" lon="6.06083">
        <ele>463</ele>
        <time>2020-03-17T10:49:17Z</time>
      </trkpt>
      <trkpt lat="47.21549" lon="6.06076">
        <ele>464</ele>
        <time>2020-03-17T10:49:19Z</time>
      </trkpt>
      <trkpt lat="47.21548" lon="6.06074">
        <ele>464</ele>
        <time>2020-03-17T10:49:20Z</time>
      </trkpt>
      <trkpt lat="47.21548" lon="6.06072">
        <ele>464</ele>
        <time>2020-03-17T10:49:21Z</time>
      </trkpt>
      <trkpt lat="47.21546" lon="6.06068">
        <ele>464</ele>
        <time>2020-03-17T10:49:23Z</time>
      </trkpt>
      <trkpt lat="47.21544" lon="6.06063">
        <ele>464</ele>
        <time>2020-03-17T10:49:25Z</time>
      </trkpt>
      <trkpt lat="47.21543" lon="6.0606">
        <ele>464</ele>
        <time>2020-03-17T10:49:26Z</time>
      </trkpt>
      <trkpt lat="47.21542" lon="6.06057">
        <ele>464</ele>
        <time>2020-03-17T10:49:27Z</time>
      </trkpt>
      <trkpt lat="47.21541" lon="6.06052">
        <ele>465</ele>
        <time>2020-03-17T10:49:29Z</time>
      </trkpt>
      <trkpt lat="47.21539" lon="6.06047">
        <ele>465</ele>
        <time>2020-03-17T10:49:31Z</time>
      </trkpt>
      <trkpt lat="47.21539" lon="6.06044">
        <ele>466</ele>
        <time>2020-03-17T10:49:32Z</time>
      </trkpt>
      <trkpt lat="47.21538" lon="6.06038">
        <ele>467</ele>
        <time>2020-03-17T10:49:34Z</time>
      </trkpt>
      <trkpt lat="47.21537" lon="6.06029">
        <ele>468</ele>
        <time>2020-03-17T10:49:38Z</time>
      </trkpt>
      <trkpt lat="47.21538" lon="6.06004">
        <ele>469</ele>
        <time>2020-03-17T10:49:50Z</time>
      </trkpt>
      <trkpt lat="47.21537" lon="6.05998">
        <ele>469</ele>
        <time>2020-03-17T10:49:52Z</time>
      </trkpt>
      <trkpt lat="47.21529" lon="6.05974">
        <ele>468</ele>
        <time>2020-03-17T10:49:57Z</time>
      </trkpt>
      <trkpt lat="47.21515" lon="6.05939">
        <ele>465</ele>
        <time>2020-03-17T10:50:02Z</time>
      </trkpt>
      <trkpt lat="47.21506" lon="6.05918">
        <ele>465</ele>
        <time>2020-03-17T10:50:06Z</time>
      </trkpt>
      <trkpt lat="47.21504" lon="6.05914">
        <ele>465</ele>
        <time>2020-03-17T10:50:07Z</time>
      </trkpt>
      <trkpt lat="47.21497" lon="6.05898">
        <ele>464</ele>
        <time>2020-03-17T10:50:10Z</time>
      </trkpt>
      <trkpt lat="47.21495" lon="6.05893">
        <ele>464</ele>
        <time>2020-03-17T10:50:11Z</time>
      </trkpt>
      <trkpt lat="47.21483" lon="6.0586">
        <ele>461</ele>
        <time>2020-03-17T10:50:17Z</time>
      </trkpt>
      <trkpt lat="47.21482" lon="6.05855">
        <ele>461</ele>
        <time>2020-03-17T10:50:18Z</time>
      </trkpt>
      <trkpt lat="47.21481" lon="6.05845">
        <ele>459</ele>
        <time>2020-03-17T10:50:20Z</time>
      </trkpt>
      <trkpt lat="47.21484" lon="6.05834">
        <ele>457</ele>
        <time>2020-03-17T10:50:22Z</time>
      </trkpt>
      <trkpt lat="47.21488" lon="6.05821">
        <ele>456</ele>
        <time>2020-03-17T10:50:24Z</time>
      </trkpt>
      <trkpt lat="47.21496" lon="6.05797">
        <ele>454</ele>
        <time>2020-03-17T10:50:28Z</time>
      </trkpt>
      <trkpt lat="47.21505" lon="6.05765">
        <ele>452</ele>
        <time>2020-03-17T10:50:33Z</time>
      </trkpt>
      <trkpt lat="47.21509" lon="6.05752">
        <ele>451</ele>
        <time>2020-03-17T10:50:35Z</time>
      </trkpt>
      <trkpt lat="47.21513" lon="6.05746">
        <ele>451</ele>
        <time>2020-03-17T10:50:36Z</time>
      </trkpt>
      <trkpt lat="47.21516" lon="6.05739">
        <ele>451</ele>
        <time>2020-03-17T10:50:37Z</time>
      </trkpt>
      <trkpt lat="47.21521" lon="6.05724">
        <ele>451</ele>
        <time>2020-03-17T10:50:39Z</time>
      </trkpt>
      <trkpt lat="47.21523" lon="6.05718">
        <ele>450</ele>
        <time>2020-03-17T10:50:40Z</time>
      </trkpt>
      <trkpt lat="47.21526" lon="6.05703">
        <ele>450</ele>
        <time>2020-03-17T10:50:42Z</time>
      </trkpt>
      <trkpt lat="47.21527" lon="6.05696">
        <ele>450</ele>
        <time>2020-03-17T10:50:43Z</time>
      </trkpt>
      <trkpt lat="47.21529" lon="6.05682">
        <ele>451</ele>
        <time>2020-03-17T10:50:45Z</time>
      </trkpt>
      <trkpt lat="47.21529" lon="6.05666">
        <ele>452</ele>
        <time>2020-03-17T10:50:47Z</time>
      </trkpt>
      <trkpt lat="47.21531" lon="6.05621">
        <ele>451</ele>
        <time>2020-03-17T10:50:52Z</time>
      </trkpt>
      <trkpt lat="47.21535" lon="6.05591">
        <ele>449</ele>
        <time>2020-03-17T10:50:55Z</time>
      </trkpt>
      <trkpt lat="47.2154" lon="6.0557">
        <ele>449</ele>
        <time>2020-03-17T10:50:57Z</time>
      </trkpt>
      <trkpt lat="47.21543" lon="6.0556">
        <ele>448</ele>
        <time>2020-03-17T10:50:58Z</time>
      </trkpt>
      <trkpt lat="47.21558" lon="6.05512">
        <ele>448</ele>
        <time>2020-03-17T10:51:03Z</time>
      </trkpt>
      <trkpt lat="47.21562" lon="6.05504">
        <ele>448</ele>
        <time>2020-03-17T10:51:04Z</time>
      </trkpt>
      <trkpt lat="47.21576" lon="6.05475">
        <ele>448</ele>
        <time>2020-03-17T10:51:08Z</time>
      </trkpt>
      <trkpt lat="47.21596" lon="6.05445">
        <ele>450</ele>
        <time>2020-03-17T10:51:14Z</time>
      </trkpt>
      <trkpt lat="47.21607" lon="6.05427">
        <ele>451</ele>
        <time>2020-03-17T10:51:18Z</time>
      </trkpt>
      <trkpt lat="47.21616" lon="6.0541">
        <ele>451</ele>
        <time>2020-03-17T10:51:21Z</time>
      </trkpt>
      <trkpt lat="47.21636" lon="6.05371">
        <ele>450</ele>
        <time>2020-03-17T10:51:28Z</time>
      </trkpt>
      <trkpt lat="47.21642" lon="6.0536">
        <ele>449</ele>
        <time>2020-03-17T10:51:30Z</time>
      </trkpt>
      <trkpt lat="47.21654" lon="6.05346">
        <ele>449</ele>
        <time>2020-03-17T10:51:33Z</time>
      </trkpt>
      <trkpt lat="47.21671" lon="6.05333">
        <ele>449</ele>
        <time>2020-03-17T10:51:37Z</time>
      </trkpt>
      <trkpt lat="47.21675" lon="6.05331">
        <ele>449</ele>
        <time>2020-03-17T10:51:38Z</time>
      </trkpt>
      <trkpt lat="47.21683" lon="6.05329">
        <ele>450</ele>
        <time>2020-03-17T10:51:40Z</time>
      </trkpt>
      <trkpt lat="47.21693" lon="6.05328">
        <ele>451</ele>
        <time>2020-03-17T10:51:43Z</time>
      </trkpt>
      <trkpt lat="47.21697" lon="6.05328">
        <ele>451</ele>
        <time>2020-03-17T10:51:44Z</time>
      </trkpt>
      <trkpt lat="47.21708" lon="6.05326">
        <ele>452</ele>
        <time>2020-03-17T10:51:47Z</time>
      </trkpt>
      <trkpt lat="47.21723" lon="6.05319">
        <ele>454</ele>
        <time>2020-03-17T10:51:51Z</time>
      </trkpt>
      <trkpt lat="47.21731" lon="6.05317">
        <ele>454</ele>
        <time>2020-03-17T10:51:53Z</time>
      </trkpt>
      <trkpt lat="47.21746" lon="6.05315">
        <ele>454</ele>
        <time>2020-03-17T10:51:57Z</time>
      </trkpt>
      <trkpt lat="47.21762" lon="6.05314">
        <ele>455</ele>
        <time>2020-03-17T10:52:02Z</time>
      </trkpt>
      <trkpt lat="47.21774" lon="6.05315">
        <ele>455</ele>
        <time>2020-03-17T10:52:08Z</time>
      </trkpt>
      <trkpt lat="47.21791" lon="6.05314">
        <ele>456</ele>
        <time>2020-03-17T10:52:14Z</time>
      </trkpt>
      <trkpt lat="47.21796" lon="6.05312">
        <ele>456</ele>
        <time>2020-03-17T10:52:16Z</time>
      </trkpt>
      <trkpt lat="47.21807" lon="6.05306">
        <ele>456</ele>
        <time>2020-03-17T10:52:20Z</time>
      </trkpt>
      <trkpt lat="47.21816" lon="6.05299">
        <ele>457</ele>
        <time>2020-03-17T10:52:24Z</time>
      </trkpt>
      <trkpt lat="47.21821" lon="6.05296">
        <ele>457</ele>
        <time>2020-03-17T10:52:26Z</time>
      </trkpt>
      <trkpt lat="47.21848" lon="6.05278">
        <ele>456</ele>
        <time>2020-03-17T10:52:32Z</time>
      </trkpt>
      <trkpt lat="47.2187" lon="6.05263">
        <ele>456</ele>
        <time>2020-03-17T10:52:37Z</time>
      </trkpt>
      <trkpt lat="47.21877" lon="6.0526">
        <ele>456</ele>
        <time>2020-03-17T10:52:39Z</time>
      </trkpt>
      <trkpt lat="47.21889" lon="6.05253">
        <ele>456</ele>
        <time>2020-03-17T10:52:44Z</time>
      </trkpt>
      <trkpt lat="47.21902" lon="6.05248">
        <ele>458</ele>
        <time>2020-03-17T10:52:50Z</time>
      </trkpt>
      <trkpt lat="47.21905" lon="6.05247">
        <ele>459</ele>
        <time>2020-03-17T10:52:52Z</time>
      </trkpt>
      <trkpt lat="47.21914" lon="6.05246">
        <ele>460</ele>
        <time>2020-03-17T10:52:57Z</time>
      </trkpt>
      <trkpt lat="47.2192" lon="6.05246">
        <ele>461</ele>
        <time>2020-03-17T10:53:01Z</time>
      </trkpt>
      <trkpt lat="47.21924" lon="6.05246">
        <ele>462</ele>
        <time>2020-03-17T10:53:04Z</time>
      </trkpt>
      <trkpt lat="47.21927" lon="6.05247">
        <ele>463</ele>
        <time>2020-03-17T10:53:06Z</time>
      </trkpt>
      <trkpt lat="47.2194" lon="6.05253">
        <ele>465</ele>
        <time>2020-03-17T10:53:17Z</time>
      </trkpt>
      <trkpt lat="47.21944" lon="6.05255">
        <ele>465</ele>
        <time>2020-03-17T10:53:19Z</time>
      </trkpt>
      <trkpt lat="47.21945" lon="6.05255">
        <ele>465</ele>
        <time>2020-03-17T10:53:20Z</time>
      </trkpt>
      <trkpt lat="47.21949" lon="6.05256">
        <ele>466</ele>
        <time>2020-03-17T10:53:22Z</time>
      </trkpt>
      <trkpt lat="47.21953" lon="6.05258">
        <ele>466</ele>
        <time>2020-03-17T10:53:24Z</time>
      </trkpt>
      <trkpt lat="47.21958" lon="6.05261">
        <ele>467</ele>
        <time>2020-03-17T10:53:27Z</time>
      </trkpt>
      <trkpt lat="47.21962" lon="6.05263">
        <ele>467</ele>
        <time>2020-03-17T10:53:29Z</time>
      </trkpt>
      <trkpt lat="47.21975" lon="6.0527">
        <ele>468</ele>
        <time>2020-03-17T10:53:38Z</time>
      </trkpt>
      <trkpt lat="47.21979" lon="6.05274">
        <ele>467</ele>
        <time>2020-03-17T10:53:40Z</time>
      </trkpt>
      <trkpt lat="47.21992" lon="6.05278">
        <ele>468</ele>
        <time>2020-03-17T10:53:45Z</time>
      </trkpt>
      <trkpt lat="47.2201" lon="6.05281">
        <ele>470</ele>
        <time>2020-03-17T10:53:50Z</time>
      </trkpt>
      <trkpt lat="47.22015" lon="6.05284">
        <ele>471</ele>
        <time>2020-03-17T10:53:52Z</time>
      </trkpt>
      <trkpt lat="47.22022" lon="6.0529">
        <ele>471</ele>
        <time>2020-03-17T10:53:55Z</time>
      </trkpt>
      <trkpt lat="47.22029" lon="6.05294">
        <ele>471</ele>
        <time>2020-03-17T10:53:58Z</time>
      </trkpt>
      <trkpt lat="47.22034" lon="6.05298">
        <ele>472</ele>
        <time>2020-03-17T10:54:01Z</time>
      </trkpt>
      <trkpt lat="47.22044" lon="6.05306">
        <ele>474</ele>
        <time>2020-03-17T10:54:07Z</time>
      </trkpt>
      <trkpt lat="47.22069" lon="6.05307">
        <ele>478</ele>
        <time>2020-03-17T10:54:20Z</time>
      </trkpt>
      <trkpt lat="47.22077" lon="6.05307">
        <ele>479</ele>
        <time>2020-03-17T10:54:23Z</time>
      </trkpt>
      <trkpt lat="47.22087" lon="6.05313">
        <ele>479</ele>
        <time>2020-03-17T10:54:27Z</time>
      </trkpt>
      <trkpt lat="47.22089" lon="6.05315">
        <ele>479</ele>
        <time>2020-03-17T10:54:28Z</time>
      </trkpt>
      <trkpt lat="47.221" lon="6.05324">
        <ele>480</ele>
        <time>2020-03-17T10:54:32Z</time>
      </trkpt>
      <trkpt lat="47.22104" lon="6.05327">
        <ele>480</ele>
        <time>2020-03-17T10:54:33Z</time>
      </trkpt>
      <trkpt lat="47.22114" lon="6.05341">
        <ele>480</ele>
        <time>2020-03-17T10:54:36Z</time>
      </trkpt>
      <trkpt lat="47.22121" lon="6.05352">
        <ele>478</ele>
        <time>2020-03-17T10:54:38Z</time>
      </trkpt>
      <trkpt lat="47.22127" lon="6.0536">
        <ele>477</ele>
        <time>2020-03-17T10:54:40Z</time>
      </trkpt>
      <trkpt lat="47.22135" lon="6.05371">
        <ele>476</ele>
        <time>2020-03-17T10:54:43Z</time>
      </trkpt>
      <trkpt lat="47.2214" lon="6.05377">
        <ele>476</ele>
        <time>2020-03-17T10:54:45Z</time>
      </trkpt>
      <trkpt lat="47.22147" lon="6.05386">
        <ele>475</ele>
        <time>2020-03-17T10:54:48Z</time>
      </trkpt>
      <trkpt lat="47.22152" lon="6.05393">
        <ele>475</ele>
        <time>2020-03-17T10:54:51Z</time>
      </trkpt>
      <trkpt lat="47.22158" lon="6.05404">
        <ele>475</ele>
        <time>2020-03-17T10:54:55Z</time>
      </trkpt>
      <trkpt lat="47.22163" lon="6.05416">
        <ele>477</ele>
        <time>2020-03-17T10:54:58Z</time>
      </trkpt>
      <trkpt lat="47.22164" lon="6.05421">
        <ele>477</ele>
        <time>2020-03-17T10:54:59Z</time>
      </trkpt>
      <trkpt lat="47.22165" lon="6.05425">
        <ele>478</ele>
        <time>2020-03-17T10:55:00Z</time>
      </trkpt>
      <trkpt lat="47.22166" lon="6.05431">
        <ele>479</ele>
        <time>2020-03-17T10:55:02Z</time>
      </trkpt>
      <trkpt lat="47.22171" lon="6.05438">
        <ele>479</ele>
        <time>2020-03-17T10:55:05Z</time>
      </trkpt>
      <trkpt lat="47.22174" lon="6.05441">
        <ele>479</ele>
        <time>2020-03-17T10:55:07Z</time>
      </trkpt>
      <trkpt lat="47.22178" lon="6.05438">
        <ele>477</ele>
        <time>2020-03-17T10:56:03Z</time>
      </trkpt>
      <trkpt lat="47.22179" lon="6.0543">
        <ele>475</ele>
        <time>2020-03-17T10:56:05Z</time>
      </trkpt>
      <trkpt lat="47.2218" lon="6.05419">
        <ele>472</ele>
        <time>2020-03-17T10:56:07Z</time>
      </trkpt>
      <trkpt lat="47.22179" lon="6.05412">
        <ele>470</ele>
        <time>2020-03-17T10:56:08Z</time>
      </trkpt>
      <trkpt lat="47.22178" lon="6.05404">
        <ele>469</ele>
        <time>2020-03-17T10:56:09Z</time>
      </trkpt>
      <trkpt lat="47.22176" lon="6.05396">
        <ele>467</ele>
        <time>2020-03-17T10:56:10Z</time>
      </trkpt>
      <trkpt lat="47.22175" lon="6.05388">
        <ele>466</ele>
        <time>2020-03-17T10:56:11Z</time>
      </trkpt>
      <trkpt lat="47.22174" lon="6.0538">
        <ele>465</ele>
        <time>2020-03-17T10:56:12Z</time>
      </trkpt>
      <trkpt lat="47.22173" lon="6.05371">
        <ele>465</ele>
        <time>2020-03-17T10:56:13Z</time>
      </trkpt>
      <trkpt lat="47.22171" lon="6.05364">
        <ele>464</ele>
        <time>2020-03-17T10:56:14Z</time>
      </trkpt>
      <trkpt lat="47.2217" lon="6.05357">
        <ele>463</ele>
        <time>2020-03-17T10:56:15Z</time>
      </trkpt>
      <trkpt lat="47.22169" lon="6.05351">
        <ele>463</ele>
        <time>2020-03-17T10:56:16Z</time>
      </trkpt>
      <trkpt lat="47.22168" lon="6.05347">
        <ele>462</ele>
        <time>2020-03-17T10:56:17Z</time>
      </trkpt>
      <trkpt lat="47.22168" lon="6.05345">
        <ele>462</ele>
        <time>2020-03-17T10:56:18Z</time>
      </trkpt>
      <trkpt lat="47.22168" lon="6.05343">
        <ele>462</ele>
        <time>2020-03-17T10:56:19Z</time>
      </trkpt>
      <trkpt lat="47.22164" lon="6.05334">
        <ele>462</ele>
        <time>2020-03-17T10:56:30Z</time>
      </trkpt>
      <trkpt lat="47.22161" lon="6.05326">
        <ele>460</ele>
        <time>2020-03-17T10:56:32Z</time>
      </trkpt>
      <trkpt lat="47.22159" lon="6.05322">
        <ele>460</ele>
        <time>2020-03-17T10:56:33Z</time>
      </trkpt>
      <trkpt lat="47.22155" lon="6.05312">
        <ele>459</ele>
        <time>2020-03-17T10:56:35Z</time>
      </trkpt>
      <trkpt lat="47.22152" lon="6.05301">
        <ele>458</ele>
        <time>2020-03-17T10:56:37Z</time>
      </trkpt>
      <trkpt lat="47.2215" lon="6.05294">
        <ele>457</ele>
        <time>2020-03-17T10:56:38Z</time>
      </trkpt>
      <trkpt lat="47.22148" lon="6.05286">
        <ele>456</ele>
        <time>2020-03-17T10:56:39Z</time>
      </trkpt>
      <trkpt lat="47.22146" lon="6.05278">
        <ele>455</ele>
        <time>2020-03-17T10:56:40Z</time>
      </trkpt>
      <trkpt lat="47.22144" lon="6.05268">
        <ele>454</ele>
        <time>2020-03-17T10:56:41Z</time>
      </trkpt>
      <trkpt lat="47.22142" lon="6.05258">
        <ele>454</ele>
        <time>2020-03-17T10:56:42Z</time>
      </trkpt>
      <trkpt lat="47.22139" lon="6.05247">
        <ele>454</ele>
        <time>2020-03-17T10:56:43Z</time>
      </trkpt>
      <trkpt lat="47.22134" lon="6.05225">
        <ele>452</ele>
        <time>2020-03-17T10:56:45Z</time>
      </trkpt>
      <trkpt lat="47.2213" lon="6.05201">
        <ele>453</ele>
        <time>2020-03-17T10:56:47Z</time>
      </trkpt>
      <trkpt lat="47.2213" lon="6.05189">
        <ele>452</ele>
        <time>2020-03-17T10:56:48Z</time>
      </trkpt>
      <trkpt lat="47.22132" lon="6.05163">
        <ele>450</ele>
        <time>2020-03-17T10:56:50Z</time>
      </trkpt>
      <trkpt lat="47.22133" lon="6.05138">
        <ele>444</ele>
        <time>2020-03-17T10:56:52Z</time>
      </trkpt>
      <trkpt lat="47.22133" lon="6.05113">
        <ele>437</ele>
        <time>2020-03-17T10:56:54Z</time>
      </trkpt>
      <trkpt lat="47.22133" lon="6.05101">
        <ele>435</ele>
        <time>2020-03-17T10:56:55Z</time>
      </trkpt>
      <trkpt lat="47.22131" lon="6.05078">
        <ele>432</ele>
        <time>2020-03-17T10:56:57Z</time>
      </trkpt>
      <trkpt lat="47.22131" lon="6.05058">
        <ele>431</ele>
        <time>2020-03-17T10:56:59Z</time>
      </trkpt>
      <trkpt lat="47.22136" lon="6.05042">
        <ele>427</ele>
        <time>2020-03-17T10:57:01Z</time>
      </trkpt>
      <trkpt lat="47.22141" lon="6.05036">
        <ele>425</ele>
        <time>2020-03-17T10:57:02Z</time>
      </trkpt>
      <trkpt lat="47.22151" lon="6.05026">
        <ele>421</ele>
        <time>2020-03-17T10:57:04Z</time>
      </trkpt>
      <trkpt lat="47.22163" lon="6.05013">
        <ele>419</ele>
        <time>2020-03-17T10:57:07Z</time>
      </trkpt>
      <trkpt lat="47.22176" lon="6.05001">
        <ele>419</ele>
        <time>2020-03-17T10:57:11Z</time>
      </trkpt>
      <trkpt lat="47.22184" lon="6.04997">
        <ele>420</ele>
        <time>2020-03-17T10:57:14Z</time>
      </trkpt>
      <trkpt lat="47.22195" lon="6.04993">
        <ele>420</ele>
        <time>2020-03-17T10:57:17Z</time>
      </trkpt>
      <trkpt lat="47.22199" lon="6.04991">
        <ele>420</ele>
        <time>2020-03-17T10:57:18Z</time>
      </trkpt>
      <trkpt lat="47.22223" lon="6.04988">
        <ele>420</ele>
        <time>2020-03-17T10:57:23Z</time>
      </trkpt>
      <trkpt lat="47.2223" lon="6.04985">
        <ele>420</ele>
        <time>2020-03-17T10:57:25Z</time>
      </trkpt>
      <trkpt lat="47.22232" lon="6.04981">
        <ele>420</ele>
        <time>2020-03-17T10:57:26Z</time>
      </trkpt>
      <trkpt lat="47.22231" lon="6.04967">
        <ele>419</ele>
        <time>2020-03-17T10:57:29Z</time>
      </trkpt>
      <trkpt lat="47.22229" lon="6.04963">
        <ele>419</ele>
        <time>2020-03-17T10:57:30Z</time>
      </trkpt>
      <trkpt lat="47.22226" lon="6.0495">
        <ele>419</ele>
        <time>2020-03-17T10:57:33Z</time>
      </trkpt>
      <trkpt lat="47.22219" lon="6.04931">
        <ele>420</ele>
        <time>2020-03-17T10:57:37Z</time>
      </trkpt>
      <trkpt lat="47.22208" lon="6.049">
        <ele>420</ele>
        <time>2020-03-17T10:57:43Z</time>
      </trkpt>
      <trkpt lat="47.22204" lon="6.04887">
        <ele>420</ele>
        <time>2020-03-17T10:57:45Z</time>
      </trkpt>
      <trkpt lat="47.22196" lon="6.04865">
        <ele>419</ele>
        <time>2020-03-17T10:57:48Z</time>
      </trkpt>
      <trkpt lat="47.22183" lon="6.04828">
        <ele>417</ele>
        <time>2020-03-17T10:57:52Z</time>
      </trkpt>
      <trkpt lat="47.22179" lon="6.04819">
        <ele>416</ele>
        <time>2020-03-17T10:57:53Z</time>
      </trkpt>
      <trkpt lat="47.22174" lon="6.0481">
        <ele>416</ele>
        <time>2020-03-17T10:57:54Z</time>
      </trkpt>
      <trkpt lat="47.22167" lon="6.04802">
        <ele>416</ele>
        <time>2020-03-17T10:57:55Z</time>
      </trkpt>
      <trkpt lat="47.22161" lon="6.04796">
        <ele>416</ele>
        <time>2020-03-17T10:57:56Z</time>
      </trkpt>
      <trkpt lat="47.22142" lon="6.04777">
        <ele>415</ele>
        <time>2020-03-17T10:57:59Z</time>
      </trkpt>
      <trkpt lat="47.22132" lon="6.04762">
        <ele>413</ele>
        <time>2020-03-17T10:58:01Z</time>
      </trkpt>
      <trkpt lat="47.22127" lon="6.04754">
        <ele>412</ele>
        <time>2020-03-17T10:58:02Z</time>
      </trkpt>
      <trkpt lat="47.22117" lon="6.04735">
        <ele>410</ele>
        <time>2020-03-17T10:58:04Z</time>
      </trkpt>
      <trkpt lat="47.22111" lon="6.04726">
        <ele>409</ele>
        <time>2020-03-17T10:58:05Z</time>
      </trkpt>
      <trkpt lat="47.22106" lon="6.04717">
        <ele>408</ele>
        <time>2020-03-17T10:58:06Z</time>
      </trkpt>
      <trkpt lat="47.22101" lon="6.04708">
        <ele>406</ele>
        <time>2020-03-17T10:58:07Z</time>
      </trkpt>
      <trkpt lat="47.22098" lon="6.04698">
        <ele>405</ele>
        <time>2020-03-17T10:58:08Z</time>
      </trkpt>
      <trkpt lat="47.22097" lon="6.04688">
        <ele>404</ele>
        <time>2020-03-17T10:58:09Z</time>
      </trkpt>
      <trkpt lat="47.22097" lon="6.04676">
        <ele>402</ele>
        <time>2020-03-17T10:58:10Z</time>
      </trkpt>
      <trkpt lat="47.22096" lon="6.04665">
        <ele>401</ele>
        <time>2020-03-17T10:58:11Z</time>
      </trkpt>
      <trkpt lat="47.22093" lon="6.04656">
        <ele>400</ele>
        <time>2020-03-17T10:58:12Z</time>
      </trkpt>
      <trkpt lat="47.2209" lon="6.04649">
        <ele>399</ele>
        <time>2020-03-17T10:58:13Z</time>
      </trkpt>
      <trkpt lat="47.22089" lon="6.04642">
        <ele>398</ele>
        <time>2020-03-17T10:58:14Z</time>
      </trkpt>
      <trkpt lat="47.22088" lon="6.04636">
        <ele>397</ele>
        <time>2020-03-17T10:58:15Z</time>
      </trkpt>
      <trkpt lat="47.22088" lon="6.04629">
        <ele>396</ele>
        <time>2020-03-17T10:58:16Z</time>
      </trkpt>
      <trkpt lat="47.22088" lon="6.04622">
        <ele>396</ele>
        <time>2020-03-17T10:58:17Z</time>
      </trkpt>
      <trkpt lat="47.22089" lon="6.04615">
        <ele>395</ele>
        <time>2020-03-17T10:58:18Z</time>
      </trkpt>
      <trkpt lat="47.22092" lon="6.04608">
        <ele>394</ele>
        <time>2020-03-17T10:58:19Z</time>
      </trkpt>
      <trkpt lat="47.22096" lon="6.04601">
        <ele>392</ele>
        <time>2020-03-17T10:58:20Z</time>
      </trkpt>
      <trkpt lat="47.22102" lon="6.04594">
        <ele>391</ele>
        <time>2020-03-17T10:58:21Z</time>
      </trkpt>
      <trkpt lat="47.22109" lon="6.04586">
        <ele>389</ele>
        <time>2020-03-17T10:58:22Z</time>
      </trkpt>
      <trkpt lat="47.22116" lon="6.04576">
        <ele>388</ele>
        <time>2020-03-17T10:58:23Z</time>
      </trkpt>
      <trkpt lat="47.22122" lon="6.04565">
        <ele>386</ele>
        <time>2020-03-17T10:58:24Z</time>
      </trkpt>
      <trkpt lat="47.22127" lon="6.04552">
        <ele>384</ele>
        <time>2020-03-17T10:58:25Z</time>
      </trkpt>
      <trkpt lat="47.22132" lon="6.04538">
        <ele>383</ele>
        <time>2020-03-17T10:58:26Z</time>
      </trkpt>
      <trkpt lat="47.22136" lon="6.04523">
        <ele>382</ele>
        <time>2020-03-17T10:58:27Z</time>
      </trkpt>
      <trkpt lat="47.2214" lon="6.04508">
        <ele>382</ele>
        <time>2020-03-17T10:58:28Z</time>
      </trkpt>
      <trkpt lat="47.22144" lon="6.04491">
        <ele>381</ele>
        <time>2020-03-17T10:58:29Z</time>
      </trkpt>
      <trkpt lat="47.22148" lon="6.04474">
        <ele>379</ele>
        <time>2020-03-17T10:58:30Z</time>
      </trkpt>
      <trkpt lat="47.22152" lon="6.04457">
        <ele>377</ele>
        <time>2020-03-17T10:58:31Z</time>
      </trkpt>
      <trkpt lat="47.22157" lon="6.0444">
        <ele>375</ele>
        <time>2020-03-17T10:58:32Z</time>
      </trkpt>
      <trkpt lat="47.22162" lon="6.04423">
        <ele>373</ele>
        <time>2020-03-17T10:58:33Z</time>
      </trkpt>
      <trkpt lat="47.22168" lon="6.04406">
        <ele>371</ele>
        <time>2020-03-17T10:58:34Z</time>
      </trkpt>
      <trkpt lat="47.22174" lon="6.04389">
        <ele>369</ele>
        <time>2020-03-17T10:58:35Z</time>
      </trkpt>
      <trkpt lat="47.22182" lon="6.04373">
        <ele>368</ele>
        <time>2020-03-17T10:58:36Z</time>
      </trkpt>
      <trkpt lat="47.2219" lon="6.04358">
        <ele>367</ele>
        <time>2020-03-17T10:58:37Z</time>
      </trkpt>
      <trkpt lat="47.22198" lon="6.04346">
        <ele>367</ele>
        <time>2020-03-17T10:58:38Z</time>
      </trkpt>
      <trkpt lat="47.22217" lon="6.04327">
        <ele>365</ele>
        <time>2020-03-17T10:58:40Z</time>
      </trkpt>
      <trkpt lat="47.22227" lon="6.04321">
        <ele>364</ele>
        <time>2020-03-17T10:58:41Z</time>
      </trkpt>
      <trkpt lat="47.22237" lon="6.04314">
        <ele>364</ele>
        <time>2020-03-17T10:58:42Z</time>
      </trkpt>
      <trkpt lat="47.22246" lon="6.04307">
        <ele>363</ele>
        <time>2020-03-17T10:58:43Z</time>
      </trkpt>
      <trkpt lat="47.22254" lon="6.04298">
        <ele>363</ele>
        <time>2020-03-17T10:58:44Z</time>
      </trkpt>
      <trkpt lat="47.22261" lon="6.04287">
        <ele>363</ele>
        <time>2020-03-17T10:58:45Z</time>
      </trkpt>
      <trkpt lat="47.22267" lon="6.04275">
        <ele>363</ele>
        <time>2020-03-17T10:58:46Z</time>
      </trkpt>
      <trkpt lat="47.22273" lon="6.04262">
        <ele>363</ele>
        <time>2020-03-17T10:58:47Z</time>
      </trkpt>
      <trkpt lat="47.22278" lon="6.04248">
        <ele>362</ele>
        <time>2020-03-17T10:58:48Z</time>
      </trkpt>
      <trkpt lat="47.22284" lon="6.04233">
        <ele>361</ele>
        <time>2020-03-17T10:58:49Z</time>
      </trkpt>
      <trkpt lat="47.2229" lon="6.04218">
        <ele>359</ele>
        <time>2020-03-17T10:58:50Z</time>
      </trkpt>
      <trkpt lat="47.22297" lon="6.04203">
        <ele>358</ele>
        <time>2020-03-17T10:58:51Z</time>
      </trkpt>
      <trkpt lat="47.22304" lon="6.04188">
        <ele>356</ele>
        <time>2020-03-17T10:58:52Z</time>
      </trkpt>
      <trkpt lat="47.22309" lon="6.04171">
        <ele>355</ele>
        <time>2020-03-17T10:58:53Z</time>
      </trkpt>
      <trkpt lat="47.22313" lon="6.04153">
        <ele>355</ele>
        <time>2020-03-17T10:58:54Z</time>
      </trkpt>
      <trkpt lat="47.22314" lon="6.04134">
        <ele>354</ele>
        <time>2020-03-17T10:58:55Z</time>
      </trkpt>
      <trkpt lat="47.22314" lon="6.04115">
        <ele>352</ele>
        <time>2020-03-17T10:58:56Z</time>
      </trkpt>
      <trkpt lat="47.22313" lon="6.04096">
        <ele>351</ele>
        <time>2020-03-17T10:58:57Z</time>
      </trkpt>
      <trkpt lat="47.22312" lon="6.04077">
        <ele>350</ele>
        <time>2020-03-17T10:58:58Z</time>
      </trkpt>
      <trkpt lat="47.22312" lon="6.04059">
        <ele>349</ele>
        <time>2020-03-17T10:58:59Z</time>
      </trkpt>
      <trkpt lat="47.22314" lon="6.04042">
        <ele>348</ele>
        <time>2020-03-17T10:59:00Z</time>
      </trkpt>
      <trkpt lat="47.22318" lon="6.04026">
        <ele>348</ele>
        <time>2020-03-17T10:59:01Z</time>
      </trkpt>
      <trkpt lat="47.22323" lon="6.0401">
        <ele>347</ele>
        <time>2020-03-17T10:59:02Z</time>
      </trkpt>
      <trkpt lat="47.22329" lon="6.03996">
        <ele>346</ele>
        <time>2020-03-17T10:59:03Z</time>
      </trkpt>
      <trkpt lat="47.22338" lon="6.03967">
        <ele>343</ele>
        <time>2020-03-17T10:59:05Z</time>
      </trkpt>
      <trkpt lat="47.22341" lon="6.03937">
        <ele>341</ele>
        <time>2020-03-17T10:59:07Z</time>
      </trkpt>
      <trkpt lat="47.22341" lon="6.03922">
        <ele>341</ele>
        <time>2020-03-17T10:59:08Z</time>
      </trkpt>
      <trkpt lat="47.2234" lon="6.03907">
        <ele>341</ele>
        <time>2020-03-17T10:59:09Z</time>
      </trkpt>
      <trkpt lat="47.22339" lon="6.03893">
        <ele>341</ele>
        <time>2020-03-17T10:59:10Z</time>
      </trkpt>
      <trkpt lat="47.22337" lon="6.03879">
        <ele>341</ele>
        <time>2020-03-17T10:59:11Z</time>
      </trkpt>
      <trkpt lat="47.22334" lon="6.03853">
        <ele>341</ele>
        <time>2020-03-17T10:59:13Z</time>
      </trkpt>
      <trkpt lat="47.22333" lon="6.0384">
        <ele>340</ele>
        <time>2020-03-17T10:59:14Z</time>
      </trkpt>
      <trkpt lat="47.22335" lon="6.03815">
        <ele>341</ele>
        <time>2020-03-17T10:59:16Z</time>
      </trkpt>
      <trkpt lat="47.22343" lon="6.03793">
        <ele>342</ele>
        <time>2020-03-17T10:59:18Z</time>
      </trkpt>
      <trkpt lat="47.22348" lon="6.03783">
        <ele>342</ele>
        <time>2020-03-17T10:59:19Z</time>
      </trkpt>
      <trkpt lat="47.22358" lon="6.03764">
        <ele>343</ele>
        <time>2020-03-17T10:59:21Z</time>
      </trkpt>
      <trkpt lat="47.22374" lon="6.03741">
        <ele>345</ele>
        <time>2020-03-17T10:59:24Z</time>
      </trkpt>
      <trkpt lat="47.2238" lon="6.03734">
        <ele>345</ele>
        <time>2020-03-17T10:59:25Z</time>
      </trkpt>
      <trkpt lat="47.22394" lon="6.03714">
        <ele>346</ele>
        <time>2020-03-17T10:59:28Z</time>
      </trkpt>
      <trkpt lat="47.22398" lon="6.03707">
        <ele>346</ele>
        <time>2020-03-17T10:59:29Z</time>
      </trkpt>
      <trkpt lat="47.22401" lon="6.0369">
        <ele>346</ele>
        <time>2020-03-17T10:59:31Z</time>
      </trkpt>
      <trkpt lat="47.22402" lon="6.03681">
        <ele>346</ele>
        <time>2020-03-17T10:59:32Z</time>
      </trkpt>
      <trkpt lat="47.22406" lon="6.03648">
        <ele>346</ele>
        <time>2020-03-17T10:59:36Z</time>
      </trkpt>
      <trkpt lat="47.2241" lon="6.03637">
        <ele>346</ele>
        <time>2020-03-17T10:59:38Z</time>
      </trkpt>
      <trkpt lat="47.22421" lon="6.03624">
        <ele>344</ele>
        <time>2020-03-17T10:59:42Z</time>
      </trkpt>
      <trkpt lat="47.22426" lon="6.0362">
        <ele>343</ele>
        <time>2020-03-17T10:59:43Z</time>
      </trkpt>
      <trkpt lat="47.2244" lon="6.03624">
        <ele>341</ele>
        <time>2020-03-17T10:59:45Z</time>
      </trkpt>
      <trkpt lat="47.22468" lon="6.03625">
        <ele>339</ele>
        <time>2020-03-17T10:59:48Z</time>
      </trkpt>
      <trkpt lat="47.22486" lon="6.03614">
        <ele>337</ele>
        <time>2020-03-17T10:59:50Z</time>
      </trkpt>
      <trkpt lat="47.22495" lon="6.03606">
        <ele>337</ele>
        <time>2020-03-17T10:59:51Z</time>
      </trkpt>
      <trkpt lat="47.22502" lon="6.03597">
        <ele>336</ele>
        <time>2020-03-17T10:59:52Z</time>
      </trkpt>
      <trkpt lat="47.22509" lon="6.03587">
        <ele>334</ele>
        <time>2020-03-17T10:59:53Z</time>
      </trkpt>
      <trkpt lat="47.22517" lon="6.03579">
        <ele>333</ele>
        <time>2020-03-17T10:59:54Z</time>
      </trkpt>
      <trkpt lat="47.22525" lon="6.03571">
        <ele>332</ele>
        <time>2020-03-17T10:59:55Z</time>
      </trkpt>
      <trkpt lat="47.22532" lon="6.03564">
        <ele>331</ele>
        <time>2020-03-17T10:59:56Z</time>
      </trkpt>
      <trkpt lat="47.2255" lon="6.03559">
        <ele>328</ele>
        <time>2020-03-17T10:59:58Z</time>
      </trkpt>
      <trkpt lat="47.2256" lon="6.03563">
        <ele>327</ele>
        <time>2020-03-17T10:59:59Z</time>
      </trkpt>
      <trkpt lat="47.22571" lon="6.03568">
        <ele>327</ele>
        <time>2020-03-17T11:00:00Z</time>
      </trkpt>
      <trkpt lat="47.22582" lon="6.03573">
        <ele>327</ele>
        <time>2020-03-17T11:00:01Z</time>
      </trkpt>
      <trkpt lat="47.22592" lon="6.03577">
        <ele>326</ele>
        <time>2020-03-17T11:00:02Z</time>
      </trkpt>
      <trkpt lat="47.22604" lon="6.0358">
        <ele>326</ele>
        <time>2020-03-17T11:00:03Z</time>
      </trkpt>
      <trkpt lat="47.22615" lon="6.03582">
        <ele>325</ele>
        <time>2020-03-17T11:00:04Z</time>
      </trkpt>
      <trkpt lat="47.22626" lon="6.03584">
        <ele>323</ele>
        <time>2020-03-17T11:00:05Z</time>
      </trkpt>
      <trkpt lat="47.22636" lon="6.03587">
        <ele>323</ele>
        <time>2020-03-17T11:00:06Z</time>
      </trkpt>
      <trkpt lat="47.22646" lon="6.03591">
        <ele>323</ele>
        <time>2020-03-17T11:00:07Z</time>
      </trkpt>
      <trkpt lat="47.22655" lon="6.03596">
        <ele>323</ele>
        <time>2020-03-17T11:00:08Z</time>
      </trkpt>
      <trkpt lat="47.22664" lon="6.03602">
        <ele>324</ele>
        <time>2020-03-17T11:00:09Z</time>
      </trkpt>
      <trkpt lat="47.22672" lon="6.03611">
        <ele>325</ele>
        <time>2020-03-17T11:00:10Z</time>
      </trkpt>
      <trkpt lat="47.22679" lon="6.03619">
        <ele>324</ele>
        <time>2020-03-17T11:00:11Z</time>
      </trkpt>
      <trkpt lat="47.22686" lon="6.03627">
        <ele>323</ele>
        <time>2020-03-17T11:00:12Z</time>
      </trkpt>
      <trkpt lat="47.22693" lon="6.03632">
        <ele>321</ele>
        <time>2020-03-17T11:00:13Z</time>
      </trkpt>
      <trkpt lat="47.22704" lon="6.0364">
        <ele>321</ele>
        <time>2020-03-17T11:00:15Z</time>
      </trkpt>
      <trkpt lat="47.22703" lon="6.03644">
        <ele>321</ele>
        <time>2020-03-17T11:00:17Z</time>
      </trkpt>
      <trkpt lat="47.22695" lon="6.03633">
        <ele>321</ele>
        <time>2020-03-17T11:00:19Z</time>
      </trkpt>
      <trkpt lat="47.2269" lon="6.03626">
        <ele>322</ele>
        <time>2020-03-17T11:00:20Z</time>
      </trkpt>
      <trkpt lat="47.22686" lon="6.03619">
        <ele>323</ele>
        <time>2020-03-17T11:00:21Z</time>
      </trkpt>
      <trkpt lat="47.22677" lon="6.03603">
        <ele>324</ele>
        <time>2020-03-17T11:00:23Z</time>
      </trkpt>
      <trkpt lat="47.22673" lon="6.03594">
        <ele>323</ele>
        <time>2020-03-17T11:00:24Z</time>
      </trkpt>
      <trkpt lat="47.22657" lon="6.03565">
        <ele>319</ele>
        <time>2020-03-17T11:00:27Z</time>
      </trkpt>
      <trkpt lat="47.22652" lon="6.03557">
        <ele>318</ele>
        <time>2020-03-17T11:00:28Z</time>
      </trkpt>
      <trkpt lat="47.22645" lon="6.03552">
        <ele>317</ele>
        <time>2020-03-17T11:00:29Z</time>
      </trkpt>
      <trkpt lat="47.22625" lon="6.03537">
        <ele>316</ele>
        <time>2020-03-17T11:00:32Z</time>
      </trkpt>
      <trkpt lat="47.22606" lon="6.03526">
        <ele>314</ele>
        <time>2020-03-17T11:00:35Z</time>
      </trkpt>
      <trkpt lat="47.22589" lon="6.03516">
        <ele>313</ele>
        <time>2020-03-17T11:00:38Z</time>
      </trkpt>
      <trkpt lat="47.22577" lon="6.03506">
        <ele>313</ele>
        <time>2020-03-17T11:00:40Z</time>
      </trkpt>
      <trkpt lat="47.2257" lon="6.035">
        <ele>313</ele>
        <time>2020-03-17T11:00:41Z</time>
      </trkpt>
      <trkpt lat="47.22556" lon="6.03487">
        <ele>312</ele>
        <time>2020-03-17T11:00:43Z</time>
      </trkpt>
      <trkpt lat="47.22542" lon="6.03472">
        <ele>309</ele>
        <time>2020-03-17T11:00:45Z</time>
      </trkpt>
      <trkpt lat="47.22527" lon="6.03457">
        <ele>304</ele>
        <time>2020-03-17T11:00:47Z</time>
      </trkpt>
      <trkpt lat="47.22513" lon="6.03443">
        <ele>299</ele>
        <time>2020-03-17T11:00:49Z</time>
      </trkpt>
      <trkpt lat="47.22506" lon="6.03439">
        <ele>299</ele>
        <time>2020-03-17T11:00:50Z</time>
      </trkpt>
      <trkpt lat="47.22499" lon="6.03439">
        <ele>300</ele>
        <time>2020-03-17T11:00:51Z</time>
      </trkpt>
      <trkpt lat="47.22483" lon="6.0344">
        <ele>301</ele>
        <time>2020-03-17T11:00:53Z</time>
      </trkpt>
      <trkpt lat="47.22477" lon="6.03439">
        <ele>301</ele>
        <time>2020-03-17T11:00:54Z</time>
      </trkpt>
      <trkpt lat="47.22471" lon="6.03435">
        <ele>301</ele>
        <time>2020-03-17T11:00:55Z</time>
      </trkpt>
      <trkpt lat="47.22464" lon="6.03423">
        <ele>301</ele>
        <time>2020-03-17T11:00:57Z</time>
      </trkpt>
      <trkpt lat="47.22461" lon="6.03405">
        <ele>299</ele>
        <time>2020-03-17T11:00:59Z</time>
      </trkpt>
      <trkpt lat="47.2246" lon="6.03393">
        <ele>298</ele>
        <time>2020-03-17T11:01:00Z</time>
      </trkpt>
      <trkpt lat="47.22459" lon="6.03381">
        <ele>296</ele>
        <time>2020-03-17T11:01:01Z</time>
      </trkpt>
      <trkpt lat="47.22455" lon="6.03354">
        <ele>291</ele>
        <time>2020-03-17T11:01:03Z</time>
      </trkpt>
      <trkpt lat="47.22452" lon="6.03341">
        <ele>288</ele>
        <time>2020-03-17T11:01:04Z</time>
      </trkpt>
      <trkpt lat="47.22442" lon="6.03319">
        <ele>286</ele>
        <time>2020-03-17T11:01:06Z</time>
      </trkpt>
      <trkpt lat="47.22435" lon="6.0331">
        <ele>287</ele>
        <time>2020-03-17T11:01:07Z</time>
      </trkpt>
      <trkpt lat="47.22427" lon="6.03302">
        <ele>288</ele>
        <time>2020-03-17T11:01:08Z</time>
      </trkpt>
      <trkpt lat="47.22419" lon="6.03295">
        <ele>288</ele>
        <time>2020-03-17T11:01:09Z</time>
      </trkpt>
      <trkpt lat="47.22412" lon="6.03287">
        <ele>288</ele>
        <time>2020-03-17T11:01:10Z</time>
      </trkpt>
      <trkpt lat="47.22397" lon="6.03273">
        <ele>289</ele>
        <time>2020-03-17T11:01:12Z</time>
      </trkpt>
      <trkpt lat="47.22385" lon="6.03262">
        <ele>289</ele>
        <time>2020-03-17T11:01:14Z</time>
      </trkpt>
      <trkpt lat="47.22373" lon="6.03253">
        <ele>288</ele>
        <time>2020-03-17T11:01:16Z</time>
      </trkpt>
      <trkpt lat="47.22364" lon="6.03245">
        <ele>288</ele>
        <time>2020-03-17T11:01:18Z</time>
      </trkpt>
      <trkpt lat="47.2236" lon="6.03242">
        <ele>288</ele>
        <time>2020-03-17T11:01:19Z</time>
      </trkpt>
      <trkpt lat="47.22355" lon="6.0324">
        <ele>288</ele>
        <time>2020-03-17T11:01:20Z</time>
      </trkpt>
      <trkpt lat="47.22343" lon="6.03233">
        <ele>288</ele>
        <time>2020-03-17T11:01:23Z</time>
      </trkpt>
      <trkpt lat="47.22331" lon="6.03228">
        <ele>289</ele>
        <time>2020-03-17T11:01:26Z</time>
      </trkpt>
      <trkpt lat="47.22316" lon="6.03224">
        <ele>288</ele>
        <time>2020-03-17T11:01:30Z</time>
      </trkpt>
      <trkpt lat="47.22311" lon="6.03223">
        <ele>288</ele>
        <time>2020-03-17T11:01:31Z</time>
      </trkpt>
      <trkpt lat="47.22307" lon="6.03222">
        <ele>288</ele>
        <time>2020-03-17T11:01:32Z</time>
      </trkpt>
      <trkpt lat="47.22296" lon="6.03219">
        <ele>287</ele>
        <time>2020-03-17T11:01:34Z</time>
      </trkpt>
      <trkpt lat="47.22289" lon="6.03217">
        <ele>286</ele>
        <time>2020-03-17T11:01:35Z</time>
      </trkpt>
      <trkpt lat="47.22276" lon="6.03212">
        <ele>284</ele>
        <time>2020-03-17T11:01:37Z</time>
      </trkpt>
      <trkpt lat="47.22261" lon="6.03207">
        <ele>283</ele>
        <time>2020-03-17T11:01:39Z</time>
      </trkpt>
      <trkpt lat="47.22254" lon="6.03204">
        <ele>283</ele>
        <time>2020-03-17T11:01:40Z</time>
      </trkpt>
      <trkpt lat="47.22247" lon="6.03203">
        <ele>282</ele>
        <time>2020-03-17T11:01:41Z</time>
      </trkpt>
      <trkpt lat="47.22234" lon="6.03199">
        <ele>282</ele>
        <time>2020-03-17T11:01:43Z</time>
      </trkpt>
      <trkpt lat="47.2223" lon="6.03195">
        <ele>280</ele>
        <time>2020-03-17T11:01:44Z</time>
      </trkpt>
      <trkpt lat="47.22227" lon="6.03191">
        <ele>279</ele>
        <time>2020-03-17T11:01:45Z</time>
      </trkpt>
      <trkpt lat="47.22227" lon="6.03185">
        <ele>277</ele>
        <time>2020-03-17T11:01:46Z</time>
      </trkpt>
      <trkpt lat="47.2223" lon="6.03182">
        <ele>275</ele>
        <time>2020-03-17T11:01:47Z</time>
      </trkpt>
      <trkpt lat="47.22235" lon="6.0318">
        <ele>274</ele>
        <time>2020-03-17T11:01:48Z</time>
      </trkpt>
      <trkpt lat="47.22245" lon="6.03182">
        <ele>274</ele>
        <time>2020-03-17T11:01:50Z</time>
      </trkpt>
      <trkpt lat="47.2225" lon="6.03185">
        <ele>274</ele>
        <time>2020-03-17T11:01:51Z</time>
      </trkpt>
      <trkpt lat="47.22261" lon="6.03189">
        <ele>276</ele>
        <time>2020-03-17T11:01:53Z</time>
      </trkpt>
      <trkpt lat="47.22267" lon="6.03191">
        <ele>276</ele>
        <time>2020-03-17T11:01:54Z</time>
      </trkpt>
      <trkpt lat="47.22271" lon="6.03192">
        <ele>276</ele>
        <time>2020-03-17T11:01:55Z</time>
      </trkpt>
      <trkpt lat="47.22279" lon="6.03194">
        <ele>276</ele>
        <time>2020-03-17T11:01:57Z</time>
      </trkpt>
      <trkpt lat="47.22282" lon="6.03195">
        <ele>277</ele>
        <time>2020-03-17T11:01:58Z</time>
      </trkpt>
      <trkpt lat="47.22286" lon="6.03197">
        <ele>278</ele>
        <time>2020-03-17T11:02:00Z</time>
      </trkpt>
      <trkpt lat="47.2229" lon="6.03198">
        <ele>278</ele>
        <time>2020-03-17T11:02:45Z</time>
      </trkpt>
      <trkpt lat="47.22292" lon="6.03196">
        <ele>277</ele>
        <time>2020-03-17T11:02:46Z</time>
      </trkpt>
      <trkpt lat="47.22298" lon="6.03194">
        <ele>276</ele>
        <time>2020-03-17T11:02:48Z</time>
      </trkpt>
      <trkpt lat="47.22303" lon="6.03194">
        <ele>276</ele>
        <time>2020-03-17T11:02:49Z</time>
      </trkpt>
      <trkpt lat="47.22321" lon="6.03196">
        <ele>276</ele>
        <time>2020-03-17T11:02:53Z</time>
      </trkpt>
      <trkpt lat="47.22326" lon="6.03198">
        <ele>277</ele>
        <time>2020-03-17T11:02:54Z</time>
      </trkpt>
      <trkpt lat="47.22339" lon="6.03201">
        <ele>276</ele>
        <time>2020-03-17T11:02:56Z</time>
      </trkpt>
      <trkpt lat="47.22355" lon="6.03203">
        <ele>273</ele>
        <time>2020-03-17T11:02:58Z</time>
      </trkpt>
      <trkpt lat="47.2237" lon="6.03205">
        <ele>269</ele>
        <time>2020-03-17T11:03:00Z</time>
      </trkpt>
      <trkpt lat="47.22377" lon="6.03207">
        <ele>267</ele>
        <time>2020-03-17T11:03:01Z</time>
      </trkpt>
      <trkpt lat="47.22384" lon="6.0321">
        <ele>265</ele>
        <time>2020-03-17T11:03:02Z</time>
      </trkpt>
      <trkpt lat="47.22398" lon="6.03221">
        <ele>262</ele>
        <time>2020-03-17T11:03:04Z</time>
      </trkpt>
      <trkpt lat="47.22412" lon="6.03236">
        <ele>261</ele>
        <time>2020-03-17T11:03:06Z</time>
      </trkpt>
      <trkpt lat="47.22419" lon="6.03244">
        <ele>261</ele>
        <time>2020-03-17T11:03:07Z</time>
      </trkpt>
      <trkpt lat="47.22426" lon="6.0325">
        <ele>261</ele>
        <time>2020-03-17T11:03:08Z</time>
      </trkpt>
      <trkpt lat="47.22433" lon="6.03253">
        <ele>260</ele>
        <time>2020-03-17T11:03:09Z</time>
      </trkpt>
      <trkpt lat="47.22441" lon="6.03255">
        <ele>259</ele>
        <time>2020-03-17T11:03:10Z</time>
      </trkpt>
      <trkpt lat="47.22453" lon="6.03254">
        <ele>256</ele>
        <time>2020-03-17T11:03:12Z</time>
      </trkpt>
      <trkpt lat="47.22461" lon="6.03246">
        <ele>251</ele>
        <time>2020-03-17T11:03:14Z</time>
      </trkpt>
      <trkpt lat="47.22465" lon="6.03237">
        <ele>248</ele>
        <time>2020-03-17T11:03:15Z</time>
      </trkpt>
      <trkpt lat="47.22469" lon="6.03229">
        <ele>245</ele>
        <time>2020-03-17T11:03:16Z</time>
      </trkpt>
      <trkpt lat="47.22473" lon="6.03221">
        <ele>243</ele>
        <time>2020-03-17T11:03:17Z</time>
      </trkpt>
      <trkpt lat="47.22484" lon="6.03209">
        <ele>244</ele>
        <time>2020-03-17T11:03:19Z</time>
      </trkpt>
      <trkpt lat="47.22503" lon="6.03203">
        <ele>248</ele>
        <time>2020-03-17T11:03:22Z</time>
      </trkpt>
      <trkpt lat="47.22515" lon="6.03201">
        <ele>249</ele>
        <time>2020-03-17T11:03:25Z</time>
      </trkpt>
      <trkpt lat="47.22517" lon="6.032">
        <ele>249</ele>
        <time>2020-03-17T11:03:26Z</time>
      </trkpt>
      <trkpt lat="47.22522" lon="6.032">
        <ele>250</ele>
        <time>2020-03-17T11:03:28Z</time>
      </trkpt>
      <trkpt lat="47.22526" lon="6.03204">
        <ele>251</ele>
        <time>2020-03-17T11:03:30Z</time>
      </trkpt>
      <trkpt lat="47.22542" lon="6.03219">
        <ele>253</ele>
        <time>2020-03-17T11:03:35Z</time>
      </trkpt>
      <trkpt lat="47.22566" lon="6.03243">
        <ele>259</ele>
        <time>2020-03-17T11:03:41Z</time>
      </trkpt>
      <trkpt lat="47.2259" lon="6.03261">
        <ele>261</ele>
        <time>2020-03-17T11:03:46Z</time>
      </trkpt>
      <trkpt lat="47.22596" lon="6.03263">
        <ele>261</ele>
        <time>2020-03-17T11:03:47Z</time>
      </trkpt>
      <trkpt lat="47.22628" lon="6.03273">
        <ele>253</ele>
        <time>2020-03-17T11:03:53Z</time>
      </trkpt>
      <trkpt lat="47.22633" lon="6.03272">
        <ele>251</ele>
        <time>2020-03-17T11:03:54Z</time>
      </trkpt>
      <trkpt lat="47.22672" lon="6.0326">
        <ele>246</ele>
        <time>2020-03-17T11:04:01Z</time>
      </trkpt>
      <trkpt lat="47.22692" lon="6.03258">
        <ele>245</ele>
        <time>2020-03-17T11:04:05Z</time>
      </trkpt>
      <trkpt lat="47.22697" lon="6.03257">
        <ele>245</ele>
        <time>2020-03-17T11:04:06Z</time>
      </trkpt>
      <trkpt lat="47.22736" lon="6.03244">
        <ele>247</ele>
        <time>2020-03-17T11:04:14Z</time>
      </trkpt>
      <trkpt lat="47.22741" lon="6.03242">
        <ele>247</ele>
        <time>2020-03-17T11:04:15Z</time>
      </trkpt>
      <trkpt lat="47.22761" lon="6.03233">
        <ele>247</ele>
        <time>2020-03-17T11:04:19Z</time>
      </trkpt>
      <trkpt lat="47.22766" lon="6.0323">
        <ele>246</ele>
        <time>2020-03-17T11:04:20Z</time>
      </trkpt>
      <trkpt lat="47.22774" lon="6.03226">
        <ele>246</ele>
        <time>2020-03-17T11:04:22Z</time>
      </trkpt>
      <trkpt lat="47.22797" lon="6.03215">
        <ele>246</ele>
        <time>2020-03-17T11:04:28Z</time>
      </trkpt>
      <trkpt lat="47.22801" lon="6.03212">
        <ele>246</ele>
        <time>2020-03-17T11:04:29Z</time>
      </trkpt>
      <trkpt lat="47.22805" lon="6.0321">
        <ele>246</ele>
        <time>2020-03-17T11:04:30Z</time>
      </trkpt>
      <trkpt lat="47.22818" lon="6.03206">
        <ele>247</ele>
        <time>2020-03-17T11:04:33Z</time>
      </trkpt>
      <trkpt lat="47.22823" lon="6.03203">
        <ele>247</ele>
        <time>2020-03-17T11:04:34Z</time>
      </trkpt>
      <trkpt lat="47.22859" lon="6.03178">
        <ele>245</ele>
        <time>2020-03-17T11:04:42Z</time>
      </trkpt>
      <trkpt lat="47.2291" lon="6.03139">
        <ele>245</ele>
        <time>2020-03-17T11:04:53Z</time>
      </trkpt>
      <trkpt lat="47.22946" lon="6.03112">
        <ele>246</ele>
        <time>2020-03-17T11:05:01Z</time>
      </trkpt>
      <trkpt lat="47.22975" lon="6.03089">
        <ele>251</ele>
        <time>2020-03-17T11:05:08Z</time>
      </trkpt>
      <trkpt lat="47.22978" lon="6.03084">
        <ele>250</ele>
        <time>2020-03-17T11:05:09Z</time>
      </trkpt>
      <trkpt lat="47.22988" lon="6.03068">
        <ele>250</ele>
        <time>2020-03-17T11:05:12Z</time>
      </trkpt>
      <trkpt lat="47.2299" lon="6.03062">
        <ele>250</ele>
        <time>2020-03-17T11:05:13Z</time>
      </trkpt>
      <trkpt lat="47.22992" lon="6.03056">
        <ele>249</ele>
        <time>2020-03-17T11:05:14Z</time>
      </trkpt>
      <trkpt lat="47.23001" lon="6.0303">
        <ele>248</ele>
        <time>2020-03-17T11:05:18Z</time>
      </trkpt>
      <trkpt lat="47.23011" lon="6.02995">
        <ele>247</ele>
        <time>2020-03-17T11:05:23Z</time>
      </trkpt>
      <trkpt lat="47.23021" lon="6.02956">
        <ele>246</ele>
        <time>2020-03-17T11:05:28Z</time>
      </trkpt>
      <trkpt lat="47.23024" lon="6.02948">
        <ele>245</ele>
        <time>2020-03-17T11:05:29Z</time>
      </trkpt>
      <trkpt lat="47.23028" lon="6.0294">
        <ele>244</ele>
        <time>2020-03-17T11:05:30Z</time>
      </trkpt>
      <trkpt lat="47.23041" lon="6.0292">
        <ele>244</ele>
        <time>2020-03-17T11:05:33Z</time>
      </trkpt>
      <trkpt lat="47.23045" lon="6.02914">
        <ele>244</ele>
        <time>2020-03-17T11:05:34Z</time>
      </trkpt>
      <trkpt lat="47.2305" lon="6.02909">
        <ele>244</ele>
        <time>2020-03-17T11:05:35Z</time>
      </trkpt>
      <trkpt lat="47.23065" lon="6.02898">
        <ele>248</ele>
        <time>2020-03-17T11:05:38Z</time>
      </trkpt>
      <trkpt lat="47.23072" lon="6.02878">
        <ele>250</ele>
        <time>2020-03-17T11:05:41Z</time>
      </trkpt>
      <trkpt lat="47.2307" lon="6.02851">
        <ele>248</ele>
        <time>2020-03-17T11:05:44Z</time>
      </trkpt>
      <trkpt lat="47.23069" lon="6.02842">
        <ele>247</ele>
        <time>2020-03-17T11:05:45Z</time>
      </trkpt>
      <trkpt lat="47.23068" lon="6.02814">
        <ele>244</ele>
        <time>2020-03-17T11:05:48Z</time>
      </trkpt>
      <trkpt lat="47.23072" lon="6.02797">
        <ele>244</ele>
        <time>2020-03-17T11:05:50Z</time>
      </trkpt>
      <trkpt lat="47.23079" lon="6.02782">
        <ele>246</ele>
        <time>2020-03-17T11:05:52Z</time>
      </trkpt>
      <trkpt lat="47.23089" lon="6.0276">
        <ele>247</ele>
        <time>2020-03-17T11:05:55Z</time>
      </trkpt>
      <trkpt lat="47.23108" lon="6.02721">
        <ele>247</ele>
        <time>2020-03-17T11:06:01Z</time>
      </trkpt>
      <trkpt lat="47.23113" lon="6.02709">
        <ele>247</ele>
        <time>2020-03-17T11:06:03Z</time>
      </trkpt>
      <trkpt lat="47.23123" lon="6.02685">
        <ele>246</ele>
        <time>2020-03-17T11:06:07Z</time>
      </trkpt>
      <trkpt lat="47.23139" lon="6.0266">
        <ele>245</ele>
        <time>2020-03-17T11:06:11Z</time>
      </trkpt>
      <trkpt lat="47.23145" lon="6.02658">
        <ele>245</ele>
        <time>2020-03-17T11:06:12Z</time>
      </trkpt>
      <trkpt lat="47.23161" lon="6.02655">
        <ele>246</ele>
        <time>2020-03-17T11:06:15Z</time>
      </trkpt>
      <trkpt lat="47.23176" lon="6.02651">
        <ele>247</ele>
        <time>2020-03-17T11:06:18Z</time>
      </trkpt>
      <trkpt lat="47.23203" lon="6.02645">
        <ele>246</ele>
        <time>2020-03-17T11:06:23Z</time>
      </trkpt>
      <trkpt lat="47.23209" lon="6.02644">
        <ele>246</ele>
        <time>2020-03-17T11:06:24Z</time>
      </trkpt>
      <trkpt lat="47.23219" lon="6.02641">
        <ele>246</ele>
        <time>2020-03-17T11:06:26Z</time>
      </trkpt>
      <trkpt lat="47.23241" lon="6.02636">
        <ele>246</ele>
        <time>2020-03-17T11:06:30Z</time>
      </trkpt>
      <trkpt lat="47.23257" lon="6.02633">
        <ele>246</ele>
        <time>2020-03-17T11:06:33Z</time>
      </trkpt>
      <trkpt lat="47.23273" lon="6.02632">
        <ele>247</ele>
        <time>2020-03-17T11:06:36Z</time>
      </trkpt>
      <trkpt lat="47.23303" lon="6.02624">
        <ele>248</ele>
        <time>2020-03-17T11:06:42Z</time>
      </trkpt>
      <trkpt lat="47.23313" lon="6.02623">
        <ele>249</ele>
        <time>2020-03-17T11:06:44Z</time>
      </trkpt>
      <trkpt lat="47.23332" lon="6.02635">
        <ele>249</ele>
        <time>2020-03-17T11:06:48Z</time>
      </trkpt>
      <trkpt lat="47.23336" lon="6.02639">
        <ele>250</ele>
        <time>2020-03-17T11:06:49Z</time>
      </trkpt>
      <trkpt lat="47.23358" lon="6.02661">
        <ele>250</ele>
        <time>2020-03-17T11:06:54Z</time>
      </trkpt>
      <trkpt lat="47.23379" lon="6.02687">
        <ele>251</ele>
        <time>2020-03-17T11:06:59Z</time>
      </trkpt>
      <trkpt lat="47.23383" lon="6.02692">
        <ele>251</ele>
        <time>2020-03-17T11:07:00Z</time>
      </trkpt>
      <trkpt lat="47.23386" lon="6.02698">
        <ele>251</ele>
        <time>2020-03-17T11:07:01Z</time>
      </trkpt>
      <trkpt lat="47.23389" lon="6.02704">
        <ele>251</ele>
        <time>2020-03-17T11:07:02Z</time>
      </trkpt>
      <trkpt lat="47.23393" lon="6.0271">
        <ele>251</ele>
        <time>2020-03-17T11:07:03Z</time>
      </trkpt>
      <trkpt lat="47.23404" lon="6.02727">
        <ele>252</ele>
        <time>2020-03-17T11:07:06Z</time>
      </trkpt>
      <trkpt lat="47.23408" lon="6.02732">
        <ele>252</ele>
        <time>2020-03-17T11:07:07Z</time>
      </trkpt>
      <trkpt lat="47.2343" lon="6.02758">
        <ele>252</ele>
        <time>2020-03-17T11:07:13Z</time>
      </trkpt>
      <trkpt lat="47.23453" lon="6.02786">
        <ele>253</ele>
        <time>2020-03-17T11:07:20Z</time>
      </trkpt>
      <trkpt lat="47.23485" lon="6.02825">
        <ele>254</ele>
        <time>2020-03-17T11:07:29Z</time>
      </trkpt>
      <trkpt lat="47.23492" lon="6.02832">
        <ele>254</ele>
        <time>2020-03-17T11:07:31Z</time>
      </trkpt>
      <trkpt lat="47.23501" lon="6.02839">
        <ele>253</ele>
        <time>2020-03-17T11:07:33Z</time>
      </trkpt>
      <trkpt lat="47.23511" lon="6.02853">
        <ele>253</ele>
        <time>2020-03-17T11:07:36Z</time>
      </trkpt>
      <trkpt lat="47.23515" lon="6.02864">
        <ele>253</ele>
        <time>2020-03-17T11:07:38Z</time>
      </trkpt>
      <trkpt lat="47.23515" lon="6.02872">
        <ele>253</ele>
        <time>2020-03-17T11:07:41Z</time>
      </trkpt>
      <trkpt lat="47.23513" lon="6.02877">
        <ele>253</ele>
        <time>2020-03-17T11:07:43Z</time>
      </trkpt>
      <trkpt lat="47.23507" lon="6.02884">
        <ele>253</ele>
        <time>2020-03-17T11:07:46Z</time>
      </trkpt>
      <trkpt lat="47.23506" lon="6.02885">
        <ele>253</ele>
        <time>2020-03-17T11:07:47Z</time>
      </trkpt>
      <trkpt lat="47.23501" lon="6.02886">
        <ele>253</ele>
        <time>2020-03-17T11:07:58Z</time>
      </trkpt>
      <trkpt lat="47.23499" lon="6.02887">
        <ele>253</ele>
        <time>2020-03-17T11:07:59Z</time>
      </trkpt>
      <trkpt lat="47.23497" lon="6.02891">
        <ele>253</ele>
        <time>2020-03-17T11:08:01Z</time>
      </trkpt>
      <trkpt lat="47.23493" lon="6.02901">
        <ele>253</ele>
        <time>2020-03-17T11:08:04Z</time>
      </trkpt>
      <trkpt lat="47.23491" lon="6.02905">
        <ele>253</ele>
        <time>2020-03-17T11:08:05Z</time>
      </trkpt>
      <trkpt lat="47.23488" lon="6.02914">
        <ele>254</ele>
        <time>2020-03-17T11:08:07Z</time>
      </trkpt>
      <trkpt lat="47.23488" lon="6.02919">
        <ele>254</ele>
        <time>2020-03-17T11:08:08Z</time>
      </trkpt>
      <trkpt lat="47.23489" lon="6.02924">
        <ele>254</ele>
        <time>2020-03-17T11:08:09Z</time>
      </trkpt>
      <trkpt lat="47.23495" lon="6.02932">
        <ele>253</ele>
        <time>2020-03-17T11:08:11Z</time>
      </trkpt>
      <trkpt lat="47.23501" lon="6.02941">
        <ele>253</ele>
        <time>2020-03-17T11:08:13Z</time>
      </trkpt>
      <trkpt lat="47.23503" lon="6.02945">
        <ele>253</ele>
        <time>2020-03-17T11:08:14Z</time>
      </trkpt>
      <trkpt lat="47.2351" lon="6.02954">
        <ele>253</ele>
        <time>2020-03-17T11:08:17Z</time>
      </trkpt>
      <trkpt lat="47.23513" lon="6.02962">
        <ele>253</ele>
        <time>2020-03-17T11:08:19Z</time>
      </trkpt>
      <trkpt lat="47.23513" lon="6.02965">
        <ele>253</ele>
        <time>2020-03-17T11:08:20Z</time>
      </trkpt>
      <trkpt lat="47.23513" lon="6.02976">
        <ele>254</ele>
        <time>2020-03-17T11:08:22Z</time>
      </trkpt>
      <trkpt lat="47.23513" lon="6.02981">
        <ele>254</ele>
        <time>2020-03-17T11:08:23Z</time>
      </trkpt>
      <trkpt lat="47.23512" lon="6.02993">
        <ele>254</ele>
        <time>2020-03-17T11:08:25Z</time>
      </trkpt>
      <trkpt lat="47.23513" lon="6.03004">
        <ele>255</ele>
        <time>2020-03-17T11:08:27Z</time>
      </trkpt>
      <trkpt lat="47.23514" lon="6.03016">
        <ele>255</ele>
        <time>2020-03-17T11:08:29Z</time>
      </trkpt>
      <trkpt lat="47.23514" lon="6.03028">
        <ele>256</ele>
        <time>2020-03-17T11:08:31Z</time>
      </trkpt>
      <trkpt lat="47.23516" lon="6.03041">
        <ele>256</ele>
        <time>2020-03-17T11:08:33Z</time>
      </trkpt>
      <trkpt lat="47.23518" lon="6.03055">
        <ele>256</ele>
        <time>2020-03-17T11:08:35Z</time>
      </trkpt>
      <trkpt lat="47.2352" lon="6.0307">
        <ele>256</ele>
        <time>2020-03-17T11:08:37Z</time>
      </trkpt>
      <trkpt lat="47.23522" lon="6.03077">
        <ele>256</ele>
        <time>2020-03-17T11:08:38Z</time>
      </trkpt>
      <trkpt lat="47.23529" lon="6.031">
        <ele>255</ele>
        <time>2020-03-17T11:08:41Z</time>
      </trkpt>
      <trkpt lat="47.2353" lon="6.03107">
        <ele>254</ele>
        <time>2020-03-17T11:08:42Z</time>
      </trkpt>
      <trkpt lat="47.23537" lon="6.03117">
        <ele>253</ele>
        <time>2020-03-17T11:08:45Z</time>
      </trkpt>
      <trkpt lat="47.2354" lon="6.03119">
        <ele>253</ele>
        <time>2020-03-17T11:08:46Z</time>
      </trkpt>
      <trkpt lat="47.23541" lon="6.03112">
        <ele>254</ele>
        <time>2020-03-17T11:08:50Z</time>
      </trkpt>
      <trkpt lat="47.2354" lon="6.03106">
        <ele>254</ele>
        <time>2020-03-17T11:08:52Z</time>
      </trkpt>
      <trkpt lat="47.23539" lon="6.03095">
        <ele>254</ele>
        <time>2020-03-17T11:08:57Z</time>
      </trkpt>
      <trkpt lat="47.23536" lon="6.031">
        <ele>254</ele>
        <time>2020-03-17T11:09:02Z</time>
      </trkpt>
      <trkpt lat="47.23536" lon="6.03104">
        <ele>254</ele>
        <time>2020-03-17T11:09:03Z</time>
      </trkpt>
      <trkpt lat="47.23535" lon="6.03112">
        <ele>254</ele>
        <time>2020-03-17T11:09:05Z</time>
      </trkpt>
      <trkpt lat="47.23537" lon="6.03126">
        <ele>252</ele>
        <time>2020-03-17T11:09:08Z</time>
      </trkpt>
      <trkpt lat="47.2354" lon="6.03135">
        <ele>251</ele>
        <time>2020-03-17T11:09:10Z</time>
      </trkpt>
      <trkpt lat="47.2354" lon="6.03141">
        <ele>251</ele>
        <time>2020-03-17T11:09:12Z</time>
      </trkpt>
      <trkpt lat="47.23538" lon="6.03143">
        <ele>251</ele>
        <time>2020-03-17T11:09:13Z</time>
      </trkpt>
      <trkpt lat="47.23525" lon="6.03156">
        <ele>251</ele>
        <time>2020-03-17T11:09:18Z</time>
      </trkpt>
      <trkpt lat="47.23523" lon="6.03159">
        <ele>251</ele>
        <time>2020-03-17T11:09:19Z</time>
      </trkpt>
      <trkpt lat="47.23514" lon="6.03171">
        <ele>251</ele>
        <time>2020-03-17T11:09:24Z</time>
      </trkpt>
      <trkpt lat="47.23504" lon="6.03195">
        <ele>251</ele>
        <time>2020-03-17T11:09:31Z</time>
      </trkpt>
      <trkpt lat="47.23499" lon="6.03206">
        <ele>251</ele>
        <time>2020-03-17T11:09:34Z</time>
      </trkpt>
      <trkpt lat="47.23491" lon="6.03227">
        <ele>250</ele>
        <time>2020-03-17T11:09:38Z</time>
      </trkpt>
      <trkpt lat="47.23489" lon="6.03232">
        <ele>250</ele>
        <time>2020-03-17T11:09:39Z</time>
      </trkpt>
      <trkpt lat="47.2348" lon="6.03251">
        <ele>250</ele>
        <time>2020-03-17T11:09:43Z</time>
      </trkpt>
      <trkpt lat="47.23474" lon="6.03263">
        <ele>249</ele>
        <time>2020-03-17T11:09:45Z</time>
      </trkpt>
      <trkpt lat="47.23469" lon="6.03276">
        <ele>249</ele>
        <time>2020-03-17T11:09:47Z</time>
      </trkpt>
      <trkpt lat="47.23465" lon="6.03299">
        <ele>249</ele>
        <time>2020-03-17T11:09:51Z</time>
      </trkpt>
      <trkpt lat="47.23465" lon="6.03304">
        <ele>249</ele>
        <time>2020-03-17T11:09:52Z</time>
      </trkpt>
      <trkpt lat="47.23467" lon="6.03309">
        <ele>249</ele>
        <time>2020-03-17T11:09:53Z</time>
      </trkpt>
      <trkpt lat="47.23469" lon="6.03314">
        <ele>248</ele>
        <time>2020-03-17T11:09:54Z</time>
      </trkpt>
      <trkpt lat="47.23471" lon="6.03318">
        <ele>248</ele>
        <time>2020-03-17T11:09:55Z</time>
      </trkpt>
      <trkpt lat="47.23478" lon="6.03335">
        <ele>247</ele>
        <time>2020-03-17T11:09:58Z</time>
      </trkpt>
      <trkpt lat="47.23483" lon="6.03345">
        <ele>247</ele>
        <time>2020-03-17T11:10:00Z</time>
      </trkpt>
      <trkpt lat="47.23492" lon="6.03365">
        <ele>247</ele>
        <time>2020-03-17T11:10:04Z</time>
      </trkpt>
      <trkpt lat="47.23495" lon="6.03368">
        <ele>247</ele>
        <time>2020-03-17T11:10:05Z</time>
      </trkpt>
      <trkpt lat="47.23499" lon="6.03372">
        <ele>247</ele>
        <time>2020-03-17T11:10:07Z</time>
      </trkpt>
      <trkpt lat="47.23502" lon="6.03373">
        <ele>247</ele>
        <time>2020-03-17T11:10:09Z</time>
      </trkpt>
      <trkpt lat="47.23503" lon="6.03375">
        <ele>247</ele>
        <time>2020-03-17T11:10:10Z</time>
      </trkpt>
      <trkpt lat="47.23507" lon="6.03383">
        <ele>247</ele>
        <time>2020-03-17T11:10:13Z</time>
      </trkpt>
      <trkpt lat="47.2351" lon="6.03383">
        <ele>247</ele>
        <time>2020-03-17T11:10:14Z</time>
      </trkpt>
      <trkpt lat="47.23513" lon="6.03382">
        <ele>247</ele>
        <time>2020-03-17T11:10:15Z</time>
      </trkpt>
      <trkpt lat="47.23515" lon="6.03383">
        <ele>247</ele>
        <time>2020-03-17T11:10:16Z</time>
      </trkpt>
      <trkpt lat="47.23522" lon="6.03382">
        <ele>247</ele>
        <time>2020-03-17T11:10:18Z</time>
      </trkpt>
      <trkpt lat="47.2353" lon="6.03379">
        <ele>248</ele>
        <time>2020-03-17T11:10:20Z</time>
      </trkpt>
      <trkpt lat="47.23543" lon="6.03372">
        <ele>248</ele>
        <time>2020-03-17T11:10:23Z</time>
      </trkpt>
      <trkpt lat="47.23555" lon="6.03363">
        <ele>249</ele>
        <time>2020-03-17T11:10:26Z</time>
      </trkpt>
      <trkpt lat="47.23574" lon="6.03353">
        <ele>250</ele>
        <time>2020-03-17T11:10:30Z</time>
      </trkpt>
      <trkpt lat="47.23588" lon="6.03344">
        <ele>249</ele>
        <time>2020-03-17T11:10:33Z</time>
      </trkpt>
      <trkpt lat="47.23603" lon="6.03337">
        <ele>249</ele>
        <time>2020-03-17T11:10:36Z</time>
      </trkpt>
      <trkpt lat="47.23621" lon="6.03325">
        <ele>248</ele>
        <time>2020-03-17T11:10:40Z</time>
      </trkpt>
      <trkpt lat="47.2363" lon="6.0332">
        <ele>247</ele>
        <time>2020-03-17T11:10:42Z</time>
      </trkpt>
      <trkpt lat="47.23634" lon="6.03318">
        <ele>247</ele>
        <time>2020-03-17T11:10:43Z</time>
      </trkpt>
      <trkpt lat="47.23643" lon="6.03314">
        <ele>247</ele>
        <time>2020-03-17T11:10:45Z</time>
      </trkpt>
      <trkpt lat="47.23659" lon="6.03305">
        <ele>247</ele>
        <time>2020-03-17T11:10:48Z</time>
      </trkpt>
      <trkpt lat="47.23674" lon="6.03296">
        <ele>247</ele>
        <time>2020-03-17T11:10:51Z</time>
      </trkpt>
      <trkpt lat="47.23715" lon="6.03269">
        <ele>247</ele>
        <time>2020-03-17T11:10:59Z</time>
      </trkpt>
      <trkpt lat="47.23734" lon="6.0325">
        <ele>248</ele>
        <time>2020-03-17T11:11:03Z</time>
      </trkpt>
      <trkpt lat="47.23743" lon="6.03243">
        <ele>248</ele>
        <time>2020-03-17T11:11:05Z</time>
      </trkpt>
      <trkpt lat="47.23747" lon="6.03241">
        <ele>248</ele>
        <time>2020-03-17T11:11:06Z</time>
      </trkpt>
      <trkpt lat="47.23764" lon="6.03231">
        <ele>247</ele>
        <time>2020-03-17T11:11:12Z</time>
      </trkpt>
      <trkpt lat="47.23776" lon="6.03237">
        <ele>247</ele>
        <time>2020-03-17T11:11:17Z</time>
      </trkpt>
      <trkpt lat="47.23781" lon="6.03244">
        <ele>246</ele>
        <time>2020-03-17T11:11:20Z</time>
      </trkpt>
      <trkpt lat="47.23784" lon="6.03252">
        <ele>246</ele>
        <time>2020-03-17T11:11:22Z</time>
      </trkpt>
      <trkpt lat="47.23794" lon="6.03278">
        <ele>245</ele>
        <time>2020-03-17T11:11:27Z</time>
      </trkpt>
      <trkpt lat="47.23805" lon="6.03306">
        <ele>244</ele>
        <time>2020-03-17T11:11:32Z</time>
      </trkpt>
      <trkpt lat="47.23815" lon="6.03336">
        <ele>245</ele>
        <time>2020-03-17T11:11:37Z</time>
      </trkpt>
      <trkpt lat="47.2383" lon="6.03377">
        <ele>248</ele>
        <time>2020-03-17T11:11:44Z</time>
      </trkpt>
      <trkpt lat="47.23833" lon="6.03389">
        <ele>248</ele>
        <time>2020-03-17T11:11:46Z</time>
      </trkpt>
      <trkpt lat="47.23832" lon="6.0341">
        <ele>249</ele>
        <time>2020-03-17T11:11:49Z</time>
      </trkpt>
      <trkpt lat="47.2383" lon="6.03422">
        <ele>249</ele>
        <time>2020-03-17T11:11:51Z</time>
      </trkpt>
      <trkpt lat="47.2383" lon="6.03428">
        <ele>249</ele>
        <time>2020-03-17T11:11:52Z</time>
      </trkpt>
      <trkpt lat="47.23832" lon="6.03433">
        <ele>249</ele>
        <time>2020-03-17T11:11:53Z</time>
      </trkpt>
      <trkpt lat="47.23838" lon="6.03448">
        <ele>249</ele>
        <time>2020-03-17T11:11:57Z</time>
      </trkpt>
      <trkpt lat="47.23848" lon="6.03467">
        <ele>248</ele>
        <time>2020-03-17T11:12:03Z</time>
      </trkpt>
      <trkpt lat="47.23855" lon="6.03472">
        <ele>248</ele>
        <time>2020-03-17T11:12:07Z</time>
      </trkpt>
      <trkpt lat="47.23857" lon="6.03474">
        <ele>248</ele>
        <time>2020-03-17T11:12:08Z</time>
      </trkpt>
      <trkpt lat="47.2386" lon="6.03481">
        <ele>247</ele>
        <time>2020-03-17T11:12:12Z</time>
      </trkpt>
      <trkpt lat="47.2386" lon="6.03483">
        <ele>247</ele>
        <time>2020-03-17T11:12:13Z</time>
      </trkpt>
      <trkpt lat="47.23856" lon="6.03488">
        <ele>247</ele>
        <time>2020-03-17T11:12:17Z</time>
      </trkpt>
      <trkpt lat="47.23853" lon="6.0349">
        <ele>247</ele>
        <time>2020-03-17T11:12:19Z</time>
      </trkpt>
      <trkpt lat="47.23843" lon="6.03494">
        <ele>247</ele>
        <time>2020-03-17T11:12:24Z</time>
      </trkpt>
      <trkpt lat="47.2384" lon="6.03497">
        <ele>247</ele>
        <time>2020-03-17T11:12:31Z</time>
      </trkpt>
      <trkpt lat="47.23842" lon="6.03496">
        <ele>247</ele>
        <time>2020-03-17T11:12:32Z</time>
      </trkpt>
      <trkpt lat="47.23849" lon="6.03495">
        <ele>247</ele>
        <time>2020-03-17T11:12:35Z</time>
      </trkpt>
      <trkpt lat="47.23851" lon="6.03495">
        <ele>247</ele>
        <time>2020-03-17T11:12:36Z</time>
      </trkpt>
      <trkpt lat="47.23854" lon="6.03498">
        <ele>247</ele>
        <time>2020-03-17T11:12:40Z</time>
      </trkpt>
      <trkpt lat="47.23856" lon="6.03499">
        <ele>247</ele>
        <time>2020-03-17T11:12:41Z</time>
      </trkpt>
      <trkpt lat="47.23857" lon="6.03494">
        <ele>247</ele>
        <time>2020-03-17T11:12:44Z</time>
      </trkpt>
      <trkpt lat="47.2385" lon="6.0349">
        <ele>247</ele>
        <time>2020-03-17T11:12:49Z</time>
      </trkpt>
      <trkpt lat="47.23847" lon="6.03491">
        <ele>247</ele>
        <time>2020-03-17T11:12:50Z</time>
      </trkpt>
      <trkpt lat="47.23844" lon="6.03493">
        <ele>247</ele>
        <time>2020-03-17T11:12:51Z</time>
      </trkpt>
      <trkpt lat="47.23837" lon="6.03498">
        <ele>247</ele>
        <time>2020-03-17T11:12:53Z</time>
      </trkpt>
      <trkpt lat="47.23807" lon="6.03515">
        <ele>248</ele>
        <time>2020-03-17T11:13:00Z</time>
      </trkpt>
      <trkpt lat="47.23792" lon="6.03522">
        <ele>247</ele>
        <time>2020-03-17T11:13:03Z</time>
      </trkpt>
      <trkpt lat="47.23774" lon="6.03531">
        <ele>246</ele>
        <time>2020-03-17T11:13:07Z</time>
      </trkpt>
      <trkpt lat="47.23742" lon="6.03549">
        <ele>248</ele>
        <time>2020-03-17T11:13:14Z</time>
      </trkpt>
      <trkpt lat="47.23734" lon="6.03554">
        <ele>248</ele>
        <time>2020-03-17T11:13:16Z</time>
      </trkpt>
      <trkpt lat="47.23726" lon="6.03557">
        <ele>248</ele>
        <time>2020-03-17T11:13:18Z</time>
      </trkpt>
      <trkpt lat="47.2371" lon="6.03561">
        <ele>248</ele>
        <time>2020-03-17T11:13:22Z</time>
      </trkpt>
      <trkpt lat="47.23696" lon="6.03566">
        <ele>248</ele>
        <time>2020-03-17T11:13:25Z</time>
      </trkpt>
      <trkpt lat="47.23689" lon="6.03572">
        <ele>247</ele>
        <time>2020-03-17T11:13:27Z</time>
      </trkpt>
      <trkpt lat="47.23681" lon="6.03568">
        <ele>247</ele>
        <time>2020-03-17T11:13:30Z</time>
      </trkpt>
      <trkpt lat="47.2367" lon="6.03562">
        <ele>247</ele>
        <time>2020-03-17T11:13:34Z</time>
      </trkpt>
      <trkpt lat="47.23659" lon="6.03567">
        <ele>247</ele>
        <time>2020-03-17T11:13:37Z</time>
      </trkpt>
      <trkpt lat="47.23651" lon="6.03571">
        <ele>247</ele>
        <time>2020-03-17T11:13:39Z</time>
      </trkpt>
      <trkpt lat="47.23647" lon="6.03573">
        <ele>247</ele>
        <time>2020-03-17T11:13:40Z</time>
      </trkpt>
      <trkpt lat="47.2363" lon="6.03583">
        <ele>247</ele>
        <time>2020-03-17T11:13:44Z</time>
      </trkpt>
      <trkpt lat="47.23626" lon="6.03584">
        <ele>247</ele>
        <time>2020-03-17T11:13:45Z</time>
      </trkpt>
      <trkpt lat="47.23622" lon="6.03586">
        <ele>247</ele>
        <time>2020-03-17T11:13:46Z</time>
      </trkpt>
      <trkpt lat="47.23618" lon="6.03587">
        <ele>248</ele>
        <time>2020-03-17T11:13:47Z</time>
      </trkpt>
      <trkpt lat="47.23604" lon="6.03591">
        <ele>248</ele>
        <time>2020-03-17T11:13:50Z</time>
      </trkpt>
      <trkpt lat="47.23594" lon="6.03593">
        <ele>249</ele>
        <time>2020-03-17T11:13:52Z</time>
      </trkpt>
      <trkpt lat="47.23585" lon="6.03594">
        <ele>249</ele>
        <time>2020-03-17T11:13:54Z</time>
      </trkpt>
      <trkpt lat="47.23574" lon="6.03596">
        <ele>251</ele>
        <time>2020-03-17T11:13:57Z</time>
      </trkpt>
      <trkpt lat="47.23552" lon="6.03601">
        <ele>254</ele>
        <time>2020-03-17T11:14:02Z</time>
      </trkpt>
      <trkpt lat="47.23543" lon="6.03603">
        <ele>253</ele>
        <time>2020-03-17T11:14:04Z</time>
      </trkpt>
      <trkpt lat="47.23539" lon="6.03605">
        <ele>253</ele>
        <time>2020-03-17T11:14:05Z</time>
      </trkpt>
      <trkpt lat="47.23529" lon="6.03608">
        <ele>252</ele>
        <time>2020-03-17T11:14:07Z</time>
      </trkpt>
      <trkpt lat="47.23515" lon="6.03613">
        <ele>251</ele>
        <time>2020-03-17T11:14:10Z</time>
      </trkpt>
      <trkpt lat="47.23505" lon="6.03617">
        <ele>250</ele>
        <time>2020-03-17T11:14:12Z</time>
      </trkpt>
      <trkpt lat="47.23496" lon="6.03622">
        <ele>250</ele>
        <time>2020-03-17T11:14:14Z</time>
      </trkpt>
      <trkpt lat="47.23482" lon="6.03632">
        <ele>249</ele>
        <time>2020-03-17T11:14:17Z</time>
      </trkpt>
      <trkpt lat="47.23478" lon="6.03636">
        <ele>249</ele>
        <time>2020-03-17T11:14:18Z</time>
      </trkpt>
      <trkpt lat="47.23474" lon="6.03641">
        <ele>249</ele>
        <time>2020-03-17T11:14:19Z</time>
      </trkpt>
      <trkpt lat="47.23448" lon="6.03667">
        <ele>252</ele>
        <time>2020-03-17T11:14:25Z</time>
      </trkpt>
      <trkpt lat="47.2342" lon="6.03691">
        <ele>255</ele>
        <time>2020-03-17T11:14:31Z</time>
      </trkpt>
      <trkpt lat="47.23377" lon="6.03718">
        <ele>251</ele>
        <time>2020-03-17T11:14:40Z</time>
      </trkpt>
      <trkpt lat="47.23345" lon="6.03737">
        <ele>246</ele>
        <time>2020-03-17T11:14:47Z</time>
      </trkpt>
      <trkpt lat="47.23307" lon="6.03771">
        <ele>249</ele>
        <time>2020-03-17T11:14:56Z</time>
      </trkpt>
      <trkpt lat="47.23295" lon="6.03783">
        <ele>249</ele>
        <time>2020-03-17T11:14:59Z</time>
      </trkpt>
      <trkpt lat="47.23272" lon="6.03806">
        <ele>250</ele>
        <time>2020-03-17T11:15:05Z</time>
      </trkpt>
      <trkpt lat="47.23256" lon="6.03822">
        <ele>251</ele>
        <time>2020-03-17T11:15:09Z</time>
      </trkpt>
      <trkpt lat="47.23244" lon="6.03834">
        <ele>252</ele>
        <time>2020-03-17T11:15:12Z</time>
      </trkpt>
      <trkpt lat="47.23209" lon="6.03868">
        <ele>255</ele>
        <time>2020-03-17T11:15:21Z</time>
      </trkpt>
      <trkpt lat="47.23179" lon="6.03897">
        <ele>252</ele>
        <time>2020-03-17T11:15:29Z</time>
      </trkpt>
      <trkpt lat="47.23153" lon="6.03922">
        <ele>248</ele>
        <time>2020-03-17T11:15:36Z</time>
      </trkpt>
      <trkpt lat="47.23149" lon="6.03926">
        <ele>248</ele>
        <time>2020-03-17T11:15:37Z</time>
      </trkpt>
      <trkpt lat="47.23134" lon="6.03941">
        <ele>248</ele>
        <time>2020-03-17T11:15:41Z</time>
      </trkpt>
      <trkpt lat="47.23127" lon="6.03949">
        <ele>249</ele>
        <time>2020-03-17T11:15:43Z</time>
      </trkpt>
      <trkpt lat="47.23105" lon="6.03972">
        <ele>253</ele>
        <time>2020-03-17T11:15:49Z</time>
      </trkpt>
      <trkpt lat="47.23082" lon="6.03997">
        <ele>258</ele>
        <time>2020-03-17T11:15:55Z</time>
      </trkpt>
      <trkpt lat="47.23073" lon="6.04006">
        <ele>258</ele>
        <time>2020-03-17T11:15:57Z</time>
      </trkpt>
      <trkpt lat="47.23038" lon="6.04039">
        <ele>253</ele>
        <time>2020-03-17T11:16:05Z</time>
      </trkpt>
      <trkpt lat="47.23026" lon="6.04052">
        <ele>252</ele>
        <time>2020-03-17T11:16:08Z</time>
      </trkpt>
      <trkpt lat="47.22996" lon="6.04082">
        <ele>250</ele>
        <time>2020-03-17T11:16:15Z</time>
      </trkpt>
      <trkpt lat="47.22972" lon="6.04106">
        <ele>249</ele>
        <time>2020-03-17T11:16:21Z</time>
      </trkpt>
      <trkpt lat="47.22946" lon="6.04143">
        <ele>249</ele>
        <time>2020-03-17T11:16:29Z</time>
      </trkpt>
      <trkpt lat="47.22935" lon="6.04164">
        <ele>250</ele>
        <time>2020-03-17T11:16:34Z</time>
      </trkpt>
      <trkpt lat="47.22927" lon="6.04178">
        <ele>250</ele>
        <time>2020-03-17T11:16:39Z</time>
      </trkpt>
      <trkpt lat="47.22925" lon="6.04185">
        <ele>250</ele>
        <time>2020-03-17T11:16:41Z</time>
      </trkpt>
      <trkpt lat="47.22925" lon="6.04203">
        <ele>251</ele>
        <time>2020-03-17T11:16:46Z</time>
      </trkpt>
      <trkpt lat="47.22926" lon="6.04206">
        <ele>252</ele>
        <time>2020-03-17T11:16:47Z</time>
      </trkpt>
      <trkpt lat="47.22925" lon="6.04216">
        <ele>252</ele>
        <time>2020-03-17T11:16:50Z</time>
      </trkpt>
      <trkpt lat="47.22921" lon="6.04228">
        <ele>253</ele>
        <time>2020-03-17T11:16:54Z</time>
      </trkpt>
      <trkpt lat="47.22913" lon="6.04244">
        <ele>253</ele>
        <time>2020-03-17T11:17:00Z</time>
      </trkpt>
      <trkpt lat="47.22911" lon="6.04247">
        <ele>253</ele>
        <time>2020-03-17T11:17:01Z</time>
      </trkpt>
      <trkpt lat="47.22904" lon="6.04263">
        <ele>254</ele>
        <time>2020-03-17T11:17:06Z</time>
      </trkpt>
      <trkpt lat="47.22902" lon="6.04274">
        <ele>254</ele>
        <time>2020-03-17T11:17:10Z</time>
      </trkpt>
      <trkpt lat="47.22896" lon="6.04295">
        <ele>253</ele>
        <time>2020-03-17T11:17:16Z</time>
      </trkpt>
      <trkpt lat="47.22894" lon="6.04305">
        <ele>252</ele>
        <time>2020-03-17T11:17:19Z</time>
      </trkpt>
      <trkpt lat="47.22889" lon="6.04332">
        <ele>252</ele>
        <time>2020-03-17T11:17:27Z</time>
      </trkpt>
      <trkpt lat="47.22889" lon="6.04335">
        <ele>252</ele>
        <time>2020-03-17T11:17:28Z</time>
      </trkpt>
      <trkpt lat="47.2289" lon="6.04352">
        <ele>253</ele>
        <time>2020-03-17T11:17:34Z</time>
      </trkpt>
      <trkpt lat="47.2289" lon="6.04359">
        <ele>254</ele>
        <time>2020-03-17T11:17:36Z</time>
      </trkpt>
      <trkpt lat="47.22891" lon="6.04377">
        <ele>256</ele>
        <time>2020-03-17T11:17:42Z</time>
      </trkpt>
      <trkpt lat="47.22892" lon="6.04383">
        <ele>257</ele>
        <time>2020-03-17T11:17:44Z</time>
      </trkpt>
      <trkpt lat="47.22892" lon="6.04389">
        <ele>258</ele>
        <time>2020-03-17T11:17:46Z</time>
      </trkpt>
      <trkpt lat="47.22892" lon="6.04398">
        <ele>259</ele>
        <time>2020-03-17T11:17:49Z</time>
      </trkpt>
      <trkpt lat="47.22893" lon="6.04403">
        <ele>260</ele>
        <time>2020-03-17T11:17:51Z</time>
      </trkpt>
      <trkpt lat="47.22894" lon="6.04415">
        <ele>262</ele>
        <time>2020-03-17T11:17:55Z</time>
      </trkpt>
      <trkpt lat="47.22896" lon="6.04426">
        <ele>264</ele>
        <time>2020-03-17T11:17:59Z</time>
      </trkpt>
      <trkpt lat="47.22896" lon="6.04429">
        <ele>264</ele>
        <time>2020-03-17T11:18:00Z</time>
      </trkpt>
      <trkpt lat="47.22898" lon="6.04435">
        <ele>265</ele>
        <time>2020-03-17T11:18:02Z</time>
      </trkpt>
      <trkpt lat="47.229" lon="6.04448">
        <ele>267</ele>
        <time>2020-03-17T11:18:07Z</time>
      </trkpt>
      <trkpt lat="47.22901" lon="6.04453">
        <ele>267</ele>
        <time>2020-03-17T11:18:09Z</time>
      </trkpt>
      <trkpt lat="47.22901" lon="6.04469">
        <ele>267</ele>
        <time>2020-03-17T11:18:14Z</time>
      </trkpt>
      <trkpt lat="47.22901" lon="6.04472">
        <ele>267</ele>
        <time>2020-03-17T11:18:15Z</time>
      </trkpt>
      <trkpt lat="47.22895" lon="6.04502">
        <ele>266</ele>
        <time>2020-03-17T11:18:22Z</time>
      </trkpt>
      <trkpt lat="47.22893" lon="6.04516">
        <ele>266</ele>
        <time>2020-03-17T11:18:24Z</time>
      </trkpt>
      <trkpt lat="47.22893" lon="6.04537">
        <ele>268</ele>
        <time>2020-03-17T11:18:27Z</time>
      </trkpt>
      <trkpt lat="47.22894" lon="6.04543">
        <ele>269</ele>
        <time>2020-03-17T11:18:28Z</time>
      </trkpt>
      <trkpt lat="47.22895" lon="6.04556">
        <ele>271</ele>
        <time>2020-03-17T11:18:31Z</time>
      </trkpt>
      <trkpt lat="47.22896" lon="6.04573">
        <ele>272</ele>
        <time>2020-03-17T11:18:37Z</time>
      </trkpt>
      <trkpt lat="47.22897" lon="6.04576">
        <ele>272</ele>
        <time>2020-03-17T11:18:38Z</time>
      </trkpt>
      <trkpt lat="47.22897" lon="6.04599">
        <ele>272</ele>
        <time>2020-03-17T11:18:45Z</time>
      </trkpt>
      <trkpt lat="47.22899" lon="6.04626">
        <ele>273</ele>
        <time>2020-03-17T11:18:52Z</time>
      </trkpt>
      <trkpt lat="47.229" lon="6.04632">
        <ele>274</ele>
        <time>2020-03-17T11:18:54Z</time>
      </trkpt>
      <trkpt lat="47.22905" lon="6.04646">
        <ele>276</ele>
        <time>2020-03-17T11:18:59Z</time>
      </trkpt>
      <trkpt lat="47.2291" lon="6.0466">
        <ele>277</ele>
        <time>2020-03-17T11:19:05Z</time>
      </trkpt>
      <trkpt lat="47.22912" lon="6.04664">
        <ele>278</ele>
        <time>2020-03-17T11:19:07Z</time>
      </trkpt>
      <trkpt lat="47.22914" lon="6.04672">
        <ele>279</ele>
        <time>2020-03-17T11:19:10Z</time>
      </trkpt>
      <trkpt lat="47.22917" lon="6.04679">
        <ele>280</ele>
        <time>2020-03-17T11:19:13Z</time>
      </trkpt>
      <trkpt lat="47.22919" lon="6.04683">
        <ele>281</ele>
        <time>2020-03-17T11:19:15Z</time>
      </trkpt>
      <trkpt lat="47.2292" lon="6.04687">
        <ele>282</ele>
        <time>2020-03-17T11:19:17Z</time>
      </trkpt>
      <trkpt lat="47.22922" lon="6.04691">
        <ele>283</ele>
        <time>2020-03-17T11:19:19Z</time>
      </trkpt>
      <trkpt lat="47.22924" lon="6.04697">
        <ele>284</ele>
        <time>2020-03-17T11:19:22Z</time>
      </trkpt>
      <trkpt lat="47.22926" lon="6.04704">
        <ele>285</ele>
        <time>2020-03-17T11:19:25Z</time>
      </trkpt>
      <trkpt lat="47.22927" lon="6.04707">
        <ele>286</ele>
        <time>2020-03-17T11:19:26Z</time>
      </trkpt>
      <trkpt lat="47.22929" lon="6.04711">
        <ele>287</ele>
        <time>2020-03-17T11:19:28Z</time>
      </trkpt>
      <trkpt lat="47.2293" lon="6.04716">
        <ele>288</ele>
        <time>2020-03-17T11:19:30Z</time>
      </trkpt>
      <trkpt lat="47.22932" lon="6.04721">
        <ele>290</ele>
        <time>2020-03-17T11:19:32Z</time>
      </trkpt>
      <trkpt lat="47.22936" lon="6.04729">
        <ele>291</ele>
        <time>2020-03-17T11:19:36Z</time>
      </trkpt>
      <trkpt lat="47.22936" lon="6.04731">
        <ele>292</ele>
        <time>2020-03-17T11:19:37Z</time>
      </trkpt>
      <trkpt lat="47.22938" lon="6.04734">
        <ele>293</ele>
        <time>2020-03-17T11:19:39Z</time>
      </trkpt>
      <trkpt lat="47.2294" lon="6.04739">
        <ele>294</ele>
        <time>2020-03-17T11:19:42Z</time>
      </trkpt>
      <trkpt lat="47.22942" lon="6.04741">
        <ele>295</ele>
        <time>2020-03-17T11:19:43Z</time>
      </trkpt>
      <trkpt lat="47.22943" lon="6.04745">
        <ele>296</ele>
        <time>2020-03-17T11:19:45Z</time>
      </trkpt>
      <trkpt lat="47.22945" lon="6.04754">
        <ele>296</ele>
        <time>2020-03-17T11:19:49Z</time>
      </trkpt>
      <trkpt lat="47.22946" lon="6.04756">
        <ele>296</ele>
        <time>2020-03-17T11:19:50Z</time>
      </trkpt>
      <trkpt lat="47.22947" lon="6.0476">
        <ele>297</ele>
        <time>2020-03-17T11:19:52Z</time>
      </trkpt>
      <trkpt lat="47.22948" lon="6.04765">
        <ele>297</ele>
        <time>2020-03-17T11:19:54Z</time>
      </trkpt>
      <trkpt lat="47.2295" lon="6.04773">
        <ele>297</ele>
        <time>2020-03-17T11:19:57Z</time>
      </trkpt>
      <trkpt lat="47.22951" lon="6.04778">
        <ele>297</ele>
        <time>2020-03-17T11:19:59Z</time>
      </trkpt>
      <trkpt lat="47.22954" lon="6.04789">
        <ele>297</ele>
        <time>2020-03-17T11:20:04Z</time>
      </trkpt>
      <trkpt lat="47.22955" lon="6.04792">
        <ele>297</ele>
        <time>2020-03-17T11:24:11Z</time>
      </trkpt>
      <trkpt lat="47.22953" lon="6.0479">
        <ele>297</ele>
        <time>2020-03-17T11:24:12Z</time>
      </trkpt>
      <trkpt lat="47.22949" lon="6.04789">
        <ele>296</ele>
        <time>2020-03-17T11:24:14Z</time>
      </trkpt>
      <trkpt lat="47.22948" lon="6.04791">
        <ele>296</ele>
        <time>2020-03-17T11:24:15Z</time>
      </trkpt>
      <trkpt lat="47.22946" lon="6.04799">
        <ele>295</ele>
        <time>2020-03-17T11:24:20Z</time>
      </trkpt>
      <trkpt lat="47.22946" lon="6.04802">
        <ele>295</ele>
        <time>2020-03-17T11:24:22Z</time>
      </trkpt>
      <trkpt lat="47.22947" lon="6.04806">
        <ele>295</ele>
        <time>2020-03-17T11:24:24Z</time>
      </trkpt>
      <trkpt lat="47.22947" lon="6.04805">
        <ele>295</ele>
        <time>2020-03-17T11:24:25Z</time>
      </trkpt>
      <trkpt lat="47.22947" lon="6.04803">
        <ele>295</ele>
        <time>2020-03-17T11:24:26Z</time>
      </trkpt>
      <trkpt lat="47.22947" lon="6.04799">
        <ele>295</ele>
        <time>2020-03-17T11:24:28Z</time>
      </trkpt>
      <trkpt lat="47.22948" lon="6.04793">
        <ele>296</ele>
        <time>2020-03-17T11:24:30Z</time>
      </trkpt>
      <trkpt lat="47.22948" lon="6.0479">
        <ele>296</ele>
        <time>2020-03-17T11:24:31Z</time>
      </trkpt>
      <trkpt lat="47.22949" lon="6.04787">
        <ele>296</ele>
        <time>2020-03-17T11:24:33Z</time>
      </trkpt>
      <trkpt lat="47.22952" lon="6.04791">
        <ele>297</ele>
        <time>2020-03-17T11:24:35Z</time>
      </trkpt>
      <trkpt lat="47.22954" lon="6.04796">
        <ele>297</ele>
        <time>2020-03-17T11:24:41Z</time>
      </trkpt>
      <trkpt lat="47.22947" lon="6.04793">
        <ele>296</ele>
        <time>2020-03-17T11:24:59Z</time>
      </trkpt>
      <trkpt lat="47.22944" lon="6.04793">
        <ele>295</ele>
        <time>2020-03-17T11:25:01Z</time>
      </trkpt>
      <trkpt lat="47.22924" lon="6.04786">
        <ele>289</ele>
        <time>2020-03-17T11:25:16Z</time>
      </trkpt>
    </trkseg>
  </trk>
</gpx>